<?xml version="1.0" encoding="UTF-8" standalone="no" ?>
<gpx xmlns="http://www.topografix.com/GPX/1/1" xmlns:xsi="http://www.w3.org/2001/XMLSchema-instance" xsi:schemaLocation="http://www.topografix.com/GPX/1/1 http://www.topografix.com/GPX/1/1/gpx.xsd" version="1.1" creator="VisuGPX - https://www.visugpx.com">
  <metadata>
    <name>Bourbonne</name>
    <desc><![CDATA[[url]https://picasaweb.google.com/105108571230570121986/Ariege03#6059391668107679650[/url]
[img]https://lh4.googleusercontent.com/-jB1LJTCUEn8/VBdPEnOC9iI/AAAAAAAATSE/YW7UO7w0F8M/s800/2014.09.13%2520Bourbonne%2520%252817%2529.JPG[/img]
]]></desc>
  </metadata>
  <trk>
    <name><![CDATA[Bourbonne]]></name>
    <trkseg>
      <trkpt lat="42.70453" lon="1.53204">
        <ele>1935</ele>
        <time>2014-09-14T05:07:38Z</time>
      </trkpt>
      <trkpt lat="42.70448" lon="1.53201">
        <ele>1935</ele>
        <time>2014-09-14T05:07:44Z</time>
      </trkpt>
      <trkpt lat="42.70447" lon="1.532">
        <ele>1935</ele>
        <time>2014-09-14T05:07:46Z</time>
      </trkpt>
      <trkpt lat="42.70435" lon="1.53196">
        <ele>1935</ele>
        <time>2014-09-14T05:08:00Z</time>
      </trkpt>
      <trkpt lat="42.70423" lon="1.53194">
        <ele>1934</ele>
        <time>2014-09-14T05:08:13Z</time>
      </trkpt>
      <trkpt lat="42.70411" lon="1.532">
        <ele>1932</ele>
        <time>2014-09-14T05:08:28Z</time>
      </trkpt>
      <trkpt lat="42.70399" lon="1.532">
        <ele>1930</ele>
        <time>2014-09-14T05:08:41Z</time>
      </trkpt>
      <trkpt lat="42.70389" lon="1.53203">
        <ele>1929</ele>
        <time>2014-09-14T05:08:55Z</time>
      </trkpt>
      <trkpt lat="42.70377" lon="1.53208">
        <ele>1928</ele>
        <time>2014-09-14T05:09:09Z</time>
      </trkpt>
      <trkpt lat="42.70367" lon="1.53214">
        <ele>1927</ele>
        <time>2014-09-14T05:09:23Z</time>
      </trkpt>
      <trkpt lat="42.70358" lon="1.53219">
        <ele>1925</ele>
        <time>2014-09-14T05:09:36Z</time>
      </trkpt>
      <trkpt lat="42.7035" lon="1.53223">
        <ele>1924</ele>
        <time>2014-09-14T05:09:48Z</time>
      </trkpt>
      <trkpt lat="42.7034" lon="1.53227">
        <ele>1923</ele>
        <time>2014-09-14T05:10:02Z</time>
      </trkpt>
      <trkpt lat="42.70339" lon="1.53228">
        <ele>1922</ele>
        <time>2014-09-14T05:10:04Z</time>
      </trkpt>
      <trkpt lat="42.70331" lon="1.5323">
        <ele>1921</ele>
        <time>2014-09-14T05:10:16Z</time>
      </trkpt>
      <trkpt lat="42.70321" lon="1.53237">
        <ele>1922</ele>
        <time>2014-09-14T05:10:30Z</time>
      </trkpt>
      <trkpt lat="42.70316" lon="1.53238">
        <ele>1922</ele>
        <time>2014-09-14T05:10:37Z</time>
      </trkpt>
      <trkpt lat="42.70306" lon="1.53244">
        <ele>1921</ele>
        <time>2014-09-14T05:10:51Z</time>
      </trkpt>
      <trkpt lat="42.70305" lon="1.53245">
        <ele>1921</ele>
        <time>2014-09-14T05:10:52Z</time>
      </trkpt>
      <trkpt lat="42.70303" lon="1.53244">
        <ele>1922</ele>
        <time>2014-09-14T05:10:54Z</time>
      </trkpt>
      <trkpt lat="42.70291" lon="1.53251">
        <ele>1922</ele>
        <time>2014-09-14T05:11:08Z</time>
      </trkpt>
      <trkpt lat="42.7029" lon="1.53253">
        <ele>1922</ele>
        <time>2014-09-14T05:11:10Z</time>
      </trkpt>
      <trkpt lat="42.70276" lon="1.53256">
        <ele>1923</ele>
        <time>2014-09-14T05:11:26Z</time>
      </trkpt>
      <trkpt lat="42.70274" lon="1.53257">
        <ele>1922</ele>
        <time>2014-09-14T05:11:28Z</time>
      </trkpt>
      <trkpt lat="42.70259" lon="1.53264">
        <ele>1922</ele>
        <time>2014-09-14T05:11:44Z</time>
      </trkpt>
      <trkpt lat="42.7025" lon="1.53265">
        <ele>1922</ele>
        <time>2014-09-14T05:11:57Z</time>
      </trkpt>
      <trkpt lat="42.7024" lon="1.53265">
        <ele>1922</ele>
        <time>2014-09-14T05:12:11Z</time>
      </trkpt>
      <trkpt lat="42.70233" lon="1.5326">
        <ele>1924</ele>
        <time>2014-09-14T05:12:24Z</time>
      </trkpt>
      <trkpt lat="42.70224" lon="1.53251">
        <ele>1925</ele>
        <time>2014-09-14T05:12:37Z</time>
      </trkpt>
      <trkpt lat="42.70217" lon="1.53252">
        <ele>1928</ele>
        <time>2014-09-14T05:12:48Z</time>
      </trkpt>
      <trkpt lat="42.70204" lon="1.53256">
        <ele>1927</ele>
        <time>2014-09-14T05:13:05Z</time>
      </trkpt>
      <trkpt lat="42.702" lon="1.53257">
        <ele>1926</ele>
        <time>2014-09-14T05:13:13Z</time>
      </trkpt>
      <trkpt lat="42.7019" lon="1.53263">
        <ele>1922</ele>
        <time>2014-09-14T05:13:27Z</time>
      </trkpt>
      <trkpt lat="42.70181" lon="1.53266">
        <ele>1921</ele>
        <time>2014-09-14T05:13:42Z</time>
      </trkpt>
      <trkpt lat="42.70174" lon="1.53267">
        <ele>1920</ele>
        <time>2014-09-14T05:13:57Z</time>
      </trkpt>
      <trkpt lat="42.70166" lon="1.5327">
        <ele>1920</ele>
        <time>2014-09-14T05:14:05Z</time>
      </trkpt>
      <trkpt lat="42.70162" lon="1.53269">
        <ele>1920</ele>
        <time>2014-09-14T05:14:09Z</time>
      </trkpt>
      <trkpt lat="42.70151" lon="1.53272">
        <ele>1917</ele>
        <time>2014-09-14T05:14:24Z</time>
      </trkpt>
      <trkpt lat="42.70145" lon="1.53275">
        <ele>1915</ele>
        <time>2014-09-14T05:14:36Z</time>
      </trkpt>
      <trkpt lat="42.7014" lon="1.53277">
        <ele>1914</ele>
        <time>2014-09-14T05:14:43Z</time>
      </trkpt>
      <trkpt lat="42.7013" lon="1.53279">
        <ele>1911</ele>
        <time>2014-09-14T05:14:56Z</time>
      </trkpt>
      <trkpt lat="42.7012" lon="1.53279">
        <ele>1908</ele>
        <time>2014-09-14T05:15:12Z</time>
      </trkpt>
      <trkpt lat="42.70114" lon="1.5328">
        <ele>1906</ele>
        <time>2014-09-14T05:15:21Z</time>
      </trkpt>
      <trkpt lat="42.70107" lon="1.53279">
        <ele>1904</ele>
        <time>2014-09-14T05:15:36Z</time>
      </trkpt>
      <trkpt lat="42.701" lon="1.53279">
        <ele>1902</ele>
        <time>2014-09-14T05:15:51Z</time>
      </trkpt>
      <trkpt lat="42.70091" lon="1.53279">
        <ele>1899</ele>
        <time>2014-09-14T05:16:07Z</time>
      </trkpt>
      <trkpt lat="42.70078" lon="1.53274">
        <ele>1898</ele>
        <time>2014-09-14T05:16:21Z</time>
      </trkpt>
      <trkpt lat="42.70078" lon="1.53274">
        <ele>1897</ele>
        <time>2014-09-14T05:16:22Z</time>
      </trkpt>
      <trkpt lat="42.70064" lon="1.53273">
        <ele>1897</ele>
        <time>2014-09-14T05:16:36Z</time>
      </trkpt>
      <trkpt lat="42.70051" lon="1.53268">
        <ele>1898</ele>
        <time>2014-09-14T05:16:51Z</time>
      </trkpt>
      <trkpt lat="42.70044" lon="1.5327">
        <ele>1901</ele>
        <time>2014-09-14T05:17:03Z</time>
      </trkpt>
      <trkpt lat="42.7004" lon="1.53277">
        <ele>1902</ele>
        <time>2014-09-14T05:17:15Z</time>
      </trkpt>
      <trkpt lat="42.70032" lon="1.53282">
        <ele>1901</ele>
        <time>2014-09-14T05:17:31Z</time>
      </trkpt>
      <trkpt lat="42.70029" lon="1.5328">
        <ele>1900</ele>
        <time>2014-09-14T05:17:40Z</time>
      </trkpt>
      <trkpt lat="42.70027" lon="1.53279">
        <ele>1899</ele>
        <time>2014-09-14T05:17:42Z</time>
      </trkpt>
      <trkpt lat="42.70023" lon="1.53283">
        <ele>1899</ele>
        <time>2014-09-14T05:17:48Z</time>
      </trkpt>
      <trkpt lat="42.70021" lon="1.53283">
        <ele>1898</ele>
        <time>2014-09-14T05:17:50Z</time>
      </trkpt>
      <trkpt lat="42.70007" lon="1.53279">
        <ele>1898</ele>
        <time>2014-09-14T05:18:05Z</time>
      </trkpt>
      <trkpt lat="42.7" lon="1.53277">
        <ele>1896</ele>
        <time>2014-09-14T05:18:20Z</time>
      </trkpt>
      <trkpt lat="42.69992" lon="1.53276">
        <ele>1894</ele>
        <time>2014-09-14T05:18:32Z</time>
      </trkpt>
      <trkpt lat="42.69983" lon="1.53275">
        <ele>1892</ele>
        <time>2014-09-14T05:18:47Z</time>
      </trkpt>
      <trkpt lat="42.6998" lon="1.53276">
        <ele>1891</ele>
        <time>2014-09-14T05:18:51Z</time>
      </trkpt>
      <trkpt lat="42.69977" lon="1.5328">
        <ele>1890</ele>
        <time>2014-09-14T05:18:56Z</time>
      </trkpt>
      <trkpt lat="42.69973" lon="1.53283">
        <ele>1890</ele>
        <time>2014-09-14T05:19:01Z</time>
      </trkpt>
      <trkpt lat="42.69962" lon="1.53284">
        <ele>1888</ele>
        <time>2014-09-14T05:19:13Z</time>
      </trkpt>
      <trkpt lat="42.69951" lon="1.53286">
        <ele>1886</ele>
        <time>2014-09-14T05:19:27Z</time>
      </trkpt>
      <trkpt lat="42.6994" lon="1.53282">
        <ele>1885</ele>
        <time>2014-09-14T05:19:40Z</time>
      </trkpt>
      <trkpt lat="42.6993" lon="1.53275">
        <ele>1883</ele>
        <time>2014-09-14T05:19:56Z</time>
      </trkpt>
      <trkpt lat="42.69926" lon="1.53272">
        <ele>1882</ele>
        <time>2014-09-14T05:20:00Z</time>
      </trkpt>
      <trkpt lat="42.69919" lon="1.53271">
        <ele>1882</ele>
        <time>2014-09-14T05:20:07Z</time>
      </trkpt>
      <trkpt lat="42.69915" lon="1.53269">
        <ele>1881</ele>
        <time>2014-09-14T05:20:10Z</time>
      </trkpt>
      <trkpt lat="42.69901" lon="1.5327">
        <ele>1882</ele>
        <time>2014-09-14T05:20:24Z</time>
      </trkpt>
      <trkpt lat="42.69892" lon="1.53276">
        <ele>1882</ele>
        <time>2014-09-14T05:20:34Z</time>
      </trkpt>
      <trkpt lat="42.69885" lon="1.53288">
        <ele>1883</ele>
        <time>2014-09-14T05:20:48Z</time>
      </trkpt>
      <trkpt lat="42.69878" lon="1.53296">
        <ele>1884</ele>
        <time>2014-09-14T05:21:01Z</time>
      </trkpt>
      <trkpt lat="42.69873" lon="1.53297">
        <ele>1884</ele>
        <time>2014-09-14T05:21:10Z</time>
      </trkpt>
      <trkpt lat="42.69857" lon="1.53298">
        <ele>1883</ele>
        <time>2014-09-14T05:21:25Z</time>
      </trkpt>
      <trkpt lat="42.69851" lon="1.53303">
        <ele>1883</ele>
        <time>2014-09-14T05:21:32Z</time>
      </trkpt>
      <trkpt lat="42.69839" lon="1.53312">
        <ele>1882</ele>
        <time>2014-09-14T05:21:48Z</time>
      </trkpt>
      <trkpt lat="42.69838" lon="1.53313">
        <ele>1882</ele>
        <time>2014-09-14T05:21:49Z</time>
      </trkpt>
      <trkpt lat="42.69827" lon="1.53322">
        <ele>1884</ele>
        <time>2014-09-14T05:22:04Z</time>
      </trkpt>
      <trkpt lat="42.6983" lon="1.53329">
        <ele>1885</ele>
        <time>2014-09-14T05:22:18Z</time>
      </trkpt>
      <trkpt lat="42.69827" lon="1.53338">
        <ele>1889</ele>
        <time>2014-09-14T05:22:32Z</time>
      </trkpt>
      <trkpt lat="42.6982" lon="1.53344">
        <ele>1890</ele>
        <time>2014-09-14T05:22:45Z</time>
      </trkpt>
      <trkpt lat="42.69812" lon="1.53348">
        <ele>1889</ele>
        <time>2014-09-14T05:22:58Z</time>
      </trkpt>
      <trkpt lat="42.69805" lon="1.53349">
        <ele>1887</ele>
        <time>2014-09-14T05:23:06Z</time>
      </trkpt>
      <trkpt lat="42.69801" lon="1.53348">
        <ele>1886</ele>
        <time>2014-09-14T05:23:10Z</time>
      </trkpt>
      <trkpt lat="42.69794" lon="1.5335">
        <ele>1886</ele>
        <time>2014-09-14T05:23:25Z</time>
      </trkpt>
      <trkpt lat="42.69791" lon="1.53355">
        <ele>1886</ele>
        <time>2014-09-14T05:23:43Z</time>
      </trkpt>
      <trkpt lat="42.69785" lon="1.53357">
        <ele>1884</ele>
        <time>2014-09-14T05:23:57Z</time>
      </trkpt>
      <trkpt lat="42.69781" lon="1.53359">
        <ele>1883</ele>
        <time>2014-09-14T05:24:08Z</time>
      </trkpt>
      <trkpt lat="42.69773" lon="1.5336">
        <ele>1880</ele>
        <time>2014-09-14T05:24:21Z</time>
      </trkpt>
      <trkpt lat="42.69769" lon="1.53361">
        <ele>1879</ele>
        <time>2014-09-14T05:24:33Z</time>
      </trkpt>
      <trkpt lat="42.69767" lon="1.53361">
        <ele>1879</ele>
        <time>2014-09-14T05:24:38Z</time>
      </trkpt>
      <trkpt lat="42.69763" lon="1.53359">
        <ele>1878</ele>
        <time>2014-09-14T05:24:45Z</time>
      </trkpt>
      <trkpt lat="42.69757" lon="1.53359">
        <ele>1877</ele>
        <time>2014-09-14T05:24:54Z</time>
      </trkpt>
      <trkpt lat="42.69754" lon="1.53357">
        <ele>1876</ele>
        <time>2014-09-14T05:24:59Z</time>
      </trkpt>
      <trkpt lat="42.69752" lon="1.53357">
        <ele>1875</ele>
        <time>2014-09-14T05:25:01Z</time>
      </trkpt>
      <trkpt lat="42.69742" lon="1.53356">
        <ele>1873</ele>
        <time>2014-09-14T05:25:14Z</time>
      </trkpt>
      <trkpt lat="42.69728" lon="1.53357">
        <ele>1872</ele>
        <time>2014-09-14T05:25:27Z</time>
      </trkpt>
      <trkpt lat="42.69719" lon="1.53359">
        <ele>1873</ele>
        <time>2014-09-14T05:25:39Z</time>
      </trkpt>
      <trkpt lat="42.69717" lon="1.5336">
        <ele>1872</ele>
        <time>2014-09-14T05:25:43Z</time>
      </trkpt>
      <trkpt lat="42.69713" lon="1.5336">
        <ele>1872</ele>
        <time>2014-09-14T05:25:47Z</time>
      </trkpt>
      <trkpt lat="42.69703" lon="1.53365">
        <ele>1872</ele>
        <time>2014-09-14T05:26:01Z</time>
      </trkpt>
      <trkpt lat="42.69701" lon="1.53365">
        <ele>1871</ele>
        <time>2014-09-14T05:26:03Z</time>
      </trkpt>
      <trkpt lat="42.69698" lon="1.53363">
        <ele>1872</ele>
        <time>2014-09-14T05:26:08Z</time>
      </trkpt>
      <trkpt lat="42.69689" lon="1.53372">
        <ele>1873</ele>
        <time>2014-09-14T05:26:22Z</time>
      </trkpt>
      <trkpt lat="42.69681" lon="1.53375">
        <ele>1873</ele>
        <time>2014-09-14T05:26:30Z</time>
      </trkpt>
      <trkpt lat="42.69672" lon="1.53376">
        <ele>1872</ele>
        <time>2014-09-14T05:26:40Z</time>
      </trkpt>
      <trkpt lat="42.69667" lon="1.5337">
        <ele>1870</ele>
        <time>2014-09-14T05:26:48Z</time>
      </trkpt>
      <trkpt lat="42.6966" lon="1.53367">
        <ele>1869</ele>
        <time>2014-09-14T05:26:55Z</time>
      </trkpt>
      <trkpt lat="42.69654" lon="1.53359">
        <ele>1867</ele>
        <time>2014-09-14T05:27:06Z</time>
      </trkpt>
      <trkpt lat="42.69644" lon="1.53351">
        <ele>1865</ele>
        <time>2014-09-14T05:27:18Z</time>
      </trkpt>
      <trkpt lat="42.69639" lon="1.5335">
        <ele>1865</ele>
        <time>2014-09-14T05:27:23Z</time>
      </trkpt>
      <trkpt lat="42.69629" lon="1.53352">
        <ele>1863</ele>
        <time>2014-09-14T05:27:36Z</time>
      </trkpt>
      <trkpt lat="42.69628" lon="1.53352">
        <ele>1863</ele>
        <time>2014-09-14T05:27:37Z</time>
      </trkpt>
      <trkpt lat="42.69619" lon="1.53354">
        <ele>1861</ele>
        <time>2014-09-14T05:27:50Z</time>
      </trkpt>
      <trkpt lat="42.69607" lon="1.53355">
        <ele>1859</ele>
        <time>2014-09-14T05:28:03Z</time>
      </trkpt>
      <trkpt lat="42.69597" lon="1.53354">
        <ele>1857</ele>
        <time>2014-09-14T05:28:17Z</time>
      </trkpt>
      <trkpt lat="42.69586" lon="1.53353">
        <ele>1855</ele>
        <time>2014-09-14T05:28:31Z</time>
      </trkpt>
      <trkpt lat="42.69575" lon="1.53354">
        <ele>1856</ele>
        <time>2014-09-14T05:28:46Z</time>
      </trkpt>
      <trkpt lat="42.69573" lon="1.53353">
        <ele>1855</ele>
        <time>2014-09-14T05:28:48Z</time>
      </trkpt>
      <trkpt lat="42.69565" lon="1.53353">
        <ele>1855</ele>
        <time>2014-09-14T05:28:59Z</time>
      </trkpt>
      <trkpt lat="42.69557" lon="1.53354">
        <ele>1857</ele>
        <time>2014-09-14T05:29:10Z</time>
      </trkpt>
      <trkpt lat="42.69552" lon="1.53354">
        <ele>1858</ele>
        <time>2014-09-14T05:29:18Z</time>
      </trkpt>
      <trkpt lat="42.69542" lon="1.53346">
        <ele>1859</ele>
        <time>2014-09-14T05:29:33Z</time>
      </trkpt>
      <trkpt lat="42.69533" lon="1.53349">
        <ele>1857</ele>
        <time>2014-09-14T05:29:45Z</time>
      </trkpt>
      <trkpt lat="42.69523" lon="1.53348">
        <ele>1855</ele>
        <time>2014-09-14T05:29:59Z</time>
      </trkpt>
      <trkpt lat="42.69512" lon="1.53348">
        <ele>1854</ele>
        <time>2014-09-14T05:30:11Z</time>
      </trkpt>
      <trkpt lat="42.69507" lon="1.5335">
        <ele>1854</ele>
        <time>2014-09-14T05:30:17Z</time>
      </trkpt>
      <trkpt lat="42.695" lon="1.5335">
        <ele>1852</ele>
        <time>2014-09-14T05:30:27Z</time>
      </trkpt>
      <trkpt lat="42.6949" lon="1.53347">
        <ele>1851</ele>
        <time>2014-09-14T05:30:36Z</time>
      </trkpt>
      <trkpt lat="42.69478" lon="1.53343">
        <ele>1850</ele>
        <time>2014-09-14T05:30:50Z</time>
      </trkpt>
      <trkpt lat="42.69475" lon="1.53343">
        <ele>1851</ele>
        <time>2014-09-14T05:30:54Z</time>
      </trkpt>
      <trkpt lat="42.6947" lon="1.53342">
        <ele>1851</ele>
        <time>2014-09-14T05:31:00Z</time>
      </trkpt>
      <trkpt lat="42.69467" lon="1.53344">
        <ele>1851</ele>
        <time>2014-09-14T05:31:03Z</time>
      </trkpt>
      <trkpt lat="42.69456" lon="1.53344">
        <ele>1852</ele>
        <time>2014-09-14T05:31:15Z</time>
      </trkpt>
      <trkpt lat="42.69444" lon="1.53341">
        <ele>1854</ele>
        <time>2014-09-14T05:31:28Z</time>
      </trkpt>
      <trkpt lat="42.69434" lon="1.53344">
        <ele>1854</ele>
        <time>2014-09-14T05:31:40Z</time>
      </trkpt>
      <trkpt lat="42.69425" lon="1.53348">
        <ele>1856</ele>
        <time>2014-09-14T05:31:55Z</time>
      </trkpt>
      <trkpt lat="42.69416" lon="1.53356">
        <ele>1857</ele>
        <time>2014-09-14T05:32:08Z</time>
      </trkpt>
      <trkpt lat="42.6941" lon="1.53362">
        <ele>1858</ele>
        <time>2014-09-14T05:32:18Z</time>
      </trkpt>
      <trkpt lat="42.69402" lon="1.53365">
        <ele>1858</ele>
        <time>2014-09-14T05:32:29Z</time>
      </trkpt>
      <trkpt lat="42.69392" lon="1.53366">
        <ele>1860</ele>
        <time>2014-09-14T05:32:43Z</time>
      </trkpt>
      <trkpt lat="42.69384" lon="1.53367">
        <ele>1861</ele>
        <time>2014-09-14T05:32:56Z</time>
      </trkpt>
      <trkpt lat="42.69377" lon="1.53369">
        <ele>1863</ele>
        <time>2014-09-14T05:33:09Z</time>
      </trkpt>
      <trkpt lat="42.69367" lon="1.5337">
        <ele>1862</ele>
        <time>2014-09-14T05:33:25Z</time>
      </trkpt>
      <trkpt lat="42.69362" lon="1.53369">
        <ele>1861</ele>
        <time>2014-09-14T05:33:34Z</time>
      </trkpt>
      <trkpt lat="42.69358" lon="1.5337">
        <ele>1861</ele>
        <time>2014-09-14T05:33:46Z</time>
      </trkpt>
      <trkpt lat="42.69356" lon="1.53369">
        <ele>1860</ele>
        <time>2014-09-14T05:33:49Z</time>
      </trkpt>
      <trkpt lat="42.69347" lon="1.53369">
        <ele>1861</ele>
        <time>2014-09-14T05:34:03Z</time>
      </trkpt>
      <trkpt lat="42.69339" lon="1.5337">
        <ele>1859</ele>
        <time>2014-09-14T05:34:17Z</time>
      </trkpt>
      <trkpt lat="42.69334" lon="1.53367">
        <ele>1858</ele>
        <time>2014-09-14T05:34:28Z</time>
      </trkpt>
      <trkpt lat="42.6933" lon="1.53364">
        <ele>1856</ele>
        <time>2014-09-14T05:34:39Z</time>
      </trkpt>
      <trkpt lat="42.69322" lon="1.53362">
        <ele>1855</ele>
        <time>2014-09-14T05:34:51Z</time>
      </trkpt>
      <trkpt lat="42.69313" lon="1.53361">
        <ele>1855</ele>
        <time>2014-09-14T05:35:04Z</time>
      </trkpt>
      <trkpt lat="42.69309" lon="1.53358">
        <ele>1854</ele>
        <time>2014-09-14T05:35:10Z</time>
      </trkpt>
      <trkpt lat="42.69302" lon="1.53356">
        <ele>1853</ele>
        <time>2014-09-14T05:35:23Z</time>
      </trkpt>
      <trkpt lat="42.69294" lon="1.53356">
        <ele>1852</ele>
        <time>2014-09-14T05:35:36Z</time>
      </trkpt>
      <trkpt lat="42.69289" lon="1.53355">
        <ele>1851</ele>
        <time>2014-09-14T05:35:47Z</time>
      </trkpt>
      <trkpt lat="42.6928" lon="1.53353">
        <ele>1851</ele>
        <time>2014-09-14T05:36:00Z</time>
      </trkpt>
      <trkpt lat="42.69275" lon="1.53355">
        <ele>1852</ele>
        <time>2014-09-14T05:36:14Z</time>
      </trkpt>
      <trkpt lat="42.69266" lon="1.53353">
        <ele>1852</ele>
        <time>2014-09-14T05:36:29Z</time>
      </trkpt>
      <trkpt lat="42.69264" lon="1.53352">
        <ele>1852</ele>
        <time>2014-09-14T05:36:30Z</time>
      </trkpt>
      <trkpt lat="42.69256" lon="1.53351">
        <ele>1852</ele>
        <time>2014-09-14T05:36:40Z</time>
      </trkpt>
      <trkpt lat="42.69249" lon="1.53354">
        <ele>1852</ele>
        <time>2014-09-14T05:36:50Z</time>
      </trkpt>
      <trkpt lat="42.69242" lon="1.53353">
        <ele>1852</ele>
        <time>2014-09-14T05:37:03Z</time>
      </trkpt>
      <trkpt lat="42.69239" lon="1.53353">
        <ele>1852</ele>
        <time>2014-09-14T05:37:07Z</time>
      </trkpt>
      <trkpt lat="42.69233" lon="1.53349">
        <ele>1852</ele>
        <time>2014-09-14T05:37:22Z</time>
      </trkpt>
      <trkpt lat="42.69225" lon="1.53342">
        <ele>1853</ele>
        <time>2014-09-14T05:37:38Z</time>
      </trkpt>
      <trkpt lat="42.69219" lon="1.53336">
        <ele>1854</ele>
        <time>2014-09-14T05:37:46Z</time>
      </trkpt>
      <trkpt lat="42.69216" lon="1.5333">
        <ele>1853</ele>
        <time>2014-09-14T05:37:51Z</time>
      </trkpt>
      <trkpt lat="42.69211" lon="1.53328">
        <ele>1853</ele>
        <time>2014-09-14T05:37:57Z</time>
      </trkpt>
      <trkpt lat="42.69204" lon="1.53323">
        <ele>1853</ele>
        <time>2014-09-14T05:38:10Z</time>
      </trkpt>
      <trkpt lat="42.69198" lon="1.53317">
        <ele>1852</ele>
        <time>2014-09-14T05:38:22Z</time>
      </trkpt>
      <trkpt lat="42.69196" lon="1.53315">
        <ele>1852</ele>
        <time>2014-09-14T05:38:25Z</time>
      </trkpt>
      <trkpt lat="42.69189" lon="1.53309">
        <ele>1853</ele>
        <time>2014-09-14T05:38:38Z</time>
      </trkpt>
      <trkpt lat="42.69185" lon="1.53307">
        <ele>1855</ele>
        <time>2014-09-14T05:38:50Z</time>
      </trkpt>
      <trkpt lat="42.69178" lon="1.53304">
        <ele>1856</ele>
        <time>2014-09-14T05:39:02Z</time>
      </trkpt>
      <trkpt lat="42.69173" lon="1.53296">
        <ele>1858</ele>
        <time>2014-09-14T05:39:15Z</time>
      </trkpt>
      <trkpt lat="42.69169" lon="1.5329">
        <ele>1860</ele>
        <time>2014-09-14T05:39:27Z</time>
      </trkpt>
      <trkpt lat="42.69169" lon="1.53285">
        <ele>1860</ele>
        <time>2014-09-14T05:39:39Z</time>
      </trkpt>
      <trkpt lat="42.69167" lon="1.53283">
        <ele>1860</ele>
        <time>2014-09-14T05:39:45Z</time>
      </trkpt>
      <trkpt lat="42.69158" lon="1.53271">
        <ele>1860</ele>
        <time>2014-09-14T05:39:59Z</time>
      </trkpt>
      <trkpt lat="42.69156" lon="1.53268">
        <ele>1860</ele>
        <time>2014-09-14T05:40:03Z</time>
      </trkpt>
      <trkpt lat="42.69151" lon="1.53267">
        <ele>1860</ele>
        <time>2014-09-14T05:40:09Z</time>
      </trkpt>
      <trkpt lat="42.69149" lon="1.53266">
        <ele>1860</ele>
        <time>2014-09-14T05:40:12Z</time>
      </trkpt>
      <trkpt lat="42.6914" lon="1.53267">
        <ele>1860</ele>
        <time>2014-09-14T05:40:25Z</time>
      </trkpt>
      <trkpt lat="42.69139" lon="1.53267">
        <ele>1860</ele>
        <time>2014-09-14T05:40:29Z</time>
      </trkpt>
      <trkpt lat="42.69131" lon="1.53267">
        <ele>1861</ele>
        <time>2014-09-14T05:40:43Z</time>
      </trkpt>
      <trkpt lat="42.69125" lon="1.53269">
        <ele>1862</ele>
        <time>2014-09-14T05:40:56Z</time>
      </trkpt>
      <trkpt lat="42.6913" lon="1.5327">
        <ele>1862</ele>
        <time>2014-09-14T05:41:08Z</time>
      </trkpt>
      <trkpt lat="42.69132" lon="1.53276">
        <ele>1862</ele>
        <time>2014-09-14T05:41:19Z</time>
      </trkpt>
      <trkpt lat="42.69133" lon="1.5328">
        <ele>1862</ele>
        <time>2014-09-14T05:41:34Z</time>
      </trkpt>
      <trkpt lat="42.69136" lon="1.5328">
        <ele>1863</ele>
        <time>2014-09-14T05:41:46Z</time>
      </trkpt>
      <trkpt lat="42.69137" lon="1.53284">
        <ele>1863</ele>
        <time>2014-09-14T05:41:58Z</time>
      </trkpt>
      <trkpt lat="42.69139" lon="1.5328">
        <ele>1861</ele>
        <time>2014-09-14T05:42:12Z</time>
      </trkpt>
      <trkpt lat="42.69138" lon="1.53283">
        <ele>1862</ele>
        <time>2014-09-14T05:42:44Z</time>
      </trkpt>
      <trkpt lat="42.69138" lon="1.53281">
        <ele>1861</ele>
        <time>2014-09-14T05:43:22Z</time>
      </trkpt>
      <trkpt lat="42.69137" lon="1.5328">
        <ele>1861</ele>
        <time>2014-09-14T05:43:58Z</time>
      </trkpt>
      <trkpt lat="42.69139" lon="1.53282">
        <ele>1861</ele>
        <time>2014-09-14T05:44:34Z</time>
      </trkpt>
      <trkpt lat="42.69138" lon="1.5328">
        <ele>1861</ele>
        <time>2014-09-14T05:45:06Z</time>
      </trkpt>
      <trkpt lat="42.69137" lon="1.53282">
        <ele>1860</ele>
        <time>2014-09-14T05:45:38Z</time>
      </trkpt>
      <trkpt lat="42.69136" lon="1.53284">
        <ele>1861</ele>
        <time>2014-09-14T05:46:05Z</time>
      </trkpt>
      <trkpt lat="42.69135" lon="1.53285">
        <ele>1862</ele>
        <time>2014-09-14T05:46:16Z</time>
      </trkpt>
      <trkpt lat="42.69133" lon="1.53285">
        <ele>1862</ele>
        <time>2014-09-14T05:46:34Z</time>
      </trkpt>
      <trkpt lat="42.69133" lon="1.53277">
        <ele>1861</ele>
        <time>2014-09-14T05:46:43Z</time>
      </trkpt>
      <trkpt lat="42.69138" lon="1.53275">
        <ele>1861</ele>
        <time>2014-09-14T05:46:56Z</time>
      </trkpt>
      <trkpt lat="42.69141" lon="1.53272">
        <ele>1860</ele>
        <time>2014-09-14T05:47:06Z</time>
      </trkpt>
      <trkpt lat="42.69141" lon="1.53266">
        <ele>1859</ele>
        <time>2014-09-14T05:47:17Z</time>
      </trkpt>
      <trkpt lat="42.69135" lon="1.53264">
        <ele>1858</ele>
        <time>2014-09-14T05:47:27Z</time>
      </trkpt>
      <trkpt lat="42.69129" lon="1.53257">
        <ele>1858</ele>
        <time>2014-09-14T05:47:40Z</time>
      </trkpt>
      <trkpt lat="42.69123" lon="1.53256">
        <ele>1859</ele>
        <time>2014-09-14T05:47:54Z</time>
      </trkpt>
      <trkpt lat="42.69116" lon="1.53262">
        <ele>1860</ele>
        <time>2014-09-14T05:48:06Z</time>
      </trkpt>
      <trkpt lat="42.69113" lon="1.53263">
        <ele>1861</ele>
        <time>2014-09-14T05:48:09Z</time>
      </trkpt>
      <trkpt lat="42.69104" lon="1.53266">
        <ele>1861</ele>
        <time>2014-09-14T05:48:16Z</time>
      </trkpt>
      <trkpt lat="42.69091" lon="1.53254">
        <ele>1862</ele>
        <time>2014-09-14T05:48:30Z</time>
      </trkpt>
      <trkpt lat="42.69086" lon="1.53252">
        <ele>1863</ele>
        <time>2014-09-14T05:48:34Z</time>
      </trkpt>
      <trkpt lat="42.69075" lon="1.53242">
        <ele>1863</ele>
        <time>2014-09-14T05:48:45Z</time>
      </trkpt>
      <trkpt lat="42.69073" lon="1.53237">
        <ele>1863</ele>
        <time>2014-09-14T05:48:49Z</time>
      </trkpt>
      <trkpt lat="42.69057" lon="1.53228">
        <ele>1861</ele>
        <time>2014-09-14T05:49:05Z</time>
      </trkpt>
      <trkpt lat="42.69045" lon="1.53219">
        <ele>1858</ele>
        <time>2014-09-14T05:49:18Z</time>
      </trkpt>
      <trkpt lat="42.6903" lon="1.53209">
        <ele>1857</ele>
        <time>2014-09-14T05:49:34Z</time>
      </trkpt>
      <trkpt lat="42.69029" lon="1.53208">
        <ele>1857</ele>
        <time>2014-09-14T05:49:35Z</time>
      </trkpt>
      <trkpt lat="42.69007" lon="1.53204">
        <ele>1858</ele>
        <time>2014-09-14T05:49:51Z</time>
      </trkpt>
      <trkpt lat="42.68987" lon="1.532">
        <ele>1858</ele>
        <time>2014-09-14T05:50:05Z</time>
      </trkpt>
      <trkpt lat="42.68969" lon="1.53201">
        <ele>1858</ele>
        <time>2014-09-14T05:50:17Z</time>
      </trkpt>
      <trkpt lat="42.68967" lon="1.53199">
        <ele>1858</ele>
        <time>2014-09-14T05:50:18Z</time>
      </trkpt>
      <trkpt lat="42.68953" lon="1.53191">
        <ele>1857</ele>
        <time>2014-09-14T05:50:31Z</time>
      </trkpt>
      <trkpt lat="42.68944" lon="1.53189">
        <ele>1857</ele>
        <time>2014-09-14T05:50:44Z</time>
      </trkpt>
      <trkpt lat="42.68931" lon="1.53188">
        <ele>1857</ele>
        <time>2014-09-14T05:50:56Z</time>
      </trkpt>
      <trkpt lat="42.68924" lon="1.53186">
        <ele>1857</ele>
        <time>2014-09-14T05:51:02Z</time>
      </trkpt>
      <trkpt lat="42.6892" lon="1.53183">
        <ele>1858</ele>
        <time>2014-09-14T05:51:07Z</time>
      </trkpt>
      <trkpt lat="42.68902" lon="1.53178">
        <ele>1858</ele>
        <time>2014-09-14T05:51:22Z</time>
      </trkpt>
      <trkpt lat="42.689" lon="1.53177">
        <ele>1858</ele>
        <time>2014-09-14T05:51:24Z</time>
      </trkpt>
      <trkpt lat="42.68885" lon="1.53174">
        <ele>1859</ele>
        <time>2014-09-14T05:51:38Z</time>
      </trkpt>
      <trkpt lat="42.68878" lon="1.53172">
        <ele>1860</ele>
        <time>2014-09-14T05:51:44Z</time>
      </trkpt>
      <trkpt lat="42.68864" lon="1.53162">
        <ele>1861</ele>
        <time>2014-09-14T05:51:58Z</time>
      </trkpt>
      <trkpt lat="42.68861" lon="1.53162">
        <ele>1861</ele>
        <time>2014-09-14T05:52:01Z</time>
      </trkpt>
      <trkpt lat="42.68847" lon="1.53158">
        <ele>1861</ele>
        <time>2014-09-14T05:52:13Z</time>
      </trkpt>
      <trkpt lat="42.68837" lon="1.53162">
        <ele>1863</ele>
        <time>2014-09-14T05:52:26Z</time>
      </trkpt>
      <trkpt lat="42.68829" lon="1.53166">
        <ele>1865</ele>
        <time>2014-09-14T05:52:38Z</time>
      </trkpt>
      <trkpt lat="42.68821" lon="1.53167">
        <ele>1866</ele>
        <time>2014-09-14T05:52:47Z</time>
      </trkpt>
      <trkpt lat="42.68816" lon="1.53165">
        <ele>1866</ele>
        <time>2014-09-14T05:52:52Z</time>
      </trkpt>
      <trkpt lat="42.68811" lon="1.53165">
        <ele>1865</ele>
        <time>2014-09-14T05:52:58Z</time>
      </trkpt>
      <trkpt lat="42.68807" lon="1.53153">
        <ele>1867</ele>
        <time>2014-09-14T05:53:11Z</time>
      </trkpt>
      <trkpt lat="42.688" lon="1.53154">
        <ele>1869</ele>
        <time>2014-09-14T05:53:22Z</time>
      </trkpt>
      <trkpt lat="42.68798" lon="1.53156">
        <ele>1870</ele>
        <time>2014-09-14T05:53:24Z</time>
      </trkpt>
      <trkpt lat="42.68781" lon="1.53166">
        <ele>1872</ele>
        <time>2014-09-14T05:53:41Z</time>
      </trkpt>
      <trkpt lat="42.6877" lon="1.53169">
        <ele>1872</ele>
        <time>2014-09-14T05:53:50Z</time>
      </trkpt>
      <trkpt lat="42.68764" lon="1.53172">
        <ele>1872</ele>
        <time>2014-09-14T05:53:55Z</time>
      </trkpt>
      <trkpt lat="42.6876" lon="1.53172">
        <ele>1872</ele>
        <time>2014-09-14T05:53:59Z</time>
      </trkpt>
      <trkpt lat="42.68753" lon="1.53179">
        <ele>1873</ele>
        <time>2014-09-14T05:54:07Z</time>
      </trkpt>
      <trkpt lat="42.68746" lon="1.53183">
        <ele>1874</ele>
        <time>2014-09-14T05:54:14Z</time>
      </trkpt>
      <trkpt lat="42.68731" lon="1.53186">
        <ele>1876</ele>
        <time>2014-09-14T05:54:28Z</time>
      </trkpt>
      <trkpt lat="42.68714" lon="1.53181">
        <ele>1877</ele>
        <time>2014-09-14T05:54:41Z</time>
      </trkpt>
      <trkpt lat="42.68709" lon="1.5318">
        <ele>1876</ele>
        <time>2014-09-14T05:54:45Z</time>
      </trkpt>
      <trkpt lat="42.68702" lon="1.5318">
        <ele>1876</ele>
        <time>2014-09-14T05:54:52Z</time>
      </trkpt>
      <trkpt lat="42.68686" lon="1.53178">
        <ele>1875</ele>
        <time>2014-09-14T05:55:07Z</time>
      </trkpt>
      <trkpt lat="42.68671" lon="1.53173">
        <ele>1876</ele>
        <time>2014-09-14T05:55:21Z</time>
      </trkpt>
      <trkpt lat="42.68659" lon="1.53172">
        <ele>1878</ele>
        <time>2014-09-14T05:55:33Z</time>
      </trkpt>
      <trkpt lat="42.68645" lon="1.53181">
        <ele>1877</ele>
        <time>2014-09-14T05:55:47Z</time>
      </trkpt>
      <trkpt lat="42.68638" lon="1.53187">
        <ele>1878</ele>
        <time>2014-09-14T05:55:54Z</time>
      </trkpt>
      <trkpt lat="42.68625" lon="1.53197">
        <ele>1877</ele>
        <time>2014-09-14T05:56:05Z</time>
      </trkpt>
      <trkpt lat="42.68609" lon="1.53203">
        <ele>1876</ele>
        <time>2014-09-14T05:56:18Z</time>
      </trkpt>
      <trkpt lat="42.68589" lon="1.53208">
        <ele>1876</ele>
        <time>2014-09-14T05:56:32Z</time>
      </trkpt>
      <trkpt lat="42.68588" lon="1.53209">
        <ele>1876</ele>
        <time>2014-09-14T05:56:33Z</time>
      </trkpt>
      <trkpt lat="42.68569" lon="1.53202">
        <ele>1874</ele>
        <time>2014-09-14T05:56:47Z</time>
      </trkpt>
      <trkpt lat="42.68549" lon="1.53206">
        <ele>1873</ele>
        <time>2014-09-14T05:57:01Z</time>
      </trkpt>
      <trkpt lat="42.68537" lon="1.53207">
        <ele>1870</ele>
        <time>2014-09-14T05:57:11Z</time>
      </trkpt>
      <trkpt lat="42.68523" lon="1.532">
        <ele>1867</ele>
        <time>2014-09-14T05:57:25Z</time>
      </trkpt>
      <trkpt lat="42.68507" lon="1.53194">
        <ele>1865</ele>
        <time>2014-09-14T05:57:41Z</time>
      </trkpt>
      <trkpt lat="42.68505" lon="1.53192">
        <ele>1865</ele>
        <time>2014-09-14T05:57:43Z</time>
      </trkpt>
      <trkpt lat="42.68491" lon="1.53193">
        <ele>1863</ele>
        <time>2014-09-14T05:57:53Z</time>
      </trkpt>
      <trkpt lat="42.68482" lon="1.53187">
        <ele>1863</ele>
        <time>2014-09-14T05:58:00Z</time>
      </trkpt>
      <trkpt lat="42.68479" lon="1.53187">
        <ele>1862</ele>
        <time>2014-09-14T05:58:02Z</time>
      </trkpt>
      <trkpt lat="42.68474" lon="1.53186">
        <ele>1860</ele>
        <time>2014-09-14T05:58:07Z</time>
      </trkpt>
      <trkpt lat="42.68459" lon="1.53194">
        <ele>1859</ele>
        <time>2014-09-14T05:58:21Z</time>
      </trkpt>
      <trkpt lat="42.68452" lon="1.53194">
        <ele>1858</ele>
        <time>2014-09-14T05:58:27Z</time>
      </trkpt>
      <trkpt lat="42.68444" lon="1.53199">
        <ele>1857</ele>
        <time>2014-09-14T05:58:36Z</time>
      </trkpt>
      <trkpt lat="42.68439" lon="1.532">
        <ele>1857</ele>
        <time>2014-09-14T05:58:41Z</time>
      </trkpt>
      <trkpt lat="42.6843" lon="1.53205">
        <ele>1856</ele>
        <time>2014-09-14T05:58:49Z</time>
      </trkpt>
      <trkpt lat="42.68424" lon="1.53207">
        <ele>1855</ele>
        <time>2014-09-14T05:58:54Z</time>
      </trkpt>
      <trkpt lat="42.68422" lon="1.53207">
        <ele>1855</ele>
        <time>2014-09-14T05:58:56Z</time>
      </trkpt>
      <trkpt lat="42.68419" lon="1.53208">
        <ele>1855</ele>
        <time>2014-09-14T05:58:59Z</time>
      </trkpt>
      <trkpt lat="42.68416" lon="1.53207">
        <ele>1855</ele>
        <time>2014-09-14T05:59:02Z</time>
      </trkpt>
      <trkpt lat="42.68408" lon="1.53204">
        <ele>1855</ele>
        <time>2014-09-14T05:59:08Z</time>
      </trkpt>
      <trkpt lat="42.68384" lon="1.53212">
        <ele>1854</ele>
        <time>2014-09-14T05:59:24Z</time>
      </trkpt>
      <trkpt lat="42.6837" lon="1.53217">
        <ele>1852</ele>
        <time>2014-09-14T05:59:38Z</time>
      </trkpt>
      <trkpt lat="42.68364" lon="1.53219">
        <ele>1851</ele>
        <time>2014-09-14T05:59:46Z</time>
      </trkpt>
      <trkpt lat="42.68358" lon="1.53219">
        <ele>1849</ele>
        <time>2014-09-14T05:59:51Z</time>
      </trkpt>
      <trkpt lat="42.68356" lon="1.53221">
        <ele>1849</ele>
        <time>2014-09-14T05:59:53Z</time>
      </trkpt>
      <trkpt lat="42.68354" lon="1.53224">
        <ele>1849</ele>
        <time>2014-09-14T06:00:05Z</time>
      </trkpt>
      <trkpt lat="42.68355" lon="1.53225">
        <ele>1849</ele>
        <time>2014-09-14T06:00:07Z</time>
      </trkpt>
      <trkpt lat="42.68346" lon="1.53235">
        <ele>1848</ele>
        <time>2014-09-14T06:00:18Z</time>
      </trkpt>
      <trkpt lat="42.68344" lon="1.53235">
        <ele>1849</ele>
        <time>2014-09-14T06:00:20Z</time>
      </trkpt>
      <trkpt lat="42.68337" lon="1.53242">
        <ele>1849</ele>
        <time>2014-09-14T06:00:30Z</time>
      </trkpt>
      <trkpt lat="42.68334" lon="1.53242">
        <ele>1849</ele>
        <time>2014-09-14T06:00:33Z</time>
      </trkpt>
      <trkpt lat="42.68329" lon="1.53244">
        <ele>1849</ele>
        <time>2014-09-14T06:00:39Z</time>
      </trkpt>
      <trkpt lat="42.68329" lon="1.53253">
        <ele>1850</ele>
        <time>2014-09-14T06:00:50Z</time>
      </trkpt>
      <trkpt lat="42.68327" lon="1.53258">
        <ele>1851</ele>
        <time>2014-09-14T06:01:02Z</time>
      </trkpt>
      <trkpt lat="42.68326" lon="1.53259">
        <ele>1851</ele>
        <time>2014-09-14T06:01:21Z</time>
      </trkpt>
      <trkpt lat="42.68323" lon="1.5326">
        <ele>1851</ele>
        <time>2014-09-14T06:01:44Z</time>
      </trkpt>
      <trkpt lat="42.6832" lon="1.53266">
        <ele>1852</ele>
        <time>2014-09-14T06:02:16Z</time>
      </trkpt>
      <trkpt lat="42.68321" lon="1.53265">
        <ele>1853</ele>
        <time>2014-09-14T06:02:38Z</time>
      </trkpt>
      <trkpt lat="42.68321" lon="1.53259">
        <ele>1853</ele>
        <time>2014-09-14T06:02:58Z</time>
      </trkpt>
      <trkpt lat="42.68321" lon="1.53259">
        <ele>1852</ele>
        <time>2014-09-14T06:03:15Z</time>
      </trkpt>
      <trkpt lat="42.68321" lon="1.53259">
        <ele>1854</ele>
        <time>2014-09-14T06:03:16Z</time>
      </trkpt>
      <trkpt lat="42.68317" lon="1.53266">
        <ele>1853</ele>
        <time>2014-09-14T06:03:41Z</time>
      </trkpt>
      <trkpt lat="42.68318" lon="1.53266">
        <ele>1854</ele>
        <time>2014-09-14T06:04:06Z</time>
      </trkpt>
      <trkpt lat="42.68319" lon="1.53252">
        <ele>1853</ele>
        <time>2014-09-14T06:04:22Z</time>
      </trkpt>
      <trkpt lat="42.68315" lon="1.53251">
        <ele>1852</ele>
        <time>2014-09-14T06:04:36Z</time>
      </trkpt>
      <trkpt lat="42.68311" lon="1.5325">
        <ele>1851</ele>
        <time>2014-09-14T06:04:47Z</time>
      </trkpt>
      <trkpt lat="42.6831" lon="1.53252">
        <ele>1851</ele>
        <time>2014-09-14T06:04:51Z</time>
      </trkpt>
      <trkpt lat="42.68302" lon="1.53257">
        <ele>1852</ele>
        <time>2014-09-14T06:05:03Z</time>
      </trkpt>
      <trkpt lat="42.68294" lon="1.53261">
        <ele>1850</ele>
        <time>2014-09-14T06:05:15Z</time>
      </trkpt>
      <trkpt lat="42.68292" lon="1.53265">
        <ele>1851</ele>
        <time>2014-09-14T06:05:25Z</time>
      </trkpt>
      <trkpt lat="42.68291" lon="1.53263">
        <ele>1849</ele>
        <time>2014-09-14T06:05:38Z</time>
      </trkpt>
      <trkpt lat="42.68287" lon="1.53264">
        <ele>1849</ele>
        <time>2014-09-14T06:05:50Z</time>
      </trkpt>
      <trkpt lat="42.68284" lon="1.53258">
        <ele>1849</ele>
        <time>2014-09-14T06:06:01Z</time>
      </trkpt>
      <trkpt lat="42.68281" lon="1.53247">
        <ele>1847</ele>
        <time>2014-09-14T06:06:13Z</time>
      </trkpt>
      <trkpt lat="42.68269" lon="1.53239">
        <ele>1849</ele>
        <time>2014-09-14T06:06:26Z</time>
      </trkpt>
      <trkpt lat="42.68263" lon="1.53235">
        <ele>1849</ele>
        <time>2014-09-14T06:06:37Z</time>
      </trkpt>
      <trkpt lat="42.68262" lon="1.53234">
        <ele>1849</ele>
        <time>2014-09-14T06:06:43Z</time>
      </trkpt>
      <trkpt lat="42.68253" lon="1.5323">
        <ele>1848</ele>
        <time>2014-09-14T06:06:55Z</time>
      </trkpt>
      <trkpt lat="42.6825" lon="1.53231">
        <ele>1849</ele>
        <time>2014-09-14T06:07:02Z</time>
      </trkpt>
      <trkpt lat="42.68246" lon="1.53233">
        <ele>1849</ele>
        <time>2014-09-14T06:07:08Z</time>
      </trkpt>
      <trkpt lat="42.68238" lon="1.5324">
        <ele>1849</ele>
        <time>2014-09-14T06:07:21Z</time>
      </trkpt>
      <trkpt lat="42.68234" lon="1.53239">
        <ele>1848</ele>
        <time>2014-09-14T06:07:24Z</time>
      </trkpt>
      <trkpt lat="42.68232" lon="1.5324">
        <ele>1849</ele>
        <time>2014-09-14T06:07:27Z</time>
      </trkpt>
      <trkpt lat="42.68226" lon="1.53243">
        <ele>1850</ele>
        <time>2014-09-14T06:07:34Z</time>
      </trkpt>
      <trkpt lat="42.68215" lon="1.53241">
        <ele>1849</ele>
        <time>2014-09-14T06:07:48Z</time>
      </trkpt>
      <trkpt lat="42.68204" lon="1.53237">
        <ele>1850</ele>
        <time>2014-09-14T06:07:57Z</time>
      </trkpt>
      <trkpt lat="42.68198" lon="1.53237">
        <ele>1850</ele>
        <time>2014-09-14T06:08:05Z</time>
      </trkpt>
      <trkpt lat="42.68191" lon="1.53238">
        <ele>1851</ele>
        <time>2014-09-14T06:08:15Z</time>
      </trkpt>
      <trkpt lat="42.68188" lon="1.53241">
        <ele>1852</ele>
        <time>2014-09-14T06:08:18Z</time>
      </trkpt>
      <trkpt lat="42.68178" lon="1.53241">
        <ele>1852</ele>
        <time>2014-09-14T06:08:29Z</time>
      </trkpt>
      <trkpt lat="42.68167" lon="1.53242">
        <ele>1853</ele>
        <time>2014-09-14T06:08:40Z</time>
      </trkpt>
      <trkpt lat="42.68157" lon="1.5324">
        <ele>1854</ele>
        <time>2014-09-14T06:08:54Z</time>
      </trkpt>
      <trkpt lat="42.68148" lon="1.53238">
        <ele>1855</ele>
        <time>2014-09-14T06:09:06Z</time>
      </trkpt>
      <trkpt lat="42.6814" lon="1.53238">
        <ele>1855</ele>
        <time>2014-09-14T06:09:17Z</time>
      </trkpt>
      <trkpt lat="42.68135" lon="1.53237">
        <ele>1855</ele>
        <time>2014-09-14T06:09:24Z</time>
      </trkpt>
      <trkpt lat="42.6813" lon="1.5324">
        <ele>1855</ele>
        <time>2014-09-14T06:09:29Z</time>
      </trkpt>
      <trkpt lat="42.68122" lon="1.53237">
        <ele>1856</ele>
        <time>2014-09-14T06:09:37Z</time>
      </trkpt>
      <trkpt lat="42.68119" lon="1.53235">
        <ele>1855</ele>
        <time>2014-09-14T06:09:41Z</time>
      </trkpt>
      <trkpt lat="42.68116" lon="1.53233">
        <ele>1855</ele>
        <time>2014-09-14T06:09:45Z</time>
      </trkpt>
      <trkpt lat="42.68111" lon="1.53234">
        <ele>1855</ele>
        <time>2014-09-14T06:09:50Z</time>
      </trkpt>
      <trkpt lat="42.68109" lon="1.53236">
        <ele>1855</ele>
        <time>2014-09-14T06:09:53Z</time>
      </trkpt>
      <trkpt lat="42.68099" lon="1.53239">
        <ele>1857</ele>
        <time>2014-09-14T06:10:03Z</time>
      </trkpt>
      <trkpt lat="42.68096" lon="1.5324">
        <ele>1856</ele>
        <time>2014-09-14T06:10:07Z</time>
      </trkpt>
      <trkpt lat="42.68084" lon="1.5324">
        <ele>1858</ele>
        <time>2014-09-14T06:10:20Z</time>
      </trkpt>
      <trkpt lat="42.68078" lon="1.5324">
        <ele>1858</ele>
        <time>2014-09-14T06:10:26Z</time>
      </trkpt>
      <trkpt lat="42.68071" lon="1.5324">
        <ele>1859</ele>
        <time>2014-09-14T06:10:37Z</time>
      </trkpt>
      <trkpt lat="42.68062" lon="1.53237">
        <ele>1858</ele>
        <time>2014-09-14T06:10:49Z</time>
      </trkpt>
      <trkpt lat="42.6805" lon="1.53234">
        <ele>1859</ele>
        <time>2014-09-14T06:11:03Z</time>
      </trkpt>
      <trkpt lat="42.68045" lon="1.53229">
        <ele>1860</ele>
        <time>2014-09-14T06:11:11Z</time>
      </trkpt>
      <trkpt lat="42.68039" lon="1.53222">
        <ele>1860</ele>
        <time>2014-09-14T06:11:19Z</time>
      </trkpt>
      <trkpt lat="42.68027" lon="1.53217">
        <ele>1860</ele>
        <time>2014-09-14T06:11:32Z</time>
      </trkpt>
      <trkpt lat="42.68023" lon="1.53217">
        <ele>1861</ele>
        <time>2014-09-14T06:11:37Z</time>
      </trkpt>
      <trkpt lat="42.6802" lon="1.53217">
        <ele>1860</ele>
        <time>2014-09-14T06:11:40Z</time>
      </trkpt>
      <trkpt lat="42.6801" lon="1.53211">
        <ele>1861</ele>
        <time>2014-09-14T06:11:53Z</time>
      </trkpt>
      <trkpt lat="42.68" lon="1.5321">
        <ele>1862</ele>
        <time>2014-09-14T06:12:05Z</time>
      </trkpt>
      <trkpt lat="42.67991" lon="1.53211">
        <ele>1863</ele>
        <time>2014-09-14T06:12:15Z</time>
      </trkpt>
      <trkpt lat="42.67983" lon="1.5321">
        <ele>1864</ele>
        <time>2014-09-14T06:12:24Z</time>
      </trkpt>
      <trkpt lat="42.67976" lon="1.53207">
        <ele>1864</ele>
        <time>2014-09-14T06:12:33Z</time>
      </trkpt>
      <trkpt lat="42.67972" lon="1.53206">
        <ele>1864</ele>
        <time>2014-09-14T06:12:38Z</time>
      </trkpt>
      <trkpt lat="42.67962" lon="1.53203">
        <ele>1866</ele>
        <time>2014-09-14T06:12:52Z</time>
      </trkpt>
      <trkpt lat="42.6796" lon="1.53203">
        <ele>1867</ele>
        <time>2014-09-14T06:12:55Z</time>
      </trkpt>
      <trkpt lat="42.67956" lon="1.53195">
        <ele>1866</ele>
        <time>2014-09-14T06:13:07Z</time>
      </trkpt>
      <trkpt lat="42.67954" lon="1.53199">
        <ele>1867</ele>
        <time>2014-09-14T06:13:18Z</time>
      </trkpt>
      <trkpt lat="42.6795" lon="1.53198">
        <ele>1867</ele>
        <time>2014-09-14T06:13:30Z</time>
      </trkpt>
      <trkpt lat="42.67943" lon="1.532">
        <ele>1869</ele>
        <time>2014-09-14T06:13:42Z</time>
      </trkpt>
      <trkpt lat="42.67935" lon="1.53195">
        <ele>1870</ele>
        <time>2014-09-14T06:13:55Z</time>
      </trkpt>
      <trkpt lat="42.67929" lon="1.53198">
        <ele>1871</ele>
        <time>2014-09-14T06:14:07Z</time>
      </trkpt>
      <trkpt lat="42.67925" lon="1.53195">
        <ele>1871</ele>
        <time>2014-09-14T06:14:22Z</time>
      </trkpt>
      <trkpt lat="42.67917" lon="1.53192">
        <ele>1872</ele>
        <time>2014-09-14T06:14:34Z</time>
      </trkpt>
      <trkpt lat="42.67915" lon="1.53186">
        <ele>1872</ele>
        <time>2014-09-14T06:14:44Z</time>
      </trkpt>
      <trkpt lat="42.67908" lon="1.53186">
        <ele>1874</ele>
        <time>2014-09-14T06:14:57Z</time>
      </trkpt>
      <trkpt lat="42.679" lon="1.53184">
        <ele>1876</ele>
        <time>2014-09-14T06:15:10Z</time>
      </trkpt>
      <trkpt lat="42.67894" lon="1.53181">
        <ele>1878</ele>
        <time>2014-09-14T06:15:24Z</time>
      </trkpt>
      <trkpt lat="42.6789" lon="1.53183">
        <ele>1880</ele>
        <time>2014-09-14T06:15:38Z</time>
      </trkpt>
      <trkpt lat="42.67887" lon="1.53185">
        <ele>1881</ele>
        <time>2014-09-14T06:15:49Z</time>
      </trkpt>
      <trkpt lat="42.6788" lon="1.53189">
        <ele>1884</ele>
        <time>2014-09-14T06:16:04Z</time>
      </trkpt>
      <trkpt lat="42.67876" lon="1.53189">
        <ele>1886</ele>
        <time>2014-09-14T06:16:18Z</time>
      </trkpt>
      <trkpt lat="42.67871" lon="1.53191">
        <ele>1887</ele>
        <time>2014-09-14T06:16:32Z</time>
      </trkpt>
      <trkpt lat="42.67863" lon="1.53191">
        <ele>1890</ele>
        <time>2014-09-14T06:16:46Z</time>
      </trkpt>
      <trkpt lat="42.67859" lon="1.53191">
        <ele>1891</ele>
        <time>2014-09-14T06:17:00Z</time>
      </trkpt>
      <trkpt lat="42.67857" lon="1.53194">
        <ele>1893</ele>
        <time>2014-09-14T06:17:14Z</time>
      </trkpt>
      <trkpt lat="42.67853" lon="1.53197">
        <ele>1896</ele>
        <time>2014-09-14T06:17:28Z</time>
      </trkpt>
      <trkpt lat="42.67847" lon="1.53194">
        <ele>1898</ele>
        <time>2014-09-14T06:17:43Z</time>
      </trkpt>
      <trkpt lat="42.67846" lon="1.53195">
        <ele>1900</ele>
        <time>2014-09-14T06:17:57Z</time>
      </trkpt>
      <trkpt lat="42.67845" lon="1.53198">
        <ele>1901</ele>
        <time>2014-09-14T06:18:11Z</time>
      </trkpt>
      <trkpt lat="42.67839" lon="1.53202">
        <ele>1902</ele>
        <time>2014-09-14T06:18:24Z</time>
      </trkpt>
      <trkpt lat="42.67836" lon="1.53206">
        <ele>1905</ele>
        <time>2014-09-14T06:18:38Z</time>
      </trkpt>
      <trkpt lat="42.67838" lon="1.53205">
        <ele>1904</ele>
        <time>2014-09-14T06:19:01Z</time>
      </trkpt>
      <trkpt lat="42.67828" lon="1.53206">
        <ele>1906</ele>
        <time>2014-09-14T06:19:18Z</time>
      </trkpt>
      <trkpt lat="42.6782" lon="1.53212">
        <ele>1908</ele>
        <time>2014-09-14T06:19:34Z</time>
      </trkpt>
      <trkpt lat="42.67819" lon="1.53211">
        <ele>1908</ele>
        <time>2014-09-14T06:19:38Z</time>
      </trkpt>
      <trkpt lat="42.67816" lon="1.5322">
        <ele>1907</ele>
        <time>2014-09-14T06:19:51Z</time>
      </trkpt>
      <trkpt lat="42.67813" lon="1.53223">
        <ele>1908</ele>
        <time>2014-09-14T06:20:08Z</time>
      </trkpt>
      <trkpt lat="42.67808" lon="1.53227">
        <ele>1909</ele>
        <time>2014-09-14T06:20:19Z</time>
      </trkpt>
      <trkpt lat="42.67802" lon="1.53229">
        <ele>1912</ele>
        <time>2014-09-14T06:20:33Z</time>
      </trkpt>
      <trkpt lat="42.67795" lon="1.53232">
        <ele>1915</ele>
        <time>2014-09-14T06:20:47Z</time>
      </trkpt>
      <trkpt lat="42.67794" lon="1.53232">
        <ele>1914</ele>
        <time>2014-09-14T06:21:06Z</time>
      </trkpt>
      <trkpt lat="42.67795" lon="1.53244">
        <ele>1915</ele>
        <time>2014-09-14T06:21:18Z</time>
      </trkpt>
      <trkpt lat="42.67792" lon="1.53255">
        <ele>1917</ele>
        <time>2014-09-14T06:21:32Z</time>
      </trkpt>
      <trkpt lat="42.67795" lon="1.5326">
        <ele>1917</ele>
        <time>2014-09-14T06:21:38Z</time>
      </trkpt>
      <trkpt lat="42.67798" lon="1.53269">
        <ele>1918</ele>
        <time>2014-09-14T06:21:53Z</time>
      </trkpt>
      <trkpt lat="42.67801" lon="1.53277">
        <ele>1921</ele>
        <time>2014-09-14T06:22:06Z</time>
      </trkpt>
      <trkpt lat="42.67806" lon="1.53281">
        <ele>1921</ele>
        <time>2014-09-14T06:22:19Z</time>
      </trkpt>
      <trkpt lat="42.67803" lon="1.53287">
        <ele>1923</ele>
        <time>2014-09-14T06:22:35Z</time>
      </trkpt>
      <trkpt lat="42.67804" lon="1.53291">
        <ele>1924</ele>
        <time>2014-09-14T06:22:48Z</time>
      </trkpt>
      <trkpt lat="42.67806" lon="1.53297">
        <ele>1925</ele>
        <time>2014-09-14T06:23:00Z</time>
      </trkpt>
      <trkpt lat="42.6781" lon="1.533">
        <ele>1926</ele>
        <time>2014-09-14T06:23:14Z</time>
      </trkpt>
      <trkpt lat="42.67816" lon="1.53306">
        <ele>1927</ele>
        <time>2014-09-14T06:23:29Z</time>
      </trkpt>
      <trkpt lat="42.67822" lon="1.53315">
        <ele>1929</ele>
        <time>2014-09-14T06:23:46Z</time>
      </trkpt>
      <trkpt lat="42.67827" lon="1.53319">
        <ele>1931</ele>
        <time>2014-09-14T06:24:02Z</time>
      </trkpt>
      <trkpt lat="42.67831" lon="1.53322">
        <ele>1931</ele>
        <time>2014-09-14T06:24:14Z</time>
      </trkpt>
      <trkpt lat="42.67836" lon="1.53325">
        <ele>1932</ele>
        <time>2014-09-14T06:24:27Z</time>
      </trkpt>
      <trkpt lat="42.67842" lon="1.5333">
        <ele>1935</ele>
        <time>2014-09-14T06:24:43Z</time>
      </trkpt>
      <trkpt lat="42.67846" lon="1.53331">
        <ele>1936</ele>
        <time>2014-09-14T06:24:54Z</time>
      </trkpt>
      <trkpt lat="42.67849" lon="1.53335">
        <ele>1937</ele>
        <time>2014-09-14T06:25:07Z</time>
      </trkpt>
      <trkpt lat="42.67848" lon="1.53338">
        <ele>1938</ele>
        <time>2014-09-14T06:25:18Z</time>
      </trkpt>
      <trkpt lat="42.67849" lon="1.53337">
        <ele>1938</ele>
        <time>2014-09-14T06:25:32Z</time>
      </trkpt>
      <trkpt lat="42.67853" lon="1.53341">
        <ele>1939</ele>
        <time>2014-09-14T06:25:50Z</time>
      </trkpt>
      <trkpt lat="42.67858" lon="1.53346">
        <ele>1942</ele>
        <time>2014-09-14T06:26:08Z</time>
      </trkpt>
      <trkpt lat="42.67859" lon="1.53354">
        <ele>1944</ele>
        <time>2014-09-14T06:26:21Z</time>
      </trkpt>
      <trkpt lat="42.67867" lon="1.53356">
        <ele>1945</ele>
        <time>2014-09-14T06:26:37Z</time>
      </trkpt>
      <trkpt lat="42.67869" lon="1.53358">
        <ele>1947</ele>
        <time>2014-09-14T06:26:53Z</time>
      </trkpt>
      <trkpt lat="42.6787" lon="1.5336">
        <ele>1948</ele>
        <time>2014-09-14T06:27:06Z</time>
      </trkpt>
      <trkpt lat="42.67869" lon="1.53357">
        <ele>1946</ele>
        <time>2014-09-14T06:27:31Z</time>
      </trkpt>
      <trkpt lat="42.6787" lon="1.53357">
        <ele>1945</ele>
        <time>2014-09-14T06:27:39Z</time>
      </trkpt>
      <trkpt lat="42.67871" lon="1.5336">
        <ele>1948</ele>
        <time>2014-09-14T06:27:43Z</time>
      </trkpt>
      <trkpt lat="42.67875" lon="1.53369">
        <ele>1948</ele>
        <time>2014-09-14T06:27:58Z</time>
      </trkpt>
      <trkpt lat="42.67881" lon="1.53372">
        <ele>1946</ele>
        <time>2014-09-14T06:28:12Z</time>
      </trkpt>
      <trkpt lat="42.67887" lon="1.53377">
        <ele>1945</ele>
        <time>2014-09-14T06:28:25Z</time>
      </trkpt>
      <trkpt lat="42.67892" lon="1.53379">
        <ele>1944</ele>
        <time>2014-09-14T06:28:37Z</time>
      </trkpt>
      <trkpt lat="42.67894" lon="1.53377">
        <ele>1944</ele>
        <time>2014-09-14T06:28:52Z</time>
      </trkpt>
      <trkpt lat="42.67897" lon="1.53377">
        <ele>1942</ele>
        <time>2014-09-14T06:29:05Z</time>
      </trkpt>
      <trkpt lat="42.67902" lon="1.53382">
        <ele>1943</ele>
        <time>2014-09-14T06:29:18Z</time>
      </trkpt>
      <trkpt lat="42.67908" lon="1.53385">
        <ele>1942</ele>
        <time>2014-09-14T06:29:33Z</time>
      </trkpt>
      <trkpt lat="42.67911" lon="1.53387">
        <ele>1941</ele>
        <time>2014-09-14T06:29:45Z</time>
      </trkpt>
      <trkpt lat="42.67914" lon="1.53388">
        <ele>1942</ele>
        <time>2014-09-14T06:29:58Z</time>
      </trkpt>
      <trkpt lat="42.67918" lon="1.5339">
        <ele>1942</ele>
        <time>2014-09-14T06:30:12Z</time>
      </trkpt>
      <trkpt lat="42.67921" lon="1.53395">
        <ele>1943</ele>
        <time>2014-09-14T06:30:23Z</time>
      </trkpt>
      <trkpt lat="42.67928" lon="1.53398">
        <ele>1942</ele>
        <time>2014-09-14T06:30:38Z</time>
      </trkpt>
      <trkpt lat="42.67931" lon="1.53401">
        <ele>1943</ele>
        <time>2014-09-14T06:30:51Z</time>
      </trkpt>
      <trkpt lat="42.67937" lon="1.53406">
        <ele>1943</ele>
        <time>2014-09-14T06:31:05Z</time>
      </trkpt>
      <trkpt lat="42.67942" lon="1.53411">
        <ele>1943</ele>
        <time>2014-09-14T06:31:20Z</time>
      </trkpt>
      <trkpt lat="42.67948" lon="1.53413">
        <ele>1945</ele>
        <time>2014-09-14T06:31:33Z</time>
      </trkpt>
      <trkpt lat="42.67954" lon="1.53416">
        <ele>1947</ele>
        <time>2014-09-14T06:31:46Z</time>
      </trkpt>
      <trkpt lat="42.67957" lon="1.53417">
        <ele>1950</ele>
        <time>2014-09-14T06:31:57Z</time>
      </trkpt>
      <trkpt lat="42.6796" lon="1.53418">
        <ele>1952</ele>
        <time>2014-09-14T06:32:01Z</time>
      </trkpt>
      <trkpt lat="42.67965" lon="1.53427">
        <ele>1952</ele>
        <time>2014-09-14T06:32:16Z</time>
      </trkpt>
      <trkpt lat="42.6797" lon="1.53436">
        <ele>1953</ele>
        <time>2014-09-14T06:32:29Z</time>
      </trkpt>
      <trkpt lat="42.67975" lon="1.53442">
        <ele>1954</ele>
        <time>2014-09-14T06:32:41Z</time>
      </trkpt>
      <trkpt lat="42.67977" lon="1.5345">
        <ele>1957</ele>
        <time>2014-09-14T06:32:57Z</time>
      </trkpt>
      <trkpt lat="42.6798" lon="1.5345">
        <ele>1959</ele>
        <time>2014-09-14T06:33:09Z</time>
      </trkpt>
      <trkpt lat="42.6798" lon="1.53452">
        <ele>1958</ele>
        <time>2014-09-14T06:33:23Z</time>
      </trkpt>
      <trkpt lat="42.67982" lon="1.53458">
        <ele>1959</ele>
        <time>2014-09-14T06:33:39Z</time>
      </trkpt>
      <trkpt lat="42.6798" lon="1.53458">
        <ele>1959</ele>
        <time>2014-09-14T06:33:41Z</time>
      </trkpt>
      <trkpt lat="42.67977" lon="1.53465">
        <ele>1960</ele>
        <time>2014-09-14T06:33:53Z</time>
      </trkpt>
      <trkpt lat="42.67979" lon="1.53472">
        <ele>1962</ele>
        <time>2014-09-14T06:34:06Z</time>
      </trkpt>
      <trkpt lat="42.67985" lon="1.53477">
        <ele>1964</ele>
        <time>2014-09-14T06:34:19Z</time>
      </trkpt>
      <trkpt lat="42.67986" lon="1.53479">
        <ele>1965</ele>
        <time>2014-09-14T06:34:21Z</time>
      </trkpt>
      <trkpt lat="42.67987" lon="1.53483">
        <ele>1966</ele>
        <time>2014-09-14T06:34:33Z</time>
      </trkpt>
      <trkpt lat="42.67992" lon="1.53487">
        <ele>1966</ele>
        <time>2014-09-14T06:34:50Z</time>
      </trkpt>
      <trkpt lat="42.67992" lon="1.53488">
        <ele>1968</ele>
        <time>2014-09-14T06:34:53Z</time>
      </trkpt>
      <trkpt lat="42.67991" lon="1.53491">
        <ele>1968</ele>
        <time>2014-09-14T06:35:07Z</time>
      </trkpt>
      <trkpt lat="42.67996" lon="1.53493">
        <ele>1971</ele>
        <time>2014-09-14T06:35:22Z</time>
      </trkpt>
      <trkpt lat="42.67997" lon="1.53499">
        <ele>1973</ele>
        <time>2014-09-14T06:35:34Z</time>
      </trkpt>
      <trkpt lat="42.67996" lon="1.53498">
        <ele>1974</ele>
        <time>2014-09-14T06:35:47Z</time>
      </trkpt>
      <trkpt lat="42.67995" lon="1.53499">
        <ele>1975</ele>
        <time>2014-09-14T06:36:05Z</time>
      </trkpt>
      <trkpt lat="42.67995" lon="1.53501">
        <ele>1975</ele>
        <time>2014-09-14T06:36:31Z</time>
      </trkpt>
      <trkpt lat="42.67994" lon="1.53501">
        <ele>1974</ele>
        <time>2014-09-14T06:36:49Z</time>
      </trkpt>
      <trkpt lat="42.68" lon="1.53507">
        <ele>1977</ele>
        <time>2014-09-14T06:37:04Z</time>
      </trkpt>
      <trkpt lat="42.68" lon="1.53513">
        <ele>1978</ele>
        <time>2014-09-14T06:37:17Z</time>
      </trkpt>
      <trkpt lat="42.67996" lon="1.53515">
        <ele>1979</ele>
        <time>2014-09-14T06:37:31Z</time>
      </trkpt>
      <trkpt lat="42.67996" lon="1.53516">
        <ele>1979</ele>
        <time>2014-09-14T06:37:44Z</time>
      </trkpt>
      <trkpt lat="42.67995" lon="1.53519">
        <ele>1980</ele>
        <time>2014-09-14T06:37:58Z</time>
      </trkpt>
      <trkpt lat="42.67994" lon="1.53524">
        <ele>1982</ele>
        <time>2014-09-14T06:38:08Z</time>
      </trkpt>
      <trkpt lat="42.67997" lon="1.53527">
        <ele>1983</ele>
        <time>2014-09-14T06:38:18Z</time>
      </trkpt>
      <trkpt lat="42.67993" lon="1.5353">
        <ele>1984</ele>
        <time>2014-09-14T06:38:31Z</time>
      </trkpt>
      <trkpt lat="42.67994" lon="1.5353">
        <ele>1986</ele>
        <time>2014-09-14T06:38:44Z</time>
      </trkpt>
      <trkpt lat="42.67998" lon="1.53534">
        <ele>1987</ele>
        <time>2014-09-14T06:38:55Z</time>
      </trkpt>
      <trkpt lat="42.68" lon="1.53539">
        <ele>1989</ele>
        <time>2014-09-14T06:39:09Z</time>
      </trkpt>
      <trkpt lat="42.68004" lon="1.53545">
        <ele>1991</ele>
        <time>2014-09-14T06:39:23Z</time>
      </trkpt>
      <trkpt lat="42.68006" lon="1.53548">
        <ele>1992</ele>
        <time>2014-09-14T06:39:31Z</time>
      </trkpt>
      <trkpt lat="42.6801" lon="1.53553">
        <ele>1993</ele>
        <time>2014-09-14T06:39:46Z</time>
      </trkpt>
      <trkpt lat="42.68005" lon="1.53557">
        <ele>1995</ele>
        <time>2014-09-14T06:40:00Z</time>
      </trkpt>
      <trkpt lat="42.68003" lon="1.5356">
        <ele>1996</ele>
        <time>2014-09-14T06:40:15Z</time>
      </trkpt>
      <trkpt lat="42.68005" lon="1.53563">
        <ele>1998</ele>
        <time>2014-09-14T06:40:28Z</time>
      </trkpt>
      <trkpt lat="42.6801" lon="1.53567">
        <ele>2000</ele>
        <time>2014-09-14T06:40:44Z</time>
      </trkpt>
      <trkpt lat="42.6801" lon="1.53574">
        <ele>2002</ele>
        <time>2014-09-14T06:40:56Z</time>
      </trkpt>
      <trkpt lat="42.68013" lon="1.53576">
        <ele>2003</ele>
        <time>2014-09-14T06:41:09Z</time>
      </trkpt>
      <trkpt lat="42.68018" lon="1.53579">
        <ele>2005</ele>
        <time>2014-09-14T06:41:24Z</time>
      </trkpt>
      <trkpt lat="42.68023" lon="1.53581">
        <ele>2006</ele>
        <time>2014-09-14T06:41:37Z</time>
      </trkpt>
      <trkpt lat="42.68022" lon="1.53583">
        <ele>2007</ele>
        <time>2014-09-14T06:41:50Z</time>
      </trkpt>
      <trkpt lat="42.68024" lon="1.53584">
        <ele>2005</ele>
        <time>2014-09-14T06:41:56Z</time>
      </trkpt>
      <trkpt lat="42.68024" lon="1.53584">
        <ele>2009</ele>
        <time>2014-09-14T06:41:57Z</time>
      </trkpt>
      <trkpt lat="42.68023" lon="1.53585">
        <ele>2008</ele>
        <time>2014-09-14T06:42:14Z</time>
      </trkpt>
      <trkpt lat="42.68024" lon="1.53586">
        <ele>2007</ele>
        <time>2014-09-14T06:42:29Z</time>
      </trkpt>
      <trkpt lat="42.68027" lon="1.53586">
        <ele>2008</ele>
        <time>2014-09-14T06:42:43Z</time>
      </trkpt>
      <trkpt lat="42.68034" lon="1.53584">
        <ele>2010</ele>
        <time>2014-09-14T06:42:58Z</time>
      </trkpt>
      <trkpt lat="42.68038" lon="1.53587">
        <ele>2010</ele>
        <time>2014-09-14T06:43:13Z</time>
      </trkpt>
      <trkpt lat="42.68037" lon="1.53592">
        <ele>2012</ele>
        <time>2014-09-14T06:43:26Z</time>
      </trkpt>
      <trkpt lat="42.68034" lon="1.53597">
        <ele>2013</ele>
        <time>2014-09-14T06:43:40Z</time>
      </trkpt>
      <trkpt lat="42.68036" lon="1.53596">
        <ele>2014</ele>
        <time>2014-09-14T06:43:54Z</time>
      </trkpt>
      <trkpt lat="42.68039" lon="1.53597">
        <ele>2015</ele>
        <time>2014-09-14T06:44:10Z</time>
      </trkpt>
      <trkpt lat="42.68042" lon="1.53601">
        <ele>2016</ele>
        <time>2014-09-14T06:44:26Z</time>
      </trkpt>
      <trkpt lat="42.68038" lon="1.53602">
        <ele>2017</ele>
        <time>2014-09-14T06:44:42Z</time>
      </trkpt>
      <trkpt lat="42.68033" lon="1.53604">
        <ele>2018</ele>
        <time>2014-09-14T06:44:58Z</time>
      </trkpt>
      <trkpt lat="42.68036" lon="1.53605">
        <ele>2018</ele>
        <time>2014-09-14T06:45:17Z</time>
      </trkpt>
      <trkpt lat="42.68032" lon="1.53609">
        <ele>2020</ele>
        <time>2014-09-14T06:45:28Z</time>
      </trkpt>
      <trkpt lat="42.68032" lon="1.53614">
        <ele>2020</ele>
        <time>2014-09-14T06:45:41Z</time>
      </trkpt>
      <trkpt lat="42.68032" lon="1.53615">
        <ele>2019</ele>
        <time>2014-09-14T06:45:58Z</time>
      </trkpt>
      <trkpt lat="42.68027" lon="1.53614">
        <ele>2020</ele>
        <time>2014-09-14T06:46:14Z</time>
      </trkpt>
      <trkpt lat="42.68024" lon="1.53615">
        <ele>2021</ele>
        <time>2014-09-14T06:46:27Z</time>
      </trkpt>
      <trkpt lat="42.68025" lon="1.53617">
        <ele>2019</ele>
        <time>2014-09-14T06:46:37Z</time>
      </trkpt>
      <trkpt lat="42.68025" lon="1.53618">
        <ele>2020</ele>
        <time>2014-09-14T06:46:52Z</time>
      </trkpt>
      <trkpt lat="42.68021" lon="1.53623">
        <ele>2023</ele>
        <time>2014-09-14T06:47:05Z</time>
      </trkpt>
      <trkpt lat="42.68018" lon="1.53627">
        <ele>2024</ele>
        <time>2014-09-14T06:47:16Z</time>
      </trkpt>
      <trkpt lat="42.68017" lon="1.5363">
        <ele>2026</ele>
        <time>2014-09-14T06:47:29Z</time>
      </trkpt>
      <trkpt lat="42.68019" lon="1.53633">
        <ele>2028</ele>
        <time>2014-09-14T06:47:44Z</time>
      </trkpt>
      <trkpt lat="42.68019" lon="1.53638">
        <ele>2029</ele>
        <time>2014-09-14T06:47:57Z</time>
      </trkpt>
      <trkpt lat="42.6802" lon="1.53641">
        <ele>2031</ele>
        <time>2014-09-14T06:48:10Z</time>
      </trkpt>
      <trkpt lat="42.68021" lon="1.53645">
        <ele>2033</ele>
        <time>2014-09-14T06:48:26Z</time>
      </trkpt>
      <trkpt lat="42.68017" lon="1.53649">
        <ele>2036</ele>
        <time>2014-09-14T06:48:41Z</time>
      </trkpt>
      <trkpt lat="42.68013" lon="1.53654">
        <ele>2037</ele>
        <time>2014-09-14T06:48:56Z</time>
      </trkpt>
      <trkpt lat="42.68012" lon="1.53657">
        <ele>2039</ele>
        <time>2014-09-14T06:49:12Z</time>
      </trkpt>
      <trkpt lat="42.6801" lon="1.53657">
        <ele>2040</ele>
        <time>2014-09-14T06:49:25Z</time>
      </trkpt>
      <trkpt lat="42.68009" lon="1.5366">
        <ele>2041</ele>
        <time>2014-09-14T06:49:40Z</time>
      </trkpt>
      <trkpt lat="42.68008" lon="1.53665">
        <ele>2043</ele>
        <time>2014-09-14T06:49:55Z</time>
      </trkpt>
      <trkpt lat="42.68005" lon="1.53667">
        <ele>2044</ele>
        <time>2014-09-14T06:50:07Z</time>
      </trkpt>
      <trkpt lat="42.68007" lon="1.53667">
        <ele>2045</ele>
        <time>2014-09-14T06:50:24Z</time>
      </trkpt>
      <trkpt lat="42.68008" lon="1.53668">
        <ele>2045</ele>
        <time>2014-09-14T06:50:34Z</time>
      </trkpt>
      <trkpt lat="42.68011" lon="1.53668">
        <ele>2047</ele>
        <time>2014-09-14T06:50:42Z</time>
      </trkpt>
      <trkpt lat="42.68013" lon="1.53668">
        <ele>2046</ele>
        <time>2014-09-14T06:50:52Z</time>
      </trkpt>
      <trkpt lat="42.68016" lon="1.53669">
        <ele>2046</ele>
        <time>2014-09-14T06:51:03Z</time>
      </trkpt>
      <trkpt lat="42.68018" lon="1.5367">
        <ele>2047</ele>
        <time>2014-09-14T06:51:17Z</time>
      </trkpt>
      <trkpt lat="42.68021" lon="1.53671">
        <ele>2048</ele>
        <time>2014-09-14T06:51:31Z</time>
      </trkpt>
      <trkpt lat="42.68018" lon="1.53673">
        <ele>2047</ele>
        <time>2014-09-14T06:51:48Z</time>
      </trkpt>
      <trkpt lat="42.68015" lon="1.53677">
        <ele>2049</ele>
        <time>2014-09-14T06:52:04Z</time>
      </trkpt>
      <trkpt lat="42.68015" lon="1.53681">
        <ele>2050</ele>
        <time>2014-09-14T06:52:18Z</time>
      </trkpt>
      <trkpt lat="42.68018" lon="1.53681">
        <ele>2050</ele>
        <time>2014-09-14T06:52:35Z</time>
      </trkpt>
      <trkpt lat="42.68017" lon="1.53682">
        <ele>2049</ele>
        <time>2014-09-14T06:52:49Z</time>
      </trkpt>
      <trkpt lat="42.68018" lon="1.53685">
        <ele>2049</ele>
        <time>2014-09-14T06:53:07Z</time>
      </trkpt>
      <trkpt lat="42.68019" lon="1.53684">
        <ele>2049</ele>
        <time>2014-09-14T06:53:24Z</time>
      </trkpt>
      <trkpt lat="42.68019" lon="1.53682">
        <ele>2049</ele>
        <time>2014-09-14T06:53:43Z</time>
      </trkpt>
      <trkpt lat="42.6802" lon="1.53683">
        <ele>2051</ele>
        <time>2014-09-14T06:53:54Z</time>
      </trkpt>
      <trkpt lat="42.68024" lon="1.53679">
        <ele>2053</ele>
        <time>2014-09-14T06:54:10Z</time>
      </trkpt>
      <trkpt lat="42.68024" lon="1.53682">
        <ele>2053</ele>
        <time>2014-09-14T06:54:24Z</time>
      </trkpt>
      <trkpt lat="42.6802" lon="1.53683">
        <ele>2053</ele>
        <time>2014-09-14T06:54:46Z</time>
      </trkpt>
      <trkpt lat="42.68018" lon="1.53688">
        <ele>2053</ele>
        <time>2014-09-14T06:55:17Z</time>
      </trkpt>
      <trkpt lat="42.68018" lon="1.53688">
        <ele>2053</ele>
        <time>2014-09-14T06:55:46Z</time>
      </trkpt>
      <trkpt lat="42.68019" lon="1.53687">
        <ele>2053</ele>
        <time>2014-09-14T06:56:12Z</time>
      </trkpt>
      <trkpt lat="42.68022" lon="1.53685">
        <ele>2056</ele>
        <time>2014-09-14T06:56:26Z</time>
      </trkpt>
      <trkpt lat="42.68027" lon="1.53686">
        <ele>2058</ele>
        <time>2014-09-14T06:56:42Z</time>
      </trkpt>
      <trkpt lat="42.68028" lon="1.53687">
        <ele>2060</ele>
        <time>2014-09-14T06:56:51Z</time>
      </trkpt>
      <trkpt lat="42.68029" lon="1.53695">
        <ele>2062</ele>
        <time>2014-09-14T06:57:04Z</time>
      </trkpt>
      <trkpt lat="42.68026" lon="1.53699">
        <ele>2061</ele>
        <time>2014-09-14T06:57:19Z</time>
      </trkpt>
      <trkpt lat="42.68025" lon="1.53703">
        <ele>2063</ele>
        <time>2014-09-14T06:57:32Z</time>
      </trkpt>
      <trkpt lat="42.68025" lon="1.53705">
        <ele>2064</ele>
        <time>2014-09-14T06:57:38Z</time>
      </trkpt>
      <trkpt lat="42.68024" lon="1.53709">
        <ele>2064</ele>
        <time>2014-09-14T06:57:47Z</time>
      </trkpt>
      <trkpt lat="42.68021" lon="1.53714">
        <ele>2066</ele>
        <time>2014-09-14T06:58:02Z</time>
      </trkpt>
      <trkpt lat="42.68023" lon="1.5371">
        <ele>2065</ele>
        <time>2014-09-14T06:58:19Z</time>
      </trkpt>
      <trkpt lat="42.68021" lon="1.53719">
        <ele>2066</ele>
        <time>2014-09-14T06:58:34Z</time>
      </trkpt>
      <trkpt lat="42.68018" lon="1.5372">
        <ele>2066</ele>
        <time>2014-09-14T06:58:46Z</time>
      </trkpt>
      <trkpt lat="42.68016" lon="1.53725">
        <ele>2066</ele>
        <time>2014-09-14T06:58:59Z</time>
      </trkpt>
      <trkpt lat="42.68016" lon="1.53726">
        <ele>2066</ele>
        <time>2014-09-14T06:59:00Z</time>
      </trkpt>
      <trkpt lat="42.6802" lon="1.5373">
        <ele>2067</ele>
        <time>2014-09-14T06:59:11Z</time>
      </trkpt>
      <trkpt lat="42.68017" lon="1.53726">
        <ele>2067</ele>
        <time>2014-09-14T06:59:23Z</time>
      </trkpt>
      <trkpt lat="42.68011" lon="1.53726">
        <ele>2067</ele>
        <time>2014-09-14T06:59:34Z</time>
      </trkpt>
      <trkpt lat="42.68002" lon="1.5373">
        <ele>2069</ele>
        <time>2014-09-14T06:59:46Z</time>
      </trkpt>
      <trkpt lat="42.67998" lon="1.53729">
        <ele>2070</ele>
        <time>2014-09-14T06:59:58Z</time>
      </trkpt>
      <trkpt lat="42.67997" lon="1.53732">
        <ele>2070</ele>
        <time>2014-09-14T07:00:16Z</time>
      </trkpt>
      <trkpt lat="42.67996" lon="1.53734">
        <ele>2070</ele>
        <time>2014-09-14T07:00:48Z</time>
      </trkpt>
      <trkpt lat="42.67993" lon="1.53736">
        <ele>2071</ele>
        <time>2014-09-14T07:01:16Z</time>
      </trkpt>
      <trkpt lat="42.67994" lon="1.53739">
        <ele>2070</ele>
        <time>2014-09-14T07:01:29Z</time>
      </trkpt>
      <trkpt lat="42.67997" lon="1.53735">
        <ele>2069</ele>
        <time>2014-09-14T07:01:44Z</time>
      </trkpt>
      <trkpt lat="42.67999" lon="1.53733">
        <ele>2069</ele>
        <time>2014-09-14T07:02:06Z</time>
      </trkpt>
      <trkpt lat="42.67994" lon="1.53738">
        <ele>2071</ele>
        <time>2014-09-14T07:02:23Z</time>
      </trkpt>
      <trkpt lat="42.67993" lon="1.53742">
        <ele>2072</ele>
        <time>2014-09-14T07:02:36Z</time>
      </trkpt>
      <trkpt lat="42.67994" lon="1.53748">
        <ele>2076</ele>
        <time>2014-09-14T07:02:45Z</time>
      </trkpt>
      <trkpt lat="42.67994" lon="1.53761">
        <ele>2077</ele>
        <time>2014-09-14T07:02:58Z</time>
      </trkpt>
      <trkpt lat="42.67988" lon="1.5377">
        <ele>2078</ele>
        <time>2014-09-14T07:03:11Z</time>
      </trkpt>
      <trkpt lat="42.67987" lon="1.53778">
        <ele>2080</ele>
        <time>2014-09-14T07:03:25Z</time>
      </trkpt>
      <trkpt lat="42.67981" lon="1.53789">
        <ele>2081</ele>
        <time>2014-09-14T07:03:38Z</time>
      </trkpt>
      <trkpt lat="42.67981" lon="1.5379">
        <ele>2081</ele>
        <time>2014-09-14T07:03:43Z</time>
      </trkpt>
      <trkpt lat="42.67978" lon="1.53798">
        <ele>2083</ele>
        <time>2014-09-14T07:03:54Z</time>
      </trkpt>
      <trkpt lat="42.67974" lon="1.53806">
        <ele>2084</ele>
        <time>2014-09-14T07:04:06Z</time>
      </trkpt>
      <trkpt lat="42.67973" lon="1.53807">
        <ele>2085</ele>
        <time>2014-09-14T07:04:08Z</time>
      </trkpt>
      <trkpt lat="42.67967" lon="1.53807">
        <ele>2085</ele>
        <time>2014-09-14T07:04:13Z</time>
      </trkpt>
      <trkpt lat="42.67962" lon="1.53818">
        <ele>2085</ele>
        <time>2014-09-14T07:04:28Z</time>
      </trkpt>
      <trkpt lat="42.67963" lon="1.53819">
        <ele>2086</ele>
        <time>2014-09-14T07:04:48Z</time>
      </trkpt>
      <trkpt lat="42.67963" lon="1.53822">
        <ele>2086</ele>
        <time>2014-09-14T07:04:57Z</time>
      </trkpt>
      <trkpt lat="42.67962" lon="1.53825">
        <ele>2085</ele>
        <time>2014-09-14T07:04:59Z</time>
      </trkpt>
      <trkpt lat="42.67961" lon="1.53838">
        <ele>2085</ele>
        <time>2014-09-14T07:05:12Z</time>
      </trkpt>
      <trkpt lat="42.67958" lon="1.53847">
        <ele>2086</ele>
        <time>2014-09-14T07:05:24Z</time>
      </trkpt>
      <trkpt lat="42.67957" lon="1.53854">
        <ele>2086</ele>
        <time>2014-09-14T07:05:36Z</time>
      </trkpt>
      <trkpt lat="42.67956" lon="1.53858">
        <ele>2087</ele>
        <time>2014-09-14T07:05:43Z</time>
      </trkpt>
      <trkpt lat="42.67954" lon="1.53866">
        <ele>2088</ele>
        <time>2014-09-14T07:05:56Z</time>
      </trkpt>
      <trkpt lat="42.67951" lon="1.5387">
        <ele>2088</ele>
        <time>2014-09-14T07:06:07Z</time>
      </trkpt>
      <trkpt lat="42.67951" lon="1.53871">
        <ele>2088</ele>
        <time>2014-09-14T07:06:21Z</time>
      </trkpt>
      <trkpt lat="42.67949" lon="1.53876">
        <ele>2089</ele>
        <time>2014-09-14T07:06:34Z</time>
      </trkpt>
      <trkpt lat="42.67948" lon="1.53882">
        <ele>2088</ele>
        <time>2014-09-14T07:06:46Z</time>
      </trkpt>
      <trkpt lat="42.67944" lon="1.53887">
        <ele>2090</ele>
        <time>2014-09-14T07:06:58Z</time>
      </trkpt>
      <trkpt lat="42.67939" lon="1.53891">
        <ele>2092</ele>
        <time>2014-09-14T07:07:11Z</time>
      </trkpt>
      <trkpt lat="42.67934" lon="1.53899">
        <ele>2094</ele>
        <time>2014-09-14T07:07:23Z</time>
      </trkpt>
      <trkpt lat="42.67927" lon="1.5391">
        <ele>2095</ele>
        <time>2014-09-14T07:07:35Z</time>
      </trkpt>
      <trkpt lat="42.67922" lon="1.53918">
        <ele>2097</ele>
        <time>2014-09-14T07:07:48Z</time>
      </trkpt>
      <trkpt lat="42.67923" lon="1.5393">
        <ele>2099</ele>
        <time>2014-09-14T07:08:02Z</time>
      </trkpt>
      <trkpt lat="42.67918" lon="1.53943">
        <ele>2100</ele>
        <time>2014-09-14T07:08:16Z</time>
      </trkpt>
      <trkpt lat="42.67919" lon="1.53951">
        <ele>2101</ele>
        <time>2014-09-14T07:08:29Z</time>
      </trkpt>
      <trkpt lat="42.67923" lon="1.53963">
        <ele>2104</ele>
        <time>2014-09-14T07:08:44Z</time>
      </trkpt>
      <trkpt lat="42.67923" lon="1.53964">
        <ele>2104</ele>
        <time>2014-09-14T07:08:46Z</time>
      </trkpt>
      <trkpt lat="42.67925" lon="1.53973">
        <ele>2105</ele>
        <time>2014-09-14T07:08:58Z</time>
      </trkpt>
      <trkpt lat="42.6792" lon="1.53983">
        <ele>2104</ele>
        <time>2014-09-14T07:09:11Z</time>
      </trkpt>
      <trkpt lat="42.67915" lon="1.53996">
        <ele>2106</ele>
        <time>2014-09-14T07:09:24Z</time>
      </trkpt>
      <trkpt lat="42.67907" lon="1.54007">
        <ele>2107</ele>
        <time>2014-09-14T07:09:40Z</time>
      </trkpt>
      <trkpt lat="42.67902" lon="1.54013">
        <ele>2107</ele>
        <time>2014-09-14T07:09:51Z</time>
      </trkpt>
      <trkpt lat="42.67896" lon="1.54014">
        <ele>2108</ele>
        <time>2014-09-14T07:10:03Z</time>
      </trkpt>
      <trkpt lat="42.67895" lon="1.54015">
        <ele>2108</ele>
        <time>2014-09-14T07:10:12Z</time>
      </trkpt>
      <trkpt lat="42.67893" lon="1.54019">
        <ele>2107</ele>
        <time>2014-09-14T07:10:17Z</time>
      </trkpt>
      <trkpt lat="42.67885" lon="1.54028">
        <ele>2108</ele>
        <time>2014-09-14T07:10:31Z</time>
      </trkpt>
      <trkpt lat="42.67877" lon="1.54031">
        <ele>2108</ele>
        <time>2014-09-14T07:10:42Z</time>
      </trkpt>
      <trkpt lat="42.6787" lon="1.54036">
        <ele>2109</ele>
        <time>2014-09-14T07:10:55Z</time>
      </trkpt>
      <trkpt lat="42.67868" lon="1.54047">
        <ele>2110</ele>
        <time>2014-09-14T07:11:06Z</time>
      </trkpt>
      <trkpt lat="42.67862" lon="1.54052">
        <ele>2111</ele>
        <time>2014-09-14T07:11:15Z</time>
      </trkpt>
      <trkpt lat="42.67856" lon="1.54064">
        <ele>2112</ele>
        <time>2014-09-14T07:11:29Z</time>
      </trkpt>
      <trkpt lat="42.67854" lon="1.54066">
        <ele>2112</ele>
        <time>2014-09-14T07:11:32Z</time>
      </trkpt>
      <trkpt lat="42.67848" lon="1.54072">
        <ele>2113</ele>
        <time>2014-09-14T07:11:42Z</time>
      </trkpt>
      <trkpt lat="42.67846" lon="1.54079">
        <ele>2112</ele>
        <time>2014-09-14T07:11:52Z</time>
      </trkpt>
      <trkpt lat="42.67844" lon="1.54079">
        <ele>2113</ele>
        <time>2014-09-14T07:12:03Z</time>
      </trkpt>
      <trkpt lat="42.67843" lon="1.54081">
        <ele>2113</ele>
        <time>2014-09-14T07:12:24Z</time>
      </trkpt>
      <trkpt lat="42.6784" lon="1.5409">
        <ele>2113</ele>
        <time>2014-09-14T07:12:36Z</time>
      </trkpt>
      <trkpt lat="42.67839" lon="1.54099">
        <ele>2113</ele>
        <time>2014-09-14T07:12:51Z</time>
      </trkpt>
      <trkpt lat="42.67837" lon="1.54102">
        <ele>2112</ele>
        <time>2014-09-14T07:12:59Z</time>
      </trkpt>
      <trkpt lat="42.67837" lon="1.54104">
        <ele>2112</ele>
        <time>2014-09-14T07:13:01Z</time>
      </trkpt>
      <trkpt lat="42.67836" lon="1.54109">
        <ele>2112</ele>
        <time>2014-09-14T07:13:05Z</time>
      </trkpt>
      <trkpt lat="42.67835" lon="1.54114">
        <ele>2112</ele>
        <time>2014-09-14T07:13:09Z</time>
      </trkpt>
      <trkpt lat="42.67834" lon="1.54118">
        <ele>2112</ele>
        <time>2014-09-14T07:13:12Z</time>
      </trkpt>
      <trkpt lat="42.67829" lon="1.54131">
        <ele>2111</ele>
        <time>2014-09-14T07:13:24Z</time>
      </trkpt>
      <trkpt lat="42.67829" lon="1.54141">
        <ele>2112</ele>
        <time>2014-09-14T07:13:36Z</time>
      </trkpt>
      <trkpt lat="42.67827" lon="1.54141">
        <ele>2112</ele>
        <time>2014-09-14T07:13:53Z</time>
      </trkpt>
      <trkpt lat="42.67829" lon="1.54146">
        <ele>2112</ele>
        <time>2014-09-14T07:13:58Z</time>
      </trkpt>
      <trkpt lat="42.67829" lon="1.54161">
        <ele>2114</ele>
        <time>2014-09-14T07:14:13Z</time>
      </trkpt>
      <trkpt lat="42.67829" lon="1.54163">
        <ele>2114</ele>
        <time>2014-09-14T07:14:29Z</time>
      </trkpt>
      <trkpt lat="42.67831" lon="1.54164">
        <ele>2113</ele>
        <time>2014-09-14T07:14:52Z</time>
      </trkpt>
      <trkpt lat="42.67827" lon="1.54163">
        <ele>2113</ele>
        <time>2014-09-14T07:15:16Z</time>
      </trkpt>
      <trkpt lat="42.67827" lon="1.54163">
        <ele>2113</ele>
        <time>2014-09-14T07:15:34Z</time>
      </trkpt>
      <trkpt lat="42.67828" lon="1.54164">
        <ele>2113</ele>
        <time>2014-09-14T07:15:56Z</time>
      </trkpt>
      <trkpt lat="42.67826" lon="1.54164">
        <ele>2113</ele>
        <time>2014-09-14T07:16:18Z</time>
      </trkpt>
      <trkpt lat="42.67828" lon="1.54164">
        <ele>2113</ele>
        <time>2014-09-14T07:16:46Z</time>
      </trkpt>
      <trkpt lat="42.67831" lon="1.54163">
        <ele>2113</ele>
        <time>2014-09-14T07:17:06Z</time>
      </trkpt>
      <trkpt lat="42.6783" lon="1.54164">
        <ele>2114</ele>
        <time>2014-09-14T07:17:27Z</time>
      </trkpt>
      <trkpt lat="42.67829" lon="1.54165">
        <ele>2114</ele>
        <time>2014-09-14T07:17:58Z</time>
      </trkpt>
      <trkpt lat="42.67827" lon="1.54167">
        <ele>2113</ele>
        <time>2014-09-14T07:18:13Z</time>
      </trkpt>
      <trkpt lat="42.6783" lon="1.54166">
        <ele>2114</ele>
        <time>2014-09-14T07:18:36Z</time>
      </trkpt>
      <trkpt lat="42.67831" lon="1.54163">
        <ele>2114</ele>
        <time>2014-09-14T07:18:54Z</time>
      </trkpt>
      <trkpt lat="42.6783" lon="1.54165">
        <ele>2115</ele>
        <time>2014-09-14T07:19:09Z</time>
      </trkpt>
      <trkpt lat="42.6783" lon="1.5417">
        <ele>2113</ele>
        <time>2014-09-14T07:19:18Z</time>
      </trkpt>
      <trkpt lat="42.67827" lon="1.54181">
        <ele>2112</ele>
        <time>2014-09-14T07:19:31Z</time>
      </trkpt>
      <trkpt lat="42.67828" lon="1.54184">
        <ele>2112</ele>
        <time>2014-09-14T07:19:34Z</time>
      </trkpt>
      <trkpt lat="42.6783" lon="1.54192">
        <ele>2112</ele>
        <time>2014-09-14T07:19:42Z</time>
      </trkpt>
      <trkpt lat="42.67829" lon="1.54204">
        <ele>2112</ele>
        <time>2014-09-14T07:19:54Z</time>
      </trkpt>
      <trkpt lat="42.67833" lon="1.54218">
        <ele>2112</ele>
        <time>2014-09-14T07:20:07Z</time>
      </trkpt>
      <trkpt lat="42.67835" lon="1.54226">
        <ele>2113</ele>
        <time>2014-09-14T07:20:20Z</time>
      </trkpt>
      <trkpt lat="42.67834" lon="1.54233">
        <ele>2114</ele>
        <time>2014-09-14T07:20:32Z</time>
      </trkpt>
      <trkpt lat="42.67833" lon="1.54242">
        <ele>2114</ele>
        <time>2014-09-14T07:20:45Z</time>
      </trkpt>
      <trkpt lat="42.67831" lon="1.54247">
        <ele>2115</ele>
        <time>2014-09-14T07:20:51Z</time>
      </trkpt>
      <trkpt lat="42.67831" lon="1.54255">
        <ele>2115</ele>
        <time>2014-09-14T07:21:04Z</time>
      </trkpt>
      <trkpt lat="42.67831" lon="1.54256">
        <ele>2115</ele>
        <time>2014-09-14T07:21:05Z</time>
      </trkpt>
      <trkpt lat="42.67828" lon="1.54266">
        <ele>2116</ele>
        <time>2014-09-14T07:21:16Z</time>
      </trkpt>
      <trkpt lat="42.67828" lon="1.54279">
        <ele>2116</ele>
        <time>2014-09-14T07:21:30Z</time>
      </trkpt>
      <trkpt lat="42.67828" lon="1.54287">
        <ele>2116</ele>
        <time>2014-09-14T07:21:38Z</time>
      </trkpt>
      <trkpt lat="42.67825" lon="1.54305">
        <ele>2116</ele>
        <time>2014-09-14T07:21:52Z</time>
      </trkpt>
      <trkpt lat="42.67825" lon="1.54309">
        <ele>2116</ele>
        <time>2014-09-14T07:22:09Z</time>
      </trkpt>
      <trkpt lat="42.6782" lon="1.54317">
        <ele>2116</ele>
        <time>2014-09-14T07:22:34Z</time>
      </trkpt>
      <trkpt lat="42.67821" lon="1.54319">
        <ele>2116</ele>
        <time>2014-09-14T07:22:40Z</time>
      </trkpt>
      <trkpt lat="42.67821" lon="1.54325">
        <ele>2115</ele>
        <time>2014-09-14T07:22:46Z</time>
      </trkpt>
      <trkpt lat="42.67815" lon="1.5434">
        <ele>2115</ele>
        <time>2014-09-14T07:23:00Z</time>
      </trkpt>
      <trkpt lat="42.67815" lon="1.54341">
        <ele>2116</ele>
        <time>2014-09-14T07:23:02Z</time>
      </trkpt>
      <trkpt lat="42.67815" lon="1.54354">
        <ele>2116</ele>
        <time>2014-09-14T07:23:17Z</time>
      </trkpt>
      <trkpt lat="42.67812" lon="1.54367">
        <ele>2116</ele>
        <time>2014-09-14T07:23:31Z</time>
      </trkpt>
      <trkpt lat="42.67805" lon="1.54373">
        <ele>2116</ele>
        <time>2014-09-14T07:23:42Z</time>
      </trkpt>
      <trkpt lat="42.67795" lon="1.54385">
        <ele>2118</ele>
        <time>2014-09-14T07:23:57Z</time>
      </trkpt>
      <trkpt lat="42.67788" lon="1.54397">
        <ele>2118</ele>
        <time>2014-09-14T07:24:10Z</time>
      </trkpt>
      <trkpt lat="42.67785" lon="1.54409">
        <ele>2119</ele>
        <time>2014-09-14T07:24:22Z</time>
      </trkpt>
      <trkpt lat="42.67785" lon="1.54413">
        <ele>2119</ele>
        <time>2014-09-14T07:24:25Z</time>
      </trkpt>
      <trkpt lat="42.67777" lon="1.54427">
        <ele>2121</ele>
        <time>2014-09-14T07:24:40Z</time>
      </trkpt>
      <trkpt lat="42.67776" lon="1.54427">
        <ele>2120</ele>
        <time>2014-09-14T07:24:52Z</time>
      </trkpt>
      <trkpt lat="42.67777" lon="1.54428">
        <ele>2120</ele>
        <time>2014-09-14T07:25:15Z</time>
      </trkpt>
      <trkpt lat="42.67779" lon="1.54429">
        <ele>2120</ele>
        <time>2014-09-14T07:25:31Z</time>
      </trkpt>
      <trkpt lat="42.6777" lon="1.54438">
        <ele>2121</ele>
        <time>2014-09-14T07:25:43Z</time>
      </trkpt>
      <trkpt lat="42.67764" lon="1.54448">
        <ele>2123</ele>
        <time>2014-09-14T07:25:56Z</time>
      </trkpt>
      <trkpt lat="42.67761" lon="1.54456">
        <ele>2124</ele>
        <time>2014-09-14T07:26:06Z</time>
      </trkpt>
      <trkpt lat="42.67756" lon="1.54464">
        <ele>2124</ele>
        <time>2014-09-14T07:26:19Z</time>
      </trkpt>
      <trkpt lat="42.67749" lon="1.5447">
        <ele>2125</ele>
        <time>2014-09-14T07:26:31Z</time>
      </trkpt>
      <trkpt lat="42.67746" lon="1.54468">
        <ele>2125</ele>
        <time>2014-09-14T07:26:34Z</time>
      </trkpt>
      <trkpt lat="42.67741" lon="1.54466">
        <ele>2125</ele>
        <time>2014-09-14T07:26:39Z</time>
      </trkpt>
      <trkpt lat="42.67729" lon="1.54474">
        <ele>2124</ele>
        <time>2014-09-14T07:26:54Z</time>
      </trkpt>
      <trkpt lat="42.67725" lon="1.54471">
        <ele>2123</ele>
        <time>2014-09-14T07:27:00Z</time>
      </trkpt>
      <trkpt lat="42.67718" lon="1.54462">
        <ele>2125</ele>
        <time>2014-09-14T07:27:11Z</time>
      </trkpt>
      <trkpt lat="42.67715" lon="1.5446">
        <ele>2127</ele>
        <time>2014-09-14T07:27:16Z</time>
      </trkpt>
      <trkpt lat="42.67714" lon="1.54462">
        <ele>2125</ele>
        <time>2014-09-14T07:27:24Z</time>
      </trkpt>
      <trkpt lat="42.67707" lon="1.54459">
        <ele>2124</ele>
        <time>2014-09-14T07:27:30Z</time>
      </trkpt>
      <trkpt lat="42.67705" lon="1.54453">
        <ele>2124</ele>
        <time>2014-09-14T07:27:46Z</time>
      </trkpt>
      <trkpt lat="42.6771" lon="1.54452">
        <ele>2124</ele>
        <time>2014-09-14T07:28:00Z</time>
      </trkpt>
      <trkpt lat="42.67708" lon="1.54455">
        <ele>2125</ele>
        <time>2014-09-14T07:28:22Z</time>
      </trkpt>
      <trkpt lat="42.67708" lon="1.54455">
        <ele>2124</ele>
        <time>2014-09-14T07:28:47Z</time>
      </trkpt>
      <trkpt lat="42.67707" lon="1.54459">
        <ele>2124</ele>
        <time>2014-09-14T07:28:57Z</time>
      </trkpt>
      <trkpt lat="42.67696" lon="1.54475">
        <ele>2125</ele>
        <time>2014-09-14T07:29:10Z</time>
      </trkpt>
      <trkpt lat="42.67693" lon="1.5448">
        <ele>2126</ele>
        <time>2014-09-14T07:29:14Z</time>
      </trkpt>
      <trkpt lat="42.67685" lon="1.5449">
        <ele>2126</ele>
        <time>2014-09-14T07:29:22Z</time>
      </trkpt>
      <trkpt lat="42.67672" lon="1.54504">
        <ele>2127</ele>
        <time>2014-09-14T07:29:35Z</time>
      </trkpt>
      <trkpt lat="42.67671" lon="1.54506">
        <ele>2127</ele>
        <time>2014-09-14T07:29:37Z</time>
      </trkpt>
      <trkpt lat="42.6766" lon="1.54515">
        <ele>2126</ele>
        <time>2014-09-14T07:29:49Z</time>
      </trkpt>
      <trkpt lat="42.67652" lon="1.54525">
        <ele>2127</ele>
        <time>2014-09-14T07:29:59Z</time>
      </trkpt>
      <trkpt lat="42.67639" lon="1.54529">
        <ele>2126</ele>
        <time>2014-09-14T07:30:13Z</time>
      </trkpt>
      <trkpt lat="42.67624" lon="1.54535">
        <ele>2127</ele>
        <time>2014-09-14T07:30:30Z</time>
      </trkpt>
      <trkpt lat="42.67614" lon="1.54541">
        <ele>2128</ele>
        <time>2014-09-14T07:30:46Z</time>
      </trkpt>
      <trkpt lat="42.6761" lon="1.54549">
        <ele>2128</ele>
        <time>2014-09-14T07:31:01Z</time>
      </trkpt>
      <trkpt lat="42.67608" lon="1.54553">
        <ele>2129</ele>
        <time>2014-09-14T07:31:18Z</time>
      </trkpt>
      <trkpt lat="42.67611" lon="1.5456">
        <ele>2129</ele>
        <time>2014-09-14T07:31:33Z</time>
      </trkpt>
      <trkpt lat="42.67608" lon="1.54571">
        <ele>2130</ele>
        <time>2014-09-14T07:31:45Z</time>
      </trkpt>
      <trkpt lat="42.67599" lon="1.54577">
        <ele>2131</ele>
        <time>2014-09-14T07:32:00Z</time>
      </trkpt>
      <trkpt lat="42.67595" lon="1.5459">
        <ele>2132</ele>
        <time>2014-09-14T07:32:15Z</time>
      </trkpt>
      <trkpt lat="42.6759" lon="1.54595">
        <ele>2133</ele>
        <time>2014-09-14T07:32:31Z</time>
      </trkpt>
      <trkpt lat="42.67587" lon="1.54595">
        <ele>2132</ele>
        <time>2014-09-14T07:32:47Z</time>
      </trkpt>
      <trkpt lat="42.67584" lon="1.54597">
        <ele>2132</ele>
        <time>2014-09-14T07:32:58Z</time>
      </trkpt>
      <trkpt lat="42.67575" lon="1.54596">
        <ele>2135</ele>
        <time>2014-09-14T07:33:11Z</time>
      </trkpt>
      <trkpt lat="42.67574" lon="1.54604">
        <ele>2136</ele>
        <time>2014-09-14T07:33:26Z</time>
      </trkpt>
      <trkpt lat="42.67562" lon="1.54601">
        <ele>2138</ele>
        <time>2014-09-14T07:33:41Z</time>
      </trkpt>
      <trkpt lat="42.67558" lon="1.54594">
        <ele>2138</ele>
        <time>2014-09-14T07:33:54Z</time>
      </trkpt>
      <trkpt lat="42.67556" lon="1.54592">
        <ele>2139</ele>
        <time>2014-09-14T07:34:08Z</time>
      </trkpt>
      <trkpt lat="42.67549" lon="1.54592">
        <ele>2141</ele>
        <time>2014-09-14T07:34:20Z</time>
      </trkpt>
      <trkpt lat="42.67543" lon="1.54583">
        <ele>2140</ele>
        <time>2014-09-14T07:34:34Z</time>
      </trkpt>
      <trkpt lat="42.67541" lon="1.54589">
        <ele>2141</ele>
        <time>2014-09-14T07:34:48Z</time>
      </trkpt>
      <trkpt lat="42.67541" lon="1.54593">
        <ele>2143</ele>
        <time>2014-09-14T07:35:03Z</time>
      </trkpt>
      <trkpt lat="42.67534" lon="1.54599">
        <ele>2145</ele>
        <time>2014-09-14T07:35:16Z</time>
      </trkpt>
      <trkpt lat="42.67532" lon="1.546">
        <ele>2145</ele>
        <time>2014-09-14T07:35:31Z</time>
      </trkpt>
      <trkpt lat="42.67529" lon="1.54603">
        <ele>2146</ele>
        <time>2014-09-14T07:35:46Z</time>
      </trkpt>
      <trkpt lat="42.67526" lon="1.54604">
        <ele>2148</ele>
        <time>2014-09-14T07:36:00Z</time>
      </trkpt>
      <trkpt lat="42.67525" lon="1.54609">
        <ele>2150</ele>
        <time>2014-09-14T07:36:13Z</time>
      </trkpt>
      <trkpt lat="42.67525" lon="1.54615">
        <ele>2152</ele>
        <time>2014-09-14T07:36:27Z</time>
      </trkpt>
      <trkpt lat="42.67524" lon="1.54619">
        <ele>2153</ele>
        <time>2014-09-14T07:36:39Z</time>
      </trkpt>
      <trkpt lat="42.67518" lon="1.5462">
        <ele>2154</ele>
        <time>2014-09-14T07:36:50Z</time>
      </trkpt>
      <trkpt lat="42.67518" lon="1.54624">
        <ele>2157</ele>
        <time>2014-09-14T07:37:03Z</time>
      </trkpt>
      <trkpt lat="42.6752" lon="1.54629">
        <ele>2158</ele>
        <time>2014-09-14T07:37:15Z</time>
      </trkpt>
      <trkpt lat="42.67512" lon="1.54633">
        <ele>2161</ele>
        <time>2014-09-14T07:37:29Z</time>
      </trkpt>
      <trkpt lat="42.67513" lon="1.54636">
        <ele>2161</ele>
        <time>2014-09-14T07:37:43Z</time>
      </trkpt>
      <trkpt lat="42.67508" lon="1.54637">
        <ele>2162</ele>
        <time>2014-09-14T07:37:54Z</time>
      </trkpt>
      <trkpt lat="42.67507" lon="1.5464">
        <ele>2165</ele>
        <time>2014-09-14T07:38:06Z</time>
      </trkpt>
      <trkpt lat="42.67507" lon="1.54645">
        <ele>2166</ele>
        <time>2014-09-14T07:38:19Z</time>
      </trkpt>
      <trkpt lat="42.67508" lon="1.54649">
        <ele>2168</ele>
        <time>2014-09-14T07:38:31Z</time>
      </trkpt>
      <trkpt lat="42.67508" lon="1.54653">
        <ele>2169</ele>
        <time>2014-09-14T07:38:44Z</time>
      </trkpt>
      <trkpt lat="42.67506" lon="1.54657">
        <ele>2171</ele>
        <time>2014-09-14T07:38:58Z</time>
      </trkpt>
      <trkpt lat="42.6751" lon="1.54661">
        <ele>2173</ele>
        <time>2014-09-14T07:39:15Z</time>
      </trkpt>
      <trkpt lat="42.67512" lon="1.54663">
        <ele>2174</ele>
        <time>2014-09-14T07:39:33Z</time>
      </trkpt>
      <trkpt lat="42.67505" lon="1.54664">
        <ele>2176</ele>
        <time>2014-09-14T07:39:46Z</time>
      </trkpt>
      <trkpt lat="42.67501" lon="1.5467">
        <ele>2178</ele>
        <time>2014-09-14T07:40:01Z</time>
      </trkpt>
      <trkpt lat="42.67496" lon="1.54671">
        <ele>2179</ele>
        <time>2014-09-14T07:40:14Z</time>
      </trkpt>
      <trkpt lat="42.67495" lon="1.54675">
        <ele>2180</ele>
        <time>2014-09-14T07:40:30Z</time>
      </trkpt>
      <trkpt lat="42.67493" lon="1.54677">
        <ele>2182</ele>
        <time>2014-09-14T07:40:35Z</time>
      </trkpt>
      <trkpt lat="42.6749" lon="1.54682">
        <ele>2184</ele>
        <time>2014-09-14T07:40:51Z</time>
      </trkpt>
      <trkpt lat="42.67485" lon="1.54685">
        <ele>2186</ele>
        <time>2014-09-14T07:41:05Z</time>
      </trkpt>
      <trkpt lat="42.67487" lon="1.54685">
        <ele>2188</ele>
        <time>2014-09-14T07:41:19Z</time>
      </trkpt>
      <trkpt lat="42.67487" lon="1.5469">
        <ele>2189</ele>
        <time>2014-09-14T07:41:31Z</time>
      </trkpt>
      <trkpt lat="42.67486" lon="1.54693">
        <ele>2191</ele>
        <time>2014-09-14T07:41:39Z</time>
      </trkpt>
      <trkpt lat="42.67487" lon="1.54696">
        <ele>2192</ele>
        <time>2014-09-14T07:41:56Z</time>
      </trkpt>
      <trkpt lat="42.67485" lon="1.547">
        <ele>2194</ele>
        <time>2014-09-14T07:42:09Z</time>
      </trkpt>
      <trkpt lat="42.67483" lon="1.54705">
        <ele>2196</ele>
        <time>2014-09-14T07:42:24Z</time>
      </trkpt>
      <trkpt lat="42.67484" lon="1.54708">
        <ele>2198</ele>
        <time>2014-09-14T07:42:37Z</time>
      </trkpt>
      <trkpt lat="42.67482" lon="1.54711">
        <ele>2199</ele>
        <time>2014-09-14T07:42:51Z</time>
      </trkpt>
      <trkpt lat="42.67483" lon="1.54713">
        <ele>2201</ele>
        <time>2014-09-14T07:43:04Z</time>
      </trkpt>
      <trkpt lat="42.67479" lon="1.54715">
        <ele>2203</ele>
        <time>2014-09-14T07:43:17Z</time>
      </trkpt>
      <trkpt lat="42.67475" lon="1.54718">
        <ele>2203</ele>
        <time>2014-09-14T07:43:31Z</time>
      </trkpt>
      <trkpt lat="42.67474" lon="1.5472">
        <ele>2205</ele>
        <time>2014-09-14T07:43:45Z</time>
      </trkpt>
      <trkpt lat="42.67474" lon="1.54724">
        <ele>2207</ele>
        <time>2014-09-14T07:44:01Z</time>
      </trkpt>
      <trkpt lat="42.67471" lon="1.54727">
        <ele>2209</ele>
        <time>2014-09-14T07:44:17Z</time>
      </trkpt>
      <trkpt lat="42.67471" lon="1.54727">
        <ele>2210</ele>
        <time>2014-09-14T07:44:26Z</time>
      </trkpt>
      <trkpt lat="42.67472" lon="1.54726">
        <ele>2211</ele>
        <time>2014-09-14T07:44:43Z</time>
      </trkpt>
      <trkpt lat="42.67472" lon="1.54729">
        <ele>2211</ele>
        <time>2014-09-14T07:45:03Z</time>
      </trkpt>
      <trkpt lat="42.6747" lon="1.54732">
        <ele>2214</ele>
        <time>2014-09-14T07:45:19Z</time>
      </trkpt>
      <trkpt lat="42.67464" lon="1.54734">
        <ele>2215</ele>
        <time>2014-09-14T07:45:34Z</time>
      </trkpt>
      <trkpt lat="42.6746" lon="1.54734">
        <ele>2217</ele>
        <time>2014-09-14T07:45:49Z</time>
      </trkpt>
      <trkpt lat="42.67459" lon="1.54737">
        <ele>2219</ele>
        <time>2014-09-14T07:46:07Z</time>
      </trkpt>
      <trkpt lat="42.67459" lon="1.54742">
        <ele>2221</ele>
        <time>2014-09-14T07:46:21Z</time>
      </trkpt>
      <trkpt lat="42.67459" lon="1.54746">
        <ele>2223</ele>
        <time>2014-09-14T07:46:36Z</time>
      </trkpt>
      <trkpt lat="42.67455" lon="1.54749">
        <ele>2224</ele>
        <time>2014-09-14T07:46:50Z</time>
      </trkpt>
      <trkpt lat="42.67456" lon="1.54752">
        <ele>2225</ele>
        <time>2014-09-14T07:47:05Z</time>
      </trkpt>
      <trkpt lat="42.67456" lon="1.54753">
        <ele>2226</ele>
        <time>2014-09-14T07:47:23Z</time>
      </trkpt>
      <trkpt lat="42.67455" lon="1.54756">
        <ele>2226</ele>
        <time>2014-09-14T07:47:42Z</time>
      </trkpt>
      <trkpt lat="42.6745" lon="1.54754">
        <ele>2227</ele>
        <time>2014-09-14T07:47:53Z</time>
      </trkpt>
      <trkpt lat="42.67451" lon="1.54759">
        <ele>2230</ele>
        <time>2014-09-14T07:48:10Z</time>
      </trkpt>
      <trkpt lat="42.6745" lon="1.54763">
        <ele>2231</ele>
        <time>2014-09-14T07:48:22Z</time>
      </trkpt>
      <trkpt lat="42.6745" lon="1.54766">
        <ele>2232</ele>
        <time>2014-09-14T07:48:34Z</time>
      </trkpt>
      <trkpt lat="42.6745" lon="1.54767">
        <ele>2234</ele>
        <time>2014-09-14T07:48:47Z</time>
      </trkpt>
      <trkpt lat="42.67445" lon="1.5477">
        <ele>2235</ele>
        <time>2014-09-14T07:49:00Z</time>
      </trkpt>
      <trkpt lat="42.67445" lon="1.54775">
        <ele>2238</ele>
        <time>2014-09-14T07:49:13Z</time>
      </trkpt>
      <trkpt lat="42.6744" lon="1.54779">
        <ele>2239</ele>
        <time>2014-09-14T07:49:27Z</time>
      </trkpt>
      <trkpt lat="42.67439" lon="1.54786">
        <ele>2241</ele>
        <time>2014-09-14T07:49:42Z</time>
      </trkpt>
      <trkpt lat="42.67437" lon="1.54789">
        <ele>2241</ele>
        <time>2014-09-14T07:50:04Z</time>
      </trkpt>
      <trkpt lat="42.67431" lon="1.54792">
        <ele>2243</ele>
        <time>2014-09-14T07:50:18Z</time>
      </trkpt>
      <trkpt lat="42.67428" lon="1.54795">
        <ele>2244</ele>
        <time>2014-09-14T07:50:31Z</time>
      </trkpt>
      <trkpt lat="42.67425" lon="1.54796">
        <ele>2247</ele>
        <time>2014-09-14T07:50:44Z</time>
      </trkpt>
      <trkpt lat="42.67422" lon="1.54803">
        <ele>2248</ele>
        <time>2014-09-14T07:50:58Z</time>
      </trkpt>
      <trkpt lat="42.67418" lon="1.54808">
        <ele>2250</ele>
        <time>2014-09-14T07:51:10Z</time>
      </trkpt>
      <trkpt lat="42.67414" lon="1.54816">
        <ele>2252</ele>
        <time>2014-09-14T07:51:26Z</time>
      </trkpt>
      <trkpt lat="42.6741" lon="1.54821">
        <ele>2254</ele>
        <time>2014-09-14T07:51:41Z</time>
      </trkpt>
      <trkpt lat="42.67403" lon="1.54824">
        <ele>2255</ele>
        <time>2014-09-14T07:51:53Z</time>
      </trkpt>
      <trkpt lat="42.674" lon="1.54826">
        <ele>2256</ele>
        <time>2014-09-14T07:52:05Z</time>
      </trkpt>
      <trkpt lat="42.67398" lon="1.54827">
        <ele>2257</ele>
        <time>2014-09-14T07:52:19Z</time>
      </trkpt>
      <trkpt lat="42.67396" lon="1.54835">
        <ele>2258</ele>
        <time>2014-09-14T07:52:36Z</time>
      </trkpt>
      <trkpt lat="42.67394" lon="1.54837">
        <ele>2259</ele>
        <time>2014-09-14T07:52:51Z</time>
      </trkpt>
      <trkpt lat="42.67396" lon="1.54842">
        <ele>2260</ele>
        <time>2014-09-14T07:53:08Z</time>
      </trkpt>
      <trkpt lat="42.67395" lon="1.54852">
        <ele>2262</ele>
        <time>2014-09-14T07:53:22Z</time>
      </trkpt>
      <trkpt lat="42.67393" lon="1.54858">
        <ele>2264</ele>
        <time>2014-09-14T07:53:36Z</time>
      </trkpt>
      <trkpt lat="42.67389" lon="1.54863">
        <ele>2265</ele>
        <time>2014-09-14T07:53:50Z</time>
      </trkpt>
      <trkpt lat="42.67385" lon="1.54867">
        <ele>2266</ele>
        <time>2014-09-14T07:54:01Z</time>
      </trkpt>
      <trkpt lat="42.67383" lon="1.5487">
        <ele>2267</ele>
        <time>2014-09-14T07:54:18Z</time>
      </trkpt>
      <trkpt lat="42.6739" lon="1.54874">
        <ele>2268</ele>
        <time>2014-09-14T07:54:31Z</time>
      </trkpt>
      <trkpt lat="42.67385" lon="1.54873">
        <ele>2268</ele>
        <time>2014-09-14T07:54:54Z</time>
      </trkpt>
      <trkpt lat="42.67387" lon="1.54875">
        <ele>2269</ele>
        <time>2014-09-14T07:55:11Z</time>
      </trkpt>
      <trkpt lat="42.67385" lon="1.54879">
        <ele>2270</ele>
        <time>2014-09-14T07:55:23Z</time>
      </trkpt>
      <trkpt lat="42.67383" lon="1.54883">
        <ele>2270</ele>
        <time>2014-09-14T07:55:46Z</time>
      </trkpt>
      <trkpt lat="42.67384" lon="1.54886">
        <ele>2272</ele>
        <time>2014-09-14T07:56:04Z</time>
      </trkpt>
      <trkpt lat="42.67375" lon="1.5489">
        <ele>2274</ele>
        <time>2014-09-14T07:56:20Z</time>
      </trkpt>
      <trkpt lat="42.67371" lon="1.54895">
        <ele>2275</ele>
        <time>2014-09-14T07:56:32Z</time>
      </trkpt>
      <trkpt lat="42.67372" lon="1.549">
        <ele>2276</ele>
        <time>2014-09-14T07:56:45Z</time>
      </trkpt>
      <trkpt lat="42.67378" lon="1.54893">
        <ele>2276</ele>
        <time>2014-09-14T07:56:56Z</time>
      </trkpt>
      <trkpt lat="42.67376" lon="1.54894">
        <ele>2277</ele>
        <time>2014-09-14T07:57:21Z</time>
      </trkpt>
      <trkpt lat="42.67378" lon="1.54897">
        <ele>2277</ele>
        <time>2014-09-14T07:57:51Z</time>
      </trkpt>
      <trkpt lat="42.67372" lon="1.54894">
        <ele>2276</ele>
        <time>2014-09-14T07:58:06Z</time>
      </trkpt>
      <trkpt lat="42.67378" lon="1.5489">
        <ele>2276</ele>
        <time>2014-09-14T07:58:23Z</time>
      </trkpt>
      <trkpt lat="42.67377" lon="1.54884">
        <ele>2276</ele>
        <time>2014-09-14T07:58:46Z</time>
      </trkpt>
      <trkpt lat="42.67377" lon="1.5489">
        <ele>2277</ele>
        <time>2014-09-14T07:59:07Z</time>
      </trkpt>
      <trkpt lat="42.67372" lon="1.54888">
        <ele>2277</ele>
        <time>2014-09-14T07:59:49Z</time>
      </trkpt>
      <trkpt lat="42.67374" lon="1.54888">
        <ele>2277</ele>
        <time>2014-09-14T08:00:25Z</time>
      </trkpt>
      <trkpt lat="42.67374" lon="1.54889">
        <ele>2277</ele>
        <time>2014-09-14T08:01:01Z</time>
      </trkpt>
      <trkpt lat="42.67373" lon="1.54891">
        <ele>2277</ele>
        <time>2014-09-14T08:01:35Z</time>
      </trkpt>
      <trkpt lat="42.67371" lon="1.54891">
        <ele>2278</ele>
        <time>2014-09-14T08:02:18Z</time>
      </trkpt>
      <trkpt lat="42.67372" lon="1.54894">
        <ele>2278</ele>
        <time>2014-09-14T08:03:02Z</time>
      </trkpt>
      <trkpt lat="42.67369" lon="1.54895">
        <ele>2278</ele>
        <time>2014-09-14T08:03:41Z</time>
      </trkpt>
      <trkpt lat="42.6737" lon="1.54892">
        <ele>2278</ele>
        <time>2014-09-14T08:04:09Z</time>
      </trkpt>
      <trkpt lat="42.67371" lon="1.54893">
        <ele>2279</ele>
        <time>2014-09-14T08:04:50Z</time>
      </trkpt>
      <trkpt lat="42.67373" lon="1.54892">
        <ele>2279</ele>
        <time>2014-09-14T08:05:31Z</time>
      </trkpt>
      <trkpt lat="42.6737" lon="1.54891">
        <ele>2280</ele>
        <time>2014-09-14T08:06:11Z</time>
      </trkpt>
      <trkpt lat="42.67372" lon="1.54889">
        <ele>2280</ele>
        <time>2014-09-14T08:06:42Z</time>
      </trkpt>
      <trkpt lat="42.67371" lon="1.54891">
        <ele>2280</ele>
        <time>2014-09-14T08:07:20Z</time>
      </trkpt>
      <trkpt lat="42.67372" lon="1.54891">
        <ele>2280</ele>
        <time>2014-09-14T08:08:03Z</time>
      </trkpt>
      <trkpt lat="42.67372" lon="1.54891">
        <ele>2280</ele>
        <time>2014-09-14T08:08:37Z</time>
      </trkpt>
      <trkpt lat="42.67371" lon="1.54885">
        <ele>2282</ele>
        <time>2014-09-14T08:09:03Z</time>
      </trkpt>
      <trkpt lat="42.67369" lon="1.5489">
        <ele>2281</ele>
        <time>2014-09-14T08:09:27Z</time>
      </trkpt>
      <trkpt lat="42.67365" lon="1.5489">
        <ele>2281</ele>
        <time>2014-09-14T08:09:53Z</time>
      </trkpt>
      <trkpt lat="42.67369" lon="1.54881">
        <ele>2282</ele>
        <time>2014-09-14T08:10:22Z</time>
      </trkpt>
      <trkpt lat="42.67369" lon="1.54883">
        <ele>2282</ele>
        <time>2014-09-14T08:10:39Z</time>
      </trkpt>
      <trkpt lat="42.67364" lon="1.54888">
        <ele>2283</ele>
        <time>2014-09-14T08:10:57Z</time>
      </trkpt>
      <trkpt lat="42.67363" lon="1.54893">
        <ele>2283</ele>
        <time>2014-09-14T08:11:10Z</time>
      </trkpt>
      <trkpt lat="42.67363" lon="1.54902">
        <ele>2283</ele>
        <time>2014-09-14T08:11:21Z</time>
      </trkpt>
      <trkpt lat="42.67362" lon="1.54908">
        <ele>2284</ele>
        <time>2014-09-14T08:11:32Z</time>
      </trkpt>
      <trkpt lat="42.67362" lon="1.54914">
        <ele>2286</ele>
        <time>2014-09-14T08:11:45Z</time>
      </trkpt>
      <trkpt lat="42.6736" lon="1.54918">
        <ele>2288</ele>
        <time>2014-09-14T08:11:56Z</time>
      </trkpt>
      <trkpt lat="42.67359" lon="1.54923">
        <ele>2290</ele>
        <time>2014-09-14T08:12:09Z</time>
      </trkpt>
      <trkpt lat="42.67358" lon="1.54925">
        <ele>2291</ele>
        <time>2014-09-14T08:12:17Z</time>
      </trkpt>
      <trkpt lat="42.67354" lon="1.54933">
        <ele>2294</ele>
        <time>2014-09-14T08:12:29Z</time>
      </trkpt>
      <trkpt lat="42.67355" lon="1.54939">
        <ele>2296</ele>
        <time>2014-09-14T08:12:42Z</time>
      </trkpt>
      <trkpt lat="42.67355" lon="1.54944">
        <ele>2298</ele>
        <time>2014-09-14T08:12:54Z</time>
      </trkpt>
      <trkpt lat="42.67355" lon="1.5495">
        <ele>2299</ele>
        <time>2014-09-14T08:13:06Z</time>
      </trkpt>
      <trkpt lat="42.67356" lon="1.54952">
        <ele>2299</ele>
        <time>2014-09-14T08:13:24Z</time>
      </trkpt>
      <trkpt lat="42.67354" lon="1.54956">
        <ele>2302</ele>
        <time>2014-09-14T08:13:36Z</time>
      </trkpt>
      <trkpt lat="42.67351" lon="1.54965">
        <ele>2304</ele>
        <time>2014-09-14T08:13:50Z</time>
      </trkpt>
      <trkpt lat="42.67348" lon="1.54971">
        <ele>2305</ele>
        <time>2014-09-14T08:14:02Z</time>
      </trkpt>
      <trkpt lat="42.67346" lon="1.54977">
        <ele>2307</ele>
        <time>2014-09-14T08:14:16Z</time>
      </trkpt>
      <trkpt lat="42.67344" lon="1.54982">
        <ele>2309</ele>
        <time>2014-09-14T08:14:28Z</time>
      </trkpt>
      <trkpt lat="42.67345" lon="1.54987">
        <ele>2310</ele>
        <time>2014-09-14T08:14:41Z</time>
      </trkpt>
      <trkpt lat="42.67344" lon="1.54993">
        <ele>2313</ele>
        <time>2014-09-14T08:14:57Z</time>
      </trkpt>
      <trkpt lat="42.67341" lon="1.54999">
        <ele>2315</ele>
        <time>2014-09-14T08:15:12Z</time>
      </trkpt>
      <trkpt lat="42.6734" lon="1.55004">
        <ele>2316</ele>
        <time>2014-09-14T08:15:27Z</time>
      </trkpt>
      <trkpt lat="42.67342" lon="1.55008">
        <ele>2319</ele>
        <time>2014-09-14T08:15:39Z</time>
      </trkpt>
      <trkpt lat="42.67341" lon="1.55012">
        <ele>2320</ele>
        <time>2014-09-14T08:15:49Z</time>
      </trkpt>
      <trkpt lat="42.67342" lon="1.55017">
        <ele>2322</ele>
        <time>2014-09-14T08:16:02Z</time>
      </trkpt>
      <trkpt lat="42.67342" lon="1.55022">
        <ele>2324</ele>
        <time>2014-09-14T08:16:15Z</time>
      </trkpt>
      <trkpt lat="42.67341" lon="1.55026">
        <ele>2325</ele>
        <time>2014-09-14T08:16:26Z</time>
      </trkpt>
      <trkpt lat="42.6734" lon="1.5503">
        <ele>2327</ele>
        <time>2014-09-14T08:16:37Z</time>
      </trkpt>
      <trkpt lat="42.67339" lon="1.55031">
        <ele>2328</ele>
        <time>2014-09-14T08:16:41Z</time>
      </trkpt>
      <trkpt lat="42.67338" lon="1.55033">
        <ele>2329</ele>
        <time>2014-09-14T08:16:55Z</time>
      </trkpt>
      <trkpt lat="42.67339" lon="1.55036">
        <ele>2331</ele>
        <time>2014-09-14T08:17:05Z</time>
      </trkpt>
      <trkpt lat="42.6734" lon="1.55039">
        <ele>2332</ele>
        <time>2014-09-14T08:17:19Z</time>
      </trkpt>
      <trkpt lat="42.6734" lon="1.55044">
        <ele>2335</ele>
        <time>2014-09-14T08:17:32Z</time>
      </trkpt>
      <trkpt lat="42.67339" lon="1.55047">
        <ele>2337</ele>
        <time>2014-09-14T08:17:43Z</time>
      </trkpt>
      <trkpt lat="42.67339" lon="1.55053">
        <ele>2339</ele>
        <time>2014-09-14T08:17:58Z</time>
      </trkpt>
      <trkpt lat="42.67343" lon="1.55057">
        <ele>2340</ele>
        <time>2014-09-14T08:18:15Z</time>
      </trkpt>
      <trkpt lat="42.6734" lon="1.5506">
        <ele>2342</ele>
        <time>2014-09-14T08:18:29Z</time>
      </trkpt>
      <trkpt lat="42.67338" lon="1.55066">
        <ele>2344</ele>
        <time>2014-09-14T08:18:44Z</time>
      </trkpt>
      <trkpt lat="42.67335" lon="1.5507">
        <ele>2346</ele>
        <time>2014-09-14T08:19:00Z</time>
      </trkpt>
      <trkpt lat="42.67332" lon="1.55074">
        <ele>2348</ele>
        <time>2014-09-14T08:19:12Z</time>
      </trkpt>
      <trkpt lat="42.67331" lon="1.55078">
        <ele>2350</ele>
        <time>2014-09-14T08:19:25Z</time>
      </trkpt>
      <trkpt lat="42.6733" lon="1.55082">
        <ele>2352</ele>
        <time>2014-09-14T08:19:38Z</time>
      </trkpt>
      <trkpt lat="42.67328" lon="1.55087">
        <ele>2354</ele>
        <time>2014-09-14T08:19:52Z</time>
      </trkpt>
      <trkpt lat="42.67329" lon="1.55091">
        <ele>2356</ele>
        <time>2014-09-14T08:20:06Z</time>
      </trkpt>
      <trkpt lat="42.67327" lon="1.55097">
        <ele>2359</ele>
        <time>2014-09-14T08:20:20Z</time>
      </trkpt>
      <trkpt lat="42.67325" lon="1.55099">
        <ele>2360</ele>
        <time>2014-09-14T08:20:37Z</time>
      </trkpt>
      <trkpt lat="42.67327" lon="1.55103">
        <ele>2362</ele>
        <time>2014-09-14T08:20:52Z</time>
      </trkpt>
      <trkpt lat="42.67324" lon="1.55106">
        <ele>2364</ele>
        <time>2014-09-14T08:21:04Z</time>
      </trkpt>
      <trkpt lat="42.67325" lon="1.5511">
        <ele>2365</ele>
        <time>2014-09-14T08:21:18Z</time>
      </trkpt>
      <trkpt lat="42.67324" lon="1.55114">
        <ele>2367</ele>
        <time>2014-09-14T08:21:29Z</time>
      </trkpt>
      <trkpt lat="42.67324" lon="1.55112">
        <ele>2367</ele>
        <time>2014-09-14T08:21:51Z</time>
      </trkpt>
      <trkpt lat="42.67323" lon="1.55113">
        <ele>2367</ele>
        <time>2014-09-14T08:21:52Z</time>
      </trkpt>
      <trkpt lat="42.67324" lon="1.55115">
        <ele>2368</ele>
        <time>2014-09-14T08:22:09Z</time>
      </trkpt>
      <trkpt lat="42.67322" lon="1.55115">
        <ele>2368</ele>
        <time>2014-09-14T08:22:34Z</time>
      </trkpt>
      <trkpt lat="42.6732" lon="1.55118">
        <ele>2370</ele>
        <time>2014-09-14T08:22:48Z</time>
      </trkpt>
      <trkpt lat="42.67323" lon="1.55124">
        <ele>2372</ele>
        <time>2014-09-14T08:23:00Z</time>
      </trkpt>
      <trkpt lat="42.67321" lon="1.55126">
        <ele>2373</ele>
        <time>2014-09-14T08:23:05Z</time>
      </trkpt>
      <trkpt lat="42.67318" lon="1.55129">
        <ele>2375</ele>
        <time>2014-09-14T08:23:19Z</time>
      </trkpt>
      <trkpt lat="42.67316" lon="1.55134">
        <ele>2377</ele>
        <time>2014-09-14T08:23:31Z</time>
      </trkpt>
      <trkpt lat="42.67311" lon="1.55137">
        <ele>2379</ele>
        <time>2014-09-14T08:23:48Z</time>
      </trkpt>
      <trkpt lat="42.67316" lon="1.55134">
        <ele>2381</ele>
        <time>2014-09-14T08:24:04Z</time>
      </trkpt>
      <trkpt lat="42.67313" lon="1.5514">
        <ele>2382</ele>
        <time>2014-09-14T08:24:18Z</time>
      </trkpt>
      <trkpt lat="42.67312" lon="1.55146">
        <ele>2384</ele>
        <time>2014-09-14T08:24:32Z</time>
      </trkpt>
      <trkpt lat="42.6731" lon="1.55151">
        <ele>2385</ele>
        <time>2014-09-14T08:24:44Z</time>
      </trkpt>
      <trkpt lat="42.67313" lon="1.55153">
        <ele>2387</ele>
        <time>2014-09-14T08:24:59Z</time>
      </trkpt>
      <trkpt lat="42.67311" lon="1.55153">
        <ele>2389</ele>
        <time>2014-09-14T08:25:14Z</time>
      </trkpt>
      <trkpt lat="42.67309" lon="1.55157">
        <ele>2390</ele>
        <time>2014-09-14T08:25:26Z</time>
      </trkpt>
      <trkpt lat="42.67308" lon="1.55163">
        <ele>2391</ele>
        <time>2014-09-14T08:25:38Z</time>
      </trkpt>
      <trkpt lat="42.67307" lon="1.55165">
        <ele>2393</ele>
        <time>2014-09-14T08:25:52Z</time>
      </trkpt>
      <trkpt lat="42.67308" lon="1.55168">
        <ele>2394</ele>
        <time>2014-09-14T08:26:05Z</time>
      </trkpt>
      <trkpt lat="42.67307" lon="1.55173">
        <ele>2396</ele>
        <time>2014-09-14T08:26:20Z</time>
      </trkpt>
      <trkpt lat="42.67304" lon="1.55174">
        <ele>2398</ele>
        <time>2014-09-14T08:26:32Z</time>
      </trkpt>
      <trkpt lat="42.67306" lon="1.55179">
        <ele>2401</ele>
        <time>2014-09-14T08:26:47Z</time>
      </trkpt>
      <trkpt lat="42.67305" lon="1.55181">
        <ele>2402</ele>
        <time>2014-09-14T08:27:01Z</time>
      </trkpt>
      <trkpt lat="42.67305" lon="1.5519">
        <ele>2406</ele>
        <time>2014-09-14T08:27:15Z</time>
      </trkpt>
      <trkpt lat="42.67298" lon="1.55191">
        <ele>2406</ele>
        <time>2014-09-14T08:27:29Z</time>
      </trkpt>
      <trkpt lat="42.67298" lon="1.55194">
        <ele>2407</ele>
        <time>2014-09-14T08:27:43Z</time>
      </trkpt>
      <trkpt lat="42.67297" lon="1.55197">
        <ele>2410</ele>
        <time>2014-09-14T08:27:56Z</time>
      </trkpt>
      <trkpt lat="42.67285" lon="1.55206">
        <ele>2410</ele>
        <time>2014-09-14T08:28:22Z</time>
      </trkpt>
      <trkpt lat="42.67279" lon="1.55208">
        <ele>2410</ele>
        <time>2014-09-14T08:28:47Z</time>
      </trkpt>
      <trkpt lat="42.67292" lon="1.55199">
        <ele>2411</ele>
        <time>2014-09-14T08:28:58Z</time>
      </trkpt>
      <trkpt lat="42.67293" lon="1.55198">
        <ele>2413</ele>
        <time>2014-09-14T08:29:13Z</time>
      </trkpt>
      <trkpt lat="42.67289" lon="1.55202">
        <ele>2415</ele>
        <time>2014-09-14T08:29:28Z</time>
      </trkpt>
      <trkpt lat="42.67287" lon="1.55203">
        <ele>2416</ele>
        <time>2014-09-14T08:29:43Z</time>
      </trkpt>
      <trkpt lat="42.67291" lon="1.55206">
        <ele>2418</ele>
        <time>2014-09-14T08:30:00Z</time>
      </trkpt>
      <trkpt lat="42.67291" lon="1.55211">
        <ele>2421</ele>
        <time>2014-09-14T08:30:15Z</time>
      </trkpt>
      <trkpt lat="42.67291" lon="1.55215">
        <ele>2423</ele>
        <time>2014-09-14T08:30:28Z</time>
      </trkpt>
      <trkpt lat="42.6729" lon="1.55221">
        <ele>2424</ele>
        <time>2014-09-14T08:30:44Z</time>
      </trkpt>
      <trkpt lat="42.67292" lon="1.55219">
        <ele>2425</ele>
        <time>2014-09-14T08:31:00Z</time>
      </trkpt>
      <trkpt lat="42.67293" lon="1.55219">
        <ele>2426</ele>
        <time>2014-09-14T08:31:15Z</time>
      </trkpt>
      <trkpt lat="42.67295" lon="1.5522">
        <ele>2427</ele>
        <time>2014-09-14T08:31:27Z</time>
      </trkpt>
      <trkpt lat="42.6729" lon="1.55218">
        <ele>2428</ele>
        <time>2014-09-14T08:31:41Z</time>
      </trkpt>
      <trkpt lat="42.67291" lon="1.55222">
        <ele>2430</ele>
        <time>2014-09-14T08:31:53Z</time>
      </trkpt>
      <trkpt lat="42.6729" lon="1.55222">
        <ele>2430</ele>
        <time>2014-09-14T08:32:10Z</time>
      </trkpt>
      <trkpt lat="42.67286" lon="1.55228">
        <ele>2432</ele>
        <time>2014-09-14T08:32:23Z</time>
      </trkpt>
      <trkpt lat="42.67281" lon="1.55233">
        <ele>2433</ele>
        <time>2014-09-14T08:32:43Z</time>
      </trkpt>
      <trkpt lat="42.67282" lon="1.55234">
        <ele>2435</ele>
        <time>2014-09-14T08:32:59Z</time>
      </trkpt>
      <trkpt lat="42.67283" lon="1.55239">
        <ele>2437</ele>
        <time>2014-09-14T08:33:11Z</time>
      </trkpt>
      <trkpt lat="42.67281" lon="1.5524">
        <ele>2439</ele>
        <time>2014-09-14T08:33:23Z</time>
      </trkpt>
      <trkpt lat="42.67284" lon="1.55244">
        <ele>2441</ele>
        <time>2014-09-14T08:33:40Z</time>
      </trkpt>
      <trkpt lat="42.67285" lon="1.55246">
        <ele>2442</ele>
        <time>2014-09-14T08:33:52Z</time>
      </trkpt>
      <trkpt lat="42.67284" lon="1.55247">
        <ele>2444</ele>
        <time>2014-09-14T08:34:09Z</time>
      </trkpt>
      <trkpt lat="42.67283" lon="1.55244">
        <ele>2444</ele>
        <time>2014-09-14T08:34:35Z</time>
      </trkpt>
      <trkpt lat="42.67284" lon="1.55252">
        <ele>2447</ele>
        <time>2014-09-14T08:34:52Z</time>
      </trkpt>
      <trkpt lat="42.67283" lon="1.55257">
        <ele>2448</ele>
        <time>2014-09-14T08:35:03Z</time>
      </trkpt>
      <trkpt lat="42.67284" lon="1.55256">
        <ele>2451</ele>
        <time>2014-09-14T08:35:15Z</time>
      </trkpt>
      <trkpt lat="42.67284" lon="1.55259">
        <ele>2451</ele>
        <time>2014-09-14T08:35:27Z</time>
      </trkpt>
      <trkpt lat="42.67286" lon="1.55265">
        <ele>2453</ele>
        <time>2014-09-14T08:35:40Z</time>
      </trkpt>
      <trkpt lat="42.67288" lon="1.55266">
        <ele>2455</ele>
        <time>2014-09-14T08:35:55Z</time>
      </trkpt>
      <trkpt lat="42.67289" lon="1.55266">
        <ele>2456</ele>
        <time>2014-09-14T08:36:11Z</time>
      </trkpt>
      <trkpt lat="42.67284" lon="1.55268">
        <ele>2457</ele>
        <time>2014-09-14T08:36:27Z</time>
      </trkpt>
      <trkpt lat="42.67286" lon="1.55272">
        <ele>2459</ele>
        <time>2014-09-14T08:36:41Z</time>
      </trkpt>
      <trkpt lat="42.67287" lon="1.55274">
        <ele>2460</ele>
        <time>2014-09-14T08:36:53Z</time>
      </trkpt>
      <trkpt lat="42.67286" lon="1.55277">
        <ele>2462</ele>
        <time>2014-09-14T08:37:07Z</time>
      </trkpt>
      <trkpt lat="42.67295" lon="1.55278">
        <ele>2464</ele>
        <time>2014-09-14T08:37:27Z</time>
      </trkpt>
      <trkpt lat="42.67292" lon="1.5528">
        <ele>2464</ele>
        <time>2014-09-14T08:37:46Z</time>
      </trkpt>
      <trkpt lat="42.67288" lon="1.5528">
        <ele>2468</ele>
        <time>2014-09-14T08:38:01Z</time>
      </trkpt>
      <trkpt lat="42.67293" lon="1.55286">
        <ele>2470</ele>
        <time>2014-09-14T08:38:18Z</time>
      </trkpt>
      <trkpt lat="42.67287" lon="1.55286">
        <ele>2470</ele>
        <time>2014-09-14T08:38:31Z</time>
      </trkpt>
      <trkpt lat="42.67287" lon="1.55285">
        <ele>2472</ele>
        <time>2014-09-14T08:38:52Z</time>
      </trkpt>
      <trkpt lat="42.67291" lon="1.5529">
        <ele>2474</ele>
        <time>2014-09-14T08:39:07Z</time>
      </trkpt>
      <trkpt lat="42.67289" lon="1.55295">
        <ele>2476</ele>
        <time>2014-09-14T08:39:21Z</time>
      </trkpt>
      <trkpt lat="42.67291" lon="1.55299">
        <ele>2477</ele>
        <time>2014-09-14T08:39:36Z</time>
      </trkpt>
      <trkpt lat="42.6729" lon="1.553">
        <ele>2480</ele>
        <time>2014-09-14T08:39:53Z</time>
      </trkpt>
      <trkpt lat="42.6729" lon="1.55303">
        <ele>2480</ele>
        <time>2014-09-14T08:40:11Z</time>
      </trkpt>
      <trkpt lat="42.67292" lon="1.55304">
        <ele>2481</ele>
        <time>2014-09-14T08:40:29Z</time>
      </trkpt>
      <trkpt lat="42.67289" lon="1.55306">
        <ele>2483</ele>
        <time>2014-09-14T08:40:42Z</time>
      </trkpt>
      <trkpt lat="42.67287" lon="1.55306">
        <ele>2484</ele>
        <time>2014-09-14T08:40:52Z</time>
      </trkpt>
      <trkpt lat="42.67284" lon="1.55306">
        <ele>2484</ele>
        <time>2014-09-14T08:40:55Z</time>
      </trkpt>
      <trkpt lat="42.67273" lon="1.55317">
        <ele>2492</ele>
        <time>2014-09-14T08:42:14Z</time>
      </trkpt>
      <trkpt lat="42.67263" lon="1.55309">
        <ele>2491</ele>
        <time>2014-09-14T08:42:58Z</time>
      </trkpt>
      <trkpt lat="42.67269" lon="1.55321">
        <ele>2495</ele>
        <time>2014-09-14T08:45:29Z</time>
      </trkpt>
      <trkpt lat="42.67281" lon="1.55364">
        <ele>2524</ele>
        <time>2014-09-14T08:53:23Z</time>
      </trkpt>
      <trkpt lat="42.67291" lon="1.55367">
        <ele>2524</ele>
        <time>2014-09-14T08:53:47Z</time>
      </trkpt>
      <trkpt lat="42.67297" lon="1.55363">
        <ele>2525</ele>
        <time>2014-09-14T08:54:13Z</time>
      </trkpt>
      <trkpt lat="42.67295" lon="1.55362">
        <ele>2526</ele>
        <time>2014-09-14T08:54:34Z</time>
      </trkpt>
      <trkpt lat="42.67296" lon="1.5536">
        <ele>2528</ele>
        <time>2014-09-14T08:54:56Z</time>
      </trkpt>
      <trkpt lat="42.67296" lon="1.55368">
        <ele>2528</ele>
        <time>2014-09-14T08:55:20Z</time>
      </trkpt>
      <trkpt lat="42.67299" lon="1.55368">
        <ele>2529</ele>
        <time>2014-09-14T08:55:40Z</time>
      </trkpt>
      <trkpt lat="42.67297" lon="1.5537">
        <ele>2529</ele>
        <time>2014-09-14T08:55:59Z</time>
      </trkpt>
      <trkpt lat="42.67294" lon="1.55366">
        <ele>2532</ele>
        <time>2014-09-14T08:56:18Z</time>
      </trkpt>
      <trkpt lat="42.67299" lon="1.5537">
        <ele>2533</ele>
        <time>2014-09-14T08:56:44Z</time>
      </trkpt>
      <trkpt lat="42.67303" lon="1.55368">
        <ele>2533</ele>
        <time>2014-09-14T08:57:03Z</time>
      </trkpt>
      <trkpt lat="42.67305" lon="1.5537">
        <ele>2534</ele>
        <time>2014-09-14T08:57:19Z</time>
      </trkpt>
      <trkpt lat="42.67305" lon="1.55373">
        <ele>2536</ele>
        <time>2014-09-14T08:57:35Z</time>
      </trkpt>
      <trkpt lat="42.67305" lon="1.55372">
        <ele>2535</ele>
        <time>2014-09-14T08:57:56Z</time>
      </trkpt>
      <trkpt lat="42.67306" lon="1.55369">
        <ele>2535</ele>
        <time>2014-09-14T08:58:15Z</time>
      </trkpt>
      <trkpt lat="42.67308" lon="1.55365">
        <ele>2536</ele>
        <time>2014-09-14T08:58:36Z</time>
      </trkpt>
      <trkpt lat="42.6731" lon="1.55364">
        <ele>2536</ele>
        <time>2014-09-14T08:58:53Z</time>
      </trkpt>
      <trkpt lat="42.67309" lon="1.55367">
        <ele>2536</ele>
        <time>2014-09-14T08:59:11Z</time>
      </trkpt>
      <trkpt lat="42.67297" lon="1.55366">
        <ele>2537</ele>
        <time>2014-09-14T08:59:29Z</time>
      </trkpt>
      <trkpt lat="42.6729" lon="1.55362">
        <ele>2538</ele>
        <time>2014-09-14T08:59:53Z</time>
      </trkpt>
      <trkpt lat="42.67286" lon="1.55361">
        <ele>2538</ele>
        <time>2014-09-14T09:00:15Z</time>
      </trkpt>
      <trkpt lat="42.67284" lon="1.55363">
        <ele>2540</ele>
        <time>2014-09-14T09:00:36Z</time>
      </trkpt>
      <trkpt lat="42.67284" lon="1.55369">
        <ele>2542</ele>
        <time>2014-09-14T09:00:55Z</time>
      </trkpt>
      <trkpt lat="42.67286" lon="1.55371">
        <ele>2544</ele>
        <time>2014-09-14T09:01:09Z</time>
      </trkpt>
      <trkpt lat="42.6729" lon="1.5537">
        <ele>2545</ele>
        <time>2014-09-14T09:01:28Z</time>
      </trkpt>
      <trkpt lat="42.67291" lon="1.55364">
        <ele>2546</ele>
        <time>2014-09-14T09:01:43Z</time>
      </trkpt>
      <trkpt lat="42.67292" lon="1.55367">
        <ele>2547</ele>
        <time>2014-09-14T09:02:04Z</time>
      </trkpt>
      <trkpt lat="42.67294" lon="1.55364">
        <ele>2550</ele>
        <time>2014-09-14T09:02:21Z</time>
      </trkpt>
      <trkpt lat="42.67296" lon="1.5537">
        <ele>2551</ele>
        <time>2014-09-14T09:02:34Z</time>
      </trkpt>
      <trkpt lat="42.67301" lon="1.55367">
        <ele>2554</ele>
        <time>2014-09-14T09:02:52Z</time>
      </trkpt>
      <trkpt lat="42.67301" lon="1.55367">
        <ele>2555</ele>
        <time>2014-09-14T09:03:10Z</time>
      </trkpt>
      <trkpt lat="42.67303" lon="1.5537">
        <ele>2556</ele>
        <time>2014-09-14T09:03:24Z</time>
      </trkpt>
      <trkpt lat="42.67304" lon="1.55367">
        <ele>2558</ele>
        <time>2014-09-14T09:03:42Z</time>
      </trkpt>
      <trkpt lat="42.67308" lon="1.55374">
        <ele>2559</ele>
        <time>2014-09-14T09:03:56Z</time>
      </trkpt>
      <trkpt lat="42.6731" lon="1.55376">
        <ele>2561</ele>
        <time>2014-09-14T09:04:11Z</time>
      </trkpt>
      <trkpt lat="42.6731" lon="1.55375">
        <ele>2563</ele>
        <time>2014-09-14T09:04:28Z</time>
      </trkpt>
      <trkpt lat="42.67311" lon="1.5538">
        <ele>2564</ele>
        <time>2014-09-14T09:04:45Z</time>
      </trkpt>
      <trkpt lat="42.67311" lon="1.55382">
        <ele>2565</ele>
        <time>2014-09-14T09:05:02Z</time>
      </trkpt>
      <trkpt lat="42.67309" lon="1.55387">
        <ele>2568</ele>
        <time>2014-09-14T09:05:17Z</time>
      </trkpt>
      <trkpt lat="42.67306" lon="1.55392">
        <ele>2570</ele>
        <time>2014-09-14T09:05:31Z</time>
      </trkpt>
      <trkpt lat="42.67304" lon="1.55399">
        <ele>2571</ele>
        <time>2014-09-14T09:05:48Z</time>
      </trkpt>
      <trkpt lat="42.67304" lon="1.55403">
        <ele>2573</ele>
        <time>2014-09-14T09:06:02Z</time>
      </trkpt>
      <trkpt lat="42.67302" lon="1.554">
        <ele>2574</ele>
        <time>2014-09-14T09:06:17Z</time>
      </trkpt>
      <trkpt lat="42.67299" lon="1.55401">
        <ele>2576</ele>
        <time>2014-09-14T09:06:30Z</time>
      </trkpt>
      <trkpt lat="42.67298" lon="1.55405">
        <ele>2577</ele>
        <time>2014-09-14T09:06:46Z</time>
      </trkpt>
      <trkpt lat="42.67297" lon="1.5541">
        <ele>2581</ele>
        <time>2014-09-14T09:07:00Z</time>
      </trkpt>
      <trkpt lat="42.67297" lon="1.55414">
        <ele>2584</ele>
        <time>2014-09-14T09:07:11Z</time>
      </trkpt>
      <trkpt lat="42.67299" lon="1.55415">
        <ele>2584</ele>
        <time>2014-09-14T09:07:26Z</time>
      </trkpt>
      <trkpt lat="42.67296" lon="1.55419">
        <ele>2587</ele>
        <time>2014-09-14T09:07:42Z</time>
      </trkpt>
      <trkpt lat="42.67296" lon="1.55422">
        <ele>2589</ele>
        <time>2014-09-14T09:07:56Z</time>
      </trkpt>
      <trkpt lat="42.67295" lon="1.55425">
        <ele>2592</ele>
        <time>2014-09-14T09:08:11Z</time>
      </trkpt>
      <trkpt lat="42.67293" lon="1.55427">
        <ele>2592</ele>
        <time>2014-09-14T09:08:26Z</time>
      </trkpt>
      <trkpt lat="42.67291" lon="1.55429">
        <ele>2595</ele>
        <time>2014-09-14T09:08:39Z</time>
      </trkpt>
      <trkpt lat="42.6729" lon="1.55431">
        <ele>2596</ele>
        <time>2014-09-14T09:08:43Z</time>
      </trkpt>
      <trkpt lat="42.67292" lon="1.55432">
        <ele>2595</ele>
        <time>2014-09-14T09:09:00Z</time>
      </trkpt>
      <trkpt lat="42.67292" lon="1.55433">
        <ele>2597</ele>
        <time>2014-09-14T09:09:03Z</time>
      </trkpt>
      <trkpt lat="42.67293" lon="1.55433">
        <ele>2596</ele>
        <time>2014-09-14T09:09:24Z</time>
      </trkpt>
      <trkpt lat="42.67293" lon="1.55438">
        <ele>2596</ele>
        <time>2014-09-14T09:09:48Z</time>
      </trkpt>
      <trkpt lat="42.67288" lon="1.55432">
        <ele>2594</ele>
        <time>2014-09-14T09:10:05Z</time>
      </trkpt>
      <trkpt lat="42.67284" lon="1.55433">
        <ele>2597</ele>
        <time>2014-09-14T09:10:20Z</time>
      </trkpt>
      <trkpt lat="42.67284" lon="1.55428">
        <ele>2598</ele>
        <time>2014-09-14T09:10:39Z</time>
      </trkpt>
      <trkpt lat="42.67283" lon="1.55429">
        <ele>2599</ele>
        <time>2014-09-14T09:10:43Z</time>
      </trkpt>
      <trkpt lat="42.67279" lon="1.55429">
        <ele>2599</ele>
        <time>2014-09-14T09:10:58Z</time>
      </trkpt>
      <trkpt lat="42.67278" lon="1.5543">
        <ele>2599</ele>
        <time>2014-09-14T09:11:12Z</time>
      </trkpt>
      <trkpt lat="42.67277" lon="1.55433">
        <ele>2599</ele>
        <time>2014-09-14T09:11:34Z</time>
      </trkpt>
      <trkpt lat="42.67276" lon="1.55432">
        <ele>2600</ele>
        <time>2014-09-14T09:11:51Z</time>
      </trkpt>
      <trkpt lat="42.67276" lon="1.55435">
        <ele>2600</ele>
        <time>2014-09-14T09:12:11Z</time>
      </trkpt>
      <trkpt lat="42.67275" lon="1.5543">
        <ele>2600</ele>
        <time>2014-09-14T09:12:29Z</time>
      </trkpt>
      <trkpt lat="42.67278" lon="1.55432">
        <ele>2601</ele>
        <time>2014-09-14T09:12:51Z</time>
      </trkpt>
      <trkpt lat="42.67278" lon="1.55436">
        <ele>2601</ele>
        <time>2014-09-14T09:13:08Z</time>
      </trkpt>
      <trkpt lat="42.67278" lon="1.55438">
        <ele>2602</ele>
        <time>2014-09-14T09:13:28Z</time>
      </trkpt>
      <trkpt lat="42.67272" lon="1.55432">
        <ele>2603</ele>
        <time>2014-09-14T09:13:46Z</time>
      </trkpt>
      <trkpt lat="42.67272" lon="1.55435">
        <ele>2603</ele>
        <time>2014-09-14T09:14:16Z</time>
      </trkpt>
      <trkpt lat="42.67273" lon="1.55433">
        <ele>2604</ele>
        <time>2014-09-14T09:14:35Z</time>
      </trkpt>
      <trkpt lat="42.67273" lon="1.55435">
        <ele>2604</ele>
        <time>2014-09-14T09:14:57Z</time>
      </trkpt>
      <trkpt lat="42.67273" lon="1.55435">
        <ele>2605</ele>
        <time>2014-09-14T09:15:17Z</time>
      </trkpt>
      <trkpt lat="42.67276" lon="1.55435">
        <ele>2605</ele>
        <time>2014-09-14T09:15:38Z</time>
      </trkpt>
      <trkpt lat="42.67278" lon="1.55438">
        <ele>2604</ele>
        <time>2014-09-14T09:15:57Z</time>
      </trkpt>
      <trkpt lat="42.67277" lon="1.55439">
        <ele>2604</ele>
        <time>2014-09-14T09:16:21Z</time>
      </trkpt>
      <trkpt lat="42.67275" lon="1.5543">
        <ele>2605</ele>
        <time>2014-09-14T09:16:42Z</time>
      </trkpt>
      <trkpt lat="42.67275" lon="1.55429">
        <ele>2605</ele>
        <time>2014-09-14T09:17:07Z</time>
      </trkpt>
      <trkpt lat="42.67271" lon="1.55429">
        <ele>2606</ele>
        <time>2014-09-14T09:17:28Z</time>
      </trkpt>
      <trkpt lat="42.67274" lon="1.55431">
        <ele>2608</ele>
        <time>2014-09-14T09:17:48Z</time>
      </trkpt>
      <trkpt lat="42.67273" lon="1.55429">
        <ele>2608</ele>
        <time>2014-09-14T09:18:12Z</time>
      </trkpt>
      <trkpt lat="42.67273" lon="1.55431">
        <ele>2608</ele>
        <time>2014-09-14T09:18:37Z</time>
      </trkpt>
      <trkpt lat="42.6727" lon="1.55429">
        <ele>2608</ele>
        <time>2014-09-14T09:18:57Z</time>
      </trkpt>
      <trkpt lat="42.6727" lon="1.5543">
        <ele>2608</ele>
        <time>2014-09-14T09:19:16Z</time>
      </trkpt>
      <trkpt lat="42.67267" lon="1.55433">
        <ele>2609</ele>
        <time>2014-09-14T09:19:34Z</time>
      </trkpt>
      <trkpt lat="42.67267" lon="1.55432">
        <ele>2610</ele>
        <time>2014-09-14T09:19:56Z</time>
      </trkpt>
      <trkpt lat="42.67266" lon="1.55434">
        <ele>2611</ele>
        <time>2014-09-14T09:20:17Z</time>
      </trkpt>
      <trkpt lat="42.67265" lon="1.55432">
        <ele>2612</ele>
        <time>2014-09-14T09:20:39Z</time>
      </trkpt>
      <trkpt lat="42.67261" lon="1.55436">
        <ele>2613</ele>
        <time>2014-09-14T09:21:00Z</time>
      </trkpt>
      <trkpt lat="42.67266" lon="1.55433">
        <ele>2613</ele>
        <time>2014-09-14T09:21:14Z</time>
      </trkpt>
      <trkpt lat="42.67267" lon="1.55439">
        <ele>2615</ele>
        <time>2014-09-14T09:21:27Z</time>
      </trkpt>
      <trkpt lat="42.67269" lon="1.55438">
        <ele>2616</ele>
        <time>2014-09-14T09:21:45Z</time>
      </trkpt>
      <trkpt lat="42.67265" lon="1.55441">
        <ele>2618</ele>
        <time>2014-09-14T09:21:58Z</time>
      </trkpt>
      <trkpt lat="42.67264" lon="1.55443">
        <ele>2619</ele>
        <time>2014-09-14T09:22:02Z</time>
      </trkpt>
      <trkpt lat="42.67258" lon="1.55439">
        <ele>2618</ele>
        <time>2014-09-14T09:22:16Z</time>
      </trkpt>
      <trkpt lat="42.67255" lon="1.55443">
        <ele>2620</ele>
        <time>2014-09-14T09:22:22Z</time>
      </trkpt>
      <trkpt lat="42.67249" lon="1.55446">
        <ele>2622</ele>
        <time>2014-09-14T09:22:34Z</time>
      </trkpt>
      <trkpt lat="42.67245" lon="1.5545">
        <ele>2624</ele>
        <time>2014-09-14T09:22:49Z</time>
      </trkpt>
      <trkpt lat="42.67243" lon="1.55458">
        <ele>2626</ele>
        <time>2014-09-14T09:23:03Z</time>
      </trkpt>
      <trkpt lat="42.67238" lon="1.55461">
        <ele>2628</ele>
        <time>2014-09-14T09:23:23Z</time>
      </trkpt>
      <trkpt lat="42.67231" lon="1.55461">
        <ele>2630</ele>
        <time>2014-09-14T09:23:37Z</time>
      </trkpt>
      <trkpt lat="42.67227" lon="1.55464">
        <ele>2632</ele>
        <time>2014-09-14T09:23:49Z</time>
      </trkpt>
      <trkpt lat="42.67222" lon="1.55467">
        <ele>2633</ele>
        <time>2014-09-14T09:24:02Z</time>
      </trkpt>
      <trkpt lat="42.67218" lon="1.55469">
        <ele>2635</ele>
        <time>2014-09-14T09:24:18Z</time>
      </trkpt>
      <trkpt lat="42.67216" lon="1.55468">
        <ele>2635</ele>
        <time>2014-09-14T09:24:34Z</time>
      </trkpt>
      <trkpt lat="42.67211" lon="1.5547">
        <ele>2636</ele>
        <time>2014-09-14T09:24:46Z</time>
      </trkpt>
      <trkpt lat="42.6721" lon="1.55471">
        <ele>2637</ele>
        <time>2014-09-14T09:25:01Z</time>
      </trkpt>
      <trkpt lat="42.67208" lon="1.55472">
        <ele>2640</ele>
        <time>2014-09-14T09:25:17Z</time>
      </trkpt>
      <trkpt lat="42.67206" lon="1.55474">
        <ele>2641</ele>
        <time>2014-09-14T09:25:34Z</time>
      </trkpt>
      <trkpt lat="42.67205" lon="1.55479">
        <ele>2644</ele>
        <time>2014-09-14T09:25:48Z</time>
      </trkpt>
      <trkpt lat="42.67202" lon="1.55482">
        <ele>2646</ele>
        <time>2014-09-14T09:26:01Z</time>
      </trkpt>
      <trkpt lat="42.67199" lon="1.55485">
        <ele>2646</ele>
        <time>2014-09-14T09:26:16Z</time>
      </trkpt>
      <trkpt lat="42.67197" lon="1.55489">
        <ele>2649</ele>
        <time>2014-09-14T09:26:32Z</time>
      </trkpt>
      <trkpt lat="42.67196" lon="1.55493">
        <ele>2650</ele>
        <time>2014-09-14T09:26:38Z</time>
      </trkpt>
      <trkpt lat="42.67193" lon="1.55495">
        <ele>2651</ele>
        <time>2014-09-14T09:26:52Z</time>
      </trkpt>
      <trkpt lat="42.6719" lon="1.55496">
        <ele>2652</ele>
        <time>2014-09-14T09:27:07Z</time>
      </trkpt>
      <trkpt lat="42.67186" lon="1.55498">
        <ele>2653</ele>
        <time>2014-09-14T09:27:19Z</time>
      </trkpt>
      <trkpt lat="42.6718" lon="1.55501">
        <ele>2656</ele>
        <time>2014-09-14T09:27:31Z</time>
      </trkpt>
      <trkpt lat="42.67175" lon="1.55504">
        <ele>2657</ele>
        <time>2014-09-14T09:27:45Z</time>
      </trkpt>
      <trkpt lat="42.67174" lon="1.55507">
        <ele>2658</ele>
        <time>2014-09-14T09:27:59Z</time>
      </trkpt>
      <trkpt lat="42.67169" lon="1.55509">
        <ele>2659</ele>
        <time>2014-09-14T09:28:14Z</time>
      </trkpt>
      <trkpt lat="42.67166" lon="1.55514">
        <ele>2661</ele>
        <time>2014-09-14T09:28:29Z</time>
      </trkpt>
      <trkpt lat="42.67162" lon="1.55516">
        <ele>2664</ele>
        <time>2014-09-14T09:28:42Z</time>
      </trkpt>
      <trkpt lat="42.67157" lon="1.55519">
        <ele>2667</ele>
        <time>2014-09-14T09:28:57Z</time>
      </trkpt>
      <trkpt lat="42.67155" lon="1.5552">
        <ele>2668</ele>
        <time>2014-09-14T09:29:10Z</time>
      </trkpt>
      <trkpt lat="42.67154" lon="1.55522">
        <ele>2669</ele>
        <time>2014-09-14T09:29:30Z</time>
      </trkpt>
      <trkpt lat="42.6715" lon="1.55527">
        <ele>2669</ele>
        <time>2014-09-14T09:29:54Z</time>
      </trkpt>
      <trkpt lat="42.67144" lon="1.55533">
        <ele>2670</ele>
        <time>2014-09-14T09:30:10Z</time>
      </trkpt>
      <trkpt lat="42.67143" lon="1.55533">
        <ele>2669</ele>
        <time>2014-09-14T09:30:34Z</time>
      </trkpt>
      <trkpt lat="42.67142" lon="1.55533">
        <ele>2669</ele>
        <time>2014-09-14T09:30:35Z</time>
      </trkpt>
      <trkpt lat="42.67132" lon="1.55531">
        <ele>2670</ele>
        <time>2014-09-14T09:30:48Z</time>
      </trkpt>
      <trkpt lat="42.67127" lon="1.55535">
        <ele>2672</ele>
        <time>2014-09-14T09:31:00Z</time>
      </trkpt>
      <trkpt lat="42.67124" lon="1.55535">
        <ele>2673</ele>
        <time>2014-09-14T09:31:11Z</time>
      </trkpt>
      <trkpt lat="42.67122" lon="1.55537">
        <ele>2675</ele>
        <time>2014-09-14T09:31:24Z</time>
      </trkpt>
      <trkpt lat="42.67118" lon="1.55534">
        <ele>2677</ele>
        <time>2014-09-14T09:31:41Z</time>
      </trkpt>
      <trkpt lat="42.67116" lon="1.55537">
        <ele>2678</ele>
        <time>2014-09-14T09:31:53Z</time>
      </trkpt>
      <trkpt lat="42.67116" lon="1.55534">
        <ele>2678</ele>
        <time>2014-09-14T09:32:24Z</time>
      </trkpt>
      <trkpt lat="42.67114" lon="1.55533">
        <ele>2677</ele>
        <time>2014-09-14T09:32:39Z</time>
      </trkpt>
      <trkpt lat="42.67114" lon="1.5553">
        <ele>2677</ele>
        <time>2014-09-14T09:33:01Z</time>
      </trkpt>
      <trkpt lat="42.67115" lon="1.55531">
        <ele>2677</ele>
        <time>2014-09-14T09:33:17Z</time>
      </trkpt>
      <trkpt lat="42.67117" lon="1.55534">
        <ele>2676</ele>
        <time>2014-09-14T09:33:30Z</time>
      </trkpt>
      <trkpt lat="42.67115" lon="1.55534">
        <ele>2679</ele>
        <time>2014-09-14T09:33:34Z</time>
      </trkpt>
      <trkpt lat="42.67115" lon="1.55534">
        <ele>2679</ele>
        <time>2014-09-14T09:33:35Z</time>
      </trkpt>
      <trkpt lat="42.67113" lon="1.55537">
        <ele>2678</ele>
        <time>2014-09-14T09:33:46Z</time>
      </trkpt>
      <trkpt lat="42.67115" lon="1.55538">
        <ele>2679</ele>
        <time>2014-09-14T09:34:02Z</time>
      </trkpt>
      <trkpt lat="42.67115" lon="1.55538">
        <ele>2678</ele>
        <time>2014-09-14T09:34:15Z</time>
      </trkpt>
      <trkpt lat="42.67115" lon="1.55538">
        <ele>2679</ele>
        <time>2014-09-14T09:34:18Z</time>
      </trkpt>
      <trkpt lat="42.67113" lon="1.55538">
        <ele>2678</ele>
        <time>2014-09-14T09:34:41Z</time>
      </trkpt>
      <trkpt lat="42.67113" lon="1.55539">
        <ele>2678</ele>
        <time>2014-09-14T09:35:01Z</time>
      </trkpt>
      <trkpt lat="42.67114" lon="1.55538">
        <ele>2678</ele>
        <time>2014-09-14T09:35:21Z</time>
      </trkpt>
      <trkpt lat="42.67117" lon="1.55534">
        <ele>2676</ele>
        <time>2014-09-14T09:35:35Z</time>
      </trkpt>
      <trkpt lat="42.67115" lon="1.55533">
        <ele>2676</ele>
        <time>2014-09-14T09:35:58Z</time>
      </trkpt>
      <trkpt lat="42.67116" lon="1.55535">
        <ele>2677</ele>
        <time>2014-09-14T09:36:17Z</time>
      </trkpt>
      <trkpt lat="42.67116" lon="1.55534">
        <ele>2676</ele>
        <time>2014-09-14T09:36:22Z</time>
      </trkpt>
      <trkpt lat="42.67116" lon="1.55534">
        <ele>2677</ele>
        <time>2014-09-14T09:36:24Z</time>
      </trkpt>
      <trkpt lat="42.67115" lon="1.55536">
        <ele>2678</ele>
        <time>2014-09-14T09:36:43Z</time>
      </trkpt>
      <trkpt lat="42.67114" lon="1.55536">
        <ele>2678</ele>
        <time>2014-09-14T09:37:02Z</time>
      </trkpt>
      <trkpt lat="42.67115" lon="1.55536">
        <ele>2678</ele>
        <time>2014-09-14T09:37:17Z</time>
      </trkpt>
      <trkpt lat="42.67115" lon="1.55535">
        <ele>2678</ele>
        <time>2014-09-14T09:37:40Z</time>
      </trkpt>
      <trkpt lat="42.67108" lon="1.55529">
        <ele>2676</ele>
        <time>2014-09-14T09:37:53Z</time>
      </trkpt>
      <trkpt lat="42.67107" lon="1.55529">
        <ele>2675</ele>
        <time>2014-09-14T09:37:54Z</time>
      </trkpt>
      <trkpt lat="42.67102" lon="1.55526">
        <ele>2675</ele>
        <time>2014-09-14T09:38:04Z</time>
      </trkpt>
      <trkpt lat="42.67096" lon="1.55525">
        <ele>2675</ele>
        <time>2014-09-14T09:38:15Z</time>
      </trkpt>
      <trkpt lat="42.67093" lon="1.5552">
        <ele>2674</ele>
        <time>2014-09-14T09:38:29Z</time>
      </trkpt>
      <trkpt lat="42.67085" lon="1.55515">
        <ele>2671</ele>
        <time>2014-09-14T09:38:43Z</time>
      </trkpt>
      <trkpt lat="42.6708" lon="1.55507">
        <ele>2669</ele>
        <time>2014-09-14T09:38:52Z</time>
      </trkpt>
      <trkpt lat="42.67072" lon="1.55501">
        <ele>2667</ele>
        <time>2014-09-14T09:39:05Z</time>
      </trkpt>
      <trkpt lat="42.67072" lon="1.555">
        <ele>2667</ele>
        <time>2014-09-14T09:39:06Z</time>
      </trkpt>
      <trkpt lat="42.67072" lon="1.55491">
        <ele>2666</ele>
        <time>2014-09-14T09:39:21Z</time>
      </trkpt>
      <trkpt lat="42.67073" lon="1.55488">
        <ele>2664</ele>
        <time>2014-09-14T09:39:25Z</time>
      </trkpt>
      <trkpt lat="42.67072" lon="1.55486">
        <ele>2661</ele>
        <time>2014-09-14T09:39:32Z</time>
      </trkpt>
      <trkpt lat="42.67068" lon="1.55482">
        <ele>2661</ele>
        <time>2014-09-14T09:39:48Z</time>
      </trkpt>
      <trkpt lat="42.67069" lon="1.55478">
        <ele>2658</ele>
        <time>2014-09-14T09:40:04Z</time>
      </trkpt>
      <trkpt lat="42.67067" lon="1.55474">
        <ele>2657</ele>
        <time>2014-09-14T09:40:18Z</time>
      </trkpt>
      <trkpt lat="42.67067" lon="1.55474">
        <ele>2656</ele>
        <time>2014-09-14T09:40:21Z</time>
      </trkpt>
      <trkpt lat="42.67065" lon="1.55471">
        <ele>2654</ele>
        <time>2014-09-14T09:40:34Z</time>
      </trkpt>
      <trkpt lat="42.67064" lon="1.55467">
        <ele>2653</ele>
        <time>2014-09-14T09:40:49Z</time>
      </trkpt>
      <trkpt lat="42.67062" lon="1.55463">
        <ele>2652</ele>
        <time>2014-09-14T09:41:03Z</time>
      </trkpt>
      <trkpt lat="42.6706" lon="1.55456">
        <ele>2650</ele>
        <time>2014-09-14T09:41:18Z</time>
      </trkpt>
      <trkpt lat="42.6706" lon="1.55455">
        <ele>2650</ele>
        <time>2014-09-14T09:41:36Z</time>
      </trkpt>
      <trkpt lat="42.67059" lon="1.55455">
        <ele>2648</ele>
        <time>2014-09-14T09:41:52Z</time>
      </trkpt>
      <trkpt lat="42.67059" lon="1.5545">
        <ele>2648</ele>
        <time>2014-09-14T09:42:10Z</time>
      </trkpt>
      <trkpt lat="42.67055" lon="1.55448">
        <ele>2646</ele>
        <time>2014-09-14T09:42:23Z</time>
      </trkpt>
      <trkpt lat="42.67054" lon="1.55442">
        <ele>2645</ele>
        <time>2014-09-14T09:42:35Z</time>
      </trkpt>
      <trkpt lat="42.67055" lon="1.55443">
        <ele>2645</ele>
        <time>2014-09-14T09:42:55Z</time>
      </trkpt>
      <trkpt lat="42.67056" lon="1.55442">
        <ele>2644</ele>
        <time>2014-09-14T09:43:12Z</time>
      </trkpt>
      <trkpt lat="42.67056" lon="1.55442">
        <ele>2643</ele>
        <time>2014-09-14T09:43:27Z</time>
      </trkpt>
      <trkpt lat="42.67054" lon="1.55438">
        <ele>2643</ele>
        <time>2014-09-14T09:43:41Z</time>
      </trkpt>
      <trkpt lat="42.67051" lon="1.55434">
        <ele>2644</ele>
        <time>2014-09-14T09:43:59Z</time>
      </trkpt>
      <trkpt lat="42.67053" lon="1.55437">
        <ele>2644</ele>
        <time>2014-09-14T09:44:20Z</time>
      </trkpt>
      <trkpt lat="42.67055" lon="1.55441">
        <ele>2643</ele>
        <time>2014-09-14T09:44:37Z</time>
      </trkpt>
      <trkpt lat="42.67058" lon="1.55439">
        <ele>2641</ele>
        <time>2014-09-14T09:44:52Z</time>
      </trkpt>
      <trkpt lat="42.67059" lon="1.55434">
        <ele>2639</ele>
        <time>2014-09-14T09:45:08Z</time>
      </trkpt>
      <trkpt lat="42.6706" lon="1.55432">
        <ele>2637</ele>
        <time>2014-09-14T09:45:25Z</time>
      </trkpt>
      <trkpt lat="42.67062" lon="1.55426">
        <ele>2636</ele>
        <time>2014-09-14T09:45:39Z</time>
      </trkpt>
      <trkpt lat="42.67062" lon="1.55424">
        <ele>2635</ele>
        <time>2014-09-14T09:45:54Z</time>
      </trkpt>
      <trkpt lat="42.67055" lon="1.55424">
        <ele>2632</ele>
        <time>2014-09-14T09:46:08Z</time>
      </trkpt>
      <trkpt lat="42.6705" lon="1.55421">
        <ele>2631</ele>
        <time>2014-09-14T09:46:19Z</time>
      </trkpt>
      <trkpt lat="42.67044" lon="1.55419">
        <ele>2629</ele>
        <time>2014-09-14T09:46:32Z</time>
      </trkpt>
      <trkpt lat="42.67043" lon="1.55416">
        <ele>2628</ele>
        <time>2014-09-14T09:46:46Z</time>
      </trkpt>
      <trkpt lat="42.67041" lon="1.55419">
        <ele>2627</ele>
        <time>2014-09-14T09:47:03Z</time>
      </trkpt>
      <trkpt lat="42.67038" lon="1.5542">
        <ele>2625</ele>
        <time>2014-09-14T09:47:20Z</time>
      </trkpt>
      <trkpt lat="42.67037" lon="1.55421">
        <ele>2625</ele>
        <time>2014-09-14T09:47:35Z</time>
      </trkpt>
      <trkpt lat="42.67036" lon="1.55419">
        <ele>2624</ele>
        <time>2014-09-14T09:47:53Z</time>
      </trkpt>
      <trkpt lat="42.67035" lon="1.55415">
        <ele>2624</ele>
        <time>2014-09-14T09:48:08Z</time>
      </trkpt>
      <trkpt lat="42.67032" lon="1.55415">
        <ele>2623</ele>
        <time>2014-09-14T09:48:24Z</time>
      </trkpt>
      <trkpt lat="42.6703" lon="1.55407">
        <ele>2621</ele>
        <time>2014-09-14T09:48:40Z</time>
      </trkpt>
      <trkpt lat="42.67025" lon="1.55406">
        <ele>2619</ele>
        <time>2014-09-14T09:48:54Z</time>
      </trkpt>
      <trkpt lat="42.67024" lon="1.55399">
        <ele>2616</ele>
        <time>2014-09-14T09:49:07Z</time>
      </trkpt>
      <trkpt lat="42.67021" lon="1.55396">
        <ele>2615</ele>
        <time>2014-09-14T09:49:22Z</time>
      </trkpt>
      <trkpt lat="42.67018" lon="1.55396">
        <ele>2614</ele>
        <time>2014-09-14T09:49:37Z</time>
      </trkpt>
      <trkpt lat="42.67022" lon="1.55392">
        <ele>2615</ele>
        <time>2014-09-14T09:49:56Z</time>
      </trkpt>
      <trkpt lat="42.6702" lon="1.5539">
        <ele>2614</ele>
        <time>2014-09-14T09:50:26Z</time>
      </trkpt>
      <trkpt lat="42.67018" lon="1.55392">
        <ele>2614</ele>
        <time>2014-09-14T09:50:56Z</time>
      </trkpt>
      <trkpt lat="42.67018" lon="1.55396">
        <ele>2615</ele>
        <time>2014-09-14T09:51:10Z</time>
      </trkpt>
      <trkpt lat="42.6702" lon="1.55397">
        <ele>2616</ele>
        <time>2014-09-14T09:51:40Z</time>
      </trkpt>
      <trkpt lat="42.6702" lon="1.55397">
        <ele>2616</ele>
        <time>2014-09-14T09:51:52Z</time>
      </trkpt>
      <trkpt lat="42.67019" lon="1.55398">
        <ele>2616</ele>
        <time>2014-09-14T09:52:24Z</time>
      </trkpt>
      <trkpt lat="42.67018" lon="1.55397">
        <ele>2616</ele>
        <time>2014-09-14T09:52:44Z</time>
      </trkpt>
      <trkpt lat="42.67018" lon="1.55397">
        <ele>2616</ele>
        <time>2014-09-14T09:53:06Z</time>
      </trkpt>
      <trkpt lat="42.67021" lon="1.55399">
        <ele>2617</ele>
        <time>2014-09-14T09:53:26Z</time>
      </trkpt>
      <trkpt lat="42.67022" lon="1.554">
        <ele>2618</ele>
        <time>2014-09-14T09:53:43Z</time>
      </trkpt>
      <trkpt lat="42.67019" lon="1.55402">
        <ele>2617</ele>
        <time>2014-09-14T09:54:05Z</time>
      </trkpt>
      <trkpt lat="42.6702" lon="1.5539">
        <ele>2616</ele>
        <time>2014-09-14T09:54:20Z</time>
      </trkpt>
      <trkpt lat="42.67018" lon="1.55385">
        <ele>2614</ele>
        <time>2014-09-14T09:54:34Z</time>
      </trkpt>
      <trkpt lat="42.67018" lon="1.5538">
        <ele>2613</ele>
        <time>2014-09-14T09:54:48Z</time>
      </trkpt>
      <trkpt lat="42.67013" lon="1.5538">
        <ele>2612</ele>
        <time>2014-09-14T09:55:06Z</time>
      </trkpt>
      <trkpt lat="42.67011" lon="1.55379">
        <ele>2613</ele>
        <time>2014-09-14T09:55:18Z</time>
      </trkpt>
      <trkpt lat="42.67006" lon="1.55382">
        <ele>2613</ele>
        <time>2014-09-14T09:55:33Z</time>
      </trkpt>
      <trkpt lat="42.67004" lon="1.55383">
        <ele>2613</ele>
        <time>2014-09-14T09:55:49Z</time>
      </trkpt>
      <trkpt lat="42.67006" lon="1.55382">
        <ele>2613</ele>
        <time>2014-09-14T09:56:06Z</time>
      </trkpt>
      <trkpt lat="42.67006" lon="1.55386">
        <ele>2614</ele>
        <time>2014-09-14T09:56:35Z</time>
      </trkpt>
      <trkpt lat="42.67005" lon="1.5538">
        <ele>2614</ele>
        <time>2014-09-14T09:56:56Z</time>
      </trkpt>
      <trkpt lat="42.67005" lon="1.55382">
        <ele>2614</ele>
        <time>2014-09-14T09:57:11Z</time>
      </trkpt>
      <trkpt lat="42.67007" lon="1.5538">
        <ele>2614</ele>
        <time>2014-09-14T09:57:29Z</time>
      </trkpt>
      <trkpt lat="42.67007" lon="1.55383">
        <ele>2614</ele>
        <time>2014-09-14T09:57:48Z</time>
      </trkpt>
      <trkpt lat="42.67006" lon="1.55383">
        <ele>2616</ele>
        <time>2014-09-14T09:58:09Z</time>
      </trkpt>
      <trkpt lat="42.67006" lon="1.55385">
        <ele>2616</ele>
        <time>2014-09-14T09:58:34Z</time>
      </trkpt>
      <trkpt lat="42.67006" lon="1.55381">
        <ele>2614</ele>
        <time>2014-09-14T09:59:01Z</time>
      </trkpt>
      <trkpt lat="42.67009" lon="1.55382">
        <ele>2615</ele>
        <time>2014-09-14T09:59:17Z</time>
      </trkpt>
      <trkpt lat="42.67006" lon="1.55385">
        <ele>2613</ele>
        <time>2014-09-14T09:59:33Z</time>
      </trkpt>
      <trkpt lat="42.67005" lon="1.55385">
        <ele>2611</ele>
        <time>2014-09-14T09:59:51Z</time>
      </trkpt>
      <trkpt lat="42.67006" lon="1.55389">
        <ele>2609</ele>
        <time>2014-09-14T10:00:06Z</time>
      </trkpt>
      <trkpt lat="42.67005" lon="1.55389">
        <ele>2609</ele>
        <time>2014-09-14T10:00:24Z</time>
      </trkpt>
      <trkpt lat="42.67004" lon="1.5539">
        <ele>2609</ele>
        <time>2014-09-14T10:00:46Z</time>
      </trkpt>
      <trkpt lat="42.67004" lon="1.5539">
        <ele>2608</ele>
        <time>2014-09-14T10:01:04Z</time>
      </trkpt>
      <trkpt lat="42.67004" lon="1.55392">
        <ele>2609</ele>
        <time>2014-09-14T10:01:23Z</time>
      </trkpt>
      <trkpt lat="42.67005" lon="1.55393">
        <ele>2608</ele>
        <time>2014-09-14T10:01:42Z</time>
      </trkpt>
      <trkpt lat="42.67005" lon="1.55398">
        <ele>2607</ele>
        <time>2014-09-14T10:01:56Z</time>
      </trkpt>
      <trkpt lat="42.67003" lon="1.55401">
        <ele>2605</ele>
        <time>2014-09-14T10:02:07Z</time>
      </trkpt>
      <trkpt lat="42.67002" lon="1.55405">
        <ele>2603</ele>
        <time>2014-09-14T10:02:23Z</time>
      </trkpt>
      <trkpt lat="42.67001" lon="1.55408">
        <ele>2603</ele>
        <time>2014-09-14T10:02:39Z</time>
      </trkpt>
      <trkpt lat="42.66998" lon="1.55408">
        <ele>2601</ele>
        <time>2014-09-14T10:02:52Z</time>
      </trkpt>
      <trkpt lat="42.66998" lon="1.55415">
        <ele>2600</ele>
        <time>2014-09-14T10:03:06Z</time>
      </trkpt>
      <trkpt lat="42.66995" lon="1.55416">
        <ele>2598</ele>
        <time>2014-09-14T10:03:15Z</time>
      </trkpt>
      <trkpt lat="42.66994" lon="1.55422">
        <ele>2596</ele>
        <time>2014-09-14T10:03:27Z</time>
      </trkpt>
      <trkpt lat="42.66992" lon="1.55415">
        <ele>2594</ele>
        <time>2014-09-14T10:03:44Z</time>
      </trkpt>
      <trkpt lat="42.66992" lon="1.55412">
        <ele>2592</ele>
        <time>2014-09-14T10:04:00Z</time>
      </trkpt>
      <trkpt lat="42.66992" lon="1.55416">
        <ele>2591</ele>
        <time>2014-09-14T10:04:14Z</time>
      </trkpt>
      <trkpt lat="42.66987" lon="1.55419">
        <ele>2588</ele>
        <time>2014-09-14T10:04:26Z</time>
      </trkpt>
      <trkpt lat="42.66986" lon="1.55421">
        <ele>2588</ele>
        <time>2014-09-14T10:04:39Z</time>
      </trkpt>
      <trkpt lat="42.66985" lon="1.55426">
        <ele>2586</ele>
        <time>2014-09-14T10:04:54Z</time>
      </trkpt>
      <trkpt lat="42.66983" lon="1.55429">
        <ele>2584</ele>
        <time>2014-09-14T10:05:08Z</time>
      </trkpt>
      <trkpt lat="42.6698" lon="1.55431">
        <ele>2582</ele>
        <time>2014-09-14T10:05:23Z</time>
      </trkpt>
      <trkpt lat="42.66977" lon="1.55433">
        <ele>2580</ele>
        <time>2014-09-14T10:05:39Z</time>
      </trkpt>
      <trkpt lat="42.66974" lon="1.55438">
        <ele>2577</ele>
        <time>2014-09-14T10:05:55Z</time>
      </trkpt>
      <trkpt lat="42.66972" lon="1.55443">
        <ele>2575</ele>
        <time>2014-09-14T10:06:08Z</time>
      </trkpt>
      <trkpt lat="42.66968" lon="1.55444">
        <ele>2573</ele>
        <time>2014-09-14T10:06:24Z</time>
      </trkpt>
      <trkpt lat="42.66969" lon="1.55447">
        <ele>2571</ele>
        <time>2014-09-14T10:06:41Z</time>
      </trkpt>
      <trkpt lat="42.66969" lon="1.55444">
        <ele>2573</ele>
        <time>2014-09-14T10:07:06Z</time>
      </trkpt>
      <trkpt lat="42.66966" lon="1.5545">
        <ele>2570</ele>
        <time>2014-09-14T10:07:20Z</time>
      </trkpt>
      <trkpt lat="42.66963" lon="1.55457">
        <ele>2568</ele>
        <time>2014-09-14T10:07:35Z</time>
      </trkpt>
      <trkpt lat="42.66961" lon="1.55461">
        <ele>2565</ele>
        <time>2014-09-14T10:07:43Z</time>
      </trkpt>
      <trkpt lat="42.66959" lon="1.55467">
        <ele>2564</ele>
        <time>2014-09-14T10:07:50Z</time>
      </trkpt>
      <trkpt lat="42.66956" lon="1.55473">
        <ele>2561</ele>
        <time>2014-09-14T10:08:04Z</time>
      </trkpt>
      <trkpt lat="42.66955" lon="1.55475">
        <ele>2561</ele>
        <time>2014-09-14T10:08:28Z</time>
      </trkpt>
      <trkpt lat="42.66952" lon="1.55481">
        <ele>2558</ele>
        <time>2014-09-14T10:08:41Z</time>
      </trkpt>
      <trkpt lat="42.66949" lon="1.55485">
        <ele>2556</ele>
        <time>2014-09-14T10:08:57Z</time>
      </trkpt>
      <trkpt lat="42.66947" lon="1.55496">
        <ele>2553</ele>
        <time>2014-09-14T10:09:12Z</time>
      </trkpt>
      <trkpt lat="42.66944" lon="1.55499">
        <ele>2552</ele>
        <time>2014-09-14T10:09:23Z</time>
      </trkpt>
      <trkpt lat="42.66946" lon="1.55497">
        <ele>2551</ele>
        <time>2014-09-14T10:09:45Z</time>
      </trkpt>
      <trkpt lat="42.66947" lon="1.55497">
        <ele>2551</ele>
        <time>2014-09-14T10:10:10Z</time>
      </trkpt>
      <trkpt lat="42.66945" lon="1.55491">
        <ele>2551</ele>
        <time>2014-09-14T10:10:27Z</time>
      </trkpt>
      <trkpt lat="42.66944" lon="1.5549">
        <ele>2551</ele>
        <time>2014-09-14T10:10:47Z</time>
      </trkpt>
      <trkpt lat="42.66947" lon="1.555">
        <ele>2552</ele>
        <time>2014-09-14T10:11:04Z</time>
      </trkpt>
      <trkpt lat="42.66945" lon="1.55505">
        <ele>2551</ele>
        <time>2014-09-14T10:11:36Z</time>
      </trkpt>
      <trkpt lat="42.66945" lon="1.55502">
        <ele>2552</ele>
        <time>2014-09-14T10:12:06Z</time>
      </trkpt>
      <trkpt lat="42.66943" lon="1.55499">
        <ele>2551</ele>
        <time>2014-09-14T10:12:36Z</time>
      </trkpt>
      <trkpt lat="42.66942" lon="1.55495">
        <ele>2551</ele>
        <time>2014-09-14T10:13:02Z</time>
      </trkpt>
      <trkpt lat="42.66944" lon="1.55494">
        <ele>2552</ele>
        <time>2014-09-14T10:13:17Z</time>
      </trkpt>
      <trkpt lat="42.66945" lon="1.55501">
        <ele>2552</ele>
        <time>2014-09-14T10:13:36Z</time>
      </trkpt>
      <trkpt lat="42.66946" lon="1.55503">
        <ele>2551</ele>
        <time>2014-09-14T10:13:58Z</time>
      </trkpt>
      <trkpt lat="42.66943" lon="1.55512">
        <ele>2549</ele>
        <time>2014-09-14T10:14:14Z</time>
      </trkpt>
      <trkpt lat="42.6694" lon="1.55515">
        <ele>2546</ele>
        <time>2014-09-14T10:14:29Z</time>
      </trkpt>
      <trkpt lat="42.66936" lon="1.55516">
        <ele>2544</ele>
        <time>2014-09-14T10:14:41Z</time>
      </trkpt>
      <trkpt lat="42.66934" lon="1.55515">
        <ele>2543</ele>
        <time>2014-09-14T10:14:45Z</time>
      </trkpt>
      <trkpt lat="42.6693" lon="1.5551">
        <ele>2541</ele>
        <time>2014-09-14T10:14:58Z</time>
      </trkpt>
      <trkpt lat="42.66929" lon="1.55519">
        <ele>2539</ele>
        <time>2014-09-14T10:15:13Z</time>
      </trkpt>
      <trkpt lat="42.66925" lon="1.55522">
        <ele>2538</ele>
        <time>2014-09-14T10:15:25Z</time>
      </trkpt>
      <trkpt lat="42.66922" lon="1.55521">
        <ele>2535</ele>
        <time>2014-09-14T10:15:38Z</time>
      </trkpt>
      <trkpt lat="42.66921" lon="1.55524">
        <ele>2535</ele>
        <time>2014-09-14T10:15:49Z</time>
      </trkpt>
      <trkpt lat="42.66919" lon="1.55531">
        <ele>2533</ele>
        <time>2014-09-14T10:16:04Z</time>
      </trkpt>
      <trkpt lat="42.66917" lon="1.55533">
        <ele>2531</ele>
        <time>2014-09-14T10:16:17Z</time>
      </trkpt>
      <trkpt lat="42.66914" lon="1.55536">
        <ele>2530</ele>
        <time>2014-09-14T10:16:31Z</time>
      </trkpt>
      <trkpt lat="42.66907" lon="1.55539">
        <ele>2528</ele>
        <time>2014-09-14T10:16:48Z</time>
      </trkpt>
      <trkpt lat="42.66907" lon="1.55545">
        <ele>2526</ele>
        <time>2014-09-14T10:17:04Z</time>
      </trkpt>
      <trkpt lat="42.66903" lon="1.55547">
        <ele>2523</ele>
        <time>2014-09-14T10:17:16Z</time>
      </trkpt>
      <trkpt lat="42.669" lon="1.55551">
        <ele>2522</ele>
        <time>2014-09-14T10:17:29Z</time>
      </trkpt>
      <trkpt lat="42.66897" lon="1.55549">
        <ele>2521</ele>
        <time>2014-09-14T10:17:42Z</time>
      </trkpt>
      <trkpt lat="42.66893" lon="1.5555">
        <ele>2518</ele>
        <time>2014-09-14T10:17:55Z</time>
      </trkpt>
      <trkpt lat="42.66891" lon="1.55553">
        <ele>2516</ele>
        <time>2014-09-14T10:18:07Z</time>
      </trkpt>
      <trkpt lat="42.66888" lon="1.5555">
        <ele>2515</ele>
        <time>2014-09-14T10:18:20Z</time>
      </trkpt>
      <trkpt lat="42.66888" lon="1.55557">
        <ele>2514</ele>
        <time>2014-09-14T10:18:31Z</time>
      </trkpt>
      <trkpt lat="42.66885" lon="1.55556">
        <ele>2513</ele>
        <time>2014-09-14T10:18:46Z</time>
      </trkpt>
      <trkpt lat="42.66883" lon="1.55557">
        <ele>2512</ele>
        <time>2014-09-14T10:18:57Z</time>
      </trkpt>
      <trkpt lat="42.66881" lon="1.5556">
        <ele>2511</ele>
        <time>2014-09-14T10:19:17Z</time>
      </trkpt>
      <trkpt lat="42.66882" lon="1.55565">
        <ele>2510</ele>
        <time>2014-09-14T10:19:30Z</time>
      </trkpt>
      <trkpt lat="42.66879" lon="1.55566">
        <ele>2509</ele>
        <time>2014-09-14T10:19:42Z</time>
      </trkpt>
      <trkpt lat="42.66878" lon="1.5557">
        <ele>2508</ele>
        <time>2014-09-14T10:19:59Z</time>
      </trkpt>
      <trkpt lat="42.66878" lon="1.55573">
        <ele>2507</ele>
        <time>2014-09-14T10:20:15Z</time>
      </trkpt>
      <trkpt lat="42.66875" lon="1.55575">
        <ele>2505</ele>
        <time>2014-09-14T10:20:26Z</time>
      </trkpt>
      <trkpt lat="42.66871" lon="1.55575">
        <ele>2503</ele>
        <time>2014-09-14T10:20:38Z</time>
      </trkpt>
      <trkpt lat="42.66868" lon="1.55577">
        <ele>2501</ele>
        <time>2014-09-14T10:20:50Z</time>
      </trkpt>
      <trkpt lat="42.66865" lon="1.55574">
        <ele>2501</ele>
        <time>2014-09-14T10:21:03Z</time>
      </trkpt>
      <trkpt lat="42.66863" lon="1.55578">
        <ele>2499</ele>
        <time>2014-09-14T10:21:16Z</time>
      </trkpt>
      <trkpt lat="42.66861" lon="1.55579">
        <ele>2497</ele>
        <time>2014-09-14T10:21:29Z</time>
      </trkpt>
      <trkpt lat="42.66858" lon="1.5558">
        <ele>2495</ele>
        <time>2014-09-14T10:21:42Z</time>
      </trkpt>
      <trkpt lat="42.66856" lon="1.55581">
        <ele>2495</ele>
        <time>2014-09-14T10:21:54Z</time>
      </trkpt>
      <trkpt lat="42.66855" lon="1.5558">
        <ele>2494</ele>
        <time>2014-09-14T10:22:15Z</time>
      </trkpt>
      <trkpt lat="42.66853" lon="1.55584">
        <ele>2493</ele>
        <time>2014-09-14T10:22:37Z</time>
      </trkpt>
      <trkpt lat="42.66852" lon="1.55588">
        <ele>2492</ele>
        <time>2014-09-14T10:22:50Z</time>
      </trkpt>
      <trkpt lat="42.6685" lon="1.55588">
        <ele>2490</ele>
        <time>2014-09-14T10:23:01Z</time>
      </trkpt>
      <trkpt lat="42.66847" lon="1.55592">
        <ele>2490</ele>
        <time>2014-09-14T10:23:12Z</time>
      </trkpt>
      <trkpt lat="42.66844" lon="1.55584">
        <ele>2489</ele>
        <time>2014-09-14T10:23:25Z</time>
      </trkpt>
      <trkpt lat="42.66846" lon="1.55578">
        <ele>2488</ele>
        <time>2014-09-14T10:23:37Z</time>
      </trkpt>
      <trkpt lat="42.66846" lon="1.55576">
        <ele>2486</ele>
        <time>2014-09-14T10:23:41Z</time>
      </trkpt>
      <trkpt lat="42.66842" lon="1.55572">
        <ele>2484</ele>
        <time>2014-09-14T10:23:54Z</time>
      </trkpt>
      <trkpt lat="42.66839" lon="1.55575">
        <ele>2482</ele>
        <time>2014-09-14T10:24:06Z</time>
      </trkpt>
      <trkpt lat="42.66835" lon="1.55577">
        <ele>2480</ele>
        <time>2014-09-14T10:24:18Z</time>
      </trkpt>
      <trkpt lat="42.66832" lon="1.55571">
        <ele>2478</ele>
        <time>2014-09-14T10:24:30Z</time>
      </trkpt>
      <trkpt lat="42.66829" lon="1.55574">
        <ele>2476</ele>
        <time>2014-09-14T10:24:45Z</time>
      </trkpt>
      <trkpt lat="42.66826" lon="1.55571">
        <ele>2474</ele>
        <time>2014-09-14T10:24:57Z</time>
      </trkpt>
      <trkpt lat="42.66824" lon="1.5557">
        <ele>2472</ele>
        <time>2014-09-14T10:25:09Z</time>
      </trkpt>
      <trkpt lat="42.66819" lon="1.55573">
        <ele>2471</ele>
        <time>2014-09-14T10:25:20Z</time>
      </trkpt>
      <trkpt lat="42.66816" lon="1.55574">
        <ele>2468</ele>
        <time>2014-09-14T10:25:31Z</time>
      </trkpt>
      <trkpt lat="42.66813" lon="1.5557">
        <ele>2466</ele>
        <time>2014-09-14T10:25:40Z</time>
      </trkpt>
      <trkpt lat="42.66812" lon="1.55572">
        <ele>2465</ele>
        <time>2014-09-14T10:25:51Z</time>
      </trkpt>
      <trkpt lat="42.66806" lon="1.55577">
        <ele>2463</ele>
        <time>2014-09-14T10:26:02Z</time>
      </trkpt>
      <trkpt lat="42.66803" lon="1.55582">
        <ele>2463</ele>
        <time>2014-09-14T10:26:16Z</time>
      </trkpt>
      <trkpt lat="42.668" lon="1.55581">
        <ele>2461</ele>
        <time>2014-09-14T10:26:30Z</time>
      </trkpt>
      <trkpt lat="42.668" lon="1.55583">
        <ele>2460</ele>
        <time>2014-09-14T10:26:50Z</time>
      </trkpt>
      <trkpt lat="42.66796" lon="1.55591">
        <ele>2458</ele>
        <time>2014-09-14T10:27:03Z</time>
      </trkpt>
      <trkpt lat="42.66794" lon="1.55592">
        <ele>2457</ele>
        <time>2014-09-14T10:27:08Z</time>
      </trkpt>
      <trkpt lat="42.66791" lon="1.55593">
        <ele>2455</ele>
        <time>2014-09-14T10:27:21Z</time>
      </trkpt>
      <trkpt lat="42.66789" lon="1.55598">
        <ele>2453</ele>
        <time>2014-09-14T10:27:35Z</time>
      </trkpt>
      <trkpt lat="42.66786" lon="1.55598">
        <ele>2452</ele>
        <time>2014-09-14T10:27:48Z</time>
      </trkpt>
      <trkpt lat="42.66785" lon="1.55601">
        <ele>2452</ele>
        <time>2014-09-14T10:28:00Z</time>
      </trkpt>
      <trkpt lat="42.66781" lon="1.55604">
        <ele>2451</ele>
        <time>2014-09-14T10:28:13Z</time>
      </trkpt>
      <trkpt lat="42.66779" lon="1.55612">
        <ele>2450</ele>
        <time>2014-09-14T10:28:25Z</time>
      </trkpt>
      <trkpt lat="42.6678" lon="1.55615">
        <ele>2449</ele>
        <time>2014-09-14T10:28:43Z</time>
      </trkpt>
      <trkpt lat="42.66778" lon="1.55621">
        <ele>2445</ele>
        <time>2014-09-14T10:28:54Z</time>
      </trkpt>
      <trkpt lat="42.66775" lon="1.55625">
        <ele>2443</ele>
        <time>2014-09-14T10:29:08Z</time>
      </trkpt>
      <trkpt lat="42.66775" lon="1.55632">
        <ele>2443</ele>
        <time>2014-09-14T10:29:18Z</time>
      </trkpt>
      <trkpt lat="42.66772" lon="1.55643">
        <ele>2444</ele>
        <time>2014-09-14T10:29:30Z</time>
      </trkpt>
      <trkpt lat="42.66771" lon="1.5565">
        <ele>2444</ele>
        <time>2014-09-14T10:29:46Z</time>
      </trkpt>
      <trkpt lat="42.66771" lon="1.55653">
        <ele>2442</ele>
        <time>2014-09-14T10:29:49Z</time>
      </trkpt>
      <trkpt lat="42.6677" lon="1.55655">
        <ele>2440</ele>
        <time>2014-09-14T10:29:59Z</time>
      </trkpt>
      <trkpt lat="42.66768" lon="1.55655">
        <ele>2441</ele>
        <time>2014-09-14T10:30:11Z</time>
      </trkpt>
      <trkpt lat="42.66765" lon="1.55661">
        <ele>2438</ele>
        <time>2014-09-14T10:30:21Z</time>
      </trkpt>
      <trkpt lat="42.66761" lon="1.55667">
        <ele>2436</ele>
        <time>2014-09-14T10:30:31Z</time>
      </trkpt>
      <trkpt lat="42.66761" lon="1.55677">
        <ele>2436</ele>
        <time>2014-09-14T10:30:40Z</time>
      </trkpt>
      <trkpt lat="42.66761" lon="1.55685">
        <ele>2435</ele>
        <time>2014-09-14T10:30:46Z</time>
      </trkpt>
      <trkpt lat="42.66758" lon="1.55691">
        <ele>2433</ele>
        <time>2014-09-14T10:31:01Z</time>
      </trkpt>
      <trkpt lat="42.66756" lon="1.55698">
        <ele>2433</ele>
        <time>2014-09-14T10:31:09Z</time>
      </trkpt>
      <trkpt lat="42.66745" lon="1.55705">
        <ele>2432</ele>
        <time>2014-09-14T10:31:23Z</time>
      </trkpt>
      <trkpt lat="42.66742" lon="1.55707">
        <ele>2430</ele>
        <time>2014-09-14T10:31:26Z</time>
      </trkpt>
      <trkpt lat="42.66741" lon="1.5571">
        <ele>2430</ele>
        <time>2014-09-14T10:31:40Z</time>
      </trkpt>
      <trkpt lat="42.66734" lon="1.55715">
        <ele>2429</ele>
        <time>2014-09-14T10:31:51Z</time>
      </trkpt>
      <trkpt lat="42.66729" lon="1.55725">
        <ele>2427</ele>
        <time>2014-09-14T10:32:04Z</time>
      </trkpt>
      <trkpt lat="42.66728" lon="1.55728">
        <ele>2426</ele>
        <time>2014-09-14T10:32:10Z</time>
      </trkpt>
      <trkpt lat="42.66729" lon="1.55739">
        <ele>2427</ele>
        <time>2014-09-14T10:32:21Z</time>
      </trkpt>
      <trkpt lat="42.66728" lon="1.55741">
        <ele>2428</ele>
        <time>2014-09-14T10:32:23Z</time>
      </trkpt>
      <trkpt lat="42.66725" lon="1.55744">
        <ele>2427</ele>
        <time>2014-09-14T10:32:39Z</time>
      </trkpt>
      <trkpt lat="42.66723" lon="1.55751">
        <ele>2425</ele>
        <time>2014-09-14T10:32:55Z</time>
      </trkpt>
      <trkpt lat="42.66722" lon="1.55753">
        <ele>2425</ele>
        <time>2014-09-14T10:33:12Z</time>
      </trkpt>
      <trkpt lat="42.66717" lon="1.55753">
        <ele>2424</ele>
        <time>2014-09-14T10:33:16Z</time>
      </trkpt>
      <trkpt lat="42.66712" lon="1.55765">
        <ele>2425</ele>
        <time>2014-09-14T10:33:29Z</time>
      </trkpt>
      <trkpt lat="42.66706" lon="1.55769">
        <ele>2424</ele>
        <time>2014-09-14T10:33:41Z</time>
      </trkpt>
      <trkpt lat="42.66702" lon="1.55776">
        <ele>2422</ele>
        <time>2014-09-14T10:33:52Z</time>
      </trkpt>
      <trkpt lat="42.66699" lon="1.55778">
        <ele>2420</ele>
        <time>2014-09-14T10:34:00Z</time>
      </trkpt>
      <trkpt lat="42.66691" lon="1.55776">
        <ele>2421</ele>
        <time>2014-09-14T10:34:12Z</time>
      </trkpt>
      <trkpt lat="42.66688" lon="1.55777">
        <ele>2422</ele>
        <time>2014-09-14T10:34:17Z</time>
      </trkpt>
      <trkpt lat="42.66685" lon="1.5578">
        <ele>2422</ele>
        <time>2014-09-14T10:34:21Z</time>
      </trkpt>
      <trkpt lat="42.66681" lon="1.55779">
        <ele>2422</ele>
        <time>2014-09-14T10:34:24Z</time>
      </trkpt>
      <trkpt lat="42.66679" lon="1.55782">
        <ele>2421</ele>
        <time>2014-09-14T10:34:27Z</time>
      </trkpt>
      <trkpt lat="42.66675" lon="1.55794">
        <ele>2421</ele>
        <time>2014-09-14T10:34:36Z</time>
      </trkpt>
      <trkpt lat="42.66665" lon="1.55807">
        <ele>2422</ele>
        <time>2014-09-14T10:34:50Z</time>
      </trkpt>
      <trkpt lat="42.66659" lon="1.55811">
        <ele>2423</ele>
        <time>2014-09-14T10:34:58Z</time>
      </trkpt>
      <trkpt lat="42.66654" lon="1.55813">
        <ele>2422</ele>
        <time>2014-09-14T10:35:04Z</time>
      </trkpt>
      <trkpt lat="42.66649" lon="1.55826">
        <ele>2420</ele>
        <time>2014-09-14T10:35:17Z</time>
      </trkpt>
      <trkpt lat="42.66651" lon="1.55825">
        <ele>2420</ele>
        <time>2014-09-14T10:35:28Z</time>
      </trkpt>
      <trkpt lat="42.66657" lon="1.55824">
        <ele>2419</ele>
        <time>2014-09-14T10:35:41Z</time>
      </trkpt>
      <trkpt lat="42.66657" lon="1.55824">
        <ele>2420</ele>
        <time>2014-09-14T10:35:50Z</time>
      </trkpt>
      <trkpt lat="42.66664" lon="1.55823">
        <ele>2418</ele>
        <time>2014-09-14T10:36:08Z</time>
      </trkpt>
      <trkpt lat="42.66665" lon="1.55822">
        <ele>2419</ele>
        <time>2014-09-14T10:36:24Z</time>
      </trkpt>
      <trkpt lat="42.66664" lon="1.55821">
        <ele>2419</ele>
        <time>2014-09-14T10:36:51Z</time>
      </trkpt>
      <trkpt lat="42.66664" lon="1.55821">
        <ele>2420</ele>
        <time>2014-09-14T10:37:12Z</time>
      </trkpt>
      <trkpt lat="42.66662" lon="1.55821">
        <ele>2420</ele>
        <time>2014-09-14T10:37:25Z</time>
      </trkpt>
      <trkpt lat="42.66656" lon="1.55823">
        <ele>2420</ele>
        <time>2014-09-14T10:37:34Z</time>
      </trkpt>
      <trkpt lat="42.66652" lon="1.55817">
        <ele>2421</ele>
        <time>2014-09-14T10:37:42Z</time>
      </trkpt>
      <trkpt lat="42.66649" lon="1.55806">
        <ele>2421</ele>
        <time>2014-09-14T10:37:53Z</time>
      </trkpt>
      <trkpt lat="42.6665" lon="1.55803">
        <ele>2421</ele>
        <time>2014-09-14T10:37:55Z</time>
      </trkpt>
      <trkpt lat="42.6665" lon="1.55796">
        <ele>2421</ele>
        <time>2014-09-14T10:38:01Z</time>
      </trkpt>
      <trkpt lat="42.66642" lon="1.5579">
        <ele>2421</ele>
        <time>2014-09-14T10:38:15Z</time>
      </trkpt>
      <trkpt lat="42.66643" lon="1.55789">
        <ele>2422</ele>
        <time>2014-09-14T10:38:38Z</time>
      </trkpt>
      <trkpt lat="42.66638" lon="1.55783">
        <ele>2423</ele>
        <time>2014-09-14T10:38:53Z</time>
      </trkpt>
      <trkpt lat="42.66636" lon="1.55781">
        <ele>2424</ele>
        <time>2014-09-14T10:39:08Z</time>
      </trkpt>
      <trkpt lat="42.66635" lon="1.5578">
        <ele>2424</ele>
        <time>2014-09-14T10:39:09Z</time>
      </trkpt>
      <trkpt lat="42.66632" lon="1.55775">
        <ele>2423</ele>
        <time>2014-09-14T10:39:14Z</time>
      </trkpt>
      <trkpt lat="42.66633" lon="1.5577">
        <ele>2422</ele>
        <time>2014-09-14T10:39:18Z</time>
      </trkpt>
      <trkpt lat="42.66633" lon="1.55758">
        <ele>2421</ele>
        <time>2014-09-14T10:39:31Z</time>
      </trkpt>
      <trkpt lat="42.66636" lon="1.55752">
        <ele>2419</ele>
        <time>2014-09-14T10:39:44Z</time>
      </trkpt>
      <trkpt lat="42.66636" lon="1.5575">
        <ele>2419</ele>
        <time>2014-09-14T10:39:45Z</time>
      </trkpt>
      <trkpt lat="42.66637" lon="1.55738">
        <ele>2416</ele>
        <time>2014-09-14T10:39:56Z</time>
      </trkpt>
      <trkpt lat="42.66637" lon="1.55734">
        <ele>2416</ele>
        <time>2014-09-14T10:39:59Z</time>
      </trkpt>
      <trkpt lat="42.66638" lon="1.55719">
        <ele>2415</ele>
        <time>2014-09-14T10:40:10Z</time>
      </trkpt>
      <trkpt lat="42.66635" lon="1.55711">
        <ele>2415</ele>
        <time>2014-09-14T10:40:18Z</time>
      </trkpt>
      <trkpt lat="42.66636" lon="1.55701">
        <ele>2414</ele>
        <time>2014-09-14T10:40:30Z</time>
      </trkpt>
      <trkpt lat="42.66639" lon="1.55703">
        <ele>2414</ele>
        <time>2014-09-14T10:40:37Z</time>
      </trkpt>
      <trkpt lat="42.66644" lon="1.55688">
        <ele>2412</ele>
        <time>2014-09-14T10:40:49Z</time>
      </trkpt>
      <trkpt lat="42.66644" lon="1.55683">
        <ele>2411</ele>
        <time>2014-09-14T10:40:53Z</time>
      </trkpt>
      <trkpt lat="42.66649" lon="1.55678">
        <ele>2411</ele>
        <time>2014-09-14T10:40:58Z</time>
      </trkpt>
      <trkpt lat="42.66652" lon="1.5567">
        <ele>2411</ele>
        <time>2014-09-14T10:41:04Z</time>
      </trkpt>
      <trkpt lat="42.66651" lon="1.55661">
        <ele>2410</ele>
        <time>2014-09-14T10:41:10Z</time>
      </trkpt>
      <trkpt lat="42.66648" lon="1.55651">
        <ele>2410</ele>
        <time>2014-09-14T10:41:21Z</time>
      </trkpt>
      <trkpt lat="42.66646" lon="1.55647">
        <ele>2410</ele>
        <time>2014-09-14T10:41:24Z</time>
      </trkpt>
      <trkpt lat="42.66646" lon="1.55633">
        <ele>2410</ele>
        <time>2014-09-14T10:41:38Z</time>
      </trkpt>
      <trkpt lat="42.66646" lon="1.55632">
        <ele>2409</ele>
        <time>2014-09-14T10:41:50Z</time>
      </trkpt>
      <trkpt lat="42.66645" lon="1.5563">
        <ele>2410</ele>
        <time>2014-09-14T10:41:52Z</time>
      </trkpt>
      <trkpt lat="42.66649" lon="1.55618">
        <ele>2409</ele>
        <time>2014-09-14T10:42:02Z</time>
      </trkpt>
      <trkpt lat="42.66649" lon="1.55616">
        <ele>2409</ele>
        <time>2014-09-14T10:42:04Z</time>
      </trkpt>
      <trkpt lat="42.66651" lon="1.55599">
        <ele>2409</ele>
        <time>2014-09-14T10:42:17Z</time>
      </trkpt>
      <trkpt lat="42.66652" lon="1.55598">
        <ele>2409</ele>
        <time>2014-09-14T10:42:18Z</time>
      </trkpt>
      <trkpt lat="42.66656" lon="1.55593">
        <ele>2407</ele>
        <time>2014-09-14T10:42:23Z</time>
      </trkpt>
      <trkpt lat="42.66658" lon="1.55581">
        <ele>2406</ele>
        <time>2014-09-14T10:42:34Z</time>
      </trkpt>
      <trkpt lat="42.66659" lon="1.55572">
        <ele>2406</ele>
        <time>2014-09-14T10:42:47Z</time>
      </trkpt>
      <trkpt lat="42.66661" lon="1.55565">
        <ele>2404</ele>
        <time>2014-09-14T10:42:58Z</time>
      </trkpt>
      <trkpt lat="42.66664" lon="1.55557">
        <ele>2402</ele>
        <time>2014-09-14T10:43:09Z</time>
      </trkpt>
      <trkpt lat="42.66667" lon="1.55549">
        <ele>2401</ele>
        <time>2014-09-14T10:43:18Z</time>
      </trkpt>
      <trkpt lat="42.66663" lon="1.55536">
        <ele>2401</ele>
        <time>2014-09-14T10:43:31Z</time>
      </trkpt>
      <trkpt lat="42.6666" lon="1.55529">
        <ele>2401</ele>
        <time>2014-09-14T10:43:44Z</time>
      </trkpt>
      <trkpt lat="42.66665" lon="1.55521">
        <ele>2399</ele>
        <time>2014-09-14T10:43:56Z</time>
      </trkpt>
      <trkpt lat="42.66662" lon="1.55516">
        <ele>2399</ele>
        <time>2014-09-14T10:44:02Z</time>
      </trkpt>
      <trkpt lat="42.66663" lon="1.55508">
        <ele>2397</ele>
        <time>2014-09-14T10:44:11Z</time>
      </trkpt>
      <trkpt lat="42.6666" lon="1.5551">
        <ele>2398</ele>
        <time>2014-09-14T10:44:24Z</time>
      </trkpt>
      <trkpt lat="42.66667" lon="1.55508">
        <ele>2396</ele>
        <time>2014-09-14T10:44:42Z</time>
      </trkpt>
      <trkpt lat="42.6667" lon="1.55497">
        <ele>2393</ele>
        <time>2014-09-14T10:44:53Z</time>
      </trkpt>
      <trkpt lat="42.66675" lon="1.55484">
        <ele>2390</ele>
        <time>2014-09-14T10:45:05Z</time>
      </trkpt>
      <trkpt lat="42.66674" lon="1.55481">
        <ele>2391</ele>
        <time>2014-09-14T10:45:07Z</time>
      </trkpt>
      <trkpt lat="42.66679" lon="1.55478">
        <ele>2389</ele>
        <time>2014-09-14T10:45:18Z</time>
      </trkpt>
      <trkpt lat="42.66682" lon="1.55466">
        <ele>2389</ele>
        <time>2014-09-14T10:45:31Z</time>
      </trkpt>
      <trkpt lat="42.66684" lon="1.55465">
        <ele>2389</ele>
        <time>2014-09-14T10:45:47Z</time>
      </trkpt>
      <trkpt lat="42.66688" lon="1.55464">
        <ele>2387</ele>
        <time>2014-09-14T10:45:56Z</time>
      </trkpt>
      <trkpt lat="42.66687" lon="1.55458">
        <ele>2386</ele>
        <time>2014-09-14T10:46:03Z</time>
      </trkpt>
      <trkpt lat="42.66687" lon="1.55456">
        <ele>2386</ele>
        <time>2014-09-14T10:46:05Z</time>
      </trkpt>
      <trkpt lat="42.66688" lon="1.55449">
        <ele>2384</ele>
        <time>2014-09-14T10:46:15Z</time>
      </trkpt>
      <trkpt lat="42.66685" lon="1.55438">
        <ele>2383</ele>
        <time>2014-09-14T10:46:30Z</time>
      </trkpt>
      <trkpt lat="42.66683" lon="1.55425">
        <ele>2380</ele>
        <time>2014-09-14T10:46:45Z</time>
      </trkpt>
      <trkpt lat="42.66683" lon="1.55426">
        <ele>2379</ele>
        <time>2014-09-14T10:46:47Z</time>
      </trkpt>
      <trkpt lat="42.66682" lon="1.55418">
        <ele>2377</ele>
        <time>2014-09-14T10:46:57Z</time>
      </trkpt>
      <trkpt lat="42.66683" lon="1.55414">
        <ele>2376</ele>
        <time>2014-09-14T10:47:09Z</time>
      </trkpt>
      <trkpt lat="42.66683" lon="1.55408">
        <ele>2374</ele>
        <time>2014-09-14T10:47:21Z</time>
      </trkpt>
      <trkpt lat="42.6668" lon="1.554">
        <ele>2373</ele>
        <time>2014-09-14T10:47:33Z</time>
      </trkpt>
      <trkpt lat="42.66675" lon="1.55393">
        <ele>2370</ele>
        <time>2014-09-14T10:47:45Z</time>
      </trkpt>
      <trkpt lat="42.66674" lon="1.5539">
        <ele>2369</ele>
        <time>2014-09-14T10:47:52Z</time>
      </trkpt>
      <trkpt lat="42.66672" lon="1.55386">
        <ele>2368</ele>
        <time>2014-09-14T10:47:56Z</time>
      </trkpt>
      <trkpt lat="42.66669" lon="1.55381">
        <ele>2368</ele>
        <time>2014-09-14T10:48:00Z</time>
      </trkpt>
      <trkpt lat="42.66667" lon="1.55377">
        <ele>2368</ele>
        <time>2014-09-14T10:48:05Z</time>
      </trkpt>
      <trkpt lat="42.66664" lon="1.55377">
        <ele>2367</ele>
        <time>2014-09-14T10:48:19Z</time>
      </trkpt>
      <trkpt lat="42.66663" lon="1.55371">
        <ele>2366</ele>
        <time>2014-09-14T10:48:29Z</time>
      </trkpt>
      <trkpt lat="42.66657" lon="1.55364">
        <ele>2365</ele>
        <time>2014-09-14T10:48:40Z</time>
      </trkpt>
      <trkpt lat="42.66656" lon="1.55364">
        <ele>2364</ele>
        <time>2014-09-14T10:48:42Z</time>
      </trkpt>
      <trkpt lat="42.66651" lon="1.55361">
        <ele>2362</ele>
        <time>2014-09-14T10:48:55Z</time>
      </trkpt>
      <trkpt lat="42.66649" lon="1.55362">
        <ele>2360</ele>
        <time>2014-09-14T10:49:07Z</time>
      </trkpt>
      <trkpt lat="42.66648" lon="1.55366">
        <ele>2358</ele>
        <time>2014-09-14T10:49:14Z</time>
      </trkpt>
      <trkpt lat="42.66648" lon="1.55373">
        <ele>2357</ele>
        <time>2014-09-14T10:49:26Z</time>
      </trkpt>
      <trkpt lat="42.66644" lon="1.55376">
        <ele>2355</ele>
        <time>2014-09-14T10:49:36Z</time>
      </trkpt>
      <trkpt lat="42.66636" lon="1.55369">
        <ele>2352</ele>
        <time>2014-09-14T10:49:50Z</time>
      </trkpt>
      <trkpt lat="42.66636" lon="1.55379">
        <ele>2350</ele>
        <time>2014-09-14T10:50:02Z</time>
      </trkpt>
      <trkpt lat="42.66632" lon="1.55374">
        <ele>2348</ele>
        <time>2014-09-14T10:50:13Z</time>
      </trkpt>
      <trkpt lat="42.66627" lon="1.55371">
        <ele>2346</ele>
        <time>2014-09-14T10:50:27Z</time>
      </trkpt>
      <trkpt lat="42.66621" lon="1.55366">
        <ele>2343</ele>
        <time>2014-09-14T10:50:42Z</time>
      </trkpt>
      <trkpt lat="42.66613" lon="1.55361">
        <ele>2340</ele>
        <time>2014-09-14T10:50:55Z</time>
      </trkpt>
      <trkpt lat="42.66607" lon="1.55359">
        <ele>2339</ele>
        <time>2014-09-14T10:51:05Z</time>
      </trkpt>
      <trkpt lat="42.66605" lon="1.55357">
        <ele>2338</ele>
        <time>2014-09-14T10:51:08Z</time>
      </trkpt>
      <trkpt lat="42.66606" lon="1.5535">
        <ele>2338</ele>
        <time>2014-09-14T10:51:22Z</time>
      </trkpt>
      <trkpt lat="42.66603" lon="1.55356">
        <ele>2337</ele>
        <time>2014-09-14T10:51:36Z</time>
      </trkpt>
      <trkpt lat="42.66603" lon="1.55357">
        <ele>2337</ele>
        <time>2014-09-14T10:51:42Z</time>
      </trkpt>
      <trkpt lat="42.66602" lon="1.55349">
        <ele>2338</ele>
        <time>2014-09-14T10:51:55Z</time>
      </trkpt>
      <trkpt lat="42.66603" lon="1.55342">
        <ele>2338</ele>
        <time>2014-09-14T10:52:03Z</time>
      </trkpt>
      <trkpt lat="42.66602" lon="1.55337">
        <ele>2338</ele>
        <time>2014-09-14T10:52:09Z</time>
      </trkpt>
      <trkpt lat="42.66595" lon="1.55323">
        <ele>2339</ele>
        <time>2014-09-14T10:52:23Z</time>
      </trkpt>
      <trkpt lat="42.66592" lon="1.55317">
        <ele>2339</ele>
        <time>2014-09-14T10:52:29Z</time>
      </trkpt>
      <trkpt lat="42.66591" lon="1.55313">
        <ele>2340</ele>
        <time>2014-09-14T10:52:34Z</time>
      </trkpt>
      <trkpt lat="42.66588" lon="1.55302">
        <ele>2340</ele>
        <time>2014-09-14T10:52:41Z</time>
      </trkpt>
      <trkpt lat="42.66586" lon="1.55298">
        <ele>2340</ele>
        <time>2014-09-14T10:52:44Z</time>
      </trkpt>
      <trkpt lat="42.66585" lon="1.55297">
        <ele>2341</ele>
        <time>2014-09-14T10:52:56Z</time>
      </trkpt>
      <trkpt lat="42.66581" lon="1.55301">
        <ele>2340</ele>
        <time>2014-09-14T10:53:05Z</time>
      </trkpt>
      <trkpt lat="42.6658" lon="1.55287">
        <ele>2338</ele>
        <time>2014-09-14T10:53:17Z</time>
      </trkpt>
      <trkpt lat="42.66573" lon="1.55289">
        <ele>2336</ele>
        <time>2014-09-14T10:53:30Z</time>
      </trkpt>
      <trkpt lat="42.6657" lon="1.55281">
        <ele>2333</ele>
        <time>2014-09-14T10:53:44Z</time>
      </trkpt>
      <trkpt lat="42.66562" lon="1.55273">
        <ele>2332</ele>
        <time>2014-09-14T10:53:56Z</time>
      </trkpt>
      <trkpt lat="42.66558" lon="1.55271">
        <ele>2329</ele>
        <time>2014-09-14T10:54:08Z</time>
      </trkpt>
      <trkpt lat="42.66556" lon="1.55275">
        <ele>2327</ele>
        <time>2014-09-14T10:54:21Z</time>
      </trkpt>
      <trkpt lat="42.66554" lon="1.55278">
        <ele>2326</ele>
        <time>2014-09-14T10:54:33Z</time>
      </trkpt>
      <trkpt lat="42.66547" lon="1.55285">
        <ele>2322</ele>
        <time>2014-09-14T10:54:45Z</time>
      </trkpt>
      <trkpt lat="42.6654" lon="1.55292">
        <ele>2321</ele>
        <time>2014-09-14T10:54:57Z</time>
      </trkpt>
      <trkpt lat="42.66535" lon="1.55298">
        <ele>2318</ele>
        <time>2014-09-14T10:55:11Z</time>
      </trkpt>
      <trkpt lat="42.66534" lon="1.55298">
        <ele>2318</ele>
        <time>2014-09-14T10:55:12Z</time>
      </trkpt>
      <trkpt lat="42.66529" lon="1.55306">
        <ele>2316</ele>
        <time>2014-09-14T10:55:26Z</time>
      </trkpt>
      <trkpt lat="42.66524" lon="1.5531">
        <ele>2314</ele>
        <time>2014-09-14T10:55:38Z</time>
      </trkpt>
      <trkpt lat="42.6652" lon="1.55316">
        <ele>2313</ele>
        <time>2014-09-14T10:55:46Z</time>
      </trkpt>
      <trkpt lat="42.66517" lon="1.55321">
        <ele>2312</ele>
        <time>2014-09-14T10:55:59Z</time>
      </trkpt>
      <trkpt lat="42.66512" lon="1.55326">
        <ele>2310</ele>
        <time>2014-09-14T10:56:10Z</time>
      </trkpt>
      <trkpt lat="42.66509" lon="1.55338">
        <ele>2308</ele>
        <time>2014-09-14T10:56:26Z</time>
      </trkpt>
      <trkpt lat="42.66507" lon="1.55336">
        <ele>2307</ele>
        <time>2014-09-14T10:56:39Z</time>
      </trkpt>
      <trkpt lat="42.66504" lon="1.55337">
        <ele>2307</ele>
        <time>2014-09-14T10:56:58Z</time>
      </trkpt>
      <trkpt lat="42.66508" lon="1.55342">
        <ele>2307</ele>
        <time>2014-09-14T10:57:16Z</time>
      </trkpt>
      <trkpt lat="42.66509" lon="1.55343">
        <ele>2306</ele>
        <time>2014-09-14T10:57:47Z</time>
      </trkpt>
      <trkpt lat="42.66511" lon="1.55344">
        <ele>2307</ele>
        <time>2014-09-14T10:57:52Z</time>
      </trkpt>
      <trkpt lat="42.66507" lon="1.55365">
        <ele>2305</ele>
        <time>2014-09-14T10:58:07Z</time>
      </trkpt>
      <trkpt lat="42.66505" lon="1.5537">
        <ele>2306</ele>
        <time>2014-09-14T10:58:13Z</time>
      </trkpt>
      <trkpt lat="42.66501" lon="1.55379">
        <ele>2306</ele>
        <time>2014-09-14T10:58:24Z</time>
      </trkpt>
      <trkpt lat="42.665" lon="1.55381">
        <ele>2306</ele>
        <time>2014-09-14T10:58:26Z</time>
      </trkpt>
      <trkpt lat="42.66506" lon="1.55391">
        <ele>2307</ele>
        <time>2014-09-14T10:58:40Z</time>
      </trkpt>
      <trkpt lat="42.66507" lon="1.55391">
        <ele>2308</ele>
        <time>2014-09-14T10:58:54Z</time>
      </trkpt>
      <trkpt lat="42.66501" lon="1.55395">
        <ele>2308</ele>
        <time>2014-09-14T10:59:18Z</time>
      </trkpt>
      <trkpt lat="42.665" lon="1.55397">
        <ele>2308</ele>
        <time>2014-09-14T10:59:36Z</time>
      </trkpt>
      <trkpt lat="42.665" lon="1.55397">
        <ele>2307</ele>
        <time>2014-09-14T10:59:54Z</time>
      </trkpt>
      <trkpt lat="42.66501" lon="1.55396">
        <ele>2307</ele>
        <time>2014-09-14T11:00:12Z</time>
      </trkpt>
      <trkpt lat="42.665" lon="1.55396">
        <ele>2307</ele>
        <time>2014-09-14T11:00:28Z</time>
      </trkpt>
      <trkpt lat="42.665" lon="1.55395">
        <ele>2306</ele>
        <time>2014-09-14T11:00:53Z</time>
      </trkpt>
      <trkpt lat="42.665" lon="1.55395">
        <ele>2306</ele>
        <time>2014-09-14T11:00:59Z</time>
      </trkpt>
      <trkpt lat="42.66499" lon="1.55394">
        <ele>2306</ele>
        <time>2014-09-14T11:01:13Z</time>
      </trkpt>
      <trkpt lat="42.66498" lon="1.55397">
        <ele>2307</ele>
        <time>2014-09-14T11:01:47Z</time>
      </trkpt>
      <trkpt lat="42.665" lon="1.55398">
        <ele>2307</ele>
        <time>2014-09-14T11:02:31Z</time>
      </trkpt>
      <trkpt lat="42.66499" lon="1.55395">
        <ele>2306</ele>
        <time>2014-09-14T11:03:21Z</time>
      </trkpt>
      <trkpt lat="42.66499" lon="1.55397">
        <ele>2306</ele>
        <time>2014-09-14T11:04:05Z</time>
      </trkpt>
      <trkpt lat="42.66497" lon="1.55399">
        <ele>2306</ele>
        <time>2014-09-14T11:04:50Z</time>
      </trkpt>
      <trkpt lat="42.66499" lon="1.55396">
        <ele>2306</ele>
        <time>2014-09-14T11:05:27Z</time>
      </trkpt>
      <trkpt lat="42.66502" lon="1.55396">
        <ele>2307</ele>
        <time>2014-09-14T11:06:09Z</time>
      </trkpt>
      <trkpt lat="42.665" lon="1.55397">
        <ele>2306</ele>
        <time>2014-09-14T11:06:45Z</time>
      </trkpt>
      <trkpt lat="42.66497" lon="1.55393">
        <ele>2306</ele>
        <time>2014-09-14T11:07:25Z</time>
      </trkpt>
      <trkpt lat="42.66494" lon="1.55392">
        <ele>2306</ele>
        <time>2014-09-14T11:08:01Z</time>
      </trkpt>
      <trkpt lat="42.66502" lon="1.55395">
        <ele>2306</ele>
        <time>2014-09-14T11:08:41Z</time>
      </trkpt>
      <trkpt lat="42.66504" lon="1.55395">
        <ele>2306</ele>
        <time>2014-09-14T11:09:26Z</time>
      </trkpt>
      <trkpt lat="42.66499" lon="1.55395">
        <ele>2306</ele>
        <time>2014-09-14T11:09:58Z</time>
      </trkpt>
      <trkpt lat="42.66501" lon="1.55393">
        <ele>2307</ele>
        <time>2014-09-14T11:10:33Z</time>
      </trkpt>
      <trkpt lat="42.66499" lon="1.55388">
        <ele>2306</ele>
        <time>2014-09-14T11:11:03Z</time>
      </trkpt>
      <trkpt lat="42.665" lon="1.55394">
        <ele>2306</ele>
        <time>2014-09-14T11:11:32Z</time>
      </trkpt>
      <trkpt lat="42.66495" lon="1.55389">
        <ele>2306</ele>
        <time>2014-09-14T11:12:08Z</time>
      </trkpt>
      <trkpt lat="42.66496" lon="1.55387">
        <ele>2306</ele>
        <time>2014-09-14T11:12:39Z</time>
      </trkpt>
      <trkpt lat="42.66493" lon="1.55391">
        <ele>2306</ele>
        <time>2014-09-14T11:13:06Z</time>
      </trkpt>
      <trkpt lat="42.66494" lon="1.55391">
        <ele>2307</ele>
        <time>2014-09-14T11:13:40Z</time>
      </trkpt>
      <trkpt lat="42.66498" lon="1.55395">
        <ele>2306</ele>
        <time>2014-09-14T11:14:21Z</time>
      </trkpt>
      <trkpt lat="42.66496" lon="1.5539">
        <ele>2306</ele>
        <time>2014-09-14T11:14:52Z</time>
      </trkpt>
      <trkpt lat="42.66493" lon="1.55389">
        <ele>2306</ele>
        <time>2014-09-14T11:15:25Z</time>
      </trkpt>
      <trkpt lat="42.66493" lon="1.55392">
        <ele>2306</ele>
        <time>2014-09-14T11:15:58Z</time>
      </trkpt>
      <trkpt lat="42.66494" lon="1.5539">
        <ele>2306</ele>
        <time>2014-09-14T11:16:38Z</time>
      </trkpt>
      <trkpt lat="42.66497" lon="1.55395">
        <ele>2306</ele>
        <time>2014-09-14T11:17:10Z</time>
      </trkpt>
      <trkpt lat="42.66494" lon="1.55392">
        <ele>2306</ele>
        <time>2014-09-14T11:17:53Z</time>
      </trkpt>
      <trkpt lat="42.66496" lon="1.55395">
        <ele>2306</ele>
        <time>2014-09-14T11:18:20Z</time>
      </trkpt>
      <trkpt lat="42.66496" lon="1.55394">
        <ele>2306</ele>
        <time>2014-09-14T11:18:55Z</time>
      </trkpt>
      <trkpt lat="42.66496" lon="1.55395">
        <ele>2306</ele>
        <time>2014-09-14T11:19:21Z</time>
      </trkpt>
      <trkpt lat="42.66496" lon="1.55396">
        <ele>2305</ele>
        <time>2014-09-14T11:19:42Z</time>
      </trkpt>
      <trkpt lat="42.66496" lon="1.55397">
        <ele>2306</ele>
        <time>2014-09-14T11:19:46Z</time>
      </trkpt>
      <trkpt lat="42.66501" lon="1.55399">
        <ele>2307</ele>
        <time>2014-09-14T11:19:56Z</time>
      </trkpt>
      <trkpt lat="42.66502" lon="1.554">
        <ele>2307</ele>
        <time>2014-09-14T11:20:10Z</time>
      </trkpt>
      <trkpt lat="42.66498" lon="1.55405">
        <ele>2308</ele>
        <time>2014-09-14T11:20:15Z</time>
      </trkpt>
      <trkpt lat="42.6649" lon="1.55419">
        <ele>2308</ele>
        <time>2014-09-14T11:20:29Z</time>
      </trkpt>
      <trkpt lat="42.66479" lon="1.55423">
        <ele>2309</ele>
        <time>2014-09-14T11:20:42Z</time>
      </trkpt>
      <trkpt lat="42.66478" lon="1.55424">
        <ele>2309</ele>
        <time>2014-09-14T11:20:44Z</time>
      </trkpt>
      <trkpt lat="42.66477" lon="1.55425">
        <ele>2309</ele>
        <time>2014-09-14T11:20:46Z</time>
      </trkpt>
      <trkpt lat="42.66473" lon="1.55438">
        <ele>2309</ele>
        <time>2014-09-14T11:20:55Z</time>
      </trkpt>
      <trkpt lat="42.66474" lon="1.55441">
        <ele>2309</ele>
        <time>2014-09-14T11:20:57Z</time>
      </trkpt>
      <trkpt lat="42.66473" lon="1.5545">
        <ele>2309</ele>
        <time>2014-09-14T11:21:04Z</time>
      </trkpt>
      <trkpt lat="42.66472" lon="1.55459">
        <ele>2309</ele>
        <time>2014-09-14T11:21:10Z</time>
      </trkpt>
      <trkpt lat="42.6646" lon="1.55468">
        <ele>2309</ele>
        <time>2014-09-14T11:21:23Z</time>
      </trkpt>
      <trkpt lat="42.66454" lon="1.55472">
        <ele>2307</ele>
        <time>2014-09-14T11:21:31Z</time>
      </trkpt>
      <trkpt lat="42.66452" lon="1.55472">
        <ele>2307</ele>
        <time>2014-09-14T11:21:33Z</time>
      </trkpt>
      <trkpt lat="42.66444" lon="1.55483">
        <ele>2304</ele>
        <time>2014-09-14T11:21:46Z</time>
      </trkpt>
      <trkpt lat="42.66438" lon="1.55493">
        <ele>2302</ele>
        <time>2014-09-14T11:21:59Z</time>
      </trkpt>
      <trkpt lat="42.66442" lon="1.55498">
        <ele>2300</ele>
        <time>2014-09-14T11:22:09Z</time>
      </trkpt>
      <trkpt lat="42.66436" lon="1.55509">
        <ele>2298</ele>
        <time>2014-09-14T11:22:20Z</time>
      </trkpt>
      <trkpt lat="42.6643" lon="1.55519">
        <ele>2299</ele>
        <time>2014-09-14T11:22:31Z</time>
      </trkpt>
      <trkpt lat="42.66421" lon="1.55524">
        <ele>2298</ele>
        <time>2014-09-14T11:22:42Z</time>
      </trkpt>
      <trkpt lat="42.66412" lon="1.5552">
        <ele>2295</ele>
        <time>2014-09-14T11:22:56Z</time>
      </trkpt>
      <trkpt lat="42.66406" lon="1.55524">
        <ele>2293</ele>
        <time>2014-09-14T11:23:08Z</time>
      </trkpt>
      <trkpt lat="42.66405" lon="1.55528">
        <ele>2290</ele>
        <time>2014-09-14T11:23:18Z</time>
      </trkpt>
      <trkpt lat="42.66398" lon="1.55534">
        <ele>2290</ele>
        <time>2014-09-14T11:23:29Z</time>
      </trkpt>
      <trkpt lat="42.66394" lon="1.55536">
        <ele>2290</ele>
        <time>2014-09-14T11:23:34Z</time>
      </trkpt>
      <trkpt lat="42.66386" lon="1.55557">
        <ele>2290</ele>
        <time>2014-09-14T11:23:50Z</time>
      </trkpt>
      <trkpt lat="42.66376" lon="1.5557">
        <ele>2288</ele>
        <time>2014-09-14T11:24:03Z</time>
      </trkpt>
      <trkpt lat="42.66375" lon="1.5557">
        <ele>2288</ele>
        <time>2014-09-14T11:24:04Z</time>
      </trkpt>
      <trkpt lat="42.66364" lon="1.55569">
        <ele>2286</ele>
        <time>2014-09-14T11:24:16Z</time>
      </trkpt>
      <trkpt lat="42.66359" lon="1.55571">
        <ele>2285</ele>
        <time>2014-09-14T11:24:22Z</time>
      </trkpt>
      <trkpt lat="42.66355" lon="1.55574">
        <ele>2285</ele>
        <time>2014-09-14T11:24:26Z</time>
      </trkpt>
      <trkpt lat="42.66342" lon="1.55571">
        <ele>2284</ele>
        <time>2014-09-14T11:24:40Z</time>
      </trkpt>
      <trkpt lat="42.66336" lon="1.55562">
        <ele>2282</ele>
        <time>2014-09-14T11:24:48Z</time>
      </trkpt>
      <trkpt lat="42.66334" lon="1.55555">
        <ele>2281</ele>
        <time>2014-09-14T11:25:01Z</time>
      </trkpt>
      <trkpt lat="42.66331" lon="1.55546">
        <ele>2280</ele>
        <time>2014-09-14T11:25:12Z</time>
      </trkpt>
      <trkpt lat="42.66332" lon="1.55534">
        <ele>2279</ele>
        <time>2014-09-14T11:25:23Z</time>
      </trkpt>
      <trkpt lat="42.66331" lon="1.55526">
        <ele>2276</ele>
        <time>2014-09-14T11:25:32Z</time>
      </trkpt>
      <trkpt lat="42.66325" lon="1.55522">
        <ele>2274</ele>
        <time>2014-09-14T11:25:45Z</time>
      </trkpt>
      <trkpt lat="42.66323" lon="1.55519">
        <ele>2271</ele>
        <time>2014-09-14T11:25:55Z</time>
      </trkpt>
      <trkpt lat="42.66319" lon="1.5551">
        <ele>2268</ele>
        <time>2014-09-14T11:26:07Z</time>
      </trkpt>
      <trkpt lat="42.66316" lon="1.55511">
        <ele>2267</ele>
        <time>2014-09-14T11:26:12Z</time>
      </trkpt>
      <trkpt lat="42.66316" lon="1.55516">
        <ele>2265</ele>
        <time>2014-09-14T11:26:22Z</time>
      </trkpt>
      <trkpt lat="42.66313" lon="1.55518">
        <ele>2263</ele>
        <time>2014-09-14T11:26:28Z</time>
      </trkpt>
      <trkpt lat="42.66306" lon="1.55525">
        <ele>2261</ele>
        <time>2014-09-14T11:26:42Z</time>
      </trkpt>
      <trkpt lat="42.66302" lon="1.55533">
        <ele>2258</ele>
        <time>2014-09-14T11:26:55Z</time>
      </trkpt>
      <trkpt lat="42.66295" lon="1.5554">
        <ele>2255</ele>
        <time>2014-09-14T11:27:08Z</time>
      </trkpt>
      <trkpt lat="42.6629" lon="1.55549">
        <ele>2252</ele>
        <time>2014-09-14T11:27:21Z</time>
      </trkpt>
      <trkpt lat="42.66286" lon="1.55558">
        <ele>2250</ele>
        <time>2014-09-14T11:27:35Z</time>
      </trkpt>
      <trkpt lat="42.66286" lon="1.55567">
        <ele>2247</ele>
        <time>2014-09-14T11:27:47Z</time>
      </trkpt>
      <trkpt lat="42.66285" lon="1.55577">
        <ele>2245</ele>
        <time>2014-09-14T11:28:00Z</time>
      </trkpt>
      <trkpt lat="42.66287" lon="1.55584">
        <ele>2243</ele>
        <time>2014-09-14T11:28:09Z</time>
      </trkpt>
      <trkpt lat="42.66289" lon="1.55589">
        <ele>2243</ele>
        <time>2014-09-14T11:28:13Z</time>
      </trkpt>
      <trkpt lat="42.66287" lon="1.55595">
        <ele>2241</ele>
        <time>2014-09-14T11:28:18Z</time>
      </trkpt>
      <trkpt lat="42.66285" lon="1.55598">
        <ele>2241</ele>
        <time>2014-09-14T11:28:21Z</time>
      </trkpt>
      <trkpt lat="42.66283" lon="1.55601">
        <ele>2240</ele>
        <time>2014-09-14T11:28:25Z</time>
      </trkpt>
      <trkpt lat="42.66277" lon="1.55611">
        <ele>2239</ele>
        <time>2014-09-14T11:28:39Z</time>
      </trkpt>
      <trkpt lat="42.66275" lon="1.55617">
        <ele>2239</ele>
        <time>2014-09-14T11:28:52Z</time>
      </trkpt>
      <trkpt lat="42.66275" lon="1.55611">
        <ele>2239</ele>
        <time>2014-09-14T11:28:57Z</time>
      </trkpt>
      <trkpt lat="42.66273" lon="1.55605">
        <ele>2239</ele>
        <time>2014-09-14T11:29:02Z</time>
      </trkpt>
      <trkpt lat="42.66268" lon="1.55596">
        <ele>2240</ele>
        <time>2014-09-14T11:29:17Z</time>
      </trkpt>
      <trkpt lat="42.6626" lon="1.55599">
        <ele>2240</ele>
        <time>2014-09-14T11:29:30Z</time>
      </trkpt>
      <trkpt lat="42.66259" lon="1.556">
        <ele>2239</ele>
        <time>2014-09-14T11:29:44Z</time>
      </trkpt>
      <trkpt lat="42.66261" lon="1.55608">
        <ele>2239</ele>
        <time>2014-09-14T11:29:56Z</time>
      </trkpt>
      <trkpt lat="42.66261" lon="1.5562">
        <ele>2232</ele>
        <time>2014-09-14T11:33:02Z</time>
      </trkpt>
      <trkpt lat="42.66256" lon="1.55608">
        <ele>2237</ele>
        <time>2014-09-14T11:33:31Z</time>
      </trkpt>
      <trkpt lat="42.66252" lon="1.55596">
        <ele>2238</ele>
        <time>2014-09-14T11:33:45Z</time>
      </trkpt>
      <trkpt lat="42.66248" lon="1.55591">
        <ele>2238</ele>
        <time>2014-09-14T11:33:57Z</time>
      </trkpt>
      <trkpt lat="42.66245" lon="1.55585">
        <ele>2240</ele>
        <time>2014-09-14T11:34:10Z</time>
      </trkpt>
      <trkpt lat="42.66249" lon="1.55576">
        <ele>2242</ele>
        <time>2014-09-14T11:34:25Z</time>
      </trkpt>
      <trkpt lat="42.66247" lon="1.55575">
        <ele>2242</ele>
        <time>2014-09-14T11:34:41Z</time>
      </trkpt>
      <trkpt lat="42.66248" lon="1.55566">
        <ele>2244</ele>
        <time>2014-09-14T11:34:57Z</time>
      </trkpt>
      <trkpt lat="42.66246" lon="1.55558">
        <ele>2246</ele>
        <time>2014-09-14T11:35:10Z</time>
      </trkpt>
      <trkpt lat="42.66241" lon="1.55559">
        <ele>2246</ele>
        <time>2014-09-14T11:35:15Z</time>
      </trkpt>
      <trkpt lat="42.66235" lon="1.55558">
        <ele>2248</ele>
        <time>2014-09-14T11:35:31Z</time>
      </trkpt>
      <trkpt lat="42.66233" lon="1.55558">
        <ele>2249</ele>
        <time>2014-09-14T11:35:45Z</time>
      </trkpt>
      <trkpt lat="42.66227" lon="1.55555">
        <ele>2252</ele>
        <time>2014-09-14T11:36:00Z</time>
      </trkpt>
      <trkpt lat="42.66218" lon="1.5555">
        <ele>2253</ele>
        <time>2014-09-14T11:36:14Z</time>
      </trkpt>
      <trkpt lat="42.66217" lon="1.5555">
        <ele>2252</ele>
        <time>2014-09-14T11:36:15Z</time>
      </trkpt>
      <trkpt lat="42.66208" lon="1.55553">
        <ele>2253</ele>
        <time>2014-09-14T11:36:30Z</time>
      </trkpt>
      <trkpt lat="42.66204" lon="1.55554">
        <ele>2252</ele>
        <time>2014-09-14T11:36:35Z</time>
      </trkpt>
      <trkpt lat="42.66201" lon="1.55551">
        <ele>2252</ele>
        <time>2014-09-14T11:36:39Z</time>
      </trkpt>
      <trkpt lat="42.66197" lon="1.55539">
        <ele>2251</ele>
        <time>2014-09-14T11:36:52Z</time>
      </trkpt>
      <trkpt lat="42.66189" lon="1.55532">
        <ele>2250</ele>
        <time>2014-09-14T11:37:05Z</time>
      </trkpt>
      <trkpt lat="42.66186" lon="1.55529">
        <ele>2249</ele>
        <time>2014-09-14T11:37:10Z</time>
      </trkpt>
      <trkpt lat="42.66174" lon="1.55522">
        <ele>2246</ele>
        <time>2014-09-14T11:37:24Z</time>
      </trkpt>
      <trkpt lat="42.66164" lon="1.5551">
        <ele>2244</ele>
        <time>2014-09-14T11:37:36Z</time>
      </trkpt>
      <trkpt lat="42.66158" lon="1.55494">
        <ele>2242</ele>
        <time>2014-09-14T11:37:50Z</time>
      </trkpt>
      <trkpt lat="42.66154" lon="1.55492">
        <ele>2242</ele>
        <time>2014-09-14T11:37:55Z</time>
      </trkpt>
      <trkpt lat="42.66143" lon="1.55483">
        <ele>2241</ele>
        <time>2014-09-14T11:38:06Z</time>
      </trkpt>
      <trkpt lat="42.66139" lon="1.55475">
        <ele>2240</ele>
        <time>2014-09-14T11:38:13Z</time>
      </trkpt>
      <trkpt lat="42.66136" lon="1.55465">
        <ele>2240</ele>
        <time>2014-09-14T11:38:20Z</time>
      </trkpt>
      <trkpt lat="42.66134" lon="1.5546">
        <ele>2240</ele>
        <time>2014-09-14T11:38:25Z</time>
      </trkpt>
      <trkpt lat="42.66126" lon="1.55455">
        <ele>2239</ele>
        <time>2014-09-14T11:38:36Z</time>
      </trkpt>
      <trkpt lat="42.66122" lon="1.55446">
        <ele>2238</ele>
        <time>2014-09-14T11:38:44Z</time>
      </trkpt>
      <trkpt lat="42.66121" lon="1.55444">
        <ele>2238</ele>
        <time>2014-09-14T11:38:46Z</time>
      </trkpt>
      <trkpt lat="42.66114" lon="1.55438">
        <ele>2236</ele>
        <time>2014-09-14T11:39:00Z</time>
      </trkpt>
      <trkpt lat="42.66111" lon="1.5544">
        <ele>2235</ele>
        <time>2014-09-14T11:39:06Z</time>
      </trkpt>
      <trkpt lat="42.66101" lon="1.55437">
        <ele>2233</ele>
        <time>2014-09-14T11:39:19Z</time>
      </trkpt>
      <trkpt lat="42.66093" lon="1.55433">
        <ele>2231</ele>
        <time>2014-09-14T11:39:32Z</time>
      </trkpt>
      <trkpt lat="42.66088" lon="1.5542">
        <ele>2229</ele>
        <time>2014-09-14T11:39:45Z</time>
      </trkpt>
      <trkpt lat="42.66086" lon="1.55416">
        <ele>2227</ele>
        <time>2014-09-14T11:39:56Z</time>
      </trkpt>
      <trkpt lat="42.66082" lon="1.55408">
        <ele>2226</ele>
        <time>2014-09-14T11:40:09Z</time>
      </trkpt>
      <trkpt lat="42.66076" lon="1.55411">
        <ele>2224</ele>
        <time>2014-09-14T11:40:23Z</time>
      </trkpt>
      <trkpt lat="42.66076" lon="1.5542">
        <ele>2223</ele>
        <time>2014-09-14T11:40:32Z</time>
      </trkpt>
      <trkpt lat="42.66075" lon="1.55429">
        <ele>2223</ele>
        <time>2014-09-14T11:40:44Z</time>
      </trkpt>
      <trkpt lat="42.66079" lon="1.55442">
        <ele>2220</ele>
        <time>2014-09-14T11:40:56Z</time>
      </trkpt>
      <trkpt lat="42.66081" lon="1.55451">
        <ele>2218</ele>
        <time>2014-09-14T11:41:08Z</time>
      </trkpt>
      <trkpt lat="42.66079" lon="1.55453">
        <ele>2217</ele>
        <time>2014-09-14T11:41:19Z</time>
      </trkpt>
      <trkpt lat="42.66074" lon="1.55456">
        <ele>2215</ele>
        <time>2014-09-14T11:41:33Z</time>
      </trkpt>
      <trkpt lat="42.66072" lon="1.55462">
        <ele>2213</ele>
        <time>2014-09-14T11:41:46Z</time>
      </trkpt>
      <trkpt lat="42.66073" lon="1.55462">
        <ele>2211</ele>
        <time>2014-09-14T11:41:57Z</time>
      </trkpt>
      <trkpt lat="42.6607" lon="1.55465">
        <ele>2210</ele>
        <time>2014-09-14T11:42:08Z</time>
      </trkpt>
      <trkpt lat="42.66069" lon="1.55467">
        <ele>2209</ele>
        <time>2014-09-14T11:42:22Z</time>
      </trkpt>
      <trkpt lat="42.66065" lon="1.55472">
        <ele>2207</ele>
        <time>2014-09-14T11:42:33Z</time>
      </trkpt>
      <trkpt lat="42.66061" lon="1.55476">
        <ele>2206</ele>
        <time>2014-09-14T11:42:48Z</time>
      </trkpt>
      <trkpt lat="42.66061" lon="1.55477">
        <ele>2204</ele>
        <time>2014-09-14T11:42:57Z</time>
      </trkpt>
      <trkpt lat="42.66058" lon="1.55482">
        <ele>2204</ele>
        <time>2014-09-14T11:43:09Z</time>
      </trkpt>
      <trkpt lat="42.66059" lon="1.55485">
        <ele>2203</ele>
        <time>2014-09-14T11:43:21Z</time>
      </trkpt>
      <trkpt lat="42.66058" lon="1.55489">
        <ele>2201</ele>
        <time>2014-09-14T11:43:33Z</time>
      </trkpt>
      <trkpt lat="42.66056" lon="1.55494">
        <ele>2198</ele>
        <time>2014-09-14T11:43:47Z</time>
      </trkpt>
      <trkpt lat="42.66054" lon="1.55498">
        <ele>2196</ele>
        <time>2014-09-14T11:43:54Z</time>
      </trkpt>
      <trkpt lat="42.66054" lon="1.55502">
        <ele>2194</ele>
        <time>2014-09-14T11:44:07Z</time>
      </trkpt>
      <trkpt lat="42.66052" lon="1.55507">
        <ele>2192</ele>
        <time>2014-09-14T11:44:20Z</time>
      </trkpt>
      <trkpt lat="42.66052" lon="1.55511">
        <ele>2190</ele>
        <time>2014-09-14T11:44:33Z</time>
      </trkpt>
      <trkpt lat="42.66054" lon="1.55514">
        <ele>2189</ele>
        <time>2014-09-14T11:44:49Z</time>
      </trkpt>
      <trkpt lat="42.66052" lon="1.55518">
        <ele>2187</ele>
        <time>2014-09-14T11:45:03Z</time>
      </trkpt>
      <trkpt lat="42.66046" lon="1.55519">
        <ele>2185</ele>
        <time>2014-09-14T11:45:15Z</time>
      </trkpt>
      <trkpt lat="42.66046" lon="1.55525">
        <ele>2183</ele>
        <time>2014-09-14T11:45:29Z</time>
      </trkpt>
      <trkpt lat="42.66046" lon="1.55529">
        <ele>2181</ele>
        <time>2014-09-14T11:45:42Z</time>
      </trkpt>
      <trkpt lat="42.66038" lon="1.55533">
        <ele>2179</ele>
        <time>2014-09-14T11:45:57Z</time>
      </trkpt>
      <trkpt lat="42.66038" lon="1.55538">
        <ele>2177</ele>
        <time>2014-09-14T11:46:10Z</time>
      </trkpt>
      <trkpt lat="42.66034" lon="1.55541">
        <ele>2175</ele>
        <time>2014-09-14T11:46:23Z</time>
      </trkpt>
      <trkpt lat="42.66034" lon="1.55542">
        <ele>2173</ele>
        <time>2014-09-14T11:46:34Z</time>
      </trkpt>
      <trkpt lat="42.66031" lon="1.55546">
        <ele>2172</ele>
        <time>2014-09-14T11:46:47Z</time>
      </trkpt>
      <trkpt lat="42.66026" lon="1.5555">
        <ele>2170</ele>
        <time>2014-09-14T11:47:00Z</time>
      </trkpt>
      <trkpt lat="42.66024" lon="1.55556">
        <ele>2168</ele>
        <time>2014-09-14T11:47:13Z</time>
      </trkpt>
      <trkpt lat="42.6602" lon="1.55556">
        <ele>2166</ele>
        <time>2014-09-14T11:47:25Z</time>
      </trkpt>
      <trkpt lat="42.66018" lon="1.55562">
        <ele>2165</ele>
        <time>2014-09-14T11:47:34Z</time>
      </trkpt>
      <trkpt lat="42.66019" lon="1.55564">
        <ele>2165</ele>
        <time>2014-09-14T11:47:45Z</time>
      </trkpt>
      <trkpt lat="42.66013" lon="1.55565">
        <ele>2162</ele>
        <time>2014-09-14T11:47:57Z</time>
      </trkpt>
      <trkpt lat="42.66012" lon="1.5557">
        <ele>2161</ele>
        <time>2014-09-14T11:48:11Z</time>
      </trkpt>
      <trkpt lat="42.6601" lon="1.55577">
        <ele>2159</ele>
        <time>2014-09-14T11:48:27Z</time>
      </trkpt>
      <trkpt lat="42.66009" lon="1.55581">
        <ele>2157</ele>
        <time>2014-09-14T11:48:41Z</time>
      </trkpt>
      <trkpt lat="42.66009" lon="1.55588">
        <ele>2154</ele>
        <time>2014-09-14T11:48:53Z</time>
      </trkpt>
      <trkpt lat="42.66008" lon="1.55592">
        <ele>2153</ele>
        <time>2014-09-14T11:49:10Z</time>
      </trkpt>
      <trkpt lat="42.6601" lon="1.55595">
        <ele>2152</ele>
        <time>2014-09-14T11:49:26Z</time>
      </trkpt>
      <trkpt lat="42.6601" lon="1.55598">
        <ele>2152</ele>
        <time>2014-09-14T11:49:41Z</time>
      </trkpt>
      <trkpt lat="42.66009" lon="1.55605">
        <ele>2150</ele>
        <time>2014-09-14T11:49:52Z</time>
      </trkpt>
      <trkpt lat="42.66007" lon="1.55608">
        <ele>2148</ele>
        <time>2014-09-14T11:50:04Z</time>
      </trkpt>
      <trkpt lat="42.66007" lon="1.55615">
        <ele>2146</ele>
        <time>2014-09-14T11:50:18Z</time>
      </trkpt>
      <trkpt lat="42.66003" lon="1.55618">
        <ele>2144</ele>
        <time>2014-09-14T11:50:29Z</time>
      </trkpt>
      <trkpt lat="42.66" lon="1.5562">
        <ele>2144</ele>
        <time>2014-09-14T11:50:40Z</time>
      </trkpt>
      <trkpt lat="42.65998" lon="1.55621">
        <ele>2143</ele>
        <time>2014-09-14T11:50:56Z</time>
      </trkpt>
      <trkpt lat="42.65997" lon="1.55623">
        <ele>2142</ele>
        <time>2014-09-14T11:50:59Z</time>
      </trkpt>
      <trkpt lat="42.65995" lon="1.55625">
        <ele>2141</ele>
        <time>2014-09-14T11:51:11Z</time>
      </trkpt>
      <trkpt lat="42.65989" lon="1.55631">
        <ele>2140</ele>
        <time>2014-09-14T11:51:22Z</time>
      </trkpt>
      <trkpt lat="42.65989" lon="1.5563">
        <ele>2140</ele>
        <time>2014-09-14T11:51:35Z</time>
      </trkpt>
      <trkpt lat="42.65984" lon="1.55633">
        <ele>2139</ele>
        <time>2014-09-14T11:51:47Z</time>
      </trkpt>
      <trkpt lat="42.65981" lon="1.55635">
        <ele>2138</ele>
        <time>2014-09-14T11:52:03Z</time>
      </trkpt>
      <trkpt lat="42.65974" lon="1.55638">
        <ele>2137</ele>
        <time>2014-09-14T11:52:16Z</time>
      </trkpt>
      <trkpt lat="42.65975" lon="1.55643">
        <ele>2136</ele>
        <time>2014-09-14T11:52:41Z</time>
      </trkpt>
      <trkpt lat="42.65972" lon="1.55644">
        <ele>2136</ele>
        <time>2014-09-14T11:52:47Z</time>
      </trkpt>
      <trkpt lat="42.65965" lon="1.5564">
        <ele>2134</ele>
        <time>2014-09-14T11:52:57Z</time>
      </trkpt>
      <trkpt lat="42.65963" lon="1.55642">
        <ele>2133</ele>
        <time>2014-09-14T11:52:59Z</time>
      </trkpt>
      <trkpt lat="42.6596" lon="1.55645">
        <ele>2132</ele>
        <time>2014-09-14T11:53:02Z</time>
      </trkpt>
      <trkpt lat="42.65961" lon="1.55648">
        <ele>2131</ele>
        <time>2014-09-14T11:53:05Z</time>
      </trkpt>
      <trkpt lat="42.6596" lon="1.55658">
        <ele>2130</ele>
        <time>2014-09-14T11:53:12Z</time>
      </trkpt>
      <trkpt lat="42.65954" lon="1.55662">
        <ele>2128</ele>
        <time>2014-09-14T11:53:23Z</time>
      </trkpt>
      <trkpt lat="42.65953" lon="1.55666">
        <ele>2128</ele>
        <time>2014-09-14T11:53:26Z</time>
      </trkpt>
      <trkpt lat="42.65949" lon="1.55676">
        <ele>2126</ele>
        <time>2014-09-14T11:53:39Z</time>
      </trkpt>
      <trkpt lat="42.65944" lon="1.55681">
        <ele>2125</ele>
        <time>2014-09-14T11:53:49Z</time>
      </trkpt>
      <trkpt lat="42.65947" lon="1.55694">
        <ele>2124</ele>
        <time>2014-09-14T11:53:59Z</time>
      </trkpt>
      <trkpt lat="42.65944" lon="1.55703">
        <ele>2121</ele>
        <time>2014-09-14T11:54:09Z</time>
      </trkpt>
      <trkpt lat="42.65943" lon="1.55707">
        <ele>2121</ele>
        <time>2014-09-14T11:54:14Z</time>
      </trkpt>
      <trkpt lat="42.65946" lon="1.55717">
        <ele>2120</ele>
        <time>2014-09-14T11:54:24Z</time>
      </trkpt>
      <trkpt lat="42.65948" lon="1.55737">
        <ele>2118</ele>
        <time>2014-09-14T11:54:39Z</time>
      </trkpt>
      <trkpt lat="42.65949" lon="1.55738">
        <ele>2118</ele>
        <time>2014-09-14T11:54:40Z</time>
      </trkpt>
      <trkpt lat="42.65955" lon="1.55749">
        <ele>2116</ele>
        <time>2014-09-14T11:54:54Z</time>
      </trkpt>
      <trkpt lat="42.65955" lon="1.5575">
        <ele>2116</ele>
        <time>2014-09-14T11:54:55Z</time>
      </trkpt>
      <trkpt lat="42.65958" lon="1.55766">
        <ele>2114</ele>
        <time>2014-09-14T11:55:07Z</time>
      </trkpt>
      <trkpt lat="42.65963" lon="1.55772">
        <ele>2115</ele>
        <time>2014-09-14T11:55:17Z</time>
      </trkpt>
      <trkpt lat="42.65969" lon="1.55776">
        <ele>2116</ele>
        <time>2014-09-14T11:55:30Z</time>
      </trkpt>
      <trkpt lat="42.65969" lon="1.55777">
        <ele>2116</ele>
        <time>2014-09-14T11:55:31Z</time>
      </trkpt>
      <trkpt lat="42.65972" lon="1.55784">
        <ele>2115</ele>
        <time>2014-09-14T11:55:38Z</time>
      </trkpt>
      <trkpt lat="42.65973" lon="1.55787">
        <ele>2113</ele>
        <time>2014-09-14T11:55:41Z</time>
      </trkpt>
      <trkpt lat="42.6598" lon="1.55791">
        <ele>2114</ele>
        <time>2014-09-14T11:55:55Z</time>
      </trkpt>
      <trkpt lat="42.6598" lon="1.55791">
        <ele>2115</ele>
        <time>2014-09-14T11:55:56Z</time>
      </trkpt>
      <trkpt lat="42.65985" lon="1.55807">
        <ele>2114</ele>
        <time>2014-09-14T11:56:09Z</time>
      </trkpt>
      <trkpt lat="42.65985" lon="1.55809">
        <ele>2113</ele>
        <time>2014-09-14T11:56:11Z</time>
      </trkpt>
      <trkpt lat="42.65987" lon="1.55813">
        <ele>2114</ele>
        <time>2014-09-14T11:56:16Z</time>
      </trkpt>
      <trkpt lat="42.65989" lon="1.55827">
        <ele>2113</ele>
        <time>2014-09-14T11:56:29Z</time>
      </trkpt>
      <trkpt lat="42.65989" lon="1.55831">
        <ele>2110</ele>
        <time>2014-09-14T11:56:36Z</time>
      </trkpt>
      <trkpt lat="42.65995" lon="1.55845">
        <ele>2111</ele>
        <time>2014-09-14T11:56:48Z</time>
      </trkpt>
      <trkpt lat="42.66003" lon="1.55854">
        <ele>2110</ele>
        <time>2014-09-14T11:57:00Z</time>
      </trkpt>
      <trkpt lat="42.66008" lon="1.55877">
        <ele>2110</ele>
        <time>2014-09-14T11:57:16Z</time>
      </trkpt>
      <trkpt lat="42.66009" lon="1.55882">
        <ele>2110</ele>
        <time>2014-09-14T11:57:23Z</time>
      </trkpt>
      <trkpt lat="42.66007" lon="1.5589">
        <ele>2108</ele>
        <time>2014-09-14T11:57:29Z</time>
      </trkpt>
      <trkpt lat="42.66005" lon="1.55896">
        <ele>2107</ele>
        <time>2014-09-14T11:57:35Z</time>
      </trkpt>
      <trkpt lat="42.66004" lon="1.559">
        <ele>2107</ele>
        <time>2014-09-14T11:57:37Z</time>
      </trkpt>
      <trkpt lat="42.66002" lon="1.55909">
        <ele>2106</ele>
        <time>2014-09-14T11:57:45Z</time>
      </trkpt>
      <trkpt lat="42.65998" lon="1.55915">
        <ele>2105</ele>
        <time>2014-09-14T11:57:52Z</time>
      </trkpt>
      <trkpt lat="42.65997" lon="1.55926">
        <ele>2104</ele>
        <time>2014-09-14T11:58:06Z</time>
      </trkpt>
      <trkpt lat="42.65999" lon="1.55934">
        <ele>2103</ele>
        <time>2014-09-14T11:58:12Z</time>
      </trkpt>
      <trkpt lat="42.66002" lon="1.5595">
        <ele>2103</ele>
        <time>2014-09-14T11:58:24Z</time>
      </trkpt>
      <trkpt lat="42.66006" lon="1.5597">
        <ele>2101</ele>
        <time>2014-09-14T11:58:36Z</time>
      </trkpt>
      <trkpt lat="42.66008" lon="1.55975">
        <ele>2103</ele>
        <time>2014-09-14T11:58:40Z</time>
      </trkpt>
      <trkpt lat="42.66008" lon="1.55982">
        <ele>2102</ele>
        <time>2014-09-14T11:58:45Z</time>
      </trkpt>
      <trkpt lat="42.66011" lon="1.56005">
        <ele>2102</ele>
        <time>2014-09-14T11:59:00Z</time>
      </trkpt>
      <trkpt lat="42.66011" lon="1.56006">
        <ele>2102</ele>
        <time>2014-09-14T11:59:01Z</time>
      </trkpt>
      <trkpt lat="42.66012" lon="1.56026">
        <ele>2103</ele>
        <time>2014-09-14T11:59:17Z</time>
      </trkpt>
      <trkpt lat="42.66012" lon="1.56032">
        <ele>2104</ele>
        <time>2014-09-14T11:59:26Z</time>
      </trkpt>
      <trkpt lat="42.66013" lon="1.56036">
        <ele>2103</ele>
        <time>2014-09-14T11:59:37Z</time>
      </trkpt>
      <trkpt lat="42.66009" lon="1.56044">
        <ele>2102</ele>
        <time>2014-09-14T11:59:49Z</time>
      </trkpt>
      <trkpt lat="42.66012" lon="1.56048">
        <ele>2100</ele>
        <time>2014-09-14T11:59:54Z</time>
      </trkpt>
      <trkpt lat="42.66013" lon="1.5605">
        <ele>2099</ele>
        <time>2014-09-14T11:59:56Z</time>
      </trkpt>
      <trkpt lat="42.66021" lon="1.56061">
        <ele>2097</ele>
        <time>2014-09-14T12:00:09Z</time>
      </trkpt>
      <trkpt lat="42.66024" lon="1.56066">
        <ele>2096</ele>
        <time>2014-09-14T12:00:14Z</time>
      </trkpt>
      <trkpt lat="42.66029" lon="1.56081">
        <ele>2094</ele>
        <time>2014-09-14T12:00:27Z</time>
      </trkpt>
      <trkpt lat="42.66033" lon="1.56089">
        <ele>2094</ele>
        <time>2014-09-14T12:00:36Z</time>
      </trkpt>
      <trkpt lat="42.6604" lon="1.56098">
        <ele>2095</ele>
        <time>2014-09-14T12:00:50Z</time>
      </trkpt>
      <trkpt lat="42.66049" lon="1.56109">
        <ele>2094</ele>
        <time>2014-09-14T12:01:01Z</time>
      </trkpt>
      <trkpt lat="42.66048" lon="1.56113">
        <ele>2094</ele>
        <time>2014-09-14T12:01:03Z</time>
      </trkpt>
      <trkpt lat="42.6605" lon="1.56118">
        <ele>2094</ele>
        <time>2014-09-14T12:01:07Z</time>
      </trkpt>
      <trkpt lat="42.66051" lon="1.56122">
        <ele>2093</ele>
        <time>2014-09-14T12:01:11Z</time>
      </trkpt>
      <trkpt lat="42.66058" lon="1.56132">
        <ele>2092</ele>
        <time>2014-09-14T12:01:22Z</time>
      </trkpt>
      <trkpt lat="42.66059" lon="1.56137">
        <ele>2091</ele>
        <time>2014-09-14T12:01:25Z</time>
      </trkpt>
      <trkpt lat="42.66061" lon="1.56141">
        <ele>2091</ele>
        <time>2014-09-14T12:01:29Z</time>
      </trkpt>
      <trkpt lat="42.66065" lon="1.5614">
        <ele>2090</ele>
        <time>2014-09-14T12:01:33Z</time>
      </trkpt>
      <trkpt lat="42.66081" lon="1.56139">
        <ele>2089</ele>
        <time>2014-09-14T12:01:50Z</time>
      </trkpt>
      <trkpt lat="42.66084" lon="1.56145">
        <ele>2088</ele>
        <time>2014-09-14T12:02:12Z</time>
      </trkpt>
      <trkpt lat="42.66096" lon="1.56153">
        <ele>2086</ele>
        <time>2014-09-14T12:02:25Z</time>
      </trkpt>
      <trkpt lat="42.66097" lon="1.56156">
        <ele>2086</ele>
        <time>2014-09-14T12:02:28Z</time>
      </trkpt>
      <trkpt lat="42.66097" lon="1.5616">
        <ele>2086</ele>
        <time>2014-09-14T12:02:31Z</time>
      </trkpt>
      <trkpt lat="42.66105" lon="1.56172">
        <ele>2084</ele>
        <time>2014-09-14T12:02:42Z</time>
      </trkpt>
      <trkpt lat="42.66113" lon="1.5618">
        <ele>2082</ele>
        <time>2014-09-14T12:02:52Z</time>
      </trkpt>
      <trkpt lat="42.66118" lon="1.56186">
        <ele>2081</ele>
        <time>2014-09-14T12:02:59Z</time>
      </trkpt>
      <trkpt lat="42.66125" lon="1.56186">
        <ele>2080</ele>
        <time>2014-09-14T12:03:07Z</time>
      </trkpt>
      <trkpt lat="42.66129" lon="1.56191">
        <ele>2080</ele>
        <time>2014-09-14T12:03:13Z</time>
      </trkpt>
      <trkpt lat="42.66132" lon="1.56198">
        <ele>2078</ele>
        <time>2014-09-14T12:03:19Z</time>
      </trkpt>
      <trkpt lat="42.66136" lon="1.56209">
        <ele>2075</ele>
        <time>2014-09-14T12:03:32Z</time>
      </trkpt>
      <trkpt lat="42.66138" lon="1.5621">
        <ele>2075</ele>
        <time>2014-09-14T12:03:34Z</time>
      </trkpt>
      <trkpt lat="42.66144" lon="1.56216">
        <ele>2073</ele>
        <time>2014-09-14T12:03:43Z</time>
      </trkpt>
      <trkpt lat="42.6615" lon="1.5622">
        <ele>2072</ele>
        <time>2014-09-14T12:03:47Z</time>
      </trkpt>
      <trkpt lat="42.66165" lon="1.56235">
        <ele>2070</ele>
        <time>2014-09-14T12:04:02Z</time>
      </trkpt>
      <trkpt lat="42.6617" lon="1.56254">
        <ele>2070</ele>
        <time>2014-09-14T12:04:14Z</time>
      </trkpt>
      <trkpt lat="42.66174" lon="1.56263">
        <ele>2068</ele>
        <time>2014-09-14T12:04:23Z</time>
      </trkpt>
      <trkpt lat="42.66177" lon="1.56267">
        <ele>2067</ele>
        <time>2014-09-14T12:04:27Z</time>
      </trkpt>
      <trkpt lat="42.66187" lon="1.56288">
        <ele>2066</ele>
        <time>2014-09-14T12:04:41Z</time>
      </trkpt>
      <trkpt lat="42.66196" lon="1.56296">
        <ele>2064</ele>
        <time>2014-09-14T12:04:53Z</time>
      </trkpt>
      <trkpt lat="42.66199" lon="1.56302">
        <ele>2063</ele>
        <time>2014-09-14T12:05:05Z</time>
      </trkpt>
      <trkpt lat="42.66204" lon="1.56311">
        <ele>2062</ele>
        <time>2014-09-14T12:05:17Z</time>
      </trkpt>
      <trkpt lat="42.66211" lon="1.56317">
        <ele>2060</ele>
        <time>2014-09-14T12:05:29Z</time>
      </trkpt>
      <trkpt lat="42.66217" lon="1.56321">
        <ele>2059</ele>
        <time>2014-09-14T12:05:38Z</time>
      </trkpt>
      <trkpt lat="42.66226" lon="1.56332">
        <ele>2056</ele>
        <time>2014-09-14T12:05:50Z</time>
      </trkpt>
      <trkpt lat="42.66242" lon="1.56339">
        <ele>2055</ele>
        <time>2014-09-14T12:06:04Z</time>
      </trkpt>
      <trkpt lat="42.66252" lon="1.5635">
        <ele>2053</ele>
        <time>2014-09-14T12:06:17Z</time>
      </trkpt>
      <trkpt lat="42.6626" lon="1.56358">
        <ele>2052</ele>
        <time>2014-09-14T12:06:28Z</time>
      </trkpt>
      <trkpt lat="42.66267" lon="1.56367">
        <ele>2050</ele>
        <time>2014-09-14T12:06:40Z</time>
      </trkpt>
      <trkpt lat="42.66269" lon="1.56376">
        <ele>2049</ele>
        <time>2014-09-14T12:06:48Z</time>
      </trkpt>
      <trkpt lat="42.66273" lon="1.56383">
        <ele>2049</ele>
        <time>2014-09-14T12:06:54Z</time>
      </trkpt>
      <trkpt lat="42.66276" lon="1.56388">
        <ele>2047</ele>
        <time>2014-09-14T12:06:59Z</time>
      </trkpt>
      <trkpt lat="42.66282" lon="1.56392">
        <ele>2047</ele>
        <time>2014-09-14T12:07:05Z</time>
      </trkpt>
      <trkpt lat="42.66294" lon="1.56404">
        <ele>2043</ele>
        <time>2014-09-14T12:07:20Z</time>
      </trkpt>
      <trkpt lat="42.66304" lon="1.56417">
        <ele>2042</ele>
        <time>2014-09-14T12:07:33Z</time>
      </trkpt>
      <trkpt lat="42.6631" lon="1.56415">
        <ele>2041</ele>
        <time>2014-09-14T12:07:40Z</time>
      </trkpt>
      <trkpt lat="42.66313" lon="1.56415">
        <ele>2040</ele>
        <time>2014-09-14T12:07:46Z</time>
      </trkpt>
      <trkpt lat="42.66321" lon="1.5642">
        <ele>2039</ele>
        <time>2014-09-14T12:07:59Z</time>
      </trkpt>
      <trkpt lat="42.66327" lon="1.56426">
        <ele>2037</ele>
        <time>2014-09-14T12:08:11Z</time>
      </trkpt>
      <trkpt lat="42.66328" lon="1.56428">
        <ele>2037</ele>
        <time>2014-09-14T12:08:13Z</time>
      </trkpt>
      <trkpt lat="42.66335" lon="1.56435">
        <ele>2035</ele>
        <time>2014-09-14T12:08:27Z</time>
      </trkpt>
      <trkpt lat="42.66342" lon="1.56438">
        <ele>2033</ele>
        <time>2014-09-14T12:08:39Z</time>
      </trkpt>
      <trkpt lat="42.66344" lon="1.56446">
        <ele>2031</ele>
        <time>2014-09-14T12:08:52Z</time>
      </trkpt>
      <trkpt lat="42.6635" lon="1.56454">
        <ele>2029</ele>
        <time>2014-09-14T12:09:05Z</time>
      </trkpt>
      <trkpt lat="42.66357" lon="1.56464">
        <ele>2026</ele>
        <time>2014-09-14T12:09:18Z</time>
      </trkpt>
      <trkpt lat="42.66359" lon="1.56471">
        <ele>2026</ele>
        <time>2014-09-14T12:09:27Z</time>
      </trkpt>
      <trkpt lat="42.66363" lon="1.56478">
        <ele>2023</ele>
        <time>2014-09-14T12:09:37Z</time>
      </trkpt>
      <trkpt lat="42.66379" lon="1.56485">
        <ele>2022</ele>
        <time>2014-09-14T12:09:55Z</time>
      </trkpt>
      <trkpt lat="42.66393" lon="1.56489">
        <ele>2021</ele>
        <time>2014-09-14T12:10:10Z</time>
      </trkpt>
      <trkpt lat="42.66403" lon="1.56501">
        <ele>2020</ele>
        <time>2014-09-14T12:10:24Z</time>
      </trkpt>
      <trkpt lat="42.66414" lon="1.56511">
        <ele>2017</ele>
        <time>2014-09-14T12:10:38Z</time>
      </trkpt>
      <trkpt lat="42.66423" lon="1.56519">
        <ele>2015</ele>
        <time>2014-09-14T12:10:50Z</time>
      </trkpt>
      <trkpt lat="42.66428" lon="1.56532">
        <ele>2012</ele>
        <time>2014-09-14T12:11:04Z</time>
      </trkpt>
      <trkpt lat="42.66436" lon="1.56544">
        <ele>2009</ele>
        <time>2014-09-14T12:11:18Z</time>
      </trkpt>
      <trkpt lat="42.66438" lon="1.56549">
        <ele>2009</ele>
        <time>2014-09-14T12:11:22Z</time>
      </trkpt>
      <trkpt lat="42.66445" lon="1.56554">
        <ele>2007</ele>
        <time>2014-09-14T12:11:38Z</time>
      </trkpt>
      <trkpt lat="42.66448" lon="1.56558">
        <ele>2006</ele>
        <time>2014-09-14T12:11:47Z</time>
      </trkpt>
      <trkpt lat="42.66448" lon="1.5656">
        <ele>2006</ele>
        <time>2014-09-14T12:11:49Z</time>
      </trkpt>
      <trkpt lat="42.66455" lon="1.56569">
        <ele>2004</ele>
        <time>2014-09-14T12:11:58Z</time>
      </trkpt>
      <trkpt lat="42.66462" lon="1.56576">
        <ele>2002</ele>
        <time>2014-09-14T12:12:11Z</time>
      </trkpt>
      <trkpt lat="42.66463" lon="1.56576">
        <ele>2002</ele>
        <time>2014-09-14T12:12:12Z</time>
      </trkpt>
      <trkpt lat="42.66466" lon="1.56581">
        <ele>2001</ele>
        <time>2014-09-14T12:12:17Z</time>
      </trkpt>
      <trkpt lat="42.66476" lon="1.5658">
        <ele>2000</ele>
        <time>2014-09-14T12:12:33Z</time>
      </trkpt>
      <trkpt lat="42.66484" lon="1.56583">
        <ele>1999</ele>
        <time>2014-09-14T12:12:44Z</time>
      </trkpt>
      <trkpt lat="42.66497" lon="1.56587">
        <ele>2000</ele>
        <time>2014-09-14T12:12:57Z</time>
      </trkpt>
      <trkpt lat="42.66506" lon="1.56595">
        <ele>2000</ele>
        <time>2014-09-14T12:13:07Z</time>
      </trkpt>
      <trkpt lat="42.66516" lon="1.56606">
        <ele>2000</ele>
        <time>2014-09-14T12:13:21Z</time>
      </trkpt>
      <trkpt lat="42.66525" lon="1.56611">
        <ele>2000</ele>
        <time>2014-09-14T12:13:34Z</time>
      </trkpt>
      <trkpt lat="42.66534" lon="1.56612">
        <ele>2000</ele>
        <time>2014-09-14T12:13:49Z</time>
      </trkpt>
      <trkpt lat="42.66543" lon="1.56617">
        <ele>1999</ele>
        <time>2014-09-14T12:14:03Z</time>
      </trkpt>
      <trkpt lat="42.66544" lon="1.56617">
        <ele>1999</ele>
        <time>2014-09-14T12:14:07Z</time>
      </trkpt>
      <trkpt lat="42.66555" lon="1.56624">
        <ele>1999</ele>
        <time>2014-09-14T12:14:20Z</time>
      </trkpt>
      <trkpt lat="42.66556" lon="1.56625">
        <ele>1999</ele>
        <time>2014-09-14T12:14:21Z</time>
      </trkpt>
      <trkpt lat="42.66564" lon="1.56639">
        <ele>1998</ele>
        <time>2014-09-14T12:14:35Z</time>
      </trkpt>
      <trkpt lat="42.66573" lon="1.56649">
        <ele>1998</ele>
        <time>2014-09-14T12:14:44Z</time>
      </trkpt>
      <trkpt lat="42.66578" lon="1.56653">
        <ele>1997</ele>
        <time>2014-09-14T12:14:49Z</time>
      </trkpt>
      <trkpt lat="42.6659" lon="1.56668">
        <ele>1995</ele>
        <time>2014-09-14T12:15:05Z</time>
      </trkpt>
      <trkpt lat="42.66594" lon="1.56672">
        <ele>1995</ele>
        <time>2014-09-14T12:15:09Z</time>
      </trkpt>
      <trkpt lat="42.66609" lon="1.5669">
        <ele>1994</ele>
        <time>2014-09-14T12:15:27Z</time>
      </trkpt>
      <trkpt lat="42.66624" lon="1.56698">
        <ele>1992</ele>
        <time>2014-09-14T12:15:42Z</time>
      </trkpt>
      <trkpt lat="42.66627" lon="1.56697">
        <ele>1992</ele>
        <time>2014-09-14T12:15:45Z</time>
      </trkpt>
      <trkpt lat="42.66635" lon="1.56702">
        <ele>1991</ele>
        <time>2014-09-14T12:15:53Z</time>
      </trkpt>
      <trkpt lat="42.66637" lon="1.56702">
        <ele>1991</ele>
        <time>2014-09-14T12:15:54Z</time>
      </trkpt>
      <trkpt lat="42.66652" lon="1.56711">
        <ele>1989</ele>
        <time>2014-09-14T12:16:07Z</time>
      </trkpt>
      <trkpt lat="42.6666" lon="1.56726">
        <ele>1987</ele>
        <time>2014-09-14T12:16:22Z</time>
      </trkpt>
      <trkpt lat="42.66673" lon="1.56738">
        <ele>1985</ele>
        <time>2014-09-14T12:16:36Z</time>
      </trkpt>
      <trkpt lat="42.66681" lon="1.56746">
        <ele>1983</ele>
        <time>2014-09-14T12:16:46Z</time>
      </trkpt>
      <trkpt lat="42.66679" lon="1.56752">
        <ele>1982</ele>
        <time>2014-09-14T12:16:49Z</time>
      </trkpt>
      <trkpt lat="42.66686" lon="1.56764">
        <ele>1981</ele>
        <time>2014-09-14T12:17:01Z</time>
      </trkpt>
      <trkpt lat="42.66688" lon="1.56767">
        <ele>1980</ele>
        <time>2014-09-14T12:17:05Z</time>
      </trkpt>
      <trkpt lat="42.667" lon="1.56773">
        <ele>1978</ele>
        <time>2014-09-14T12:17:19Z</time>
      </trkpt>
      <trkpt lat="42.66712" lon="1.5678">
        <ele>1977</ele>
        <time>2014-09-14T12:17:34Z</time>
      </trkpt>
      <trkpt lat="42.66723" lon="1.56784">
        <ele>1974</ele>
        <time>2014-09-14T12:17:46Z</time>
      </trkpt>
      <trkpt lat="42.66725" lon="1.56786">
        <ele>1973</ele>
        <time>2014-09-14T12:18:00Z</time>
      </trkpt>
      <trkpt lat="42.66729" lon="1.56787">
        <ele>1972</ele>
        <time>2014-09-14T12:18:04Z</time>
      </trkpt>
      <trkpt lat="42.66731" lon="1.56788">
        <ele>1972</ele>
        <time>2014-09-14T12:18:07Z</time>
      </trkpt>
      <trkpt lat="42.66736" lon="1.56788">
        <ele>1971</ele>
        <time>2014-09-14T12:18:12Z</time>
      </trkpt>
      <trkpt lat="42.6674" lon="1.56786">
        <ele>1970</ele>
        <time>2014-09-14T12:18:15Z</time>
      </trkpt>
      <trkpt lat="42.66746" lon="1.56787">
        <ele>1968</ele>
        <time>2014-09-14T12:18:22Z</time>
      </trkpt>
      <trkpt lat="42.66752" lon="1.5679">
        <ele>1967</ele>
        <time>2014-09-14T12:18:30Z</time>
      </trkpt>
      <trkpt lat="42.66761" lon="1.56795">
        <ele>1966</ele>
        <time>2014-09-14T12:18:40Z</time>
      </trkpt>
      <trkpt lat="42.6677" lon="1.56794">
        <ele>1966</ele>
        <time>2014-09-14T12:18:51Z</time>
      </trkpt>
      <trkpt lat="42.66779" lon="1.56799">
        <ele>1966</ele>
        <time>2014-09-14T12:19:00Z</time>
      </trkpt>
      <trkpt lat="42.66788" lon="1.56805">
        <ele>1966</ele>
        <time>2014-09-14T12:19:10Z</time>
      </trkpt>
      <trkpt lat="42.66795" lon="1.5681">
        <ele>1965</ele>
        <time>2014-09-14T12:19:17Z</time>
      </trkpt>
      <trkpt lat="42.66803" lon="1.56812">
        <ele>1963</ele>
        <time>2014-09-14T12:19:26Z</time>
      </trkpt>
      <trkpt lat="42.66812" lon="1.56822">
        <ele>1961</ele>
        <time>2014-09-14T12:19:38Z</time>
      </trkpt>
      <trkpt lat="42.66812" lon="1.56822">
        <ele>1961</ele>
        <time>2014-09-14T12:19:39Z</time>
      </trkpt>
      <trkpt lat="42.6682" lon="1.56829">
        <ele>1959</ele>
        <time>2014-09-14T12:19:51Z</time>
      </trkpt>
      <trkpt lat="42.66827" lon="1.5683">
        <ele>1958</ele>
        <time>2014-09-14T12:19:59Z</time>
      </trkpt>
      <trkpt lat="42.66836" lon="1.56836">
        <ele>1957</ele>
        <time>2014-09-14T12:20:10Z</time>
      </trkpt>
      <trkpt lat="42.66838" lon="1.56835">
        <ele>1957</ele>
        <time>2014-09-14T12:20:12Z</time>
      </trkpt>
      <trkpt lat="42.66845" lon="1.56838">
        <ele>1955</ele>
        <time>2014-09-14T12:20:20Z</time>
      </trkpt>
      <trkpt lat="42.66848" lon="1.56847">
        <ele>1954</ele>
        <time>2014-09-14T12:20:32Z</time>
      </trkpt>
      <trkpt lat="42.66858" lon="1.56853">
        <ele>1954</ele>
        <time>2014-09-14T12:20:45Z</time>
      </trkpt>
      <trkpt lat="42.66862" lon="1.56856">
        <ele>1954</ele>
        <time>2014-09-14T12:20:49Z</time>
      </trkpt>
      <trkpt lat="42.66874" lon="1.56862">
        <ele>1954</ele>
        <time>2014-09-14T12:21:03Z</time>
      </trkpt>
      <trkpt lat="42.6689" lon="1.5687">
        <ele>1952</ele>
        <time>2014-09-14T12:21:16Z</time>
      </trkpt>
      <trkpt lat="42.66896" lon="1.56871">
        <ele>1952</ele>
        <time>2014-09-14T12:21:25Z</time>
      </trkpt>
      <trkpt lat="42.66901" lon="1.56882">
        <ele>1952</ele>
        <time>2014-09-14T12:21:38Z</time>
      </trkpt>
      <trkpt lat="42.66902" lon="1.56881">
        <ele>1952</ele>
        <time>2014-09-14T12:21:39Z</time>
      </trkpt>
      <trkpt lat="42.66909" lon="1.56884">
        <ele>1951</ele>
        <time>2014-09-14T12:21:46Z</time>
      </trkpt>
      <trkpt lat="42.66912" lon="1.56889">
        <ele>1951</ele>
        <time>2014-09-14T12:21:52Z</time>
      </trkpt>
      <trkpt lat="42.66913" lon="1.5689">
        <ele>1951</ele>
        <time>2014-09-14T12:21:53Z</time>
      </trkpt>
      <trkpt lat="42.66926" lon="1.56891">
        <ele>1951</ele>
        <time>2014-09-14T12:22:02Z</time>
      </trkpt>
      <trkpt lat="42.66934" lon="1.56894">
        <ele>1950</ele>
        <time>2014-09-14T12:22:11Z</time>
      </trkpt>
      <trkpt lat="42.66941" lon="1.56894">
        <ele>1949</ele>
        <time>2014-09-14T12:22:24Z</time>
      </trkpt>
      <trkpt lat="42.66947" lon="1.56891">
        <ele>1949</ele>
        <time>2014-09-14T12:22:30Z</time>
      </trkpt>
      <trkpt lat="42.66964" lon="1.56901">
        <ele>1949</ele>
        <time>2014-09-14T12:22:46Z</time>
      </trkpt>
      <trkpt lat="42.66976" lon="1.56905">
        <ele>1949</ele>
        <time>2014-09-14T12:22:56Z</time>
      </trkpt>
      <trkpt lat="42.66984" lon="1.56908">
        <ele>1948</ele>
        <time>2014-09-14T12:23:02Z</time>
      </trkpt>
      <trkpt lat="42.66999" lon="1.56909">
        <ele>1947</ele>
        <time>2014-09-14T12:23:16Z</time>
      </trkpt>
      <trkpt lat="42.67009" lon="1.56913">
        <ele>1947</ele>
        <time>2014-09-14T12:23:30Z</time>
      </trkpt>
      <trkpt lat="42.67017" lon="1.56912">
        <ele>1948</ele>
        <time>2014-09-14T12:23:41Z</time>
      </trkpt>
      <trkpt lat="42.67033" lon="1.56911">
        <ele>1947</ele>
        <time>2014-09-14T12:23:55Z</time>
      </trkpt>
      <trkpt lat="42.67053" lon="1.56903">
        <ele>1946</ele>
        <time>2014-09-14T12:24:11Z</time>
      </trkpt>
      <trkpt lat="42.67072" lon="1.569">
        <ele>1945</ele>
        <time>2014-09-14T12:24:27Z</time>
      </trkpt>
      <trkpt lat="42.67073" lon="1.569">
        <ele>1945</ele>
        <time>2014-09-14T12:24:28Z</time>
      </trkpt>
      <trkpt lat="42.67076" lon="1.56899">
        <ele>1945</ele>
        <time>2014-09-14T12:24:31Z</time>
      </trkpt>
      <trkpt lat="42.67082" lon="1.569">
        <ele>1945</ele>
        <time>2014-09-14T12:24:35Z</time>
      </trkpt>
      <trkpt lat="42.67098" lon="1.56896">
        <ele>1944</ele>
        <time>2014-09-14T12:24:49Z</time>
      </trkpt>
      <trkpt lat="42.67109" lon="1.56893">
        <ele>1944</ele>
        <time>2014-09-14T12:25:01Z</time>
      </trkpt>
      <trkpt lat="42.67124" lon="1.56897">
        <ele>1944</ele>
        <time>2014-09-14T12:25:15Z</time>
      </trkpt>
      <trkpt lat="42.67139" lon="1.56899">
        <ele>1943</ele>
        <time>2014-09-14T12:25:29Z</time>
      </trkpt>
      <trkpt lat="42.67147" lon="1.569">
        <ele>1942</ele>
        <time>2014-09-14T12:25:42Z</time>
      </trkpt>
      <trkpt lat="42.67155" lon="1.56897">
        <ele>1943</ele>
        <time>2014-09-14T12:25:54Z</time>
      </trkpt>
      <trkpt lat="42.67168" lon="1.56895">
        <ele>1942</ele>
        <time>2014-09-14T12:26:03Z</time>
      </trkpt>
      <trkpt lat="42.67174" lon="1.56896">
        <ele>1942</ele>
        <time>2014-09-14T12:26:08Z</time>
      </trkpt>
      <trkpt lat="42.67186" lon="1.56898">
        <ele>1942</ele>
        <time>2014-09-14T12:26:18Z</time>
      </trkpt>
      <trkpt lat="42.67188" lon="1.56897">
        <ele>1942</ele>
        <time>2014-09-14T12:26:20Z</time>
      </trkpt>
      <trkpt lat="42.67206" lon="1.56902">
        <ele>1942</ele>
        <time>2014-09-14T12:26:34Z</time>
      </trkpt>
      <trkpt lat="42.67208" lon="1.569">
        <ele>1941</ele>
        <time>2014-09-14T12:26:38Z</time>
      </trkpt>
      <trkpt lat="42.67212" lon="1.56898">
        <ele>1941</ele>
        <time>2014-09-14T12:26:43Z</time>
      </trkpt>
      <trkpt lat="42.67224" lon="1.56899">
        <ele>1941</ele>
        <time>2014-09-14T12:26:53Z</time>
      </trkpt>
      <trkpt lat="42.67229" lon="1.56903">
        <ele>1942</ele>
        <time>2014-09-14T12:26:59Z</time>
      </trkpt>
      <trkpt lat="42.6724" lon="1.56905">
        <ele>1941</ele>
        <time>2014-09-14T12:27:11Z</time>
      </trkpt>
      <trkpt lat="42.67243" lon="1.56901">
        <ele>1941</ele>
        <time>2014-09-14T12:27:15Z</time>
      </trkpt>
      <trkpt lat="42.67245" lon="1.56901">
        <ele>1941</ele>
        <time>2014-09-14T12:27:17Z</time>
      </trkpt>
      <trkpt lat="42.67245" lon="1.56898">
        <ele>1940</ele>
        <time>2014-09-14T12:27:20Z</time>
      </trkpt>
      <trkpt lat="42.67251" lon="1.56893">
        <ele>1941</ele>
        <time>2014-09-14T12:27:29Z</time>
      </trkpt>
      <trkpt lat="42.67266" lon="1.56895">
        <ele>1941</ele>
        <time>2014-09-14T12:27:43Z</time>
      </trkpt>
      <trkpt lat="42.67274" lon="1.5689">
        <ele>1941</ele>
        <time>2014-09-14T12:27:55Z</time>
      </trkpt>
      <trkpt lat="42.67279" lon="1.56886">
        <ele>1940</ele>
        <time>2014-09-14T12:27:59Z</time>
      </trkpt>
      <trkpt lat="42.67288" lon="1.56887">
        <ele>1939</ele>
        <time>2014-09-14T12:28:07Z</time>
      </trkpt>
      <trkpt lat="42.67295" lon="1.5688">
        <ele>1939</ele>
        <time>2014-09-14T12:28:15Z</time>
      </trkpt>
      <trkpt lat="42.67298" lon="1.56877">
        <ele>1939</ele>
        <time>2014-09-14T12:28:19Z</time>
      </trkpt>
      <trkpt lat="42.67306" lon="1.56872">
        <ele>1939</ele>
        <time>2014-09-14T12:28:28Z</time>
      </trkpt>
      <trkpt lat="42.67318" lon="1.56874">
        <ele>1939</ele>
        <time>2014-09-14T12:28:41Z</time>
      </trkpt>
      <trkpt lat="42.67329" lon="1.56876">
        <ele>1939</ele>
        <time>2014-09-14T12:28:50Z</time>
      </trkpt>
      <trkpt lat="42.67338" lon="1.56872">
        <ele>1939</ele>
        <time>2014-09-14T12:29:01Z</time>
      </trkpt>
      <trkpt lat="42.67348" lon="1.56872">
        <ele>1939</ele>
        <time>2014-09-14T12:29:10Z</time>
      </trkpt>
      <trkpt lat="42.67368" lon="1.56877">
        <ele>1939</ele>
        <time>2014-09-14T12:29:27Z</time>
      </trkpt>
      <trkpt lat="42.67373" lon="1.5688">
        <ele>1936</ele>
        <time>2014-09-14T12:29:35Z</time>
      </trkpt>
      <trkpt lat="42.67372" lon="1.5688">
        <ele>1939</ele>
        <time>2014-09-14T12:29:36Z</time>
      </trkpt>
      <trkpt lat="42.67373" lon="1.56876">
        <ele>1939</ele>
        <time>2014-09-14T12:29:43Z</time>
      </trkpt>
      <trkpt lat="42.6738" lon="1.56863">
        <ele>1938</ele>
        <time>2014-09-14T12:29:53Z</time>
      </trkpt>
      <trkpt lat="42.67383" lon="1.5686">
        <ele>1938</ele>
        <time>2014-09-14T12:29:58Z</time>
      </trkpt>
      <trkpt lat="42.67385" lon="1.56857">
        <ele>1938</ele>
        <time>2014-09-14T12:30:02Z</time>
      </trkpt>
      <trkpt lat="42.67384" lon="1.56854">
        <ele>1937</ele>
        <time>2014-09-14T12:30:05Z</time>
      </trkpt>
      <trkpt lat="42.67387" lon="1.56854">
        <ele>1938</ele>
        <time>2014-09-14T12:30:18Z</time>
      </trkpt>
      <trkpt lat="42.67387" lon="1.56854">
        <ele>1936</ele>
        <time>2014-09-14T12:30:21Z</time>
      </trkpt>
      <trkpt lat="42.67391" lon="1.56858">
        <ele>1936</ele>
        <time>2014-09-14T12:30:34Z</time>
      </trkpt>
      <trkpt lat="42.67396" lon="1.56863">
        <ele>1937</ele>
        <time>2014-09-14T12:30:46Z</time>
      </trkpt>
      <trkpt lat="42.67401" lon="1.56859">
        <ele>1939</ele>
        <time>2014-09-14T12:30:57Z</time>
      </trkpt>
      <trkpt lat="42.6741" lon="1.56856">
        <ele>1939</ele>
        <time>2014-09-14T12:31:10Z</time>
      </trkpt>
      <trkpt lat="42.67413" lon="1.56859">
        <ele>1939</ele>
        <time>2014-09-14T12:31:12Z</time>
      </trkpt>
      <trkpt lat="42.67416" lon="1.56862">
        <ele>1941</ele>
        <time>2014-09-14T12:31:20Z</time>
      </trkpt>
      <trkpt lat="42.67426" lon="1.56861">
        <ele>1942</ele>
        <time>2014-09-14T12:31:32Z</time>
      </trkpt>
      <trkpt lat="42.67433" lon="1.56853">
        <ele>1940</ele>
        <time>2014-09-14T12:31:44Z</time>
      </trkpt>
      <trkpt lat="42.67441" lon="1.5685">
        <ele>1939</ele>
        <time>2014-09-14T12:31:52Z</time>
      </trkpt>
      <trkpt lat="42.67447" lon="1.56852">
        <ele>1938</ele>
        <time>2014-09-14T12:32:08Z</time>
      </trkpt>
      <trkpt lat="42.67447" lon="1.5685">
        <ele>1938</ele>
        <time>2014-09-14T12:32:18Z</time>
      </trkpt>
      <trkpt lat="42.6745" lon="1.56844">
        <ele>1937</ele>
        <time>2014-09-14T12:32:23Z</time>
      </trkpt>
      <trkpt lat="42.67453" lon="1.5684">
        <ele>1936</ele>
        <time>2014-09-14T12:32:29Z</time>
      </trkpt>
      <trkpt lat="42.67461" lon="1.56837">
        <ele>1933</ele>
        <time>2014-09-14T12:32:41Z</time>
      </trkpt>
      <trkpt lat="42.67465" lon="1.56836">
        <ele>1931</ele>
        <time>2014-09-14T12:32:46Z</time>
      </trkpt>
      <trkpt lat="42.67482" lon="1.56831">
        <ele>1930</ele>
        <time>2014-09-14T12:33:01Z</time>
      </trkpt>
      <trkpt lat="42.67491" lon="1.5683">
        <ele>1928</ele>
        <time>2014-09-14T12:33:14Z</time>
      </trkpt>
      <trkpt lat="42.67496" lon="1.56829">
        <ele>1929</ele>
        <time>2014-09-14T12:33:19Z</time>
      </trkpt>
      <trkpt lat="42.67507" lon="1.56833">
        <ele>1927</ele>
        <time>2014-09-14T12:33:30Z</time>
      </trkpt>
      <trkpt lat="42.67509" lon="1.56832">
        <ele>1928</ele>
        <time>2014-09-14T12:33:34Z</time>
      </trkpt>
      <trkpt lat="42.67514" lon="1.56826">
        <ele>1927</ele>
        <time>2014-09-14T12:33:45Z</time>
      </trkpt>
      <trkpt lat="42.6752" lon="1.56821">
        <ele>1927</ele>
        <time>2014-09-14T12:33:50Z</time>
      </trkpt>
      <trkpt lat="42.67523" lon="1.56823">
        <ele>1927</ele>
        <time>2014-09-14T12:33:53Z</time>
      </trkpt>
      <trkpt lat="42.67527" lon="1.56816">
        <ele>1926</ele>
        <time>2014-09-14T12:34:08Z</time>
      </trkpt>
      <trkpt lat="42.67526" lon="1.56816">
        <ele>1926</ele>
        <time>2014-09-14T12:34:10Z</time>
      </trkpt>
      <trkpt lat="42.67527" lon="1.5681">
        <ele>1927</ele>
        <time>2014-09-14T12:34:15Z</time>
      </trkpt>
      <trkpt lat="42.67542" lon="1.568">
        <ele>1927</ele>
        <time>2014-09-14T12:34:29Z</time>
      </trkpt>
      <trkpt lat="42.67557" lon="1.56793">
        <ele>1926</ele>
        <time>2014-09-14T12:34:43Z</time>
      </trkpt>
      <trkpt lat="42.67571" lon="1.5679">
        <ele>1926</ele>
        <time>2014-09-14T12:34:57Z</time>
      </trkpt>
      <trkpt lat="42.67571" lon="1.56789">
        <ele>1926</ele>
        <time>2014-09-14T12:34:58Z</time>
      </trkpt>
      <trkpt lat="42.67575" lon="1.56787">
        <ele>1927</ele>
        <time>2014-09-14T12:35:03Z</time>
      </trkpt>
      <trkpt lat="42.67576" lon="1.56784">
        <ele>1925</ele>
        <time>2014-09-14T12:35:05Z</time>
      </trkpt>
      <trkpt lat="42.67579" lon="1.56779">
        <ele>1926</ele>
        <time>2014-09-14T12:35:10Z</time>
      </trkpt>
      <trkpt lat="42.67581" lon="1.56777">
        <ele>1925</ele>
        <time>2014-09-14T12:35:12Z</time>
      </trkpt>
      <trkpt lat="42.67583" lon="1.56776">
        <ele>1926</ele>
        <time>2014-09-14T12:35:14Z</time>
      </trkpt>
      <trkpt lat="42.67592" lon="1.5678">
        <ele>1924</ele>
        <time>2014-09-14T12:35:21Z</time>
      </trkpt>
      <trkpt lat="42.67598" lon="1.56783">
        <ele>1923</ele>
        <time>2014-09-14T12:35:25Z</time>
      </trkpt>
      <trkpt lat="42.67602" lon="1.56784">
        <ele>1923</ele>
        <time>2014-09-14T12:35:28Z</time>
      </trkpt>
      <trkpt lat="42.67611" lon="1.56781">
        <ele>1923</ele>
        <time>2014-09-14T12:35:36Z</time>
      </trkpt>
      <trkpt lat="42.67618" lon="1.56777">
        <ele>1921</ele>
        <time>2014-09-14T12:35:50Z</time>
      </trkpt>
      <trkpt lat="42.67625" lon="1.56774">
        <ele>1920</ele>
        <time>2014-09-14T12:36:02Z</time>
      </trkpt>
      <trkpt lat="42.67627" lon="1.56773">
        <ele>1921</ele>
        <time>2014-09-14T12:36:04Z</time>
      </trkpt>
      <trkpt lat="42.67631" lon="1.5677">
        <ele>1922</ele>
        <time>2014-09-14T12:36:07Z</time>
      </trkpt>
      <trkpt lat="42.67648" lon="1.56762">
        <ele>1920</ele>
        <time>2014-09-14T12:36:21Z</time>
      </trkpt>
      <trkpt lat="42.6765" lon="1.56759">
        <ele>1921</ele>
        <time>2014-09-14T12:36:24Z</time>
      </trkpt>
      <trkpt lat="42.67663" lon="1.56752">
        <ele>1920</ele>
        <time>2014-09-14T12:36:37Z</time>
      </trkpt>
      <trkpt lat="42.67667" lon="1.5675">
        <ele>1919</ele>
        <time>2014-09-14T12:36:40Z</time>
      </trkpt>
      <trkpt lat="42.6767" lon="1.56749">
        <ele>1919</ele>
        <time>2014-09-14T12:36:43Z</time>
      </trkpt>
      <trkpt lat="42.67673" lon="1.56747">
        <ele>1920</ele>
        <time>2014-09-14T12:36:48Z</time>
      </trkpt>
      <trkpt lat="42.67676" lon="1.56745">
        <ele>1919</ele>
        <time>2014-09-14T12:36:51Z</time>
      </trkpt>
      <trkpt lat="42.67679" lon="1.56743">
        <ele>1919</ele>
        <time>2014-09-14T12:36:56Z</time>
      </trkpt>
      <trkpt lat="42.67687" lon="1.56742">
        <ele>1919</ele>
        <time>2014-09-14T12:37:03Z</time>
      </trkpt>
      <trkpt lat="42.67695" lon="1.56746">
        <ele>1920</ele>
        <time>2014-09-14T12:37:09Z</time>
      </trkpt>
      <trkpt lat="42.67703" lon="1.56741">
        <ele>1919</ele>
        <time>2014-09-14T12:37:18Z</time>
      </trkpt>
      <trkpt lat="42.6771" lon="1.56736">
        <ele>1919</ele>
        <time>2014-09-14T12:37:29Z</time>
      </trkpt>
      <trkpt lat="42.67713" lon="1.56728">
        <ele>1920</ele>
        <time>2014-09-14T12:37:40Z</time>
      </trkpt>
      <trkpt lat="42.67718" lon="1.56723">
        <ele>1919</ele>
        <time>2014-09-14T12:37:50Z</time>
      </trkpt>
      <trkpt lat="42.6772" lon="1.56722">
        <ele>1919</ele>
        <time>2014-09-14T12:37:53Z</time>
      </trkpt>
      <trkpt lat="42.67727" lon="1.5672">
        <ele>1919</ele>
        <time>2014-09-14T12:38:02Z</time>
      </trkpt>
      <trkpt lat="42.67731" lon="1.5672">
        <ele>1918</ele>
        <time>2014-09-14T12:38:07Z</time>
      </trkpt>
      <trkpt lat="42.67736" lon="1.5672">
        <ele>1919</ele>
        <time>2014-09-14T12:38:10Z</time>
      </trkpt>
      <trkpt lat="42.67745" lon="1.56713">
        <ele>1919</ele>
        <time>2014-09-14T12:38:19Z</time>
      </trkpt>
      <trkpt lat="42.67756" lon="1.56712">
        <ele>1919</ele>
        <time>2014-09-14T12:38:32Z</time>
      </trkpt>
      <trkpt lat="42.67762" lon="1.56704">
        <ele>1919</ele>
        <time>2014-09-14T12:38:45Z</time>
      </trkpt>
      <trkpt lat="42.67763" lon="1.56703">
        <ele>1919</ele>
        <time>2014-09-14T12:38:46Z</time>
      </trkpt>
      <trkpt lat="42.67773" lon="1.56701">
        <ele>1918</ele>
        <time>2014-09-14T12:38:58Z</time>
      </trkpt>
      <trkpt lat="42.6778" lon="1.56696">
        <ele>1920</ele>
        <time>2014-09-14T12:39:09Z</time>
      </trkpt>
      <trkpt lat="42.67788" lon="1.56697">
        <ele>1918</ele>
        <time>2014-09-14T12:39:21Z</time>
      </trkpt>
      <trkpt lat="42.67797" lon="1.56695">
        <ele>1919</ele>
        <time>2014-09-14T12:39:33Z</time>
      </trkpt>
      <trkpt lat="42.67808" lon="1.56696">
        <ele>1918</ele>
        <time>2014-09-14T12:39:47Z</time>
      </trkpt>
      <trkpt lat="42.67819" lon="1.56693">
        <ele>1918</ele>
        <time>2014-09-14T12:40:01Z</time>
      </trkpt>
      <trkpt lat="42.6783" lon="1.56694">
        <ele>1918</ele>
        <time>2014-09-14T12:40:14Z</time>
      </trkpt>
      <trkpt lat="42.67835" lon="1.56693">
        <ele>1918</ele>
        <time>2014-09-14T12:40:19Z</time>
      </trkpt>
      <trkpt lat="42.67836" lon="1.56693">
        <ele>1918</ele>
        <time>2014-09-14T12:40:21Z</time>
      </trkpt>
      <trkpt lat="42.67843" lon="1.56692">
        <ele>1917</ele>
        <time>2014-09-14T12:40:28Z</time>
      </trkpt>
      <trkpt lat="42.67848" lon="1.56688">
        <ele>1916</ele>
        <time>2014-09-14T12:40:36Z</time>
      </trkpt>
      <trkpt lat="42.67852" lon="1.56683">
        <ele>1916</ele>
        <time>2014-09-14T12:40:42Z</time>
      </trkpt>
      <trkpt lat="42.67855" lon="1.56678">
        <ele>1916</ele>
        <time>2014-09-14T12:40:46Z</time>
      </trkpt>
      <trkpt lat="42.67864" lon="1.56671">
        <ele>1916</ele>
        <time>2014-09-14T12:40:59Z</time>
      </trkpt>
      <trkpt lat="42.67869" lon="1.5666">
        <ele>1916</ele>
        <time>2014-09-14T12:41:09Z</time>
      </trkpt>
      <trkpt lat="42.67872" lon="1.56658">
        <ele>1916</ele>
        <time>2014-09-14T12:41:13Z</time>
      </trkpt>
      <trkpt lat="42.67887" lon="1.56653">
        <ele>1915</ele>
        <time>2014-09-14T12:41:25Z</time>
      </trkpt>
      <trkpt lat="42.67899" lon="1.56642">
        <ele>1916</ele>
        <time>2014-09-14T12:41:40Z</time>
      </trkpt>
      <trkpt lat="42.67911" lon="1.56642">
        <ele>1914</ele>
        <time>2014-09-14T12:41:53Z</time>
      </trkpt>
      <trkpt lat="42.67916" lon="1.56638">
        <ele>1917</ele>
        <time>2014-09-14T12:41:57Z</time>
      </trkpt>
      <trkpt lat="42.67927" lon="1.56624">
        <ele>1915</ele>
        <time>2014-09-14T12:42:11Z</time>
      </trkpt>
      <trkpt lat="42.67935" lon="1.5662">
        <ele>1914</ele>
        <time>2014-09-14T12:42:21Z</time>
      </trkpt>
      <trkpt lat="42.67946" lon="1.56619">
        <ele>1915</ele>
        <time>2014-09-14T12:42:33Z</time>
      </trkpt>
      <trkpt lat="42.67953" lon="1.5661">
        <ele>1914</ele>
        <time>2014-09-14T12:42:44Z</time>
      </trkpt>
      <trkpt lat="42.67957" lon="1.56603">
        <ele>1915</ele>
        <time>2014-09-14T12:42:54Z</time>
      </trkpt>
      <trkpt lat="42.67958" lon="1.56598">
        <ele>1916</ele>
        <time>2014-09-14T12:43:04Z</time>
      </trkpt>
      <trkpt lat="42.67965" lon="1.56593">
        <ele>1917</ele>
        <time>2014-09-14T12:43:16Z</time>
      </trkpt>
      <trkpt lat="42.67972" lon="1.56591">
        <ele>1919</ele>
        <time>2014-09-14T12:43:29Z</time>
      </trkpt>
      <trkpt lat="42.67976" lon="1.56589">
        <ele>1920</ele>
        <time>2014-09-14T12:43:35Z</time>
      </trkpt>
      <trkpt lat="42.67982" lon="1.56589">
        <ele>1919</ele>
        <time>2014-09-14T12:43:40Z</time>
      </trkpt>
      <trkpt lat="42.67992" lon="1.56586">
        <ele>1919</ele>
        <time>2014-09-14T12:43:49Z</time>
      </trkpt>
      <trkpt lat="42.68004" lon="1.56586">
        <ele>1919</ele>
        <time>2014-09-14T12:44:00Z</time>
      </trkpt>
      <trkpt lat="42.68008" lon="1.56584">
        <ele>1918</ele>
        <time>2014-09-14T12:44:03Z</time>
      </trkpt>
      <trkpt lat="42.6802" lon="1.56584">
        <ele>1917</ele>
        <time>2014-09-14T12:44:16Z</time>
      </trkpt>
      <trkpt lat="42.68024" lon="1.56582">
        <ele>1916</ele>
        <time>2014-09-14T12:44:21Z</time>
      </trkpt>
      <trkpt lat="42.68036" lon="1.56574">
        <ele>1915</ele>
        <time>2014-09-14T12:44:35Z</time>
      </trkpt>
      <trkpt lat="42.68046" lon="1.56569">
        <ele>1914</ele>
        <time>2014-09-14T12:44:47Z</time>
      </trkpt>
      <trkpt lat="42.68055" lon="1.56565">
        <ele>1914</ele>
        <time>2014-09-14T12:44:59Z</time>
      </trkpt>
      <trkpt lat="42.68064" lon="1.56565">
        <ele>1912</ele>
        <time>2014-09-14T12:45:11Z</time>
      </trkpt>
      <trkpt lat="42.68068" lon="1.56562">
        <ele>1911</ele>
        <time>2014-09-14T12:45:31Z</time>
      </trkpt>
      <trkpt lat="42.68076" lon="1.56562">
        <ele>1909</ele>
        <time>2014-09-14T12:45:41Z</time>
      </trkpt>
      <trkpt lat="42.68081" lon="1.56561">
        <ele>1908</ele>
        <time>2014-09-14T12:45:45Z</time>
      </trkpt>
      <trkpt lat="42.68096" lon="1.56556">
        <ele>1908</ele>
        <time>2014-09-14T12:46:00Z</time>
      </trkpt>
      <trkpt lat="42.68104" lon="1.56549">
        <ele>1909</ele>
        <time>2014-09-14T12:46:12Z</time>
      </trkpt>
      <trkpt lat="42.68108" lon="1.5654">
        <ele>1909</ele>
        <time>2014-09-14T12:46:22Z</time>
      </trkpt>
      <trkpt lat="42.68115" lon="1.56529">
        <ele>1908</ele>
        <time>2014-09-14T12:46:35Z</time>
      </trkpt>
      <trkpt lat="42.6812" lon="1.56514">
        <ele>1908</ele>
        <time>2014-09-14T12:46:49Z</time>
      </trkpt>
      <trkpt lat="42.68119" lon="1.56505">
        <ele>1908</ele>
        <time>2014-09-14T12:46:58Z</time>
      </trkpt>
      <trkpt lat="42.68118" lon="1.56494">
        <ele>1909</ele>
        <time>2014-09-14T12:47:08Z</time>
      </trkpt>
      <trkpt lat="42.6812" lon="1.56487">
        <ele>1909</ele>
        <time>2014-09-14T12:47:20Z</time>
      </trkpt>
      <trkpt lat="42.68121" lon="1.56473">
        <ele>1907</ele>
        <time>2014-09-14T12:47:39Z</time>
      </trkpt>
      <trkpt lat="42.68124" lon="1.56457">
        <ele>1907</ele>
        <time>2014-09-14T12:47:50Z</time>
      </trkpt>
      <trkpt lat="42.68123" lon="1.56449">
        <ele>1907</ele>
        <time>2014-09-14T12:47:55Z</time>
      </trkpt>
      <trkpt lat="42.68126" lon="1.5643">
        <ele>1907</ele>
        <time>2014-09-14T12:48:08Z</time>
      </trkpt>
      <trkpt lat="42.68124" lon="1.56413">
        <ele>1907</ele>
        <time>2014-09-14T12:48:19Z</time>
      </trkpt>
      <trkpt lat="42.68128" lon="1.56395">
        <ele>1906</ele>
        <time>2014-09-14T12:48:30Z</time>
      </trkpt>
      <trkpt lat="42.6813" lon="1.56394">
        <ele>1907</ele>
        <time>2014-09-14T12:48:31Z</time>
      </trkpt>
      <trkpt lat="42.68137" lon="1.56386">
        <ele>1907</ele>
        <time>2014-09-14T12:48:41Z</time>
      </trkpt>
      <trkpt lat="42.6815" lon="1.56375">
        <ele>1907</ele>
        <time>2014-09-14T12:48:56Z</time>
      </trkpt>
      <trkpt lat="42.68159" lon="1.56365">
        <ele>1906</ele>
        <time>2014-09-14T12:49:09Z</time>
      </trkpt>
      <trkpt lat="42.6817" lon="1.56355">
        <ele>1906</ele>
        <time>2014-09-14T12:49:23Z</time>
      </trkpt>
      <trkpt lat="42.68178" lon="1.5634">
        <ele>1906</ele>
        <time>2014-09-14T12:49:38Z</time>
      </trkpt>
      <trkpt lat="42.68184" lon="1.56336">
        <ele>1906</ele>
        <time>2014-09-14T12:49:44Z</time>
      </trkpt>
      <trkpt lat="42.6819" lon="1.56325">
        <ele>1907</ele>
        <time>2014-09-14T12:49:57Z</time>
      </trkpt>
      <trkpt lat="42.68191" lon="1.56323">
        <ele>1907</ele>
        <time>2014-09-14T12:49:59Z</time>
      </trkpt>
      <trkpt lat="42.68193" lon="1.56318">
        <ele>1907</ele>
        <time>2014-09-14T12:50:03Z</time>
      </trkpt>
      <trkpt lat="42.68197" lon="1.56319">
        <ele>1906</ele>
        <time>2014-09-14T12:50:07Z</time>
      </trkpt>
      <trkpt lat="42.68212" lon="1.56308">
        <ele>1906</ele>
        <time>2014-09-14T12:50:21Z</time>
      </trkpt>
      <trkpt lat="42.68223" lon="1.56303">
        <ele>1906</ele>
        <time>2014-09-14T12:50:33Z</time>
      </trkpt>
      <trkpt lat="42.68231" lon="1.563">
        <ele>1906</ele>
        <time>2014-09-14T12:50:42Z</time>
      </trkpt>
      <trkpt lat="42.68245" lon="1.56299">
        <ele>1906</ele>
        <time>2014-09-14T12:50:56Z</time>
      </trkpt>
      <trkpt lat="42.68246" lon="1.56301">
        <ele>1906</ele>
        <time>2014-09-14T12:51:10Z</time>
      </trkpt>
      <trkpt lat="42.68257" lon="1.56302">
        <ele>1906</ele>
        <time>2014-09-14T12:51:32Z</time>
      </trkpt>
      <trkpt lat="42.68267" lon="1.56306">
        <ele>1907</ele>
        <time>2014-09-14T12:51:42Z</time>
      </trkpt>
      <trkpt lat="42.68271" lon="1.56306">
        <ele>1907</ele>
        <time>2014-09-14T12:51:46Z</time>
      </trkpt>
      <trkpt lat="42.68286" lon="1.56303">
        <ele>1907</ele>
        <time>2014-09-14T12:52:01Z</time>
      </trkpt>
      <trkpt lat="42.68298" lon="1.56291">
        <ele>1906</ele>
        <time>2014-09-14T12:52:17Z</time>
      </trkpt>
      <trkpt lat="42.68311" lon="1.56283">
        <ele>1906</ele>
        <time>2014-09-14T12:52:31Z</time>
      </trkpt>
      <trkpt lat="42.68328" lon="1.56277">
        <ele>1906</ele>
        <time>2014-09-14T12:52:46Z</time>
      </trkpt>
      <trkpt lat="42.6833" lon="1.56275">
        <ele>1906</ele>
        <time>2014-09-14T12:52:48Z</time>
      </trkpt>
      <trkpt lat="42.68336" lon="1.56262">
        <ele>1906</ele>
        <time>2014-09-14T12:52:58Z</time>
      </trkpt>
      <trkpt lat="42.68339" lon="1.56262">
        <ele>1906</ele>
        <time>2014-09-14T12:53:00Z</time>
      </trkpt>
      <trkpt lat="42.68343" lon="1.56266">
        <ele>1906</ele>
        <time>2014-09-14T12:53:04Z</time>
      </trkpt>
      <trkpt lat="42.68347" lon="1.56265">
        <ele>1906</ele>
        <time>2014-09-14T12:53:08Z</time>
      </trkpt>
      <trkpt lat="42.68351" lon="1.56262">
        <ele>1906</ele>
        <time>2014-09-14T12:53:13Z</time>
      </trkpt>
      <trkpt lat="42.68358" lon="1.56253">
        <ele>1906</ele>
        <time>2014-09-14T12:53:26Z</time>
      </trkpt>
      <trkpt lat="42.68359" lon="1.56252">
        <ele>1907</ele>
        <time>2014-09-14T12:53:28Z</time>
      </trkpt>
      <trkpt lat="42.68373" lon="1.5626">
        <ele>1907</ele>
        <time>2014-09-14T12:53:43Z</time>
      </trkpt>
      <trkpt lat="42.68376" lon="1.5626">
        <ele>1908</ele>
        <time>2014-09-14T12:53:46Z</time>
      </trkpt>
      <trkpt lat="42.68379" lon="1.56262">
        <ele>1908</ele>
        <time>2014-09-14T12:53:49Z</time>
      </trkpt>
      <trkpt lat="42.68387" lon="1.56264">
        <ele>1907</ele>
        <time>2014-09-14T12:53:56Z</time>
      </trkpt>
      <trkpt lat="42.6839" lon="1.56265">
        <ele>1907</ele>
        <time>2014-09-14T12:54:01Z</time>
      </trkpt>
      <trkpt lat="42.68392" lon="1.56267">
        <ele>1907</ele>
        <time>2014-09-14T12:54:03Z</time>
      </trkpt>
      <trkpt lat="42.68406" lon="1.56278">
        <ele>1909</ele>
        <time>2014-09-14T12:54:18Z</time>
      </trkpt>
      <trkpt lat="42.68406" lon="1.56279">
        <ele>1908</ele>
        <time>2014-09-14T12:54:19Z</time>
      </trkpt>
      <trkpt lat="42.6841" lon="1.56282">
        <ele>1909</ele>
        <time>2014-09-14T12:54:24Z</time>
      </trkpt>
      <trkpt lat="42.68417" lon="1.56289">
        <ele>1912</ele>
        <time>2014-09-14T12:54:36Z</time>
      </trkpt>
      <trkpt lat="42.68423" lon="1.56296">
        <ele>1913</ele>
        <time>2014-09-14T12:54:45Z</time>
      </trkpt>
      <trkpt lat="42.68425" lon="1.56297">
        <ele>1913</ele>
        <time>2014-09-14T12:54:47Z</time>
      </trkpt>
      <trkpt lat="42.68427" lon="1.56296">
        <ele>1913</ele>
        <time>2014-09-14T12:54:49Z</time>
      </trkpt>
      <trkpt lat="42.68433" lon="1.56299">
        <ele>1914</ele>
        <time>2014-09-14T12:54:58Z</time>
      </trkpt>
      <trkpt lat="42.68442" lon="1.56293">
        <ele>1913</ele>
        <time>2014-09-14T12:55:10Z</time>
      </trkpt>
      <trkpt lat="42.68443" lon="1.56293">
        <ele>1913</ele>
        <time>2014-09-14T12:55:11Z</time>
      </trkpt>
      <trkpt lat="42.68446" lon="1.56296">
        <ele>1913</ele>
        <time>2014-09-14T12:55:15Z</time>
      </trkpt>
      <trkpt lat="42.68454" lon="1.56307">
        <ele>1910</ele>
        <time>2014-09-14T12:55:29Z</time>
      </trkpt>
      <trkpt lat="42.68458" lon="1.56306">
        <ele>1910</ele>
        <time>2014-09-14T12:55:37Z</time>
      </trkpt>
      <trkpt lat="42.68463" lon="1.56304">
        <ele>1909</ele>
        <time>2014-09-14T12:55:44Z</time>
      </trkpt>
      <trkpt lat="42.68475" lon="1.56297">
        <ele>1907</ele>
        <time>2014-09-14T12:55:57Z</time>
      </trkpt>
      <trkpt lat="42.68484" lon="1.56292">
        <ele>1905</ele>
        <time>2014-09-14T12:56:08Z</time>
      </trkpt>
      <trkpt lat="42.68493" lon="1.56294">
        <ele>1904</ele>
        <time>2014-09-14T12:56:15Z</time>
      </trkpt>
      <trkpt lat="42.68499" lon="1.56294">
        <ele>1904</ele>
        <time>2014-09-14T12:56:20Z</time>
      </trkpt>
      <trkpt lat="42.68509" lon="1.56305">
        <ele>1903</ele>
        <time>2014-09-14T12:56:34Z</time>
      </trkpt>
      <trkpt lat="42.68517" lon="1.56316">
        <ele>1905</ele>
        <time>2014-09-14T12:56:46Z</time>
      </trkpt>
      <trkpt lat="42.68524" lon="1.5632">
        <ele>1906</ele>
        <time>2014-09-14T12:56:57Z</time>
      </trkpt>
      <trkpt lat="42.68533" lon="1.56335">
        <ele>1907</ele>
        <time>2014-09-14T12:57:11Z</time>
      </trkpt>
      <trkpt lat="42.68535" lon="1.56336">
        <ele>1906</ele>
        <time>2014-09-14T12:57:23Z</time>
      </trkpt>
      <trkpt lat="42.68538" lon="1.56335">
        <ele>1907</ele>
        <time>2014-09-14T12:57:26Z</time>
      </trkpt>
      <trkpt lat="42.68543" lon="1.5634">
        <ele>1907</ele>
        <time>2014-09-14T12:57:32Z</time>
      </trkpt>
      <trkpt lat="42.68541" lon="1.56347">
        <ele>1907</ele>
        <time>2014-09-14T12:57:37Z</time>
      </trkpt>
      <trkpt lat="42.68533" lon="1.56351">
        <ele>1907</ele>
        <time>2014-09-14T12:57:47Z</time>
      </trkpt>
      <trkpt lat="42.68539" lon="1.56356">
        <ele>1904</ele>
        <time>2014-09-14T12:57:58Z</time>
      </trkpt>
      <trkpt lat="42.68542" lon="1.56365">
        <ele>1903</ele>
        <time>2014-09-14T12:58:08Z</time>
      </trkpt>
      <trkpt lat="42.68545" lon="1.56374">
        <ele>1900</ele>
        <time>2014-09-14T12:58:18Z</time>
      </trkpt>
      <trkpt lat="42.68552" lon="1.5638">
        <ele>1898</ele>
        <time>2014-09-14T12:58:26Z</time>
      </trkpt>
      <trkpt lat="42.68557" lon="1.56393">
        <ele>1895</ele>
        <time>2014-09-14T12:58:37Z</time>
      </trkpt>
      <trkpt lat="42.68562" lon="1.564">
        <ele>1893</ele>
        <time>2014-09-14T12:58:45Z</time>
      </trkpt>
      <trkpt lat="42.68565" lon="1.56413">
        <ele>1890</ele>
        <time>2014-09-14T12:58:58Z</time>
      </trkpt>
      <trkpt lat="42.68568" lon="1.56422">
        <ele>1889</ele>
        <time>2014-09-14T12:59:11Z</time>
      </trkpt>
      <trkpt lat="42.68568" lon="1.56422">
        <ele>1889</ele>
        <time>2014-09-14T12:59:12Z</time>
      </trkpt>
      <trkpt lat="42.68571" lon="1.56425">
        <ele>1888</ele>
        <time>2014-09-14T12:59:17Z</time>
      </trkpt>
      <trkpt lat="42.68573" lon="1.56437">
        <ele>1887</ele>
        <time>2014-09-14T12:59:28Z</time>
      </trkpt>
      <trkpt lat="42.68577" lon="1.5644">
        <ele>1886</ele>
        <time>2014-09-14T12:59:34Z</time>
      </trkpt>
      <trkpt lat="42.68585" lon="1.5645">
        <ele>1884</ele>
        <time>2014-09-14T12:59:46Z</time>
      </trkpt>
      <trkpt lat="42.68593" lon="1.56457">
        <ele>1883</ele>
        <time>2014-09-14T12:59:58Z</time>
      </trkpt>
      <trkpt lat="42.68599" lon="1.56456">
        <ele>1880</ele>
        <time>2014-09-14T13:00:11Z</time>
      </trkpt>
      <trkpt lat="42.686" lon="1.56458">
        <ele>1879</ele>
        <time>2014-09-14T13:00:16Z</time>
      </trkpt>
      <trkpt lat="42.68604" lon="1.56462">
        <ele>1878</ele>
        <time>2014-09-14T13:00:28Z</time>
      </trkpt>
      <trkpt lat="42.6861" lon="1.56467">
        <ele>1875</ele>
        <time>2014-09-14T13:00:38Z</time>
      </trkpt>
      <trkpt lat="42.68612" lon="1.56472">
        <ele>1876</ele>
        <time>2014-09-14T13:00:43Z</time>
      </trkpt>
      <trkpt lat="42.68621" lon="1.56479">
        <ele>1873</ele>
        <time>2014-09-14T13:00:58Z</time>
      </trkpt>
      <trkpt lat="42.68628" lon="1.56488">
        <ele>1872</ele>
        <time>2014-09-14T13:01:09Z</time>
      </trkpt>
      <trkpt lat="42.68636" lon="1.56497">
        <ele>1870</ele>
        <time>2014-09-14T13:01:23Z</time>
      </trkpt>
      <trkpt lat="42.68637" lon="1.56499">
        <ele>1869</ele>
        <time>2014-09-14T13:01:27Z</time>
      </trkpt>
      <trkpt lat="42.68639" lon="1.56509">
        <ele>1867</ele>
        <time>2014-09-14T13:01:39Z</time>
      </trkpt>
      <trkpt lat="42.68642" lon="1.56519">
        <ele>1865</ele>
        <time>2014-09-14T13:01:52Z</time>
      </trkpt>
      <trkpt lat="42.68647" lon="1.56526">
        <ele>1862</ele>
        <time>2014-09-14T13:02:04Z</time>
      </trkpt>
      <trkpt lat="42.68652" lon="1.56532">
        <ele>1860</ele>
        <time>2014-09-14T13:02:17Z</time>
      </trkpt>
      <trkpt lat="42.6866" lon="1.56533">
        <ele>1859</ele>
        <time>2014-09-14T13:02:28Z</time>
      </trkpt>
      <trkpt lat="42.68669" lon="1.5654">
        <ele>1857</ele>
        <time>2014-09-14T13:02:37Z</time>
      </trkpt>
      <trkpt lat="42.6867" lon="1.56551">
        <ele>1856</ele>
        <time>2014-09-14T13:02:48Z</time>
      </trkpt>
      <trkpt lat="42.68675" lon="1.56557">
        <ele>1855</ele>
        <time>2014-09-14T13:03:01Z</time>
      </trkpt>
      <trkpt lat="42.68681" lon="1.56565">
        <ele>1852</ele>
        <time>2014-09-14T13:03:13Z</time>
      </trkpt>
      <trkpt lat="42.68687" lon="1.56569">
        <ele>1852</ele>
        <time>2014-09-14T13:03:22Z</time>
      </trkpt>
      <trkpt lat="42.68689" lon="1.56572">
        <ele>1852</ele>
        <time>2014-09-14T13:03:25Z</time>
      </trkpt>
      <trkpt lat="42.68688" lon="1.56584">
        <ele>1849</ele>
        <time>2014-09-14T13:03:34Z</time>
      </trkpt>
      <trkpt lat="42.68688" lon="1.566">
        <ele>1847</ele>
        <time>2014-09-14T13:03:47Z</time>
      </trkpt>
      <trkpt lat="42.68688" lon="1.56608">
        <ele>1845</ele>
        <time>2014-09-14T13:03:58Z</time>
      </trkpt>
      <trkpt lat="42.68693" lon="1.56609">
        <ele>1843</ele>
        <time>2014-09-14T13:04:10Z</time>
      </trkpt>
      <trkpt lat="42.68693" lon="1.56608">
        <ele>1842</ele>
        <time>2014-09-14T13:04:11Z</time>
      </trkpt>
      <trkpt lat="42.68701" lon="1.56607">
        <ele>1841</ele>
        <time>2014-09-14T13:04:25Z</time>
      </trkpt>
      <trkpt lat="42.687" lon="1.56615">
        <ele>1838</ele>
        <time>2014-09-14T13:04:36Z</time>
      </trkpt>
      <trkpt lat="42.68704" lon="1.56622">
        <ele>1837</ele>
        <time>2014-09-14T13:04:47Z</time>
      </trkpt>
      <trkpt lat="42.68706" lon="1.56636">
        <ele>1833</ele>
        <time>2014-09-14T13:05:00Z</time>
      </trkpt>
      <trkpt lat="42.68707" lon="1.56639">
        <ele>1832</ele>
        <time>2014-09-14T13:05:04Z</time>
      </trkpt>
      <trkpt lat="42.6871" lon="1.56633">
        <ele>1831</ele>
        <time>2014-09-14T13:05:12Z</time>
      </trkpt>
      <trkpt lat="42.68716" lon="1.56621">
        <ele>1829</ele>
        <time>2014-09-14T13:05:26Z</time>
      </trkpt>
      <trkpt lat="42.68722" lon="1.56611">
        <ele>1826</ele>
        <time>2014-09-14T13:05:37Z</time>
      </trkpt>
      <trkpt lat="42.68725" lon="1.56604">
        <ele>1824</ele>
        <time>2014-09-14T13:05:49Z</time>
      </trkpt>
      <trkpt lat="42.68727" lon="1.5659">
        <ele>1822</ele>
        <time>2014-09-14T13:06:03Z</time>
      </trkpt>
      <trkpt lat="42.68731" lon="1.56579">
        <ele>1819</ele>
        <time>2014-09-14T13:06:16Z</time>
      </trkpt>
      <trkpt lat="42.68737" lon="1.56586">
        <ele>1817</ele>
        <time>2014-09-14T13:06:28Z</time>
      </trkpt>
      <trkpt lat="42.68742" lon="1.56585">
        <ele>1816</ele>
        <time>2014-09-14T13:06:40Z</time>
      </trkpt>
      <trkpt lat="42.68741" lon="1.56575">
        <ele>1815</ele>
        <time>2014-09-14T13:06:51Z</time>
      </trkpt>
      <trkpt lat="42.68743" lon="1.56564">
        <ele>1812</ele>
        <time>2014-09-14T13:07:04Z</time>
      </trkpt>
      <trkpt lat="42.68746" lon="1.56552">
        <ele>1810</ele>
        <time>2014-09-14T13:07:15Z</time>
      </trkpt>
      <trkpt lat="42.68748" lon="1.56548">
        <ele>1809</ele>
        <time>2014-09-14T13:07:19Z</time>
      </trkpt>
      <trkpt lat="42.68752" lon="1.56537">
        <ele>1807</ele>
        <time>2014-09-14T13:07:30Z</time>
      </trkpt>
      <trkpt lat="42.68759" lon="1.56542">
        <ele>1806</ele>
        <time>2014-09-14T13:07:42Z</time>
      </trkpt>
      <trkpt lat="42.68759" lon="1.56552">
        <ele>1804</ele>
        <time>2014-09-14T13:07:54Z</time>
      </trkpt>
      <trkpt lat="42.68763" lon="1.56554">
        <ele>1802</ele>
        <time>2014-09-14T13:08:05Z</time>
      </trkpt>
      <trkpt lat="42.68763" lon="1.56554">
        <ele>1802</ele>
        <time>2014-09-14T13:08:07Z</time>
      </trkpt>
      <trkpt lat="42.68767" lon="1.56549">
        <ele>1801</ele>
        <time>2014-09-14T13:08:14Z</time>
      </trkpt>
      <trkpt lat="42.68774" lon="1.56542">
        <ele>1799</ele>
        <time>2014-09-14T13:08:27Z</time>
      </trkpt>
      <trkpt lat="42.68778" lon="1.56536">
        <ele>1798</ele>
        <time>2014-09-14T13:08:33Z</time>
      </trkpt>
      <trkpt lat="42.68778" lon="1.56534">
        <ele>1799</ele>
        <time>2014-09-14T13:08:35Z</time>
      </trkpt>
      <trkpt lat="42.68783" lon="1.56523">
        <ele>1797</ele>
        <time>2014-09-14T13:08:48Z</time>
      </trkpt>
      <trkpt lat="42.68781" lon="1.56518">
        <ele>1796</ele>
        <time>2014-09-14T13:08:54Z</time>
      </trkpt>
      <trkpt lat="42.68782" lon="1.56513">
        <ele>1796</ele>
        <time>2014-09-14T13:08:58Z</time>
      </trkpt>
      <trkpt lat="42.6879" lon="1.56522">
        <ele>1794</ele>
        <time>2014-09-14T13:09:10Z</time>
      </trkpt>
      <trkpt lat="42.68793" lon="1.56516">
        <ele>1793</ele>
        <time>2014-09-14T13:09:16Z</time>
      </trkpt>
      <trkpt lat="42.68799" lon="1.56522">
        <ele>1792</ele>
        <time>2014-09-14T13:09:27Z</time>
      </trkpt>
      <trkpt lat="42.68803" lon="1.56521">
        <ele>1791</ele>
        <time>2014-09-14T13:09:31Z</time>
      </trkpt>
      <trkpt lat="42.68808" lon="1.56519">
        <ele>1790</ele>
        <time>2014-09-14T13:09:37Z</time>
      </trkpt>
      <trkpt lat="42.68809" lon="1.56516">
        <ele>1790</ele>
        <time>2014-09-14T13:09:39Z</time>
      </trkpt>
      <trkpt lat="42.68822" lon="1.56518">
        <ele>1791</ele>
        <time>2014-09-14T13:09:52Z</time>
      </trkpt>
      <trkpt lat="42.68827" lon="1.56517">
        <ele>1790</ele>
        <time>2014-09-14T13:09:58Z</time>
      </trkpt>
      <trkpt lat="42.68836" lon="1.56523">
        <ele>1789</ele>
        <time>2014-09-14T13:10:11Z</time>
      </trkpt>
      <trkpt lat="42.68837" lon="1.56524">
        <ele>1788</ele>
        <time>2014-09-14T13:10:12Z</time>
      </trkpt>
      <trkpt lat="42.6884" lon="1.56524">
        <ele>1789</ele>
        <time>2014-09-14T13:10:16Z</time>
      </trkpt>
      <trkpt lat="42.68851" lon="1.56536">
        <ele>1790</ele>
        <time>2014-09-14T13:10:29Z</time>
      </trkpt>
      <trkpt lat="42.68857" lon="1.56544">
        <ele>1790</ele>
        <time>2014-09-14T13:10:37Z</time>
      </trkpt>
      <trkpt lat="42.68865" lon="1.56557">
        <ele>1789</ele>
        <time>2014-09-14T13:10:49Z</time>
      </trkpt>
      <trkpt lat="42.68873" lon="1.56557">
        <ele>1787</ele>
        <time>2014-09-14T13:11:01Z</time>
      </trkpt>
      <trkpt lat="42.68883" lon="1.56563">
        <ele>1785</ele>
        <time>2014-09-14T13:11:14Z</time>
      </trkpt>
      <trkpt lat="42.68886" lon="1.56562">
        <ele>1784</ele>
        <time>2014-09-14T13:11:16Z</time>
      </trkpt>
      <trkpt lat="42.6889" lon="1.56563">
        <ele>1784</ele>
        <time>2014-09-14T13:11:22Z</time>
      </trkpt>
      <trkpt lat="42.68891" lon="1.56565">
        <ele>1783</ele>
        <time>2014-09-14T13:11:24Z</time>
      </trkpt>
      <trkpt lat="42.68894" lon="1.56573">
        <ele>1782</ele>
        <time>2014-09-14T13:11:38Z</time>
      </trkpt>
      <trkpt lat="42.68894" lon="1.56581">
        <ele>1781</ele>
        <time>2014-09-14T13:11:48Z</time>
      </trkpt>
      <trkpt lat="42.68899" lon="1.56582">
        <ele>1780</ele>
        <time>2014-09-14T13:11:53Z</time>
      </trkpt>
      <trkpt lat="42.68904" lon="1.56594">
        <ele>1779</ele>
        <time>2014-09-14T13:12:05Z</time>
      </trkpt>
      <trkpt lat="42.68899" lon="1.56601">
        <ele>1779</ele>
        <time>2014-09-14T13:12:10Z</time>
      </trkpt>
      <trkpt lat="42.68897" lon="1.56601">
        <ele>1779</ele>
        <time>2014-09-14T13:12:13Z</time>
      </trkpt>
      <trkpt lat="42.68895" lon="1.56606">
        <ele>1778</ele>
        <time>2014-09-14T13:12:27Z</time>
      </trkpt>
      <trkpt lat="42.68893" lon="1.56609">
        <ele>1777</ele>
        <time>2014-09-14T13:12:32Z</time>
      </trkpt>
      <trkpt lat="42.68896" lon="1.56616">
        <ele>1774</ele>
        <time>2014-09-14T13:12:44Z</time>
      </trkpt>
      <trkpt lat="42.68902" lon="1.56627">
        <ele>1774</ele>
        <time>2014-09-14T13:12:58Z</time>
      </trkpt>
      <trkpt lat="42.68902" lon="1.56629">
        <ele>1774</ele>
        <time>2014-09-14T13:13:00Z</time>
      </trkpt>
      <trkpt lat="42.68898" lon="1.56635">
        <ele>1773</ele>
        <time>2014-09-14T13:13:06Z</time>
      </trkpt>
      <trkpt lat="42.68899" lon="1.56642">
        <ele>1773</ele>
        <time>2014-09-14T13:13:17Z</time>
      </trkpt>
      <trkpt lat="42.689" lon="1.56646">
        <ele>1772</ele>
        <time>2014-09-14T13:13:30Z</time>
      </trkpt>
      <trkpt lat="42.68904" lon="1.56643">
        <ele>1771</ele>
        <time>2014-09-14T13:13:42Z</time>
      </trkpt>
      <trkpt lat="42.68906" lon="1.5664">
        <ele>1768</ele>
        <time>2014-09-14T13:13:55Z</time>
      </trkpt>
      <trkpt lat="42.6891" lon="1.56643">
        <ele>1766</ele>
        <time>2014-09-14T13:14:11Z</time>
      </trkpt>
      <trkpt lat="42.6891" lon="1.56641">
        <ele>1766</ele>
        <time>2014-09-14T13:14:23Z</time>
      </trkpt>
      <trkpt lat="42.68917" lon="1.56647">
        <ele>1764</ele>
        <time>2014-09-14T13:14:33Z</time>
      </trkpt>
      <trkpt lat="42.68919" lon="1.56657">
        <ele>1764</ele>
        <time>2014-09-14T13:14:44Z</time>
      </trkpt>
      <trkpt lat="42.68916" lon="1.56662">
        <ele>1764</ele>
        <time>2014-09-14T13:14:53Z</time>
      </trkpt>
      <trkpt lat="42.68915" lon="1.5667">
        <ele>1763</ele>
        <time>2014-09-14T13:15:02Z</time>
      </trkpt>
      <trkpt lat="42.68916" lon="1.56674">
        <ele>1764</ele>
        <time>2014-09-14T13:15:05Z</time>
      </trkpt>
      <trkpt lat="42.68919" lon="1.56681">
        <ele>1763</ele>
        <time>2014-09-14T13:15:10Z</time>
      </trkpt>
      <trkpt lat="42.68922" lon="1.56682">
        <ele>1763</ele>
        <time>2014-09-14T13:15:14Z</time>
      </trkpt>
      <trkpt lat="42.68926" lon="1.56678">
        <ele>1763</ele>
        <time>2014-09-14T13:15:19Z</time>
      </trkpt>
      <trkpt lat="42.68936" lon="1.56677">
        <ele>1763</ele>
        <time>2014-09-14T13:15:31Z</time>
      </trkpt>
      <trkpt lat="42.68941" lon="1.56685">
        <ele>1764</ele>
        <time>2014-09-14T13:15:39Z</time>
      </trkpt>
      <trkpt lat="42.68943" lon="1.56689">
        <ele>1764</ele>
        <time>2014-09-14T13:15:43Z</time>
      </trkpt>
      <trkpt lat="42.68946" lon="1.56694">
        <ele>1764</ele>
        <time>2014-09-14T13:15:47Z</time>
      </trkpt>
      <trkpt lat="42.68956" lon="1.56704">
        <ele>1765</ele>
        <time>2014-09-14T13:16:01Z</time>
      </trkpt>
      <trkpt lat="42.68967" lon="1.56701">
        <ele>1768</ele>
        <time>2014-09-14T13:16:14Z</time>
      </trkpt>
      <trkpt lat="42.68977" lon="1.567">
        <ele>1769</ele>
        <time>2014-09-14T13:16:28Z</time>
      </trkpt>
      <trkpt lat="42.68982" lon="1.56701">
        <ele>1768</ele>
        <time>2014-09-14T13:16:35Z</time>
      </trkpt>
      <trkpt lat="42.68991" lon="1.56709">
        <ele>1768</ele>
        <time>2014-09-14T13:16:48Z</time>
      </trkpt>
      <trkpt lat="42.68998" lon="1.56716">
        <ele>1769</ele>
        <time>2014-09-14T13:16:58Z</time>
      </trkpt>
      <trkpt lat="42.69006" lon="1.56722">
        <ele>1769</ele>
        <time>2014-09-14T13:17:06Z</time>
      </trkpt>
      <trkpt lat="42.6901" lon="1.56725">
        <ele>1770</ele>
        <time>2014-09-14T13:17:11Z</time>
      </trkpt>
      <trkpt lat="42.69012" lon="1.5673">
        <ele>1770</ele>
        <time>2014-09-14T13:17:15Z</time>
      </trkpt>
      <trkpt lat="42.69008" lon="1.56734">
        <ele>1769</ele>
        <time>2014-09-14T13:17:26Z</time>
      </trkpt>
      <trkpt lat="42.69007" lon="1.56734">
        <ele>1770</ele>
        <time>2014-09-14T13:17:31Z</time>
      </trkpt>
      <trkpt lat="42.69008" lon="1.56734">
        <ele>1770</ele>
        <time>2014-09-14T13:17:33Z</time>
      </trkpt>
      <trkpt lat="42.69007" lon="1.56735">
        <ele>1769</ele>
        <time>2014-09-14T13:17:44Z</time>
      </trkpt>
      <trkpt lat="42.69007" lon="1.56735">
        <ele>1769</ele>
        <time>2014-09-14T13:18:07Z</time>
      </trkpt>
      <trkpt lat="42.69013" lon="1.56734">
        <ele>1768</ele>
        <time>2014-09-14T13:18:31Z</time>
      </trkpt>
      <trkpt lat="42.69012" lon="1.56732">
        <ele>1769</ele>
        <time>2014-09-14T13:18:56Z</time>
      </trkpt>
      <trkpt lat="42.69011" lon="1.56734">
        <ele>1769</ele>
        <time>2014-09-14T13:19:17Z</time>
      </trkpt>
      <trkpt lat="42.69013" lon="1.56738">
        <ele>1769</ele>
        <time>2014-09-14T13:19:42Z</time>
      </trkpt>
      <trkpt lat="42.69014" lon="1.56737">
        <ele>1769</ele>
        <time>2014-09-14T13:20:08Z</time>
      </trkpt>
      <trkpt lat="42.69014" lon="1.56735">
        <ele>1771</ele>
        <time>2014-09-14T13:20:28Z</time>
      </trkpt>
      <trkpt lat="42.69012" lon="1.56733">
        <ele>1771</ele>
        <time>2014-09-14T13:20:40Z</time>
      </trkpt>
      <trkpt lat="42.6901" lon="1.56734">
        <ele>1771</ele>
        <time>2014-09-14T13:20:44Z</time>
      </trkpt>
      <trkpt lat="42.69011" lon="1.56735">
        <ele>1769</ele>
        <time>2014-09-14T13:20:48Z</time>
      </trkpt>
      <trkpt lat="42.6901" lon="1.56734">
        <ele>1769</ele>
        <time>2014-09-14T13:21:12Z</time>
      </trkpt>
      <trkpt lat="42.6901" lon="1.56735">
        <ele>1771</ele>
        <time>2014-09-14T13:21:22Z</time>
      </trkpt>
      <trkpt lat="42.6901" lon="1.56733">
        <ele>1771</ele>
        <time>2014-09-14T13:21:45Z</time>
      </trkpt>
      <trkpt lat="42.69014" lon="1.56737">
        <ele>1770</ele>
        <time>2014-09-14T13:21:57Z</time>
      </trkpt>
      <trkpt lat="42.69022" lon="1.56739">
        <ele>1768</ele>
        <time>2014-09-14T13:22:07Z</time>
      </trkpt>
      <trkpt lat="42.69028" lon="1.56746">
        <ele>1766</ele>
        <time>2014-09-14T13:22:19Z</time>
      </trkpt>
      <trkpt lat="42.6903" lon="1.56748">
        <ele>1765</ele>
        <time>2014-09-14T13:22:22Z</time>
      </trkpt>
      <trkpt lat="42.69041" lon="1.56745">
        <ele>1763</ele>
        <time>2014-09-14T13:22:38Z</time>
      </trkpt>
      <trkpt lat="42.69047" lon="1.56747">
        <ele>1759</ele>
        <time>2014-09-14T13:22:50Z</time>
      </trkpt>
      <trkpt lat="42.69047" lon="1.56748">
        <ele>1759</ele>
        <time>2014-09-14T13:22:51Z</time>
      </trkpt>
      <trkpt lat="42.69051" lon="1.56752">
        <ele>1758</ele>
        <time>2014-09-14T13:22:59Z</time>
      </trkpt>
      <trkpt lat="42.69054" lon="1.56748">
        <ele>1758</ele>
        <time>2014-09-14T13:23:05Z</time>
      </trkpt>
      <trkpt lat="42.69056" lon="1.56739">
        <ele>1755</ele>
        <time>2014-09-14T13:23:18Z</time>
      </trkpt>
      <trkpt lat="42.6906" lon="1.56737">
        <ele>1753</ele>
        <time>2014-09-14T13:23:27Z</time>
      </trkpt>
      <trkpt lat="42.69062" lon="1.56736">
        <ele>1752</ele>
        <time>2014-09-14T13:23:30Z</time>
      </trkpt>
      <trkpt lat="42.69066" lon="1.56748">
        <ele>1750</ele>
        <time>2014-09-14T13:23:42Z</time>
      </trkpt>
      <trkpt lat="42.69068" lon="1.56744">
        <ele>1752</ele>
        <time>2014-09-14T13:23:49Z</time>
      </trkpt>
      <trkpt lat="42.69072" lon="1.56729">
        <ele>1747</ele>
        <time>2014-09-14T13:24:03Z</time>
      </trkpt>
      <trkpt lat="42.69078" lon="1.56732">
        <ele>1744</ele>
        <time>2014-09-14T13:24:15Z</time>
      </trkpt>
      <trkpt lat="42.69081" lon="1.5673">
        <ele>1742</ele>
        <time>2014-09-14T13:24:26Z</time>
      </trkpt>
      <trkpt lat="42.69084" lon="1.56725">
        <ele>1741</ele>
        <time>2014-09-14T13:24:31Z</time>
      </trkpt>
      <trkpt lat="42.69086" lon="1.56733">
        <ele>1740</ele>
        <time>2014-09-14T13:24:43Z</time>
      </trkpt>
      <trkpt lat="42.69088" lon="1.56738">
        <ele>1737</ele>
        <time>2014-09-14T13:24:55Z</time>
      </trkpt>
      <trkpt lat="42.69094" lon="1.56728">
        <ele>1734</ele>
        <time>2014-09-14T13:25:08Z</time>
      </trkpt>
      <trkpt lat="42.69103" lon="1.56729">
        <ele>1731</ele>
        <time>2014-09-14T13:25:20Z</time>
      </trkpt>
      <trkpt lat="42.69115" lon="1.56735">
        <ele>1729</ele>
        <time>2014-09-14T13:25:34Z</time>
      </trkpt>
      <trkpt lat="42.69125" lon="1.56745">
        <ele>1726</ele>
        <time>2014-09-14T13:25:47Z</time>
      </trkpt>
      <trkpt lat="42.69131" lon="1.56748">
        <ele>1724</ele>
        <time>2014-09-14T13:25:53Z</time>
      </trkpt>
      <trkpt lat="42.69134" lon="1.56754">
        <ele>1723</ele>
        <time>2014-09-14T13:25:58Z</time>
      </trkpt>
      <trkpt lat="42.69134" lon="1.56758">
        <ele>1723</ele>
        <time>2014-09-14T13:26:01Z</time>
      </trkpt>
      <trkpt lat="42.69145" lon="1.56764">
        <ele>1720</ele>
        <time>2014-09-14T13:26:18Z</time>
      </trkpt>
      <trkpt lat="42.6915" lon="1.56758">
        <ele>1718</ele>
        <time>2014-09-14T13:26:30Z</time>
      </trkpt>
      <trkpt lat="42.69152" lon="1.56756">
        <ele>1718</ele>
        <time>2014-09-14T13:26:33Z</time>
      </trkpt>
      <trkpt lat="42.69157" lon="1.56754">
        <ele>1718</ele>
        <time>2014-09-14T13:26:46Z</time>
      </trkpt>
      <trkpt lat="42.69159" lon="1.56754">
        <ele>1717</ele>
        <time>2014-09-14T13:26:58Z</time>
      </trkpt>
      <trkpt lat="42.69162" lon="1.56754">
        <ele>1717</ele>
        <time>2014-09-14T13:27:01Z</time>
      </trkpt>
      <trkpt lat="42.69166" lon="1.56757">
        <ele>1715</ele>
        <time>2014-09-14T13:27:13Z</time>
      </trkpt>
      <trkpt lat="42.69161" lon="1.56761">
        <ele>1715</ele>
        <time>2014-09-14T13:27:20Z</time>
      </trkpt>
      <trkpt lat="42.69159" lon="1.56773">
        <ele>1712</ele>
        <time>2014-09-14T13:27:34Z</time>
      </trkpt>
      <trkpt lat="42.69162" lon="1.56776">
        <ele>1711</ele>
        <time>2014-09-14T13:27:44Z</time>
      </trkpt>
      <trkpt lat="42.6917" lon="1.56774">
        <ele>1710</ele>
        <time>2014-09-14T13:27:55Z</time>
      </trkpt>
      <trkpt lat="42.69173" lon="1.56773">
        <ele>1710</ele>
        <time>2014-09-14T13:27:58Z</time>
      </trkpt>
      <trkpt lat="42.69179" lon="1.56769">
        <ele>1710</ele>
        <time>2014-09-14T13:28:04Z</time>
      </trkpt>
      <trkpt lat="42.6919" lon="1.56761">
        <ele>1707</ele>
        <time>2014-09-14T13:28:19Z</time>
      </trkpt>
      <trkpt lat="42.692" lon="1.56767">
        <ele>1705</ele>
        <time>2014-09-14T13:28:31Z</time>
      </trkpt>
      <trkpt lat="42.69204" lon="1.56774">
        <ele>1705</ele>
        <time>2014-09-14T13:28:38Z</time>
      </trkpt>
      <trkpt lat="42.69211" lon="1.56788">
        <ele>1704</ele>
        <time>2014-09-14T13:28:51Z</time>
      </trkpt>
      <trkpt lat="42.69214" lon="1.56794">
        <ele>1702</ele>
        <time>2014-09-14T13:28:59Z</time>
      </trkpt>
      <trkpt lat="42.69215" lon="1.56798">
        <ele>1702</ele>
        <time>2014-09-14T13:29:03Z</time>
      </trkpt>
      <trkpt lat="42.69218" lon="1.56803">
        <ele>1701</ele>
        <time>2014-09-14T13:29:07Z</time>
      </trkpt>
      <trkpt lat="42.69219" lon="1.56809">
        <ele>1700</ele>
        <time>2014-09-14T13:29:13Z</time>
      </trkpt>
      <trkpt lat="42.69223" lon="1.56816">
        <ele>1699</ele>
        <time>2014-09-14T13:29:22Z</time>
      </trkpt>
      <trkpt lat="42.69225" lon="1.56821">
        <ele>1698</ele>
        <time>2014-09-14T13:29:25Z</time>
      </trkpt>
      <trkpt lat="42.69226" lon="1.56824">
        <ele>1698</ele>
        <time>2014-09-14T13:29:28Z</time>
      </trkpt>
      <trkpt lat="42.69229" lon="1.56828">
        <ele>1697</ele>
        <time>2014-09-14T13:29:33Z</time>
      </trkpt>
      <trkpt lat="42.69233" lon="1.56836">
        <ele>1695</ele>
        <time>2014-09-14T13:29:39Z</time>
      </trkpt>
      <trkpt lat="42.69227" lon="1.56838">
        <ele>1694</ele>
        <time>2014-09-14T13:29:46Z</time>
      </trkpt>
      <trkpt lat="42.69216" lon="1.56838">
        <ele>1693</ele>
        <time>2014-09-14T13:29:57Z</time>
      </trkpt>
      <trkpt lat="42.69227" lon="1.56855">
        <ele>1690</ele>
        <time>2014-09-14T13:30:12Z</time>
      </trkpt>
      <trkpt lat="42.69234" lon="1.56867">
        <ele>1687</ele>
        <time>2014-09-14T13:30:23Z</time>
      </trkpt>
      <trkpt lat="42.69236" lon="1.56869">
        <ele>1687</ele>
        <time>2014-09-14T13:30:26Z</time>
      </trkpt>
      <trkpt lat="42.69241" lon="1.56879">
        <ele>1686</ele>
        <time>2014-09-14T13:30:34Z</time>
      </trkpt>
      <trkpt lat="42.69248" lon="1.56892">
        <ele>1683</ele>
        <time>2014-09-14T13:30:46Z</time>
      </trkpt>
      <trkpt lat="42.69249" lon="1.56892">
        <ele>1684</ele>
        <time>2014-09-14T13:30:47Z</time>
      </trkpt>
      <trkpt lat="42.69257" lon="1.56905">
        <ele>1681</ele>
        <time>2014-09-14T13:31:02Z</time>
      </trkpt>
      <trkpt lat="42.69257" lon="1.56906">
        <ele>1681</ele>
        <time>2014-09-14T13:31:03Z</time>
      </trkpt>
      <trkpt lat="42.69259" lon="1.56912">
        <ele>1680</ele>
        <time>2014-09-14T13:31:08Z</time>
      </trkpt>
      <trkpt lat="42.6926" lon="1.56914">
        <ele>1680</ele>
        <time>2014-09-14T13:31:10Z</time>
      </trkpt>
      <trkpt lat="42.69261" lon="1.56917">
        <ele>1679</ele>
        <time>2014-09-14T13:31:12Z</time>
      </trkpt>
      <trkpt lat="42.69263" lon="1.56921">
        <ele>1679</ele>
        <time>2014-09-14T13:31:14Z</time>
      </trkpt>
      <trkpt lat="42.69264" lon="1.56925">
        <ele>1678</ele>
        <time>2014-09-14T13:31:17Z</time>
      </trkpt>
      <trkpt lat="42.6926" lon="1.56946">
        <ele>1675</ele>
        <time>2014-09-14T13:31:33Z</time>
      </trkpt>
      <trkpt lat="42.69264" lon="1.56958">
        <ele>1674</ele>
        <time>2014-09-14T13:31:41Z</time>
      </trkpt>
      <trkpt lat="42.69273" lon="1.56978">
        <ele>1672</ele>
        <time>2014-09-14T13:31:56Z</time>
      </trkpt>
      <trkpt lat="42.69275" lon="1.56982">
        <ele>1672</ele>
        <time>2014-09-14T13:31:59Z</time>
      </trkpt>
      <trkpt lat="42.69281" lon="1.5699">
        <ele>1671</ele>
        <time>2014-09-14T13:32:06Z</time>
      </trkpt>
      <trkpt lat="42.69286" lon="1.57012">
        <ele>1669</ele>
        <time>2014-09-14T13:32:20Z</time>
      </trkpt>
      <trkpt lat="42.69288" lon="1.57016">
        <ele>1669</ele>
        <time>2014-09-14T13:32:24Z</time>
      </trkpt>
      <trkpt lat="42.693" lon="1.57025">
        <ele>1668</ele>
        <time>2014-09-14T13:32:38Z</time>
      </trkpt>
      <trkpt lat="42.69301" lon="1.57028">
        <ele>1668</ele>
        <time>2014-09-14T13:32:44Z</time>
      </trkpt>
      <trkpt lat="42.69299" lon="1.57027">
        <ele>1668</ele>
        <time>2014-09-14T13:32:57Z</time>
      </trkpt>
      <trkpt lat="42.69298" lon="1.57028">
        <ele>1667</ele>
        <time>2014-09-14T13:33:00Z</time>
      </trkpt>
      <trkpt lat="42.69301" lon="1.57035">
        <ele>1667</ele>
        <time>2014-09-14T13:33:05Z</time>
      </trkpt>
      <trkpt lat="42.6931" lon="1.57045">
        <ele>1665</ele>
        <time>2014-09-14T13:33:14Z</time>
      </trkpt>
      <trkpt lat="42.69311" lon="1.57047">
        <ele>1665</ele>
        <time>2014-09-14T13:33:16Z</time>
      </trkpt>
      <trkpt lat="42.69314" lon="1.57051">
        <ele>1665</ele>
        <time>2014-09-14T13:33:19Z</time>
      </trkpt>
      <trkpt lat="42.69316" lon="1.57058">
        <ele>1664</ele>
        <time>2014-09-14T13:33:24Z</time>
      </trkpt>
      <trkpt lat="42.69325" lon="1.57073">
        <ele>1663</ele>
        <time>2014-09-14T13:33:36Z</time>
      </trkpt>
      <trkpt lat="42.69332" lon="1.57085">
        <ele>1661</ele>
        <time>2014-09-14T13:33:49Z</time>
      </trkpt>
      <trkpt lat="42.69339" lon="1.57092">
        <ele>1661</ele>
        <time>2014-09-14T13:33:57Z</time>
      </trkpt>
      <trkpt lat="42.69346" lon="1.57097">
        <ele>1660</ele>
        <time>2014-09-14T13:34:04Z</time>
      </trkpt>
      <trkpt lat="42.69349" lon="1.57097">
        <ele>1659</ele>
        <time>2014-09-14T13:34:15Z</time>
      </trkpt>
      <trkpt lat="42.69349" lon="1.57098">
        <ele>1659</ele>
        <time>2014-09-14T13:34:16Z</time>
      </trkpt>
      <trkpt lat="42.69349" lon="1.57099">
        <ele>1658</ele>
        <time>2014-09-14T13:34:32Z</time>
      </trkpt>
      <trkpt lat="42.69349" lon="1.57098">
        <ele>1659</ele>
        <time>2014-09-14T13:34:51Z</time>
      </trkpt>
      <trkpt lat="42.69351" lon="1.57103">
        <ele>1659</ele>
        <time>2014-09-14T13:35:06Z</time>
      </trkpt>
      <trkpt lat="42.69354" lon="1.57101">
        <ele>1659</ele>
        <time>2014-09-14T13:35:23Z</time>
      </trkpt>
      <trkpt lat="42.69351" lon="1.57103">
        <ele>1659</ele>
        <time>2014-09-14T13:35:38Z</time>
      </trkpt>
      <trkpt lat="42.69352" lon="1.57104">
        <ele>1659</ele>
        <time>2014-09-14T13:35:56Z</time>
      </trkpt>
      <trkpt lat="42.69358" lon="1.5711">
        <ele>1659</ele>
        <time>2014-09-14T13:36:10Z</time>
      </trkpt>
      <trkpt lat="42.69362" lon="1.57115">
        <ele>1657</ele>
        <time>2014-09-14T13:36:21Z</time>
      </trkpt>
      <trkpt lat="42.69364" lon="1.57121">
        <ele>1656</ele>
        <time>2014-09-14T13:36:26Z</time>
      </trkpt>
      <trkpt lat="42.69362" lon="1.57131">
        <ele>1655</ele>
        <time>2014-09-14T13:36:39Z</time>
      </trkpt>
      <trkpt lat="42.69361" lon="1.57133">
        <ele>1655</ele>
        <time>2014-09-14T13:36:49Z</time>
      </trkpt>
      <trkpt lat="42.69361" lon="1.57131">
        <ele>1655</ele>
        <time>2014-09-14T13:36:53Z</time>
      </trkpt>
      <trkpt lat="42.69364" lon="1.57149">
        <ele>1654</ele>
        <time>2014-09-14T13:37:05Z</time>
      </trkpt>
      <trkpt lat="42.69365" lon="1.57153">
        <ele>1654</ele>
        <time>2014-09-14T13:37:09Z</time>
      </trkpt>
      <trkpt lat="42.6937" lon="1.57161">
        <ele>1652</ele>
        <time>2014-09-14T13:37:21Z</time>
      </trkpt>
      <trkpt lat="42.69374" lon="1.57167">
        <ele>1652</ele>
        <time>2014-09-14T13:37:30Z</time>
      </trkpt>
      <trkpt lat="42.69376" lon="1.57171">
        <ele>1652</ele>
        <time>2014-09-14T13:37:35Z</time>
      </trkpt>
      <trkpt lat="42.69377" lon="1.57174">
        <ele>1652</ele>
        <time>2014-09-14T13:37:37Z</time>
      </trkpt>
      <trkpt lat="42.69385" lon="1.57179">
        <ele>1651</ele>
        <time>2014-09-14T13:37:50Z</time>
      </trkpt>
      <trkpt lat="42.69388" lon="1.57181">
        <ele>1651</ele>
        <time>2014-09-14T13:37:55Z</time>
      </trkpt>
      <trkpt lat="42.69396" lon="1.57183">
        <ele>1651</ele>
        <time>2014-09-14T13:38:06Z</time>
      </trkpt>
      <trkpt lat="42.69396" lon="1.57185">
        <ele>1651</ele>
        <time>2014-09-14T13:38:07Z</time>
      </trkpt>
      <trkpt lat="42.69398" lon="1.57193">
        <ele>1651</ele>
        <time>2014-09-14T13:38:12Z</time>
      </trkpt>
      <trkpt lat="42.694" lon="1.57204">
        <ele>1651</ele>
        <time>2014-09-14T13:38:20Z</time>
      </trkpt>
      <trkpt lat="42.69401" lon="1.57221">
        <ele>1647</ele>
        <time>2014-09-14T13:38:36Z</time>
      </trkpt>
      <trkpt lat="42.69405" lon="1.57232">
        <ele>1646</ele>
        <time>2014-09-14T13:38:50Z</time>
      </trkpt>
      <trkpt lat="42.69407" lon="1.57244">
        <ele>1644</ele>
        <time>2014-09-14T13:39:01Z</time>
      </trkpt>
      <trkpt lat="42.69409" lon="1.57246">
        <ele>1643</ele>
        <time>2014-09-14T13:39:04Z</time>
      </trkpt>
      <trkpt lat="42.69416" lon="1.57254">
        <ele>1642</ele>
        <time>2014-09-14T13:39:16Z</time>
      </trkpt>
      <trkpt lat="42.69422" lon="1.57263">
        <ele>1640</ele>
        <time>2014-09-14T13:39:28Z</time>
      </trkpt>
      <trkpt lat="42.69427" lon="1.57278">
        <ele>1638</ele>
        <time>2014-09-14T13:39:41Z</time>
      </trkpt>
      <trkpt lat="42.69425" lon="1.57291">
        <ele>1638</ele>
        <time>2014-09-14T13:39:54Z</time>
      </trkpt>
      <trkpt lat="42.69426" lon="1.57306">
        <ele>1636</ele>
        <time>2014-09-14T13:40:08Z</time>
      </trkpt>
      <trkpt lat="42.69432" lon="1.57321">
        <ele>1635</ele>
        <time>2014-09-14T13:40:21Z</time>
      </trkpt>
      <trkpt lat="42.69432" lon="1.57324">
        <ele>1635</ele>
        <time>2014-09-14T13:40:24Z</time>
      </trkpt>
      <trkpt lat="42.69436" lon="1.57335">
        <ele>1634</ele>
        <time>2014-09-14T13:40:32Z</time>
      </trkpt>
      <trkpt lat="42.69437" lon="1.57335">
        <ele>1634</ele>
        <time>2014-09-14T13:40:33Z</time>
      </trkpt>
      <trkpt lat="42.69445" lon="1.57344">
        <ele>1633</ele>
        <time>2014-09-14T13:40:45Z</time>
      </trkpt>
      <trkpt lat="42.69447" lon="1.57346">
        <ele>1632</ele>
        <time>2014-09-14T13:40:47Z</time>
      </trkpt>
      <trkpt lat="42.69448" lon="1.5735">
        <ele>1632</ele>
        <time>2014-09-14T13:40:51Z</time>
      </trkpt>
      <trkpt lat="42.69452" lon="1.57356">
        <ele>1631</ele>
        <time>2014-09-14T13:40:57Z</time>
      </trkpt>
      <trkpt lat="42.69454" lon="1.57358">
        <ele>1631</ele>
        <time>2014-09-14T13:40:59Z</time>
      </trkpt>
      <trkpt lat="42.69464" lon="1.57368">
        <ele>1629</ele>
        <time>2014-09-14T13:41:12Z</time>
      </trkpt>
      <trkpt lat="42.69474" lon="1.57377">
        <ele>1628</ele>
        <time>2014-09-14T13:41:25Z</time>
      </trkpt>
      <trkpt lat="42.69475" lon="1.57378">
        <ele>1627</ele>
        <time>2014-09-14T13:41:27Z</time>
      </trkpt>
      <trkpt lat="42.69486" lon="1.57383">
        <ele>1625</ele>
        <time>2014-09-14T13:41:40Z</time>
      </trkpt>
      <trkpt lat="42.69488" lon="1.57391">
        <ele>1625</ele>
        <time>2014-09-14T13:41:46Z</time>
      </trkpt>
      <trkpt lat="42.69501" lon="1.57405">
        <ele>1624</ele>
        <time>2014-09-14T13:42:01Z</time>
      </trkpt>
      <trkpt lat="42.69512" lon="1.57414">
        <ele>1622</ele>
        <time>2014-09-14T13:42:14Z</time>
      </trkpt>
      <trkpt lat="42.69521" lon="1.57427">
        <ele>1621</ele>
        <time>2014-09-14T13:42:26Z</time>
      </trkpt>
      <trkpt lat="42.69532" lon="1.57438">
        <ele>1619</ele>
        <time>2014-09-14T13:42:42Z</time>
      </trkpt>
      <trkpt lat="42.69538" lon="1.57449">
        <ele>1617</ele>
        <time>2014-09-14T13:42:54Z</time>
      </trkpt>
      <trkpt lat="42.69547" lon="1.57452">
        <ele>1615</ele>
        <time>2014-09-14T13:43:09Z</time>
      </trkpt>
      <trkpt lat="42.69556" lon="1.5745">
        <ele>1613</ele>
        <time>2014-09-14T13:43:23Z</time>
      </trkpt>
      <trkpt lat="42.6956" lon="1.57456">
        <ele>1613</ele>
        <time>2014-09-14T13:43:29Z</time>
      </trkpt>
      <trkpt lat="42.6956" lon="1.57463">
        <ele>1612</ele>
        <time>2014-09-14T13:43:34Z</time>
      </trkpt>
      <trkpt lat="42.69568" lon="1.57471">
        <ele>1610</ele>
        <time>2014-09-14T13:43:47Z</time>
      </trkpt>
      <trkpt lat="42.69573" lon="1.57481">
        <ele>1608</ele>
        <time>2014-09-14T13:43:58Z</time>
      </trkpt>
      <trkpt lat="42.69574" lon="1.57486">
        <ele>1608</ele>
        <time>2014-09-14T13:44:02Z</time>
      </trkpt>
      <trkpt lat="42.69583" lon="1.57506">
        <ele>1606</ele>
        <time>2014-09-14T13:44:16Z</time>
      </trkpt>
      <trkpt lat="42.69588" lon="1.57509">
        <ele>1606</ele>
        <time>2014-09-14T13:44:23Z</time>
      </trkpt>
      <trkpt lat="42.69589" lon="1.57509">
        <ele>1606</ele>
        <time>2014-09-14T13:44:25Z</time>
      </trkpt>
      <trkpt lat="42.69603" lon="1.57516">
        <ele>1606</ele>
        <time>2014-09-14T13:44:38Z</time>
      </trkpt>
      <trkpt lat="42.69612" lon="1.5752">
        <ele>1605</ele>
        <time>2014-09-14T13:44:47Z</time>
      </trkpt>
      <trkpt lat="42.69621" lon="1.57529">
        <ele>1604</ele>
        <time>2014-09-14T13:44:58Z</time>
      </trkpt>
      <trkpt lat="42.69634" lon="1.5753">
        <ele>1603</ele>
        <time>2014-09-14T13:45:11Z</time>
      </trkpt>
      <trkpt lat="42.69645" lon="1.5753">
        <ele>1603</ele>
        <time>2014-09-14T13:45:24Z</time>
      </trkpt>
      <trkpt lat="42.69657" lon="1.57526">
        <ele>1603</ele>
        <time>2014-09-14T13:45:37Z</time>
      </trkpt>
      <trkpt lat="42.69659" lon="1.57526">
        <ele>1603</ele>
        <time>2014-09-14T13:45:39Z</time>
      </trkpt>
      <trkpt lat="42.69665" lon="1.57524">
        <ele>1603</ele>
        <time>2014-09-14T13:45:45Z</time>
      </trkpt>
      <trkpt lat="42.69673" lon="1.57512">
        <ele>1603</ele>
        <time>2014-09-14T13:45:57Z</time>
      </trkpt>
      <trkpt lat="42.69679" lon="1.57509">
        <ele>1603</ele>
        <time>2014-09-14T13:46:04Z</time>
      </trkpt>
      <trkpt lat="42.69684" lon="1.57508">
        <ele>1602</ele>
        <time>2014-09-14T13:46:09Z</time>
      </trkpt>
      <trkpt lat="42.69694" lon="1.57513">
        <ele>1602</ele>
        <time>2014-09-14T13:46:20Z</time>
      </trkpt>
      <trkpt lat="42.69699" lon="1.57513">
        <ele>1602</ele>
        <time>2014-09-14T13:46:25Z</time>
      </trkpt>
      <trkpt lat="42.69711" lon="1.57504">
        <ele>1602</ele>
        <time>2014-09-14T13:46:39Z</time>
      </trkpt>
      <trkpt lat="42.69724" lon="1.57496">
        <ele>1601</ele>
        <time>2014-09-14T13:46:52Z</time>
      </trkpt>
      <trkpt lat="42.69728" lon="1.57497">
        <ele>1601</ele>
        <time>2014-09-14T13:46:55Z</time>
      </trkpt>
      <trkpt lat="42.69738" lon="1.57495">
        <ele>1601</ele>
        <time>2014-09-14T13:47:04Z</time>
      </trkpt>
      <trkpt lat="42.69749" lon="1.57491">
        <ele>1602</ele>
        <time>2014-09-14T13:47:18Z</time>
      </trkpt>
      <trkpt lat="42.69764" lon="1.57493">
        <ele>1602</ele>
        <time>2014-09-14T13:47:34Z</time>
      </trkpt>
      <trkpt lat="42.69768" lon="1.57491">
        <ele>1603</ele>
        <time>2014-09-14T13:47:44Z</time>
      </trkpt>
      <trkpt lat="42.6977" lon="1.57489">
        <ele>1602</ele>
        <time>2014-09-14T13:47:49Z</time>
      </trkpt>
      <trkpt lat="42.69774" lon="1.57486">
        <ele>1602</ele>
        <time>2014-09-14T13:47:59Z</time>
      </trkpt>
      <trkpt lat="42.69778" lon="1.57483">
        <ele>1602</ele>
        <time>2014-09-14T13:48:06Z</time>
      </trkpt>
      <trkpt lat="42.69781" lon="1.57476">
        <ele>1601</ele>
        <time>2014-09-14T13:48:12Z</time>
      </trkpt>
      <trkpt lat="42.69784" lon="1.57475">
        <ele>1600</ele>
        <time>2014-09-14T13:48:15Z</time>
      </trkpt>
      <trkpt lat="42.69789" lon="1.5747">
        <ele>1599</ele>
        <time>2014-09-14T13:48:28Z</time>
      </trkpt>
      <trkpt lat="42.69792" lon="1.57467">
        <ele>1600</ele>
        <time>2014-09-14T13:48:31Z</time>
      </trkpt>
      <trkpt lat="42.69804" lon="1.57464">
        <ele>1598</ele>
        <time>2014-09-14T13:48:43Z</time>
      </trkpt>
      <trkpt lat="42.69819" lon="1.57467">
        <ele>1597</ele>
        <time>2014-09-14T13:48:58Z</time>
      </trkpt>
      <trkpt lat="42.69822" lon="1.57469">
        <ele>1597</ele>
        <time>2014-09-14T13:49:01Z</time>
      </trkpt>
      <trkpt lat="42.69829" lon="1.57471">
        <ele>1597</ele>
        <time>2014-09-14T13:49:09Z</time>
      </trkpt>
      <trkpt lat="42.69833" lon="1.57476">
        <ele>1597</ele>
        <time>2014-09-14T13:49:21Z</time>
      </trkpt>
      <trkpt lat="42.69835" lon="1.57479">
        <ele>1597</ele>
        <time>2014-09-14T13:49:26Z</time>
      </trkpt>
      <trkpt lat="42.6984" lon="1.57483">
        <ele>1597</ele>
        <time>2014-09-14T13:49:36Z</time>
      </trkpt>
      <trkpt lat="42.6984" lon="1.57483">
        <ele>1597</ele>
        <time>2014-09-14T13:49:37Z</time>
      </trkpt>
      <trkpt lat="42.69846" lon="1.5748">
        <ele>1596</ele>
        <time>2014-09-14T13:49:49Z</time>
      </trkpt>
      <trkpt lat="42.69855" lon="1.57482">
        <ele>1596</ele>
        <time>2014-09-14T13:50:01Z</time>
      </trkpt>
      <trkpt lat="42.69861" lon="1.57484">
        <ele>1596</ele>
        <time>2014-09-14T13:50:13Z</time>
      </trkpt>
      <trkpt lat="42.69863" lon="1.5748">
        <ele>1596</ele>
        <time>2014-09-14T13:50:19Z</time>
      </trkpt>
      <trkpt lat="42.69864" lon="1.57476">
        <ele>1595</ele>
        <time>2014-09-14T13:50:22Z</time>
      </trkpt>
      <trkpt lat="42.69865" lon="1.57473">
        <ele>1595</ele>
        <time>2014-09-14T13:50:25Z</time>
      </trkpt>
      <trkpt lat="42.69877" lon="1.5747">
        <ele>1595</ele>
        <time>2014-09-14T13:50:38Z</time>
      </trkpt>
      <trkpt lat="42.69883" lon="1.57467">
        <ele>1595</ele>
        <time>2014-09-14T13:50:48Z</time>
      </trkpt>
      <trkpt lat="42.69889" lon="1.57461">
        <ele>1594</ele>
        <time>2014-09-14T13:50:59Z</time>
      </trkpt>
      <trkpt lat="42.69891" lon="1.57458">
        <ele>1594</ele>
        <time>2014-09-14T13:51:03Z</time>
      </trkpt>
      <trkpt lat="42.699" lon="1.57449">
        <ele>1595</ele>
        <time>2014-09-14T13:51:14Z</time>
      </trkpt>
      <trkpt lat="42.69909" lon="1.57445">
        <ele>1594</ele>
        <time>2014-09-14T13:51:26Z</time>
      </trkpt>
      <trkpt lat="42.69918" lon="1.57443">
        <ele>1595</ele>
        <time>2014-09-14T13:51:39Z</time>
      </trkpt>
      <trkpt lat="42.69921" lon="1.57442">
        <ele>1595</ele>
        <time>2014-09-14T13:51:44Z</time>
      </trkpt>
      <trkpt lat="42.69924" lon="1.57441">
        <ele>1594</ele>
        <time>2014-09-14T13:51:47Z</time>
      </trkpt>
      <trkpt lat="42.69928" lon="1.57438">
        <ele>1594</ele>
        <time>2014-09-14T13:51:52Z</time>
      </trkpt>
      <trkpt lat="42.69942" lon="1.57428">
        <ele>1594</ele>
        <time>2014-09-14T13:52:06Z</time>
      </trkpt>
      <trkpt lat="42.69944" lon="1.57425">
        <ele>1594</ele>
        <time>2014-09-14T13:52:10Z</time>
      </trkpt>
      <trkpt lat="42.69956" lon="1.57421">
        <ele>1595</ele>
        <time>2014-09-14T13:52:24Z</time>
      </trkpt>
      <trkpt lat="42.69958" lon="1.57419">
        <ele>1595</ele>
        <time>2014-09-14T13:52:26Z</time>
      </trkpt>
      <trkpt lat="42.6997" lon="1.57411">
        <ele>1594</ele>
        <time>2014-09-14T13:52:38Z</time>
      </trkpt>
      <trkpt lat="42.69985" lon="1.57405">
        <ele>1594</ele>
        <time>2014-09-14T13:52:52Z</time>
      </trkpt>
      <trkpt lat="42.69993" lon="1.57408">
        <ele>1594</ele>
        <time>2014-09-14T13:53:06Z</time>
      </trkpt>
      <trkpt lat="42.69996" lon="1.57406">
        <ele>1594</ele>
        <time>2014-09-14T13:53:10Z</time>
      </trkpt>
      <trkpt lat="42.70001" lon="1.57402">
        <ele>1594</ele>
        <time>2014-09-14T13:53:16Z</time>
      </trkpt>
      <trkpt lat="42.70012" lon="1.57398">
        <ele>1594</ele>
        <time>2014-09-14T13:53:25Z</time>
      </trkpt>
      <trkpt lat="42.70019" lon="1.57394">
        <ele>1594</ele>
        <time>2014-09-14T13:53:32Z</time>
      </trkpt>
      <trkpt lat="42.70025" lon="1.57391">
        <ele>1594</ele>
        <time>2014-09-14T13:53:47Z</time>
      </trkpt>
      <trkpt lat="42.70038" lon="1.57384">
        <ele>1593</ele>
        <time>2014-09-14T13:54:02Z</time>
      </trkpt>
      <trkpt lat="42.7004" lon="1.57382">
        <ele>1593</ele>
        <time>2014-09-14T13:54:05Z</time>
      </trkpt>
      <trkpt lat="42.70043" lon="1.57384">
        <ele>1593</ele>
        <time>2014-09-14T13:54:08Z</time>
      </trkpt>
      <trkpt lat="42.70049" lon="1.57383">
        <ele>1593</ele>
        <time>2014-09-14T13:54:14Z</time>
      </trkpt>
      <trkpt lat="42.70057" lon="1.57382">
        <ele>1592</ele>
        <time>2014-09-14T13:54:23Z</time>
      </trkpt>
      <trkpt lat="42.70059" lon="1.57381">
        <ele>1592</ele>
        <time>2014-09-14T13:54:25Z</time>
      </trkpt>
      <trkpt lat="42.70062" lon="1.57377">
        <ele>1592</ele>
        <time>2014-09-14T13:54:29Z</time>
      </trkpt>
      <trkpt lat="42.70067" lon="1.57371">
        <ele>1592</ele>
        <time>2014-09-14T13:54:35Z</time>
      </trkpt>
      <trkpt lat="42.70067" lon="1.57365">
        <ele>1591</ele>
        <time>2014-09-14T13:54:40Z</time>
      </trkpt>
      <trkpt lat="42.7007" lon="1.57362">
        <ele>1591</ele>
        <time>2014-09-14T13:54:44Z</time>
      </trkpt>
      <trkpt lat="42.70073" lon="1.57361">
        <ele>1591</ele>
        <time>2014-09-14T13:54:46Z</time>
      </trkpt>
      <trkpt lat="42.70078" lon="1.57358">
        <ele>1590</ele>
        <time>2014-09-14T13:54:51Z</time>
      </trkpt>
      <trkpt lat="42.70088" lon="1.57353">
        <ele>1589</ele>
        <time>2014-09-14T13:55:01Z</time>
      </trkpt>
      <trkpt lat="42.7009" lon="1.57348">
        <ele>1589</ele>
        <time>2014-09-14T13:55:05Z</time>
      </trkpt>
      <trkpt lat="42.70094" lon="1.57344">
        <ele>1589</ele>
        <time>2014-09-14T13:55:10Z</time>
      </trkpt>
      <trkpt lat="42.701" lon="1.57346">
        <ele>1588</ele>
        <time>2014-09-14T13:55:16Z</time>
      </trkpt>
      <trkpt lat="42.70113" lon="1.57347">
        <ele>1586</ele>
        <time>2014-09-14T13:55:28Z</time>
      </trkpt>
      <trkpt lat="42.70114" lon="1.57347">
        <ele>1587</ele>
        <time>2014-09-14T13:55:30Z</time>
      </trkpt>
      <trkpt lat="42.70125" lon="1.57343">
        <ele>1587</ele>
        <time>2014-09-14T13:55:41Z</time>
      </trkpt>
      <trkpt lat="42.70132" lon="1.57338">
        <ele>1587</ele>
        <time>2014-09-14T13:55:48Z</time>
      </trkpt>
      <trkpt lat="42.70135" lon="1.57337">
        <ele>1587</ele>
        <time>2014-09-14T13:55:51Z</time>
      </trkpt>
      <trkpt lat="42.70149" lon="1.57328">
        <ele>1587</ele>
        <time>2014-09-14T13:56:05Z</time>
      </trkpt>
      <trkpt lat="42.70157" lon="1.57321">
        <ele>1586</ele>
        <time>2014-09-14T13:56:16Z</time>
      </trkpt>
      <trkpt lat="42.70157" lon="1.5732">
        <ele>1587</ele>
        <time>2014-09-14T13:56:17Z</time>
      </trkpt>
      <trkpt lat="42.70158" lon="1.57317">
        <ele>1586</ele>
        <time>2014-09-14T13:56:19Z</time>
      </trkpt>
      <trkpt lat="42.70161" lon="1.57313">
        <ele>1586</ele>
        <time>2014-09-14T13:56:22Z</time>
      </trkpt>
      <trkpt lat="42.70163" lon="1.57313">
        <ele>1586</ele>
        <time>2014-09-14T13:56:24Z</time>
      </trkpt>
      <trkpt lat="42.7017" lon="1.5731">
        <ele>1586</ele>
        <time>2014-09-14T13:56:31Z</time>
      </trkpt>
      <trkpt lat="42.70172" lon="1.57304">
        <ele>1587</ele>
        <time>2014-09-14T13:56:35Z</time>
      </trkpt>
      <trkpt lat="42.70181" lon="1.57282">
        <ele>1586</ele>
        <time>2014-09-14T13:56:50Z</time>
      </trkpt>
      <trkpt lat="42.70182" lon="1.5728">
        <ele>1586</ele>
        <time>2014-09-14T13:56:52Z</time>
      </trkpt>
      <trkpt lat="42.70187" lon="1.57272">
        <ele>1586</ele>
        <time>2014-09-14T13:57:01Z</time>
      </trkpt>
      <trkpt lat="42.70191" lon="1.57268">
        <ele>1586</ele>
        <time>2014-09-14T13:57:06Z</time>
      </trkpt>
      <trkpt lat="42.70201" lon="1.57252">
        <ele>1585</ele>
        <time>2014-09-14T13:57:21Z</time>
      </trkpt>
      <trkpt lat="42.70203" lon="1.57247">
        <ele>1585</ele>
        <time>2014-09-14T13:57:25Z</time>
      </trkpt>
      <trkpt lat="42.70207" lon="1.57242">
        <ele>1585</ele>
        <time>2014-09-14T13:57:30Z</time>
      </trkpt>
      <trkpt lat="42.70209" lon="1.57234">
        <ele>1585</ele>
        <time>2014-09-14T13:57:35Z</time>
      </trkpt>
      <trkpt lat="42.70218" lon="1.57228">
        <ele>1585</ele>
        <time>2014-09-14T13:57:44Z</time>
      </trkpt>
      <trkpt lat="42.70221" lon="1.57229">
        <ele>1585</ele>
        <time>2014-09-14T13:57:47Z</time>
      </trkpt>
      <trkpt lat="42.7023" lon="1.57225">
        <ele>1584</ele>
        <time>2014-09-14T13:57:56Z</time>
      </trkpt>
      <trkpt lat="42.70233" lon="1.57223">
        <ele>1584</ele>
        <time>2014-09-14T13:57:59Z</time>
      </trkpt>
      <trkpt lat="42.70243" lon="1.57214">
        <ele>1584</ele>
        <time>2014-09-14T13:58:11Z</time>
      </trkpt>
      <trkpt lat="42.70244" lon="1.57214">
        <ele>1585</ele>
        <time>2014-09-14T13:58:13Z</time>
      </trkpt>
      <trkpt lat="42.70253" lon="1.57202">
        <ele>1585</ele>
        <time>2014-09-14T13:58:28Z</time>
      </trkpt>
      <trkpt lat="42.70257" lon="1.57191">
        <ele>1586</ele>
        <time>2014-09-14T13:58:36Z</time>
      </trkpt>
      <trkpt lat="42.70259" lon="1.57182">
        <ele>1586</ele>
        <time>2014-09-14T13:58:41Z</time>
      </trkpt>
      <trkpt lat="42.70265" lon="1.57157">
        <ele>1585</ele>
        <time>2014-09-14T13:58:58Z</time>
      </trkpt>
      <trkpt lat="42.70268" lon="1.57139">
        <ele>1585</ele>
        <time>2014-09-14T13:59:12Z</time>
      </trkpt>
      <trkpt lat="42.70269" lon="1.57136">
        <ele>1584</ele>
        <time>2014-09-14T13:59:14Z</time>
      </trkpt>
      <trkpt lat="42.7027" lon="1.57125">
        <ele>1585</ele>
        <time>2014-09-14T13:59:22Z</time>
      </trkpt>
      <trkpt lat="42.7027" lon="1.57119">
        <ele>1584</ele>
        <time>2014-09-14T13:59:26Z</time>
      </trkpt>
      <trkpt lat="42.70269" lon="1.57106">
        <ele>1584</ele>
        <time>2014-09-14T13:59:36Z</time>
      </trkpt>
      <trkpt lat="42.7027" lon="1.57096">
        <ele>1585</ele>
        <time>2014-09-14T13:59:45Z</time>
      </trkpt>
      <trkpt lat="42.7027" lon="1.57093">
        <ele>1586</ele>
        <time>2014-09-14T13:59:47Z</time>
      </trkpt>
      <trkpt lat="42.70275" lon="1.57077">
        <ele>1587</ele>
        <time>2014-09-14T13:59:59Z</time>
      </trkpt>
      <trkpt lat="42.70274" lon="1.57075">
        <ele>1585</ele>
        <time>2014-09-14T14:00:01Z</time>
      </trkpt>
      <trkpt lat="42.70278" lon="1.57063">
        <ele>1586</ele>
        <time>2014-09-14T14:00:09Z</time>
      </trkpt>
      <trkpt lat="42.7028" lon="1.57056">
        <ele>1587</ele>
        <time>2014-09-14T14:00:15Z</time>
      </trkpt>
      <trkpt lat="42.70281" lon="1.57044">
        <ele>1586</ele>
        <time>2014-09-14T14:00:22Z</time>
      </trkpt>
      <trkpt lat="42.70282" lon="1.5704">
        <ele>1587</ele>
        <time>2014-09-14T14:00:24Z</time>
      </trkpt>
      <trkpt lat="42.70284" lon="1.57031">
        <ele>1587</ele>
        <time>2014-09-14T14:00:30Z</time>
      </trkpt>
      <trkpt lat="42.70286" lon="1.57024">
        <ele>1587</ele>
        <time>2014-09-14T14:00:34Z</time>
      </trkpt>
      <trkpt lat="42.70298" lon="1.57009">
        <ele>1586</ele>
        <time>2014-09-14T14:00:48Z</time>
      </trkpt>
      <trkpt lat="42.70298" lon="1.57005">
        <ele>1586</ele>
        <time>2014-09-14T14:00:51Z</time>
      </trkpt>
      <trkpt lat="42.70306" lon="1.56984">
        <ele>1585</ele>
        <time>2014-09-14T14:01:06Z</time>
      </trkpt>
      <trkpt lat="42.7031" lon="1.5698">
        <ele>1585</ele>
        <time>2014-09-14T14:01:11Z</time>
      </trkpt>
      <trkpt lat="42.70318" lon="1.56965">
        <ele>1584</ele>
        <time>2014-09-14T14:01:26Z</time>
      </trkpt>
      <trkpt lat="42.70321" lon="1.56961">
        <ele>1583</ele>
        <time>2014-09-14T14:01:30Z</time>
      </trkpt>
      <trkpt lat="42.70335" lon="1.56954">
        <ele>1583</ele>
        <time>2014-09-14T14:01:44Z</time>
      </trkpt>
      <trkpt lat="42.70337" lon="1.56935">
        <ele>1584</ele>
        <time>2014-09-14T14:01:58Z</time>
      </trkpt>
      <trkpt lat="42.70342" lon="1.56917">
        <ele>1584</ele>
        <time>2014-09-14T14:02:11Z</time>
      </trkpt>
      <trkpt lat="42.70343" lon="1.56911">
        <ele>1584</ele>
        <time>2014-09-14T14:02:14Z</time>
      </trkpt>
      <trkpt lat="42.7035" lon="1.56894">
        <ele>1583</ele>
        <time>2014-09-14T14:02:30Z</time>
      </trkpt>
      <trkpt lat="42.70353" lon="1.56878">
        <ele>1583</ele>
        <time>2014-09-14T14:02:42Z</time>
      </trkpt>
      <trkpt lat="42.70358" lon="1.56861">
        <ele>1583</ele>
        <time>2014-09-14T14:02:55Z</time>
      </trkpt>
      <trkpt lat="42.70356" lon="1.56843">
        <ele>1583</ele>
        <time>2014-09-14T14:03:10Z</time>
      </trkpt>
      <trkpt lat="42.70358" lon="1.56831">
        <ele>1583</ele>
        <time>2014-09-14T14:03:22Z</time>
      </trkpt>
      <trkpt lat="42.70361" lon="1.56823">
        <ele>1584</ele>
        <time>2014-09-14T14:03:34Z</time>
      </trkpt>
      <trkpt lat="42.70362" lon="1.56813">
        <ele>1584</ele>
        <time>2014-09-14T14:03:45Z</time>
      </trkpt>
      <trkpt lat="42.70362" lon="1.56809">
        <ele>1584</ele>
        <time>2014-09-14T14:03:50Z</time>
      </trkpt>
      <trkpt lat="42.70366" lon="1.56803">
        <ele>1583</ele>
        <time>2014-09-14T14:04:00Z</time>
      </trkpt>
      <trkpt lat="42.70371" lon="1.56795">
        <ele>1583</ele>
        <time>2014-09-14T14:04:12Z</time>
      </trkpt>
      <trkpt lat="42.70372" lon="1.56794">
        <ele>1582</ele>
        <time>2014-09-14T14:04:14Z</time>
      </trkpt>
      <trkpt lat="42.70379" lon="1.56785">
        <ele>1581</ele>
        <time>2014-09-14T14:04:27Z</time>
      </trkpt>
      <trkpt lat="42.7038" lon="1.5678">
        <ele>1580</ele>
        <time>2014-09-14T14:04:33Z</time>
      </trkpt>
      <trkpt lat="42.70383" lon="1.56776">
        <ele>1580</ele>
        <time>2014-09-14T14:04:37Z</time>
      </trkpt>
      <trkpt lat="42.70386" lon="1.56766">
        <ele>1577</ele>
        <time>2014-09-14T14:04:51Z</time>
      </trkpt>
      <trkpt lat="42.70385" lon="1.56751">
        <ele>1575</ele>
        <time>2014-09-14T14:05:03Z</time>
      </trkpt>
      <trkpt lat="42.70385" lon="1.56749">
        <ele>1575</ele>
        <time>2014-09-14T14:05:06Z</time>
      </trkpt>
      <trkpt lat="42.70385" lon="1.56741">
        <ele>1574</ele>
        <time>2014-09-14T14:05:15Z</time>
      </trkpt>
      <trkpt lat="42.70387" lon="1.56739">
        <ele>1574</ele>
        <time>2014-09-14T14:05:19Z</time>
      </trkpt>
      <trkpt lat="42.70387" lon="1.56737">
        <ele>1573</ele>
        <time>2014-09-14T14:05:22Z</time>
      </trkpt>
      <trkpt lat="42.7039" lon="1.56725">
        <ele>1571</ele>
        <time>2014-09-14T14:05:34Z</time>
      </trkpt>
      <trkpt lat="42.70391" lon="1.5672">
        <ele>1570</ele>
        <time>2014-09-14T14:05:38Z</time>
      </trkpt>
      <trkpt lat="42.70395" lon="1.56717">
        <ele>1570</ele>
        <time>2014-09-14T14:05:42Z</time>
      </trkpt>
      <trkpt lat="42.70405" lon="1.56708">
        <ele>1568</ele>
        <time>2014-09-14T14:05:53Z</time>
      </trkpt>
      <trkpt lat="42.70409" lon="1.56694">
        <ele>1567</ele>
        <time>2014-09-14T14:06:04Z</time>
      </trkpt>
      <trkpt lat="42.70412" lon="1.56689">
        <ele>1566</ele>
        <time>2014-09-14T14:06:09Z</time>
      </trkpt>
      <trkpt lat="42.70427" lon="1.56684">
        <ele>1567</ele>
        <time>2014-09-14T14:06:20Z</time>
      </trkpt>
      <trkpt lat="42.70437" lon="1.56669">
        <ele>1565</ele>
        <time>2014-09-14T14:06:34Z</time>
      </trkpt>
      <trkpt lat="42.7044" lon="1.56658">
        <ele>1564</ele>
        <time>2014-09-14T14:06:44Z</time>
      </trkpt>
      <trkpt lat="42.70442" lon="1.56635">
        <ele>1564</ele>
        <time>2014-09-14T14:07:00Z</time>
      </trkpt>
      <trkpt lat="42.70445" lon="1.56625">
        <ele>1564</ele>
        <time>2014-09-14T14:07:08Z</time>
      </trkpt>
      <trkpt lat="42.70446" lon="1.56621">
        <ele>1563</ele>
        <time>2014-09-14T14:07:11Z</time>
      </trkpt>
      <trkpt lat="42.7045" lon="1.56614">
        <ele>1564</ele>
        <time>2014-09-14T14:07:18Z</time>
      </trkpt>
      <trkpt lat="42.7045" lon="1.56608">
        <ele>1563</ele>
        <time>2014-09-14T14:07:22Z</time>
      </trkpt>
      <trkpt lat="42.70449" lon="1.56601">
        <ele>1562</ele>
        <time>2014-09-14T14:07:28Z</time>
      </trkpt>
      <trkpt lat="42.7045" lon="1.56598">
        <ele>1562</ele>
        <time>2014-09-14T14:07:30Z</time>
      </trkpt>
      <trkpt lat="42.70456" lon="1.5658">
        <ele>1562</ele>
        <time>2014-09-14T14:07:44Z</time>
      </trkpt>
      <trkpt lat="42.7046" lon="1.56562">
        <ele>1560</ele>
        <time>2014-09-14T14:07:57Z</time>
      </trkpt>
      <trkpt lat="42.70462" lon="1.56561">
        <ele>1560</ele>
        <time>2014-09-14T14:07:58Z</time>
      </trkpt>
      <trkpt lat="42.70471" lon="1.56558">
        <ele>1560</ele>
        <time>2014-09-14T14:08:04Z</time>
      </trkpt>
      <trkpt lat="42.70489" lon="1.56544">
        <ele>1560</ele>
        <time>2014-09-14T14:08:20Z</time>
      </trkpt>
      <trkpt lat="42.70498" lon="1.56524">
        <ele>1558</ele>
        <time>2014-09-14T14:08:36Z</time>
      </trkpt>
      <trkpt lat="42.70504" lon="1.56502">
        <ele>1556</ele>
        <time>2014-09-14T14:08:50Z</time>
      </trkpt>
      <trkpt lat="42.70507" lon="1.56499">
        <ele>1555</ele>
        <time>2014-09-14T14:08:54Z</time>
      </trkpt>
      <trkpt lat="42.70509" lon="1.56486">
        <ele>1553</ele>
        <time>2014-09-14T14:09:04Z</time>
      </trkpt>
      <trkpt lat="42.70512" lon="1.56475">
        <ele>1552</ele>
        <time>2014-09-14T14:09:16Z</time>
      </trkpt>
      <trkpt lat="42.70514" lon="1.56469">
        <ele>1551</ele>
        <time>2014-09-14T14:09:21Z</time>
      </trkpt>
      <trkpt lat="42.70516" lon="1.56464">
        <ele>1551</ele>
        <time>2014-09-14T14:09:27Z</time>
      </trkpt>
      <trkpt lat="42.70526" lon="1.56456">
        <ele>1550</ele>
        <time>2014-09-14T14:09:38Z</time>
      </trkpt>
      <trkpt lat="42.70527" lon="1.56456">
        <ele>1549</ele>
        <time>2014-09-14T14:09:40Z</time>
      </trkpt>
      <trkpt lat="42.70529" lon="1.56453">
        <ele>1549</ele>
        <time>2014-09-14T14:09:43Z</time>
      </trkpt>
      <trkpt lat="42.70531" lon="1.5645">
        <ele>1548</ele>
        <time>2014-09-14T14:09:46Z</time>
      </trkpt>
      <trkpt lat="42.70533" lon="1.56445">
        <ele>1549</ele>
        <time>2014-09-14T14:09:51Z</time>
      </trkpt>
      <trkpt lat="42.70536" lon="1.56443">
        <ele>1548</ele>
        <time>2014-09-14T14:09:54Z</time>
      </trkpt>
      <trkpt lat="42.70539" lon="1.56441">
        <ele>1548</ele>
        <time>2014-09-14T14:09:58Z</time>
      </trkpt>
      <trkpt lat="42.70542" lon="1.56439">
        <ele>1548</ele>
        <time>2014-09-14T14:10:01Z</time>
      </trkpt>
      <trkpt lat="42.70544" lon="1.56438">
        <ele>1548</ele>
        <time>2014-09-14T14:10:03Z</time>
      </trkpt>
      <trkpt lat="42.70555" lon="1.56437">
        <ele>1548</ele>
        <time>2014-09-14T14:10:12Z</time>
      </trkpt>
      <trkpt lat="42.70559" lon="1.56431">
        <ele>1547</ele>
        <time>2014-09-14T14:10:18Z</time>
      </trkpt>
      <trkpt lat="42.70562" lon="1.56427">
        <ele>1547</ele>
        <time>2014-09-14T14:10:22Z</time>
      </trkpt>
      <trkpt lat="42.70565" lon="1.56426">
        <ele>1547</ele>
        <time>2014-09-14T14:10:25Z</time>
      </trkpt>
      <trkpt lat="42.70579" lon="1.56421">
        <ele>1546</ele>
        <time>2014-09-14T14:10:37Z</time>
      </trkpt>
      <trkpt lat="42.70582" lon="1.56418">
        <ele>1546</ele>
        <time>2014-09-14T14:10:40Z</time>
      </trkpt>
      <trkpt lat="42.70587" lon="1.56414">
        <ele>1547</ele>
        <time>2014-09-14T14:10:46Z</time>
      </trkpt>
      <trkpt lat="42.70601" lon="1.56404">
        <ele>1546</ele>
        <time>2014-09-14T14:11:00Z</time>
      </trkpt>
      <trkpt lat="42.70605" lon="1.56398">
        <ele>1546</ele>
        <time>2014-09-14T14:11:05Z</time>
      </trkpt>
      <trkpt lat="42.70606" lon="1.56396">
        <ele>1546</ele>
        <time>2014-09-14T14:11:07Z</time>
      </trkpt>
      <trkpt lat="42.70611" lon="1.56392">
        <ele>1546</ele>
        <time>2014-09-14T14:11:12Z</time>
      </trkpt>
      <trkpt lat="42.70615" lon="1.56378">
        <ele>1546</ele>
        <time>2014-09-14T14:11:26Z</time>
      </trkpt>
      <trkpt lat="42.7062" lon="1.56374">
        <ele>1547</ele>
        <time>2014-09-14T14:11:33Z</time>
      </trkpt>
      <trkpt lat="42.70634" lon="1.5637">
        <ele>1547</ele>
        <time>2014-09-14T14:11:45Z</time>
      </trkpt>
      <trkpt lat="42.70641" lon="1.56362">
        <ele>1549</ele>
        <time>2014-09-14T14:11:56Z</time>
      </trkpt>
      <trkpt lat="42.70655" lon="1.56354">
        <ele>1550</ele>
        <time>2014-09-14T14:12:08Z</time>
      </trkpt>
      <trkpt lat="42.70667" lon="1.56339">
        <ele>1550</ele>
        <time>2014-09-14T14:12:23Z</time>
      </trkpt>
      <trkpt lat="42.70668" lon="1.56332">
        <ele>1550</ele>
        <time>2014-09-14T14:12:29Z</time>
      </trkpt>
      <trkpt lat="42.70671" lon="1.56327">
        <ele>1550</ele>
        <time>2014-09-14T14:12:34Z</time>
      </trkpt>
      <trkpt lat="42.70674" lon="1.56289">
        <ele>1552</ele>
        <time>2014-09-14T14:13:03Z</time>
      </trkpt>
      <trkpt lat="42.7068" lon="1.56279">
        <ele>1551</ele>
        <time>2014-09-14T14:13:14Z</time>
      </trkpt>
      <trkpt lat="42.70687" lon="1.56288">
        <ele>1550</ele>
        <time>2014-09-14T14:13:28Z</time>
      </trkpt>
      <trkpt lat="42.70685" lon="1.56286">
        <ele>1551</ele>
        <time>2014-09-14T14:13:46Z</time>
      </trkpt>
      <trkpt lat="42.70691" lon="1.56279">
        <ele>1558</ele>
        <time>2014-09-14T14:16:25Z</time>
      </trkpt>
      <trkpt lat="42.70689" lon="1.56278">
        <ele>1558</ele>
        <time>2014-09-14T14:16:52Z</time>
      </trkpt>
      <trkpt lat="42.70668" lon="1.56267">
        <ele>1559</ele>
        <time>2014-09-14T14:17:23Z</time>
      </trkpt>
      <trkpt lat="42.70682" lon="1.56261">
        <ele>1559</ele>
        <time>2014-09-14T14:17:54Z</time>
      </trkpt>
      <trkpt lat="42.70677" lon="1.5626">
        <ele>1560</ele>
        <time>2014-09-14T14:17:59Z</time>
      </trkpt>
      <trkpt lat="42.70668" lon="1.56263">
        <ele>1560</ele>
        <time>2014-09-14T14:18:08Z</time>
      </trkpt>
      <trkpt lat="42.70653" lon="1.56261">
        <ele>1560</ele>
        <time>2014-09-14T14:18:30Z</time>
      </trkpt>
      <trkpt lat="42.70661" lon="1.56252">
        <ele>1558</ele>
        <time>2014-09-14T14:18:43Z</time>
      </trkpt>
      <trkpt lat="42.70668" lon="1.56242">
        <ele>1556</ele>
        <time>2014-09-14T14:18:56Z</time>
      </trkpt>
      <trkpt lat="42.70671" lon="1.5624">
        <ele>1555</ele>
        <time>2014-09-14T14:19:01Z</time>
      </trkpt>
      <trkpt lat="42.70672" lon="1.56234">
        <ele>1555</ele>
        <time>2014-09-14T14:19:07Z</time>
      </trkpt>
      <trkpt lat="42.70674" lon="1.56231">
        <ele>1554</ele>
        <time>2014-09-14T14:19:09Z</time>
      </trkpt>
      <trkpt lat="42.70676" lon="1.56226">
        <ele>1554</ele>
        <time>2014-09-14T14:19:14Z</time>
      </trkpt>
      <trkpt lat="42.7068" lon="1.56219">
        <ele>1553</ele>
        <time>2014-09-14T14:19:21Z</time>
      </trkpt>
      <trkpt lat="42.70684" lon="1.56214">
        <ele>1552</ele>
        <time>2014-09-14T14:19:26Z</time>
      </trkpt>
      <trkpt lat="42.70689" lon="1.56202">
        <ele>1551</ele>
        <time>2014-09-14T14:19:38Z</time>
      </trkpt>
      <trkpt lat="42.7069" lon="1.56202">
        <ele>1550</ele>
        <time>2014-09-14T14:19:39Z</time>
      </trkpt>
      <trkpt lat="42.70691" lon="1.56197">
        <ele>1550</ele>
        <time>2014-09-14T14:19:43Z</time>
      </trkpt>
      <trkpt lat="42.70695" lon="1.56192">
        <ele>1549</ele>
        <time>2014-09-14T14:19:47Z</time>
      </trkpt>
      <trkpt lat="42.70704" lon="1.56181">
        <ele>1547</ele>
        <time>2014-09-14T14:19:57Z</time>
      </trkpt>
      <trkpt lat="42.70714" lon="1.56173">
        <ele>1546</ele>
        <time>2014-09-14T14:20:08Z</time>
      </trkpt>
      <trkpt lat="42.70715" lon="1.56172">
        <ele>1546</ele>
        <time>2014-09-14T14:20:10Z</time>
      </trkpt>
      <trkpt lat="42.70726" lon="1.56167">
        <ele>1545</ele>
        <time>2014-09-14T14:20:23Z</time>
      </trkpt>
      <trkpt lat="42.70734" lon="1.56164">
        <ele>1545</ele>
        <time>2014-09-14T14:20:30Z</time>
      </trkpt>
      <trkpt lat="42.70747" lon="1.56161">
        <ele>1544</ele>
        <time>2014-09-14T14:20:43Z</time>
      </trkpt>
      <trkpt lat="42.70756" lon="1.56159">
        <ele>1543</ele>
        <time>2014-09-14T14:20:54Z</time>
      </trkpt>
      <trkpt lat="42.70765" lon="1.56156">
        <ele>1541</ele>
        <time>2014-09-14T14:21:05Z</time>
      </trkpt>
      <trkpt lat="42.70773" lon="1.56155">
        <ele>1540</ele>
        <time>2014-09-14T14:21:15Z</time>
      </trkpt>
      <trkpt lat="42.70781" lon="1.56155">
        <ele>1538</ele>
        <time>2014-09-14T14:21:21Z</time>
      </trkpt>
      <trkpt lat="42.70792" lon="1.56156">
        <ele>1537</ele>
        <time>2014-09-14T14:21:30Z</time>
      </trkpt>
      <trkpt lat="42.70794" lon="1.56153">
        <ele>1536</ele>
        <time>2014-09-14T14:21:33Z</time>
      </trkpt>
      <trkpt lat="42.70804" lon="1.56144">
        <ele>1533</ele>
        <time>2014-09-14T14:21:44Z</time>
      </trkpt>
      <trkpt lat="42.70813" lon="1.56146">
        <ele>1533</ele>
        <time>2014-09-14T14:21:50Z</time>
      </trkpt>
      <trkpt lat="42.70825" lon="1.56145">
        <ele>1532</ele>
        <time>2014-09-14T14:22:00Z</time>
      </trkpt>
      <trkpt lat="42.7083" lon="1.56137">
        <ele>1532</ele>
        <time>2014-09-14T14:22:07Z</time>
      </trkpt>
      <trkpt lat="42.70847" lon="1.56119">
        <ele>1530</ele>
        <time>2014-09-14T14:22:24Z</time>
      </trkpt>
      <trkpt lat="42.70851" lon="1.56112">
        <ele>1529</ele>
        <time>2014-09-14T14:22:31Z</time>
      </trkpt>
      <trkpt lat="42.7086" lon="1.56106">
        <ele>1528</ele>
        <time>2014-09-14T14:22:39Z</time>
      </trkpt>
      <trkpt lat="42.70877" lon="1.56098">
        <ele>1527</ele>
        <time>2014-09-14T14:22:54Z</time>
      </trkpt>
      <trkpt lat="42.70879" lon="1.56096">
        <ele>1527</ele>
        <time>2014-09-14T14:22:58Z</time>
      </trkpt>
      <trkpt lat="42.70881" lon="1.56095">
        <ele>1526</ele>
        <time>2014-09-14T14:23:00Z</time>
      </trkpt>
      <trkpt lat="42.7089" lon="1.56095">
        <ele>1526</ele>
        <time>2014-09-14T14:23:14Z</time>
      </trkpt>
      <trkpt lat="42.70893" lon="1.56094">
        <ele>1525</ele>
        <time>2014-09-14T14:23:21Z</time>
      </trkpt>
      <trkpt lat="42.70897" lon="1.5609">
        <ele>1526</ele>
        <time>2014-09-14T14:23:26Z</time>
      </trkpt>
      <trkpt lat="42.70904" lon="1.56074">
        <ele>1525</ele>
        <time>2014-09-14T14:23:38Z</time>
      </trkpt>
      <trkpt lat="42.70913" lon="1.56072">
        <ele>1525</ele>
        <time>2014-09-14T14:23:46Z</time>
      </trkpt>
      <trkpt lat="42.70919" lon="1.56064">
        <ele>1524</ele>
        <time>2014-09-14T14:23:53Z</time>
      </trkpt>
      <trkpt lat="42.70925" lon="1.56053">
        <ele>1524</ele>
        <time>2014-09-14T14:24:02Z</time>
      </trkpt>
      <trkpt lat="42.70934" lon="1.56031">
        <ele>1524</ele>
        <time>2014-09-14T14:24:16Z</time>
      </trkpt>
      <trkpt lat="42.70953" lon="1.56009">
        <ele>1522</ele>
        <time>2014-09-14T14:24:34Z</time>
      </trkpt>
      <trkpt lat="42.70965" lon="1.55993">
        <ele>1520</ele>
        <time>2014-09-14T14:24:48Z</time>
      </trkpt>
      <trkpt lat="42.70983" lon="1.5598">
        <ele>1518</ele>
        <time>2014-09-14T14:25:02Z</time>
      </trkpt>
      <trkpt lat="42.70983" lon="1.55979">
        <ele>1518</ele>
        <time>2014-09-14T14:25:03Z</time>
      </trkpt>
      <trkpt lat="42.70995" lon="1.55964">
        <ele>1517</ele>
        <time>2014-09-14T14:25:17Z</time>
      </trkpt>
      <trkpt lat="42.71001" lon="1.55956">
        <ele>1516</ele>
        <time>2014-09-14T14:25:26Z</time>
      </trkpt>
      <trkpt lat="42.71003" lon="1.55955">
        <ele>1516</ele>
        <time>2014-09-14T14:25:28Z</time>
      </trkpt>
      <trkpt lat="42.71009" lon="1.55947">
        <ele>1515</ele>
        <time>2014-09-14T14:25:39Z</time>
      </trkpt>
      <trkpt lat="42.71011" lon="1.5594">
        <ele>1515</ele>
        <time>2014-09-14T14:25:44Z</time>
      </trkpt>
      <trkpt lat="42.71013" lon="1.55929">
        <ele>1512</ele>
        <time>2014-09-14T14:25:56Z</time>
      </trkpt>
      <trkpt lat="42.71014" lon="1.5592">
        <ele>1510</ele>
        <time>2014-09-14T14:26:04Z</time>
      </trkpt>
      <trkpt lat="42.71019" lon="1.55911">
        <ele>1507</ele>
        <time>2014-09-14T14:26:16Z</time>
      </trkpt>
      <trkpt lat="42.71031" lon="1.55909">
        <ele>1506</ele>
        <time>2014-09-14T14:26:27Z</time>
      </trkpt>
      <trkpt lat="42.71035" lon="1.5591">
        <ele>1506</ele>
        <time>2014-09-14T14:26:34Z</time>
      </trkpt>
      <trkpt lat="42.71043" lon="1.55908">
        <ele>1505</ele>
        <time>2014-09-14T14:26:40Z</time>
      </trkpt>
      <trkpt lat="42.71057" lon="1.55902">
        <ele>1504</ele>
        <time>2014-09-14T14:26:54Z</time>
      </trkpt>
      <trkpt lat="42.71058" lon="1.55901">
        <ele>1504</ele>
        <time>2014-09-14T14:26:55Z</time>
      </trkpt>
      <trkpt lat="42.71067" lon="1.55889">
        <ele>1503</ele>
        <time>2014-09-14T14:27:07Z</time>
      </trkpt>
      <trkpt lat="42.71075" lon="1.55883">
        <ele>1500</ele>
        <time>2014-09-14T14:27:18Z</time>
      </trkpt>
      <trkpt lat="42.71082" lon="1.55877">
        <ele>1498</ele>
        <time>2014-09-14T14:27:27Z</time>
      </trkpt>
      <trkpt lat="42.71096" lon="1.55874">
        <ele>1496</ele>
        <time>2014-09-14T14:27:39Z</time>
      </trkpt>
      <trkpt lat="42.71106" lon="1.55866">
        <ele>1495</ele>
        <time>2014-09-14T14:27:49Z</time>
      </trkpt>
      <trkpt lat="42.7111" lon="1.55862">
        <ele>1494</ele>
        <time>2014-09-14T14:27:54Z</time>
      </trkpt>
      <trkpt lat="42.71126" lon="1.55852">
        <ele>1491</ele>
        <time>2014-09-14T14:28:10Z</time>
      </trkpt>
      <trkpt lat="42.71127" lon="1.5585">
        <ele>1491</ele>
        <time>2014-09-14T14:28:12Z</time>
      </trkpt>
      <trkpt lat="42.71138" lon="1.55839">
        <ele>1488</ele>
        <time>2014-09-14T14:28:26Z</time>
      </trkpt>
      <trkpt lat="42.7114" lon="1.55835">
        <ele>1487</ele>
        <time>2014-09-14T14:28:29Z</time>
      </trkpt>
      <trkpt lat="42.71143" lon="1.55827">
        <ele>1486</ele>
        <time>2014-09-14T14:28:34Z</time>
      </trkpt>
      <trkpt lat="42.71162" lon="1.55817">
        <ele>1484</ele>
        <time>2014-09-14T14:28:50Z</time>
      </trkpt>
      <trkpt lat="42.71168" lon="1.55817">
        <ele>1482</ele>
        <time>2014-09-14T14:28:58Z</time>
      </trkpt>
      <trkpt lat="42.71171" lon="1.55816">
        <ele>1482</ele>
        <time>2014-09-14T14:29:03Z</time>
      </trkpt>
      <trkpt lat="42.71171" lon="1.55814">
        <ele>1482</ele>
        <time>2014-09-14T14:29:04Z</time>
      </trkpt>
      <trkpt lat="42.71171" lon="1.55807">
        <ele>1480</ele>
        <time>2014-09-14T14:29:08Z</time>
      </trkpt>
      <trkpt lat="42.71172" lon="1.55806">
        <ele>1480</ele>
        <time>2014-09-14T14:29:09Z</time>
      </trkpt>
      <trkpt lat="42.71179" lon="1.55801">
        <ele>1478</ele>
        <time>2014-09-14T14:29:20Z</time>
      </trkpt>
      <trkpt lat="42.71189" lon="1.55793">
        <ele>1477</ele>
        <time>2014-09-14T14:29:31Z</time>
      </trkpt>
      <trkpt lat="42.71201" lon="1.55784">
        <ele>1475</ele>
        <time>2014-09-14T14:29:45Z</time>
      </trkpt>
      <trkpt lat="42.71209" lon="1.55785">
        <ele>1474</ele>
        <time>2014-09-14T14:29:56Z</time>
      </trkpt>
      <trkpt lat="42.71211" lon="1.55783">
        <ele>1474</ele>
        <time>2014-09-14T14:30:00Z</time>
      </trkpt>
      <trkpt lat="42.71218" lon="1.55777">
        <ele>1473</ele>
        <time>2014-09-14T14:30:12Z</time>
      </trkpt>
      <trkpt lat="42.71219" lon="1.55776">
        <ele>1474</ele>
        <time>2014-09-14T14:30:13Z</time>
      </trkpt>
      <trkpt lat="42.71226" lon="1.55773">
        <ele>1473</ele>
        <time>2014-09-14T14:30:19Z</time>
      </trkpt>
      <trkpt lat="42.71232" lon="1.55768">
        <ele>1472</ele>
        <time>2014-09-14T14:30:32Z</time>
      </trkpt>
      <trkpt lat="42.71234" lon="1.55766">
        <ele>1472</ele>
        <time>2014-09-14T14:30:34Z</time>
      </trkpt>
      <trkpt lat="42.71245" lon="1.55756">
        <ele>1469</ele>
        <time>2014-09-14T14:30:47Z</time>
      </trkpt>
      <trkpt lat="42.7125" lon="1.55751">
        <ele>1468</ele>
        <time>2014-09-14T14:30:53Z</time>
      </trkpt>
      <trkpt lat="42.71262" lon="1.55743">
        <ele>1466</ele>
        <time>2014-09-14T14:31:07Z</time>
      </trkpt>
      <trkpt lat="42.71267" lon="1.55739">
        <ele>1464</ele>
        <time>2014-09-14T14:31:14Z</time>
      </trkpt>
      <trkpt lat="42.71269" lon="1.55738">
        <ele>1463</ele>
        <time>2014-09-14T14:31:16Z</time>
      </trkpt>
      <trkpt lat="42.71272" lon="1.55733">
        <ele>1463</ele>
        <time>2014-09-14T14:31:21Z</time>
      </trkpt>
      <trkpt lat="42.71278" lon="1.55729">
        <ele>1462</ele>
        <time>2014-09-14T14:31:27Z</time>
      </trkpt>
      <trkpt lat="42.71289" lon="1.55723">
        <ele>1460</ele>
        <time>2014-09-14T14:31:40Z</time>
      </trkpt>
      <trkpt lat="42.71292" lon="1.55722">
        <ele>1461</ele>
        <time>2014-09-14T14:31:42Z</time>
      </trkpt>
      <trkpt lat="42.71301" lon="1.5572">
        <ele>1458</ele>
        <time>2014-09-14T14:31:55Z</time>
      </trkpt>
      <trkpt lat="42.7131" lon="1.55721">
        <ele>1455</ele>
        <time>2014-09-14T14:32:08Z</time>
      </trkpt>
      <trkpt lat="42.71316" lon="1.55719">
        <ele>1454</ele>
        <time>2014-09-14T14:32:15Z</time>
      </trkpt>
      <trkpt lat="42.7133" lon="1.55714">
        <ele>1452</ele>
        <time>2014-09-14T14:32:28Z</time>
      </trkpt>
      <trkpt lat="42.71336" lon="1.55714">
        <ele>1452</ele>
        <time>2014-09-14T14:32:34Z</time>
      </trkpt>
      <trkpt lat="42.71349" lon="1.5571">
        <ele>1450</ele>
        <time>2014-09-14T14:32:47Z</time>
      </trkpt>
      <trkpt lat="42.7135" lon="1.55708">
        <ele>1449</ele>
        <time>2014-09-14T14:32:50Z</time>
      </trkpt>
      <trkpt lat="42.71352" lon="1.55706">
        <ele>1449</ele>
        <time>2014-09-14T14:32:53Z</time>
      </trkpt>
      <trkpt lat="42.71363" lon="1.55698">
        <ele>1447</ele>
        <time>2014-09-14T14:33:06Z</time>
      </trkpt>
      <trkpt lat="42.71377" lon="1.55693">
        <ele>1445</ele>
        <time>2014-09-14T14:33:21Z</time>
      </trkpt>
      <trkpt lat="42.71389" lon="1.55693">
        <ele>1443</ele>
        <time>2014-09-14T14:33:33Z</time>
      </trkpt>
      <trkpt lat="42.71389" lon="1.55694">
        <ele>1441</ele>
        <time>2014-09-14T14:33:41Z</time>
      </trkpt>
      <trkpt lat="42.71388" lon="1.55693">
        <ele>1440</ele>
        <time>2014-09-14T14:33:45Z</time>
      </trkpt>
      <trkpt lat="42.71392" lon="1.55689">
        <ele>1439</ele>
        <time>2014-09-14T14:33:52Z</time>
      </trkpt>
      <trkpt lat="42.71398" lon="1.55679">
        <ele>1437</ele>
        <time>2014-09-14T14:34:05Z</time>
      </trkpt>
      <trkpt lat="42.71401" lon="1.5567">
        <ele>1435</ele>
        <time>2014-09-14T14:34:15Z</time>
      </trkpt>
      <trkpt lat="42.71402" lon="1.55668">
        <ele>1435</ele>
        <time>2014-09-14T14:34:16Z</time>
      </trkpt>
      <trkpt lat="42.71401" lon="1.55662">
        <ele>1434</ele>
        <time>2014-09-14T14:34:20Z</time>
      </trkpt>
      <trkpt lat="42.71407" lon="1.55653">
        <ele>1433</ele>
        <time>2014-09-14T14:34:30Z</time>
      </trkpt>
      <trkpt lat="42.7141" lon="1.5565">
        <ele>1432</ele>
        <time>2014-09-14T14:34:33Z</time>
      </trkpt>
      <trkpt lat="42.71412" lon="1.55645">
        <ele>1432</ele>
        <time>2014-09-14T14:34:41Z</time>
      </trkpt>
      <trkpt lat="42.71414" lon="1.55643">
        <ele>1431</ele>
        <time>2014-09-14T14:34:44Z</time>
      </trkpt>
      <trkpt lat="42.71433" lon="1.55636">
        <ele>1429</ele>
        <time>2014-09-14T14:34:59Z</time>
      </trkpt>
      <trkpt lat="42.71441" lon="1.55632">
        <ele>1428</ele>
        <time>2014-09-14T14:35:06Z</time>
      </trkpt>
      <trkpt lat="42.71445" lon="1.5563">
        <ele>1427</ele>
        <time>2014-09-14T14:35:10Z</time>
      </trkpt>
      <trkpt lat="42.7145" lon="1.55624">
        <ele>1426</ele>
        <time>2014-09-14T14:35:18Z</time>
      </trkpt>
      <trkpt lat="42.71453" lon="1.55622">
        <ele>1425</ele>
        <time>2014-09-14T14:35:21Z</time>
      </trkpt>
      <trkpt lat="42.71461" lon="1.55614">
        <ele>1422</ele>
        <time>2014-09-14T14:35:33Z</time>
      </trkpt>
      <trkpt lat="42.71463" lon="1.55611">
        <ele>1422</ele>
        <time>2014-09-14T14:35:37Z</time>
      </trkpt>
      <trkpt lat="42.71467" lon="1.55607">
        <ele>1421</ele>
        <time>2014-09-14T14:35:42Z</time>
      </trkpt>
      <trkpt lat="42.71473" lon="1.55606">
        <ele>1420</ele>
        <time>2014-09-14T14:35:49Z</time>
      </trkpt>
      <trkpt lat="42.71479" lon="1.55607">
        <ele>1419</ele>
        <time>2014-09-14T14:36:01Z</time>
      </trkpt>
      <trkpt lat="42.71485" lon="1.55606">
        <ele>1417</ele>
        <time>2014-09-14T14:36:12Z</time>
      </trkpt>
      <trkpt lat="42.71486" lon="1.55605">
        <ele>1417</ele>
        <time>2014-09-14T14:36:14Z</time>
      </trkpt>
      <trkpt lat="42.71499" lon="1.55608">
        <ele>1414</ele>
        <time>2014-09-14T14:36:27Z</time>
      </trkpt>
      <trkpt lat="42.71502" lon="1.55609">
        <ele>1413</ele>
        <time>2014-09-14T14:36:30Z</time>
      </trkpt>
      <trkpt lat="42.71507" lon="1.55609">
        <ele>1412</ele>
        <time>2014-09-14T14:36:35Z</time>
      </trkpt>
      <trkpt lat="42.71519" lon="1.55609">
        <ele>1408</ele>
        <time>2014-09-14T14:36:49Z</time>
      </trkpt>
      <trkpt lat="42.71526" lon="1.55607">
        <ele>1408</ele>
        <time>2014-09-14T14:36:57Z</time>
      </trkpt>
      <trkpt lat="42.71534" lon="1.55601">
        <ele>1405</ele>
        <time>2014-09-14T14:37:09Z</time>
      </trkpt>
      <trkpt lat="42.71541" lon="1.55599">
        <ele>1402</ele>
        <time>2014-09-14T14:37:22Z</time>
      </trkpt>
      <trkpt lat="42.71548" lon="1.55593">
        <ele>1398</ele>
        <time>2014-09-14T14:37:33Z</time>
      </trkpt>
      <trkpt lat="42.71552" lon="1.5559">
        <ele>1397</ele>
        <time>2014-09-14T14:37:38Z</time>
      </trkpt>
      <trkpt lat="42.7156" lon="1.55583">
        <ele>1395</ele>
        <time>2014-09-14T14:37:50Z</time>
      </trkpt>
      <trkpt lat="42.71562" lon="1.55581">
        <ele>1393</ele>
        <time>2014-09-14T14:37:54Z</time>
      </trkpt>
      <trkpt lat="42.71565" lon="1.55579">
        <ele>1392</ele>
        <time>2014-09-14T14:37:57Z</time>
      </trkpt>
      <trkpt lat="42.71572" lon="1.55575">
        <ele>1391</ele>
        <time>2014-09-14T14:38:08Z</time>
      </trkpt>
      <trkpt lat="42.71573" lon="1.55572">
        <ele>1392</ele>
        <time>2014-09-14T14:38:16Z</time>
      </trkpt>
      <trkpt lat="42.71587" lon="1.55562">
        <ele>1389</ele>
        <time>2014-09-14T14:38:31Z</time>
      </trkpt>
      <trkpt lat="42.71595" lon="1.55557">
        <ele>1386</ele>
        <time>2014-09-14T14:38:40Z</time>
      </trkpt>
      <trkpt lat="42.71604" lon="1.55546">
        <ele>1383</ele>
        <time>2014-09-14T14:38:52Z</time>
      </trkpt>
      <trkpt lat="42.71608" lon="1.55537">
        <ele>1380</ele>
        <time>2014-09-14T14:39:02Z</time>
      </trkpt>
      <trkpt lat="42.71608" lon="1.55536">
        <ele>1380</ele>
        <time>2014-09-14T14:39:03Z</time>
      </trkpt>
      <trkpt lat="42.71613" lon="1.55526">
        <ele>1379</ele>
        <time>2014-09-14T14:39:15Z</time>
      </trkpt>
      <trkpt lat="42.71616" lon="1.55518">
        <ele>1376</ele>
        <time>2014-09-14T14:39:27Z</time>
      </trkpt>
      <trkpt lat="42.71621" lon="1.55514">
        <ele>1373</ele>
        <time>2014-09-14T14:39:38Z</time>
      </trkpt>
      <trkpt lat="42.71623" lon="1.55522">
        <ele>1370</ele>
        <time>2014-09-14T14:39:49Z</time>
      </trkpt>
      <trkpt lat="42.71627" lon="1.55532">
        <ele>1368</ele>
        <time>2014-09-14T14:40:01Z</time>
      </trkpt>
      <trkpt lat="42.7163" lon="1.55539">
        <ele>1366</ele>
        <time>2014-09-14T14:40:08Z</time>
      </trkpt>
      <trkpt lat="42.71629" lon="1.55543">
        <ele>1366</ele>
        <time>2014-09-14T14:40:11Z</time>
      </trkpt>
      <trkpt lat="42.71627" lon="1.55536">
        <ele>1364</ele>
        <time>2014-09-14T14:40:23Z</time>
      </trkpt>
      <trkpt lat="42.71627" lon="1.55535">
        <ele>1364</ele>
        <time>2014-09-14T14:40:24Z</time>
      </trkpt>
      <trkpt lat="42.71623" lon="1.55529">
        <ele>1363</ele>
        <time>2014-09-14T14:40:29Z</time>
      </trkpt>
      <trkpt lat="42.71625" lon="1.55516">
        <ele>1362</ele>
        <time>2014-09-14T14:40:39Z</time>
      </trkpt>
      <trkpt lat="42.71627" lon="1.55504">
        <ele>1361</ele>
        <time>2014-09-14T14:40:50Z</time>
      </trkpt>
      <trkpt lat="42.71626" lon="1.55495">
        <ele>1360</ele>
        <time>2014-09-14T14:40:57Z</time>
      </trkpt>
      <trkpt lat="42.71629" lon="1.55485">
        <ele>1358</ele>
        <time>2014-09-14T14:41:04Z</time>
      </trkpt>
      <trkpt lat="42.71634" lon="1.55471">
        <ele>1357</ele>
        <time>2014-09-14T14:41:18Z</time>
      </trkpt>
      <trkpt lat="42.71637" lon="1.55467">
        <ele>1354</ele>
        <time>2014-09-14T14:41:32Z</time>
      </trkpt>
      <trkpt lat="42.7164" lon="1.55478">
        <ele>1352</ele>
        <time>2014-09-14T14:41:46Z</time>
      </trkpt>
      <trkpt lat="42.71638" lon="1.55489">
        <ele>1349</ele>
        <time>2014-09-14T14:41:59Z</time>
      </trkpt>
      <trkpt lat="42.71641" lon="1.555">
        <ele>1348</ele>
        <time>2014-09-14T14:42:11Z</time>
      </trkpt>
      <trkpt lat="42.71643" lon="1.55513">
        <ele>1346</ele>
        <time>2014-09-14T14:42:24Z</time>
      </trkpt>
      <trkpt lat="42.71637" lon="1.55517">
        <ele>1344</ele>
        <time>2014-09-14T14:42:36Z</time>
      </trkpt>
      <trkpt lat="42.71638" lon="1.55515">
        <ele>1343</ele>
        <time>2014-09-14T14:42:40Z</time>
      </trkpt>
      <trkpt lat="42.71636" lon="1.55503">
        <ele>1341</ele>
        <time>2014-09-14T14:42:51Z</time>
      </trkpt>
      <trkpt lat="42.71636" lon="1.55502">
        <ele>1341</ele>
        <time>2014-09-14T14:42:52Z</time>
      </trkpt>
      <trkpt lat="42.71635" lon="1.5549">
        <ele>1338</ele>
        <time>2014-09-14T14:43:05Z</time>
      </trkpt>
      <trkpt lat="42.7164" lon="1.5548">
        <ele>1335</ele>
        <time>2014-09-14T14:43:18Z</time>
      </trkpt>
      <trkpt lat="42.71641" lon="1.55476">
        <ele>1334</ele>
        <time>2014-09-14T14:43:23Z</time>
      </trkpt>
      <trkpt lat="42.71646" lon="1.5547">
        <ele>1333</ele>
        <time>2014-09-14T14:43:34Z</time>
      </trkpt>
      <trkpt lat="42.71647" lon="1.55464">
        <ele>1331</ele>
        <time>2014-09-14T14:43:42Z</time>
      </trkpt>
      <trkpt lat="42.71649" lon="1.55457">
        <ele>1328</ele>
        <time>2014-09-14T14:43:53Z</time>
      </trkpt>
      <trkpt lat="42.71651" lon="1.55454">
        <ele>1328</ele>
        <time>2014-09-14T14:43:59Z</time>
      </trkpt>
      <trkpt lat="42.71652" lon="1.55453">
        <ele>1327</ele>
        <time>2014-09-14T14:44:01Z</time>
      </trkpt>
      <trkpt lat="42.71658" lon="1.55449">
        <ele>1325</ele>
        <time>2014-09-14T14:44:12Z</time>
      </trkpt>
      <trkpt lat="42.71661" lon="1.55443">
        <ele>1324</ele>
        <time>2014-09-14T14:44:22Z</time>
      </trkpt>
      <trkpt lat="42.71663" lon="1.5544">
        <ele>1323</ele>
        <time>2014-09-14T14:44:25Z</time>
      </trkpt>
      <trkpt lat="42.71667" lon="1.55432">
        <ele>1321</ele>
        <time>2014-09-14T14:44:35Z</time>
      </trkpt>
      <trkpt lat="42.71669" lon="1.55431">
        <ele>1320</ele>
        <time>2014-09-14T14:44:37Z</time>
      </trkpt>
      <trkpt lat="42.71669" lon="1.55431">
        <ele>1319</ele>
        <time>2014-09-14T14:44:38Z</time>
      </trkpt>
      <trkpt lat="42.71671" lon="1.5543">
        <ele>1319</ele>
        <time>2014-09-14T14:44:40Z</time>
      </trkpt>
      <trkpt lat="42.71674" lon="1.55427">
        <ele>1317</ele>
        <time>2014-09-14T14:44:50Z</time>
      </trkpt>
      <trkpt lat="42.71679" lon="1.55425">
        <ele>1315</ele>
        <time>2014-09-14T14:44:54Z</time>
      </trkpt>
      <trkpt lat="42.71684" lon="1.5542">
        <ele>1313</ele>
        <time>2014-09-14T14:45:05Z</time>
      </trkpt>
      <trkpt lat="42.71691" lon="1.55415">
        <ele>1311</ele>
        <time>2014-09-14T14:45:11Z</time>
      </trkpt>
      <trkpt lat="42.71693" lon="1.55413">
        <ele>1311</ele>
        <time>2014-09-14T14:45:13Z</time>
      </trkpt>
      <trkpt lat="42.71696" lon="1.55409">
        <ele>1310</ele>
        <time>2014-09-14T14:45:16Z</time>
      </trkpt>
      <trkpt lat="42.71697" lon="1.55407">
        <ele>1308</ele>
        <time>2014-09-14T14:45:17Z</time>
      </trkpt>
      <trkpt lat="42.71701" lon="1.55405">
        <ele>1308</ele>
        <time>2014-09-14T14:45:23Z</time>
      </trkpt>
      <trkpt lat="42.71703" lon="1.55409">
        <ele>1307</ele>
        <time>2014-09-14T14:45:28Z</time>
      </trkpt>
      <trkpt lat="42.71706" lon="1.5542">
        <ele>1307</ele>
        <time>2014-09-14T14:45:40Z</time>
      </trkpt>
      <trkpt lat="42.71711" lon="1.55423">
        <ele>1306</ele>
        <time>2014-09-14T14:45:51Z</time>
      </trkpt>
      <trkpt lat="42.71718" lon="1.55428">
        <ele>1303</ele>
        <time>2014-09-14T14:46:01Z</time>
      </trkpt>
      <trkpt lat="42.71724" lon="1.55431">
        <ele>1300</ele>
        <time>2014-09-14T14:46:13Z</time>
      </trkpt>
      <trkpt lat="42.71731" lon="1.55438">
        <ele>1297</ele>
        <time>2014-09-14T14:46:24Z</time>
      </trkpt>
      <trkpt lat="42.71738" lon="1.55446">
        <ele>1294</ele>
        <time>2014-09-14T14:46:36Z</time>
      </trkpt>
      <trkpt lat="42.71747" lon="1.55453">
        <ele>1292</ele>
        <time>2014-09-14T14:46:45Z</time>
      </trkpt>
      <trkpt lat="42.71752" lon="1.55457">
        <ele>1290</ele>
        <time>2014-09-14T14:46:50Z</time>
      </trkpt>
      <trkpt lat="42.71771" lon="1.55466">
        <ele>1288</ele>
        <time>2014-09-14T14:47:01Z</time>
      </trkpt>
      <trkpt lat="42.71786" lon="1.55474">
        <ele>1286</ele>
        <time>2014-09-14T14:47:12Z</time>
      </trkpt>
      <trkpt lat="42.71794" lon="1.55483">
        <ele>1284</ele>
        <time>2014-09-14T14:47:22Z</time>
      </trkpt>
      <trkpt lat="42.71802" lon="1.55488">
        <ele>1282</ele>
        <time>2014-09-14T14:47:33Z</time>
      </trkpt>
      <trkpt lat="42.71807" lon="1.55492">
        <ele>1279</ele>
        <time>2014-09-14T14:47:45Z</time>
      </trkpt>
      <trkpt lat="42.71807" lon="1.55493">
        <ele>1278</ele>
        <time>2014-09-14T14:47:49Z</time>
      </trkpt>
      <trkpt lat="42.71808" lon="1.55496">
        <ele>1286</ele>
      </trkpt>
      <trkpt lat="42.71851" lon="1.55505">
        <ele>1282</ele>
      </trkpt>
      <trkpt lat="42.71913" lon="1.55476">
        <ele>1261</ele>
      </trkpt>
      <trkpt lat="42.71969" lon="1.55466">
        <ele>1242</ele>
      </trkpt>
      <trkpt lat="42.72124" lon="1.55406">
        <ele>1197</ele>
      </trkpt>
      <trkpt lat="42.72177" lon="1.55366">
        <ele>1197</ele>
      </trkpt>
      <trkpt lat="42.72173" lon="1.55357">
        <ele>1194</ele>
      </trkpt>
      <trkpt lat="42.72191" lon="1.55335">
        <ele>1193</ele>
      </trkpt>
      <trkpt lat="42.72179" lon="1.55327">
        <ele>1181</ele>
      </trkpt>
      <trkpt lat="42.72215" lon="1.5528">
        <ele>1176</ele>
      </trkpt>
      <trkpt lat="42.72259" lon="1.55237">
        <ele>1142</ele>
      </trkpt>
      <trkpt lat="42.72313" lon="1.55203">
        <ele>1141</ele>
      </trkpt>
      <trkpt lat="42.72329" lon="1.55175">
        <ele>1128</ele>
      </trkpt>
      <trkpt lat="42.72362" lon="1.55138">
        <ele>1126</ele>
      </trkpt>
      <trkpt lat="42.72384" lon="1.55077">
        <ele>1106</ele>
      </trkpt>
      <trkpt lat="42.72357" lon="1.5508">
        <ele>1103</ele>
      </trkpt>
      <trkpt lat="42.72386" lon="1.55047">
        <ele>1102</ele>
      </trkpt>
      <trkpt lat="42.72399" lon="1.55004">
        <ele>1090</ele>
      </trkpt>
      <trkpt lat="42.72444" lon="1.54964">
        <ele>1063</ele>
      </trkpt>
      <trkpt lat="42.72468" lon="1.54951">
        <ele>1058</ele>
      </trkpt>
      <trkpt lat="42.7263" lon="1.54946">
        <ele>1026</ele>
      </trkpt>
      <trkpt lat="42.72691" lon="1.54948">
        <ele>1013</ele>
      </trkpt>
      <trkpt lat="42.72715" lon="1.54939">
        <ele>1009</ele>
      </trkpt>
      <trkpt lat="42.72794" lon="1.54944">
        <ele>999</ele>
      </trkpt>
      <trkpt lat="42.72828" lon="1.54937">
        <ele>995</ele>
      </trkpt>
      <trkpt lat="42.72866" lon="1.54912">
        <ele>974</ele>
      </trkpt>
      <trkpt lat="42.72901" lon="1.54899">
        <ele>970</ele>
      </trkpt>
      <trkpt lat="42.72933" lon="1.54908">
        <ele>962</ele>
      </trkpt>
      <trkpt lat="42.72935" lon="1.54911">
        <ele>989</ele>
        <time>2014-09-14T15:14:47Z</time>
      </trkpt>
      <trkpt lat="42.72936" lon="1.54914">
        <ele>988</ele>
        <time>2014-09-14T15:14:49Z</time>
      </trkpt>
      <trkpt lat="42.7294" lon="1.54921">
        <ele>987</ele>
        <time>2014-09-14T15:14:57Z</time>
      </trkpt>
      <trkpt lat="42.72948" lon="1.5493">
        <ele>985</ele>
        <time>2014-09-14T15:15:11Z</time>
      </trkpt>
      <trkpt lat="42.72952" lon="1.54935">
        <ele>983</ele>
        <time>2014-09-14T15:15:16Z</time>
      </trkpt>
      <trkpt lat="42.72962" lon="1.54954">
        <ele>981</ele>
        <time>2014-09-14T15:15:30Z</time>
      </trkpt>
      <trkpt lat="42.72971" lon="1.5496">
        <ele>978</ele>
        <time>2014-09-14T15:15:40Z</time>
      </trkpt>
      <trkpt lat="42.72979" lon="1.54972">
        <ele>976</ele>
        <time>2014-09-14T15:15:50Z</time>
      </trkpt>
      <trkpt lat="42.72989" lon="1.54983">
        <ele>973</ele>
        <time>2014-09-14T15:16:01Z</time>
      </trkpt>
      <trkpt lat="42.72995" lon="1.54987">
        <ele>971</ele>
        <time>2014-09-14T15:16:13Z</time>
      </trkpt>
      <trkpt lat="42.72997" lon="1.54984">
        <ele>969</ele>
        <time>2014-09-14T15:16:20Z</time>
      </trkpt>
      <trkpt lat="42.72996" lon="1.54973">
        <ele>966</ele>
        <time>2014-09-14T15:16:32Z</time>
      </trkpt>
      <trkpt lat="42.73001" lon="1.54968">
        <ele>963</ele>
        <time>2014-09-14T15:16:41Z</time>
      </trkpt>
      <trkpt lat="42.73007" lon="1.5496">
        <ele>961</ele>
        <time>2014-09-14T15:16:50Z</time>
      </trkpt>
      <trkpt lat="42.73015" lon="1.54963">
        <ele>960</ele>
        <time>2014-09-14T15:16:55Z</time>
      </trkpt>
      <trkpt lat="42.73025" lon="1.54963">
        <ele>960</ele>
        <time>2014-09-14T15:17:04Z</time>
      </trkpt>
      <trkpt lat="42.73026" lon="1.54965">
        <ele>960</ele>
        <time>2014-09-14T15:17:06Z</time>
      </trkpt>
      <trkpt lat="42.73029" lon="1.5497">
        <ele>959</ele>
        <time>2014-09-14T15:17:16Z</time>
      </trkpt>
      <trkpt lat="42.73033" lon="1.54965">
        <ele>957</ele>
        <time>2014-09-14T15:17:22Z</time>
      </trkpt>
      <trkpt lat="42.73043" lon="1.54958">
        <ele>956</ele>
        <time>2014-09-14T15:17:36Z</time>
      </trkpt>
      <trkpt lat="42.73045" lon="1.5496">
        <ele>956</ele>
        <time>2014-09-14T15:17:48Z</time>
      </trkpt>
      <trkpt lat="42.73045" lon="1.5496">
        <ele>956</ele>
        <time>2014-09-14T15:18:00Z</time>
      </trkpt>
      <trkpt lat="42.73047" lon="1.54956">
        <ele>955</ele>
        <time>2014-09-14T15:18:13Z</time>
      </trkpt>
      <trkpt lat="42.73043" lon="1.54959">
        <ele>954</ele>
        <time>2014-09-14T15:18:28Z</time>
      </trkpt>
      <trkpt lat="42.73046" lon="1.54958">
        <ele>953</ele>
        <time>2014-09-14T15:19:05Z</time>
      </trkpt>
    </trkseg>
  </trk>
</gpx>